GFSNW_sfc_wetblb_000.txt.gz
Wetbulb
53.30 52.87 52.93 52.23 51.66 50.22 49.25 46.53 40.60 52.59 56.27 46.45 47.09 44.12 46.02 45.54 46.33 47.46 46.33 47.75 47.21 47.17 48.68 48.54 48.92 48.77 51.19 54.51 55.15 52.79 55.44 53.12 48.80 48.69 52.79 53.32 53.56 52.80 54.21 50.11 50.79 52.34 51.30 50.85
52.68 52.43 52.31 51.82 51.03 50.31 48.20 43.36 43.49 51.81 51.10 39.39 41.34 46.23 45.31 46.61 45.97 46.11 46.10 45.10 47.11 48.77 47.75 46.72 48.67 49.49 52.07 52.72 53.83 53.78 55.43 51.89 47.90 48.94 50.13 52.14 50.45 52.19 53.87 54.43 54.47 53.50 48.96 50.96
52.23 52.27 51.87 51.34 50.85 50.76 48.69 43.86 39.26 45.09 49.01 47.09 43.99 43.31 43.27 43.71 47.64 46.80 47.80 47.59 48.72 46.65 46.84 49.47 47.95 49.13 51.17 53.70 53.44 60.04 58.85 52.47 50.30 47.13 49.54 51.16 48.95 49.81 51.71 52.07 50.79 51.52 51.58 53.67
51.85 51.70 51.89 51.26 50.86 50.64 48.05 44.13 40.90 44.47 39.55 44.55 44.98 45.50 44.37 41.86 42.63 47.21 49.02 47.17 47.93 47.24 45.54 47.18 47.65 49.88 51.60 53.89 57.71 57.06 58.15 53.00 53.52 52.29 52.35 52.28 51.11 49.87 50.00 49.72 51.19 50.75 53.01 53.33
51.64 51.58 51.76 51.52 50.59 50.02 44.63 40.24 41.35 43.71 40.31 41.47 40.61 40.44 41.09 41.68 42.97 45.13 45.33 46.16 46.82 47.97 46.88 48.03 47.03 49.08 50.34 49.96 54.33 53.98 56.19 52.91 54.31 52.01 53.17 52.73 50.64 51.54 50.78 50.39 50.91 51.56 52.42 53.27
51.18 51.12 51.13 51.33 50.46 49.08 44.01 45.50 45.60 40.23 38.74 37.62 37.53 39.02 40.85 40.84 43.75 45.61 46.82 46.77 46.20 45.87 48.62 51.39 53.12 53.95 54.28 54.66 53.31 53.66 54.78 54.14 53.53 50.12 53.34 52.39 49.46 52.24 51.93 51.26 52.12 52.29 50.14 54.17
51.09 50.90 50.78 50.90 50.90 49.65 47.83 45.98 44.10 37.01 35.26 38.41 37.21 39.21 40.79 40.44 41.55 41.12 44.85 46.31 43.89 48.16 50.92 50.89 52.04 52.33 52.86 53.39 54.03 55.74 54.58 55.39 54.43 50.62 52.48 44.91 52.40 56.58 55.20 52.76 52.37 54.05 55.17 56.82
51.14 51.03 50.82 50.88 50.89 50.00 47.63 48.02 42.53 38.90 33.72 38.10 37.61 38.11 39.16 42.02 42.81 42.12 42.26 44.49 47.56 49.91 46.81 44.86 45.77 47.41 49.66 50.85 52.90 54.15 56.47 54.77 51.91 48.49 48.75 51.60 53.26 56.12 53.83 52.47 51.95 54.56 55.92 57.83
51.22 51.03 50.86 50.86 50.97 50.55 48.78 47.90 48.16 41.91 36.55 37.51 40.48 38.49 39.61 39.19 39.79 41.06 42.53 46.47 49.37 48.07 44.43 45.62 42.81 42.40 46.14 45.98 49.83 55.77 56.17 56.37 52.67 51.06 46.62 44.89 54.27 57.73 59.99 59.84 52.08 56.86 56.87 58.10
50.80 50.63 50.73 50.61 50.42 50.48 48.60 48.07 49.62 44.35 38.24 42.06 42.51 38.75 39.14 43.17 42.33 41.20 42.47 41.61 43.48 49.32 47.02 44.37 44.62 44.48 49.78 45.49 47.52 49.84 51.98 53.06 49.56 49.91 48.68 51.52 57.09 58.17 60.22 51.00 53.20 58.15 61.14 61.94
50.48 50.56 50.41 50.44 49.84 49.67 48.46 46.91 49.47 44.19 39.42 40.33 44.22 44.57 40.17 39.78 41.91 39.60 43.03 41.13 43.69 44.25 45.24 46.23 46.80 47.32 49.40 48.97 52.48 52.34 51.29 50.11 49.34 50.84 48.49 46.52 57.87 58.37 54.90 59.46 62.60 62.86 63.36 64.27
50.29 50.18 50.07 49.67 49.39 48.59 49.00 44.57 51.14 51.45 42.64 40.66 47.28 47.38 47.98 46.58 45.42 42.77 43.28 41.43 41.37 43.28 44.13 48.10 49.67 49.67 52.82 50.65 46.91 56.01 50.42 53.76 51.63 52.46 52.13 57.05 58.45 57.54 61.06 63.23 62.54 63.17 64.02 64.60
50.09 49.73 49.67 49.39 48.86 48.80 48.95 46.70 49.08 47.19 42.25 42.11 44.01 44.20 48.63 50.04 48.61 50.04 41.54 43.32 44.64 46.16 48.17 44.79 47.35 46.84 53.54 49.51 51.32 53.49 55.63 58.22 54.58 54.53 55.36 56.60 57.25 59.13 60.84 61.88 62.09 63.41 64.32 64.24
49.22 49.07 49.24 49.27 48.89 48.76 48.70 46.81 49.03 46.64 42.58 36.81 41.84 49.47 47.08 49.98 50.57 48.23 48.46 46.82 47.78 47.36 47.37 46.36 45.55 47.24 54.52 52.91 54.49 54.81 54.80 56.41 55.26 54.52 55.41 56.51 57.11 57.31 58.60 59.11 61.23 62.39 63.28 63.52
48.53 48.57 49.17 48.98 49.09 49.06 50.42 50.07 49.46 49.32 42.90 37.50 39.61 45.13 49.69 50.48 48.42 48.21 48.04 46.62 43.54 43.21 42.59 46.01 45.19 50.20 51.11 55.39 54.12 48.33 49.85 52.24 54.22 52.18 55.55 54.35 51.24 54.47 56.44 56.71 58.27 60.13 60.54 60.21
48.99 49.09 49.39 48.72 49.13 49.03 48.05 42.86 47.34 49.43 47.82 39.78 37.34 46.90 47.31 50.13 49.73 47.53 46.91 47.53 45.43 45.13 45.37 47.22 46.33 50.97 51.29 48.09 44.98 47.59 51.18 54.93 56.41 55.90 55.87 52.46 52.04 52.91 55.09 54.45 55.89 57.02 57.37 59.56
49.10 49.17 49.27 49.10 49.25 48.77 44.60 41.68 46.55 47.47 49.05 39.37 36.79 42.58 49.34 50.24 49.75 49.12 48.05 48.99 48.09 47.48 47.67 45.79 47.20 50.27 51.41 45.66 42.72 48.23 51.63 54.02 55.11 55.50 53.48 50.31 52.33 50.52 53.47 55.04 55.98 55.85 57.24 57.91
48.60 48.91 49.20 49.51 49.79 49.29 45.97 49.84 48.76 48.95 44.40 42.13 36.52 40.29 45.20 50.59 47.61 45.99 49.34 46.38 46.22 48.50 48.62 46.50 47.74 50.23 49.35 43.14 47.38 49.61 50.84 51.64 50.62 51.31 52.73 52.62 52.84 53.17 54.07 55.49 55.88 54.27 53.81 55.56
49.41 49.41 48.78 49.45 47.53 44.09 47.39 49.27 50.33 49.06 42.69 38.00 39.30 37.87 39.32 51.43 48.83 49.23 47.82 47.91 42.77 49.81 46.89 49.52 49.54 45.28 42.74 45.87 47.46 48.77 50.43 50.05 50.52 51.23 51.30 51.92 52.41 53.11 52.48 53.20 55.05 55.48 55.74 56.79
49.39 48.93 46.73 43.33 48.38 50.52 50.89 47.72 44.10 43.55 42.72 42.33 39.85 45.54 41.61 46.65 49.25 46.57 46.58 47.96 43.61 41.66 48.09 51.31 45.21 43.69 47.86 49.20 50.38 50.54 50.10 51.93 51.99 48.36 47.52 49.27 50.86 51.70 52.35 53.01 54.25 54.85 55.85 56.52
47.79 44.48 43.91 49.72 51.31 49.68 47.17 42.27 40.49 42.21 39.95 44.15 45.10 45.53 43.30 50.40 45.13 46.84 50.95 47.00 46.59 40.09 46.11 44.72 42.56 40.02 46.61 50.23 50.34 51.95 52.71 52.79 53.40 53.98 53.63 53.12 53.72 53.40 54.31 53.95 55.43 56.54 57.32 57.52
47.28 46.61 48.14 49.29 47.53 45.15 39.79 39.80 42.17 40.02 40.43 46.85 44.87 44.99 46.09 46.64 49.67 47.76 50.16 46.53 47.78 41.35 50.23 45.92 37.57 42.97 48.38 50.11 51.30 52.80 53.93 53.57 54.06 53.94 53.07 53.76 54.24 55.07 54.49 54.52 54.46 55.95 57.60 58.06
50.68 46.37 43.26 43.12 43.61 36.32 36.65 35.37 39.01 40.44 44.39 47.59 47.29 45.51 46.88 48.99 50.07 48.75 49.24 44.06 44.15 49.37 44.56 42.61 43.41 48.05 50.07 51.46 51.83 52.85 54.07 53.78 53.54 53.16 53.62 54.16 54.79 55.81 55.65 54.87 56.09 56.35 55.86 57.52
43.36 40.22 34.47 34.74 35.28 38.23 39.76 40.78 42.44 47.01 47.81 47.77 48.33 47.71 45.92 49.94 47.39 48.41 43.59 47.84 49.84 42.66 39.44 40.22 46.32 49.40 51.31 52.03 52.30 52.38 52.21 52.61 52.90 53.56 53.81 53.75 54.62 55.37 56.54 57.18 56.96 56.88 57.24 58.85
40.16 37.58 32.48 36.46 40.78 43.88 45.87 47.49 47.78 49.20 50.02 49.39 49.37 48.17 48.32 46.89 46.11 47.29 46.63 42.84 39.81 39.88 38.95 45.08 50.85 51.89 53.16 53.05 53.35 53.51 53.84 54.13 53.66 54.33 54.43 54.53 54.97 55.06 55.82 57.64 58.75 58.59 58.69 59.19
45.02 42.83 40.50 43.99 43.23 43.45 45.36 46.01 47.09 50.51 49.61 51.42 49.20 44.99 43.65 43.71 45.15 42.23 41.44 39.48 36.19 41.11 45.11 49.15 52.35 53.72 53.97 54.92 55.10 55.19 55.69 55.73 55.39 55.57 55.65 55.71 55.88 55.95 56.23 57.31 57.90 58.69 59.15 58.94
44.04 43.59 47.16 46.11 45.52 44.37 45.04 46.94 47.54 50.98 49.71 45.90 46.87 42.18 41.19 46.77 41.13 38.36 41.06 36.56 39.01 47.16 50.05 53.33 54.23 54.55 55.27 56.24 56.35 56.22 56.58 56.62 56.34 56.54 56.78 57.10 57.24 57.14 56.61 56.00 57.41 57.76 58.59 59.14

GFSNW_sfc_wetblb_003.txt.gz
Wetbulb
53.75 53.40 53.70 52.95 52.07 50.79 49.70 49.32 44.09 54.69 57.11 47.64 48.21 45.56 47.42 47.39 48.71 50.66 48.31 48.34 48.76 49.67 50.54 49.98 50.32 50.34 52.86 55.56 55.58 53.09 55.33 53.22 50.54 51.82 54.81 55.02 53.30 51.90 52.40 51.27 51.63 52.35 52.46 52.23
53.09 52.94 53.09 52.47 51.36 51.10 49.54 45.57 47.34 53.78 51.90 40.40 42.69 46.28 46.66 48.53 48.06 48.68 48.19 46.88 47.97 49.16 48.46 47.86 50.63 51.62 54.47 54.78 55.05 54.58 55.35 51.92 48.81 50.42 52.79 54.17 51.78 52.52 53.02 53.31 54.78 54.11 50.26 51.91
52.29 52.55 52.51 51.98 51.20 51.30 49.25 45.24 42.09 47.85 48.71 47.48 44.04 43.10 44.15 44.12 48.62 47.83 48.42 47.94 49.06 47.37 46.66 49.64 48.52 50.02 52.98 54.54 53.94 60.06 59.62 53.94 51.55 48.69 51.15 52.59 50.25 50.90 51.89 51.96 50.42 51.81 51.81 54.38
52.00 52.16 52.30 51.68 51.25 50.84 47.33 44.33 42.80 45.74 41.51 43.55 42.91 43.53 43.58 42.32 42.77 48.08 48.85 47.09 46.91 46.79 45.54 46.29 46.65 49.96 52.16 53.24 57.57 55.38 55.91 52.21 53.53 53.24 53.81 53.70 51.87 50.33 50.74 50.09 52.03 50.63 53.22 53.99
51.86 51.86 52.03 51.76 51.06 50.29 44.14 42.38 42.18 45.28 43.00 44.48 41.49 40.06 40.74 39.75 42.14 43.16 42.50 43.81 46.45 47.72 46.20 48.06 46.42 49.06 51.11 51.80 54.03 54.60 56.15 53.15 54.54 51.58 53.04 52.65 51.27 52.48 51.40 51.12 51.12 51.80 52.74 53.32
51.80 51.84 51.59 51.55 50.69 49.46 44.84 46.53 47.98 44.26 40.44 41.43 40.71 40.16 40.00 41.40 42.45 42.95 44.91 45.02 43.52 45.88 48.44 49.97 51.60 52.74 53.90 53.58 53.81 54.04 55.35 54.53 53.95 50.72 54.01 53.54 49.95 52.17 52.74 53.36 53.61 52.30 49.96 54.07
51.65 51.67 51.46 51.36 51.24 50.10 48.39 46.24 44.35 40.23 37.60 39.55 39.35 40.48 40.36 40.08 41.72 41.95 44.31 44.98 43.18 48.03 50.92 51.69 52.16 51.93 52.94 53.13 53.84 54.46 53.62 53.98 53.18 50.39 53.21 45.36 53.80 58.18 56.54 54.29 54.89 55.40 54.84 55.62
51.26 51.21 51.57 51.36 51.27 51.07 49.90 48.63 42.43 39.01 35.82 38.71 40.38 40.87 40.60 41.60 43.14 42.81 41.84 43.37 46.53 48.50 47.55 45.39 45.07 45.58 46.37 48.04 50.71 53.56 56.28 54.48 50.94 49.27 49.61 52.43 54.09 57.12 56.96 56.90 56.21 57.68 56.71 56.56
51.15 51.07 51.42 51.19 51.06 51.10 51.04 50.87 48.43 42.39 36.45 37.90 41.00 38.81 40.68 39.51 40.37 42.07 44.20 46.95 48.81 47.34 44.59 42.07 39.55 39.61 43.60 43.10 46.35 51.95 53.75 55.54 52.52 52.14 47.65 46.42 53.76 59.04 61.16 60.01 52.82 58.64 58.67 58.15
51.19 51.21 51.13 51.05 50.86 50.75 51.55 48.27 49.10 43.54 37.25 40.92 42.31 39.01 38.00 42.57 40.20 41.51 42.79 45.17 44.04 46.44 41.41 39.50 39.46 40.50 45.85 41.70 43.37 46.45 47.78 50.04 48.25 49.53 49.20 51.83 58.49 59.74 61.25 51.08 54.19 63.56 63.73 63.33
51.04 51.06 50.89 51.04 50.94 50.49 50.28 49.67 52.41 44.97 40.13 40.75 44.79 45.52 42.99 41.23 43.66 38.22 42.06 44.73 44.09 44.19 41.00 41.74 42.18 42.42 45.57 45.78 49.10 48.90 47.28 48.45 48.27 50.09 48.19 46.37 60.18 59.48 55.09 60.46 63.45 64.15 64.51 64.64
50.58 50.71 50.47 50.43 50.07 49.94 49.74 46.09 51.14 50.15 42.96 42.50 48.40 48.80 49.05 48.03 47.61 44.91 44.49 42.51 41.44 45.19 43.98 44.85 43.90 44.63 48.21 47.91 44.41 52.92 48.93 52.40 50.51 51.96 51.95 60.52 62.08 61.58 62.91 63.73 63.59 64.52 64.88 65.35
50.32 50.21 49.94 49.98 49.94 49.57 49.83 47.50 49.82 48.10 42.98 42.84 45.23 45.61 50.65 52.07 50.30 50.56 42.35 45.32 46.78 47.46 47.86 44.07 44.51 43.50 49.91 47.02 47.93 52.09 54.10 57.94 54.65 55.81 58.01 59.16 60.83 62.15 62.97 63.34 63.02 64.40 66.19 66.37
49.85 49.92 49.81 49.94 49.58 49.38 49.35 48.51 50.22 47.37 43.90 38.89 42.28 50.73 48.65 51.53 52.22 50.34 49.43 46.98 50.20 46.88 47.85 43.44 44.90 44.51 50.25 48.04 50.62 53.56 52.24 56.82 55.56 56.09 58.12 58.61 59.06 60.19 60.99 61.70 63.26 63.29 64.08 64.53
49.49 49.64 49.83 50.04 49.75 50.13 50.26 50.58 52.09 51.99 43.39 38.71 41.85 47.39 50.75 50.97 50.06 49.92 49.45 48.20 46.36 44.00 43.03 42.66 44.28 48.28 47.84 52.13 53.07 46.35 49.57 50.54 54.50 53.38 59.07 57.79 56.32 58.44 59.70 58.78 58.83 60.06 60.81 61.48
49.53 49.86 49.83 49.77 49.83 50.53 49.26 44.42 50.49 51.35 51.19 42.24 37.49 48.76 49.58 51.81 49.91 50.07 49.10 48.73 48.45 47.32 43.51 42.60 48.62 51.42 48.71 45.82 44.01 49.14 52.91 56.86 58.54 55.16 58.95 56.02 56.22 56.92 56.66 56.13 55.96 57.93 58.55 59.63
49.31 49.19 49.43 49.88 49.99 49.53 46.25 43.19 46.95 48.70 50.48 40.59 37.03 40.13 48.70 52.16 50.75 49.65 49.57 50.41 47.83 46.74 43.80 43.98 49.15 49.28 49.53 44.82 42.39 49.75 51.77 54.84 55.70 58.45 57.83 55.23 56.01 52.27 54.33 56.08 56.07 56.61 57.77 59.13
49.81 49.73 49.88 50.07 50.40 49.57 46.37 50.31 49.23 49.47 45.53 42.72 36.67 39.77 47.39 52.52 47.96 47.28 51.10 46.51 46.41 47.71 45.16 49.70 46.95 48.91 48.12 42.46 47.15 49.28 50.93 52.79 54.17 54.57 57.36 56.39 56.36 54.97 54.09 54.70 54.51 54.32 54.17 56.47
50.66 50.51 50.30 50.43 48.25 45.81 50.27 50.49 49.91 48.35 44.13 38.05 38.89 37.25 37.95 51.96 46.94 47.11 48.09 48.82 43.99 48.21 45.80 47.94 48.30 44.81 41.21 45.26 46.28 48.83 49.87 49.33 51.81 53.77 54.91 54.57 53.02 51.96 52.88 53.60 53.69 53.70 54.93 55.95
50.96 50.55 46.43 46.26 50.01 50.19 52.74 49.53 45.17 42.79 44.16 41.93 39.44 46.02 42.37 47.59 47.18 46.13 46.29 47.35 44.64 42.27 45.97 48.30 44.25 41.06 46.74 49.08 49.66 51.08 50.95 50.67 51.02 48.45 49.01 51.26 51.49 51.55 52.12 52.05 52.78 53.53 54.86 56.97
49.32 46.23 45.77 51.18 53.27 50.75 48.54 42.64 41.84 42.87 40.58 44.70 46.75 48.53 46.40 51.51 45.76 46.47 49.15 46.21 46.29 40.41 44.52 43.67 40.81 40.29 45.22 49.19 49.86 52.41 52.96 53.99 51.59 51.07 52.04 53.21 52.46 53.34 53.67 53.16 54.49 55.49 57.26 56.70
48.23 47.52 48.95 50.45 47.85 45.22 40.98 40.72 42.95 42.02 40.19 47.56 45.10 47.53 49.02 50.47 51.52 49.03 49.68 45.16 45.01 41.05 47.31 40.92 38.02 44.35 48.55 49.96 49.87 51.05 53.17 53.24 52.68 53.66 54.11 55.21 55.68 56.01 55.83 55.74 55.71 57.12 58.64 58.34
51.31 47.92 44.82 43.39 44.73 37.37 36.20 35.98 37.91 39.69 45.83 48.04 48.06 46.97 50.38 52.02 50.72 46.22 47.00 43.49 42.89 49.34 42.73 38.56 41.23 46.90 50.12 51.55 51.97 52.18 54.57 53.93 53.50 53.30 53.71 54.43 54.88 56.39 56.56 56.64 57.60 58.42 58.35 58.96
45.80 42.20 35.52 36.19 37.78 40.22 43.58 42.96 43.73 48.01 49.67 50.05 50.07 48.25 48.04 49.99 48.17 48.63 44.05 46.53 46.44 40.79 37.46 37.98 44.87 48.15 50.40 53.48 53.89 53.68 53.03 53.99 54.32 54.41 54.45 54.43 55.43 56.26 57.40 57.76 58.23 57.34 57.53 59.32
42.54 41.69 34.81 39.31 43.34 45.77 45.96 49.20 49.09 49.98 51.47 49.91 48.68 49.61 49.05 47.93 46.74 47.42 45.81 43.08 37.04 38.37 40.21 45.65 48.11 50.70 52.18 52.90 53.42 53.40 54.11 54.62 54.86 55.09 54.90 54.88 55.72 56.31 56.45 57.87 58.31 59.54 59.08 58.99
48.64 44.90 42.41 45.74 44.99 45.36 46.55 47.99 48.86 52.49 52.38 52.01 49.70 47.24 44.71 43.59 44.21 41.30 39.98 38.43 34.47 38.31 46.23 50.70 52.42 52.19 53.35 53.91 54.76 55.60 55.90 55.86 55.31 55.54 55.53 55.82 55.76 56.53 57.19 57.61 57.71 58.30 59.37 59.11
45.44 44.02 47.82 46.83 45.69 46.48 48.38 50.10 50.29 53.75 51.38 47.64 47.44 42.45 41.06 45.37 40.44 38.83 39.51 36.74 39.83 46.00 49.14 52.10 52.27 54.03 55.13 55.29 55.55 56.56 56.32 56.69 56.61 56.40 56.80 57.20 57.27 57.79 56.14 56.66 57.01 57.83 58.46 58.67

GFSNW_sfc_wetblb_006.txt.gz
Wetbulb
53.25 53.40 53.54 53.06 52.44 50.99 49.34 48.17 42.16 54.57 56.90 47.04 47.86 44.37 46.74 46.90 48.39 50.64 49.49 49.43 47.97 47.30 48.71 50.28 50.74 51.13 53.02 55.76 55.39 52.57 54.69 51.95 49.33 50.67 55.00 55.02 53.29 51.51 50.93 47.61 49.24 51.29 51.04 51.97
52.98 53.00 52.84 52.34 51.74 51.39 49.32 44.13 44.98 52.52 51.69 40.69 42.37 45.81 46.34 48.42 48.18 49.09 48.82 47.96 49.23 49.88 47.24 46.73 49.33 51.57 54.93 55.69 54.49 53.44 54.74 51.72 48.44 48.46 52.22 54.73 51.77 52.06 51.90 51.05 51.78 50.74 48.78 51.09
52.80 52.74 52.54 51.95 51.42 51.60 49.04 43.67 39.78 45.98 48.82 47.39 44.01 42.79 42.98 43.07 47.56 47.47 48.25 48.42 49.80 48.56 47.15 48.90 47.67 48.75 52.18 54.83 54.89 60.24 59.15 52.31 51.26 47.81 50.31 53.09 51.73 51.65 52.32 51.21 47.81 49.47 50.60 54.27
52.36 52.80 52.65 51.87 51.35 51.25 48.60 44.47 41.15 44.46 38.76 42.00 42.33 42.59 43.07 40.80 42.52 47.05 48.25 46.21 46.30 46.17 44.64 46.20 45.96 47.94 49.38 52.66 57.09 56.43 54.42 51.00 52.80 51.91 52.40 53.32 52.68 51.59 51.51 50.83 51.79 49.54 51.82 52.72
51.88 51.94 52.46 52.09 51.22 50.71 46.29 40.43 40.62 44.16 41.79 43.02 41.08 39.58 38.84 39.19 41.93 43.82 42.32 41.95 44.28 44.84 42.76 43.45 40.48 45.14 49.41 50.05 53.05 53.13 53.89 51.10 52.50 51.01 53.04 52.61 51.91 52.98 52.08 51.60 52.05 52.23 52.65 52.65
51.40 51.76 51.88 52.09 51.19 49.48 46.07 44.60 45.77 42.81 39.77 40.25 39.27 39.42 39.29 39.23 42.18 43.57 44.48 42.82 41.79 42.09 44.43 46.85 47.93 48.94 49.54 50.91 50.79 53.34 53.36 51.38 51.95 48.89 52.16 52.10 49.17 52.49 52.92 52.91 52.63 52.29 50.09 54.34
51.28 51.53 51.57 51.54 51.51 49.98 50.24 48.00 45.61 37.54 36.28 38.79 38.49 40.47 40.77 39.97 42.23 40.04 43.36 44.85 41.67 45.54 48.83 48.89 49.35 49.43 50.27 50.60 51.45 53.74 54.09 52.34 52.49 49.94 52.15 43.70 52.52 56.02 55.11 53.58 54.36 54.62 54.79 56.32
51.29 51.46 51.57 51.51 51.82 51.40 50.94 50.17 44.35 38.63 34.36 38.59 38.13 40.58 40.40 41.32 41.89 42.32 42.58 44.73 47.27 48.57 45.44 40.66 38.68 43.27 45.82 48.26 51.32 52.87 54.71 54.35 50.60 48.94 48.79 51.67 53.04 55.60 55.57 54.06 54.28 57.66 56.53 58.57
51.35 51.57 51.78 51.60 51.80 51.36 51.05 51.29 49.35 42.40 36.55 35.98 41.36 39.84 40.88 38.30 39.84 41.22 43.06 48.36 50.23 47.46 42.43 38.44 33.55 32.98 41.03 43.69 47.77 52.32 52.88 57.92 51.13 50.88 46.11 45.40 54.36 58.52 60.92 59.62 52.30 61.79 62.28 61.67
50.85 51.46 51.72 51.57 51.43 51.40 50.91 50.62 51.28 44.34 34.64 39.92 42.24 39.62 39.10 42.46 41.21 39.21 43.09 44.16 45.91 47.86 39.55 35.70 34.38 34.66 43.12 39.39 43.67 45.31 47.41 49.52 47.68 48.87 47.39 50.40 57.05 59.19 60.15 51.10 53.93 62.43 63.03 63.22
50.61 51.40 51.22 51.20 51.27 51.23 50.19 49.34 52.63 44.92 39.70 40.95 44.32 45.28 42.17 41.72 40.92 36.87 40.74 38.88 44.33 43.58 37.85 36.58 37.73 37.75 41.81 42.60 46.67 47.09 45.57 44.68 46.31 50.00 48.49 46.11 60.21 58.43 54.40 60.18 62.99 62.97 63.09 63.71
50.87 50.81 50.79 50.76 50.54 50.35 50.17 47.23 52.86 51.79 44.26 41.66 46.64 47.99 49.37 47.69 46.62 43.76 43.43 40.32 39.93 44.23 42.32 43.38 43.12 40.50 44.81 44.49 40.58 49.18 44.40 49.14 47.60 49.82 50.70 58.81 62.62 62.51 63.58 63.81 62.99 64.05 65.13 65.05
50.68 50.59 50.42 50.33 50.54 50.45 49.51 49.88 51.42 48.62 42.87 42.63 44.83 44.53 49.67 51.64 50.56 50.05 41.99 43.34 45.49 46.08 47.34 44.13 43.23 41.71 46.69 43.22 45.52 47.72 51.30 53.79 50.21 51.79 56.12 59.85 61.55 62.48 63.11 63.92 63.84 64.53 64.84 65.05
50.39 50.41 50.19 50.17 50.37 50.13 49.68 47.61 50.63 48.49 43.71 37.80 40.39 49.47 48.55 52.10 52.28 50.72 49.32 47.19 49.04 48.65 47.90 43.31 42.89 41.81 48.01 43.96 46.66 49.58 51.18 52.03 52.86 53.12 59.95 60.15 60.93 62.06 62.77 62.66 63.65 63.33 62.62 62.21
50.30 50.38 50.42 50.55 50.29 50.81 50.11 50.64 52.36 51.51 42.78 37.43 40.68 47.08 49.32 51.35 50.69 50.10 49.92 47.73 46.22 44.34 41.98 43.42 40.94 47.66 46.15 48.60 48.34 45.68 50.98 50.21 49.93 52.79 59.41 58.79 58.47 60.93 60.74 60.06 60.55 61.28 60.75 60.46
50.12 50.10 49.87 49.83 50.25 51.02 48.63 44.34 51.33 52.84 50.50 41.51 37.60 47.78 47.98 51.31 50.19 48.46 48.64 47.72 47.35 46.01 44.43 43.75 43.82 48.60 47.09 44.40 43.07 48.96 52.72 55.80 56.91 51.23 56.03 54.56 56.96 57.24 58.22 57.72 57.65 58.72 59.17 60.35
50.95 50.96 50.53 50.17 50.50 49.47 46.42 44.17 47.55 49.10 50.45 41.86 37.28 39.66 50.03 51.54 49.13 48.49 48.65 49.07 47.22 47.54 45.14 43.39 44.04 47.63 48.81 46.09 42.12 49.08 52.06 53.97 54.24 54.95 54.40 52.79 55.05 54.21 56.71 56.80 57.92 58.25 59.18 59.42
51.34 51.37 51.26 51.18 50.94 49.68 46.73 50.54 49.89 48.96 45.24 42.39 36.20 38.66 44.04 50.45 45.82 45.19 50.43 46.71 47.25 46.86 45.04 44.51 46.61 47.81 46.84 43.05 47.99 50.40 51.32 53.59 54.15 55.17 55.81 54.47 56.24 56.40 55.36 56.82 57.17 56.54 55.72 57.06
51.31 51.49 51.89 51.24 48.43 45.59 50.88 50.77 50.43 49.11 44.41 37.86 38.86 36.37 37.56 47.24 45.87 47.61 47.50 47.51 40.76 47.70 43.02 44.86 47.47 43.10 40.53 44.94 47.68 48.48 50.77 51.33 52.00 54.01 54.01 54.77 53.85 53.26 54.11 54.83 54.39 54.68 55.35 56.19
51.25 51.27 48.40 46.16 51.46 51.87 52.11 48.30 44.61 43.10 43.13 42.54 38.36 44.53 41.15 43.67 43.38 44.54 45.33 46.25 43.05 40.19 44.08 48.24 42.95 40.87 46.84 48.35 50.21 50.63 51.08 51.48 53.77 51.52 50.40 51.51 52.44 53.34 52.94 52.75 53.56 53.56 51.96 53.31
50.52 47.09 45.92 51.06 54.16 51.01 47.21 42.60 40.78 41.98 39.42 42.88 45.27 46.67 45.58 48.48 43.91 45.79 50.40 46.71 46.98 40.22 41.14 42.75 39.99 39.35 44.90 49.07 50.34 52.46 51.48 51.65 51.80 53.52 54.54 53.63 51.88 50.85 50.47 51.91 52.90 53.56 54.57 52.98
47.98 46.69 49.61 50.29 48.63 45.67 39.96 37.77 40.95 40.23 36.32 44.49 45.99 47.57 49.26 49.97 51.57 45.74 47.55 44.27 44.80 39.29 46.96 41.12 37.47 42.79 47.96 48.76 49.47 51.28 52.36 52.10 52.95 53.87 54.18 54.67 54.94 56.34 55.33 54.71 55.30 55.36 57.33 57.95
52.32 49.56 46.82 44.67 45.01 37.84 37.73 35.45 35.19 39.55 43.88 48.70 48.59 46.91 48.02 49.88 51.13 46.18 44.69 41.52 41.53 47.43 40.92 38.03 40.50 46.10 48.77 49.84 51.62 51.31 52.80 53.20 53.46 53.65 54.35 54.57 55.93 56.54 56.42 56.26 57.58 58.45 57.78 57.59
46.82 43.21 38.46 39.96 38.31 39.49 40.97 42.39 43.42 48.06 48.35 49.06 49.15 47.72 44.88 45.74 45.13 46.02 41.16 45.07 45.22 40.02 38.11 38.21 43.80 46.91 49.53 51.68 53.14 53.49 52.39 52.63 53.69 53.91 54.61 55.52 56.35 55.31 56.43 56.71 57.91 58.01 56.89 59.61
46.17 46.44 39.17 42.39 46.28 48.38 48.67 49.47 49.26 50.54 51.03 50.44 49.65 49.65 49.33 46.60 45.28 46.33 44.62 40.49 37.25 37.73 40.07 44.04 48.63 50.80 52.81 53.40 52.99 53.41 53.46 54.38 54.40 55.27 55.36 55.08 56.21 56.73 56.19 57.18 57.06 57.40 57.56 58.41
49.65 47.96 43.90 46.33 45.75 45.96 47.97 49.30 48.49 53.36 50.94 52.36 52.03 47.23 44.21 42.38 42.98 39.60 37.41 37.37 34.94 38.32 45.27 48.98 51.46 52.36 51.47 51.98 53.78 53.89 55.33 55.68 55.90 55.75 56.55 57.32 56.09 55.48 57.30 57.31 58.26 57.66 58.75 59.40
46.21 44.76 48.59 48.23 47.37 46.08 48.37 49.78 50.72 53.59 51.73 46.52 47.22 42.52 41.66 45.13 39.68 36.33 39.42 38.09 41.39 45.91 48.53 50.41 51.42 51.42 51.66 54.87 54.66 55.11 54.19 55.56 55.54 57.11 55.77 53.88 57.99 57.65 58.21 57.68 58.64 56.39 59.00 60.08

GFSNW_sfc_wetblb_009.txt.gz
Wetbulb
53.28 53.27 53.03 52.41 52.01 50.81 48.63 44.35 37.12 49.74 51.01 40.53 44.20 40.18 43.19 44.79 45.74 48.36 46.46 46.31 44.65 43.27 44.34 43.52 43.47 43.90 47.57 54.41 53.65 49.78 50.44 46.69 43.11 45.78 50.92 52.31 50.16 46.16 44.88 41.25 38.88 42.38 42.71 44.25
53.15 53.01 52.70 52.10 51.51 51.31 46.74 40.14 40.70 48.86 48.31 35.16 38.48 42.77 43.64 45.47 44.23 44.28 44.68 44.57 46.70 47.36 44.47 41.50 44.75 46.21 50.03 50.94 50.64 50.56 51.16 47.06 41.51 43.73 47.06 50.03 48.05 48.92 46.74 46.75 42.31 41.54 39.90 44.42
52.70 52.66 52.49 51.94 51.44 51.44 47.39 41.42 34.97 41.75 44.50 44.24 40.26 38.28 37.99 38.66 44.45 43.56 44.79 44.20 45.77 44.31 42.66 44.71 42.61 44.50 49.39 50.23 49.66 59.26 55.25 47.23 45.76 42.48 43.97 46.37 46.40 48.52 49.09 46.16 42.59 42.12 43.61 44.35
52.39 52.41 52.17 51.87 51.13 50.92 47.82 43.15 37.54 40.66 34.03 37.60 37.51 39.30 38.15 36.73 36.54 42.51 43.44 41.24 41.18 40.06 37.87 39.51 40.90 43.13 43.66 47.21 51.30 50.84 46.91 45.59 46.94 48.12 49.86 49.40 48.46 49.07 48.90 46.59 46.16 42.80 44.34 45.30
51.97 52.16 51.95 51.93 51.30 50.87 46.08 38.90 38.07 40.22 36.58 38.01 36.90 37.69 36.98 36.84 38.10 38.57 37.66 38.45 40.32 40.56 37.32 38.45 37.29 40.09 40.25 40.40 45.21 43.22 44.97 43.89 47.11 45.95 49.86 49.62 48.03 49.94 50.74 48.94 48.62 47.80 47.90 47.39
51.87 51.66 51.90 51.80 51.20 49.31 45.18 45.35 44.96 40.84 36.84 35.28 34.78 35.82 36.90 37.08 39.58 40.33 42.14 40.59 39.75 38.66 41.20 43.63 43.89 43.98 43.49 43.14 42.23 41.75 42.22 42.69 43.64 41.59 47.80 48.10 44.99 48.04 49.50 50.49 50.46 49.54 46.19 49.28
51.64 51.50 51.89 52.07 51.68 50.18 48.34 47.28 44.79 38.04 31.85 34.15 34.85 36.31 37.89 37.69 38.86 37.50 40.38 41.77 40.02 43.56 48.26 46.46 45.13 44.91 44.64 45.46 45.51 46.15 43.00 41.89 43.61 41.73 44.19 38.42 47.89 52.87 53.06 51.88 52.84 51.75 50.55 51.40
51.64 51.56 51.81 51.82 51.78 51.19 48.87 49.20 44.53 39.11 32.92 35.39 36.00 36.44 37.27 39.02 39.91 38.86 40.03 42.03 44.95 47.26 45.05 39.20 36.93 38.92 40.95 43.64 46.51 46.25 47.31 43.93 42.13 39.67 41.01 44.13 49.63 51.86 50.88 49.70 49.23 54.51 56.47 58.01
51.49 51.39 51.58 51.72 51.78 51.49 49.59 48.99 48.95 42.52 35.05 33.85 38.81 36.80 37.44 35.47 36.15 37.75 40.20 44.75 46.94 45.28 40.54 38.24 31.56 32.04 36.87 37.40 41.47 47.91 47.32 48.19 44.02 40.54 38.66 38.92 46.22 55.22 58.57 56.25 47.61 59.34 59.69 58.72
51.36 51.35 51.72 51.61 51.71 51.69 50.34 48.52 49.90 43.52 34.63 38.29 38.72 36.02 37.00 40.51 39.12 36.04 38.60 40.04 40.05 44.29 38.08 34.38 33.33 31.92 39.08 34.45 37.40 40.44 42.85 44.59 41.90 43.45 40.76 45.78 53.78 57.40 58.41 46.83 49.19 58.29 59.65 58.96
51.36 51.32 51.35 51.40 51.42 51.11 49.31 47.35 50.78 45.62 38.47 39.34 41.16 41.83 39.43 39.94 39.77 35.77 39.73 38.26 39.14 37.93 36.81 34.45 35.36 34.67 37.54 38.44 41.24 40.72 39.20 39.12 41.59 44.42 42.81 41.04 58.13 56.96 52.91 55.25 58.81 61.15 61.40 61.67
51.32 51.03 51.10 50.95 50.82 50.90 50.51 45.37 51.41 51.19 43.24 40.63 45.22 45.14 45.68 44.61 44.32 41.67 41.22 39.22 38.07 38.15 39.13 40.36 40.99 36.91 41.24 40.41 36.43 46.33 39.17 44.07 42.05 43.81 46.01 55.55 58.31 55.95 58.69 59.48 60.31 61.41 61.51 63.55
51.00 51.13 51.01 50.75 50.79 50.73 50.09 47.42 49.21 47.87 42.31 41.02 41.67 41.51 46.78 48.61 47.53 48.39 39.17 41.20 42.62 42.42 46.51 42.22 42.41 38.92 44.18 39.28 40.19 45.01 47.88 51.41 46.44 49.72 50.65 54.56 56.34 58.56 62.01 61.22 60.24 60.29 61.97 62.12
50.83 50.92 50.94 50.98 51.00 51.06 50.22 46.49 49.60 47.39 42.90 35.93 38.29 47.61 45.37 49.67 49.75 48.98 47.03 45.32 45.34 46.43 45.91 42.37 40.89 39.29 46.49 42.70 43.73 44.42 49.84 49.65 49.41 49.65 54.17 56.44 57.83 59.45 60.45 60.53 60.27 59.25 59.60 59.99
51.06 51.11 51.06 50.68 50.43 50.98 49.90 48.42 49.20 49.58 42.46 36.16 37.14 43.58 46.65 48.46 47.85 46.86 48.21 46.47 43.63 42.83 40.49 41.66 40.84 44.93 44.73 46.26 46.45 43.72 48.78 49.59 47.77 47.75 52.35 52.69 54.35 55.86 58.30 57.64 57.61 57.70 57.30 58.41
51.51 51.49 51.42 51.44 51.32 50.86 46.91 43.82 50.46 52.48 48.79 39.72 35.61 44.42 44.98 48.93 50.19 48.87 47.07 46.34 44.32 43.45 43.36 43.36 45.13 46.45 44.54 41.60 40.78 47.34 49.94 52.63 54.49 52.38 53.40 53.42 54.04 54.75 56.62 55.46 55.99 57.01 57.13 57.41
51.88 51.89 51.97 51.80 51.55 48.66 43.73 43.48 47.96 49.52 47.49 41.17 36.68 36.91 46.64 48.27 48.87 45.82 45.38 46.29 44.50 44.42 45.05 43.22 44.18 44.13 45.33 44.32 39.65 47.27 50.90 53.65 53.93 55.12 54.40 51.98 52.82 51.45 54.49 54.86 55.28 55.50 56.71 57.48
51.76 51.93 51.71 51.98 51.77 50.21 46.05 48.97 49.62 48.89 44.44 42.82 35.39 36.39 41.81 47.61 43.90 42.00 46.94 43.78 45.25 45.79 45.06 44.73 41.84 44.76 45.43 41.93 46.47 50.07 51.32 53.96 54.11 54.30 54.75 53.96 55.03 54.19 53.99 55.40 55.28 54.19 54.08 54.28
51.63 51.82 51.80 50.24 47.81 45.52 49.22 51.08 50.18 49.40 44.65 37.97 38.17 35.39 35.06 46.83 45.11 46.42 46.15 46.18 40.33 46.69 41.50 41.38 43.40 42.19 39.77 44.26 45.96 48.57 51.27 51.53 52.44 54.17 53.73 52.90 51.93 52.67 53.99 53.50 53.48 52.63 52.95 54.05
51.45 50.84 48.38 45.77 49.79 52.90 52.26 48.66 44.32 42.76 42.73 41.38 36.80 41.38 38.43 44.92 43.02 43.41 44.13 44.52 40.51 37.12 40.24 46.74 41.15 40.54 45.99 48.34 49.92 50.66 50.80 52.48 52.81 50.46 50.16 51.60 51.00 50.94 51.53 52.70 52.41 51.73 52.57 54.40
51.03 46.36 45.09 48.72 53.33 49.77 46.36 41.26 39.36 40.63 37.67 40.95 41.72 44.48 42.10 48.72 42.19 42.29 46.21 43.31 43.31 37.24 40.98 41.44 39.37 38.21 44.22 48.73 49.77 50.85 51.87 52.88 52.95 52.88 52.22 52.01 52.01 51.72 51.69 52.20 54.03 54.87 53.93 53.97
47.09 46.01 49.10 49.29 48.87 45.25 39.51 37.10 38.72 37.00 35.86 41.11 42.89 45.49 46.54 47.73 47.73 44.83 45.58 43.07 42.25 37.62 46.39 40.80 35.51 41.54 46.85 48.48 49.32 50.61 51.95 52.33 53.05 54.26 54.04 54.19 52.38 51.03 51.22 53.04 54.73 55.31 56.35 56.36
52.45 47.68 47.00 44.04 44.02 36.66 36.70 33.19 33.63 36.43 43.95 46.78 46.74 44.78 45.47 47.54 47.89 45.63 43.35 37.90 39.93 46.44 39.99 36.73 39.82 45.46 48.21 49.31 50.29 50.38 52.08 53.23 53.27 53.04 54.19 53.99 54.92 55.66 55.32 54.81 55.95 56.30 56.33 57.47
47.33 44.73 36.22 41.85 39.52 39.65 40.95 42.18 41.01 45.01 47.13 46.46 47.86 45.56 44.62 45.92 44.24 43.12 41.20 44.49 45.05 39.26 35.90 35.75 42.18 45.32 47.69 49.44 51.45 51.76 51.50 52.56 52.52 53.49 53.98 54.12 54.88 55.40 55.95 56.85 56.68 56.84 55.03 56.25
47.57 46.32 35.34 42.53 45.87 47.15 47.63 48.36 47.67 47.99 51.49 49.59 48.22 47.81 47.29 44.87 43.93 44.17 42.83 38.94 35.56 37.07 38.60 43.10 46.75 48.72 50.56 51.07 51.70 51.79 51.55 52.68 52.87 53.71 53.27 54.36 55.18 54.71 54.51 55.54 55.95 56.01 56.25 55.03
49.87 48.08 44.49 47.03 45.37 45.50 47.24 48.29 47.00 50.86 50.37 50.44 48.48 45.53 42.86 41.04 40.61 38.20 36.41 36.47 33.86 38.29 44.08 48.13 49.80 49.84 50.69 51.38 52.11 52.70 53.62 54.25 53.10 52.94 54.13 54.29 53.53 54.71 54.81 55.70 55.41 54.90 56.11 56.17
46.41 45.47 49.61 47.22 47.37 46.63 48.10 49.60 49.19 52.59 48.68 43.84 45.60 40.81 40.32 42.70 36.62 35.69 40.24 38.19 41.97 46.28 48.09 49.14 50.05 50.43 50.77 51.65 51.99 52.48 53.30 52.12 51.48 52.02 52.50 52.76 52.50 53.35 52.75 51.65 52.50 52.85 54.36 54.15

GFSNW_sfc_wetblb_012.txt.gz
Wetbulb
52.76 52.78 52.78 52.12 51.75 50.52 46.38 38.80 32.06 43.60 47.48 33.00 33.98 35.15 37.58 42.50 42.33 45.03 43.11 43.42 42.23 40.76 41.46 39.96 40.60 40.85 43.81 49.19 48.41 43.65 46.25 43.55 41.21 44.20 47.48 49.71 49.29 45.60 42.45 41.22 36.56 39.60 42.12 42.34
52.80 52.76 52.26 51.60 51.07 50.54 42.19 36.80 35.35 43.54 40.90 28.09 30.84 36.00 38.69 40.98 40.43 39.37 39.85 39.82 41.26 42.22 38.92 36.40 40.89 41.96 48.17 47.07 45.99 43.45 46.02 44.18 40.24 39.09 43.16 43.48 43.94 46.76 46.29 38.83 38.75 40.49 37.94 39.65
52.82 52.74 52.07 51.46 51.11 50.62 42.99 36.34 31.36 34.18 36.68 39.15 33.75 32.82 35.64 35.63 42.02 40.71 41.64 39.10 41.35 38.94 36.31 38.59 36.72 40.34 44.48 45.82 46.39 51.12 45.11 39.97 40.24 40.88 42.88 44.03 42.11 45.75 46.14 44.54 42.12 41.20 41.64 41.35
52.37 52.55 52.11 51.58 50.98 50.47 42.68 36.17 32.18 34.28 29.39 33.23 34.44 35.35 35.21 34.46 34.51 39.58 39.64 37.09 37.94 36.99 32.16 35.49 36.77 39.95 40.75 43.34 47.43 43.31 39.37 33.20 39.09 43.08 46.45 47.48 46.53 45.87 46.65 43.96 44.63 42.26 44.57 41.66
52.68 52.49 52.26 51.82 51.14 50.24 41.37 37.52 37.07 37.10 33.70 32.97 31.82 34.14 33.46 33.80 35.31 36.13 34.77 34.92 38.08 36.65 33.86 36.10 34.83 37.38 36.56 36.40 40.50 38.88 38.57 34.07 38.56 40.21 46.53 47.57 46.47 47.95 48.24 47.45 47.09 45.85 43.63 42.63
52.41 52.39 52.26 51.82 51.03 48.19 39.40 41.59 43.67 39.65 35.74 31.15 28.54 30.17 33.19 34.06 37.03 38.22 39.62 38.13 36.85 35.73 38.39 40.22 41.92 41.30 40.82 40.05 37.13 37.55 35.95 34.52 35.19 33.35 43.28 45.87 43.13 47.36 47.66 47.42 47.83 47.38 43.32 45.63
52.20 52.08 52.16 51.94 51.42 48.99 42.94 41.83 43.75 37.90 31.98 32.30 32.51 34.05 34.86 34.85 36.49 35.68 37.96 38.51 36.56 39.78 44.13 43.75 40.76 40.27 40.44 41.05 41.01 42.75 37.80 36.62 35.07 34.68 38.13 36.21 44.20 51.25 50.56 47.81 49.31 49.29 48.61 48.73
51.74 51.75 51.45 51.77 51.84 51.40 46.16 45.55 43.79 39.01 32.53 34.56 34.51 34.99 34.68 35.96 36.06 34.96 37.16 40.05 41.03 42.06 40.43 34.02 31.84 33.39 37.17 39.58 41.41 42.94 44.06 40.21 35.86 34.12 34.36 41.09 46.79 49.07 48.41 45.78 45.66 53.67 49.74 52.99
51.74 51.72 51.77 51.87 52.01 51.35 45.49 44.43 45.30 42.69 35.23 33.31 37.30 34.34 34.96 31.37 31.51 33.77 37.32 40.99 41.62 39.94 37.12 34.22 26.22 27.01 33.45 36.41 40.54 45.15 44.95 44.09 40.04 38.70 35.70 35.28 42.52 51.84 55.61 52.75 47.71 57.21 56.75 55.72
51.93 51.92 51.90 51.74 51.69 51.46 46.28 44.00 46.01 42.98 35.60 37.96 37.39 33.70 32.41 35.22 33.56 32.39 35.18 38.18 37.49 39.18 34.87 30.91 29.42 29.04 36.48 32.31 35.72 38.29 39.85 39.70 38.20 39.74 39.78 41.69 51.81 54.79 55.66 45.51 45.68 56.35 56.98 55.94
51.78 51.72 51.60 51.56 51.44 51.09 46.00 42.93 45.31 43.06 38.22 38.71 39.84 39.83 37.37 36.46 34.94 33.07 35.09 36.04 36.68 33.34 33.58 32.75 32.15 30.73 33.66 33.09 38.25 39.37 39.13 39.24 40.53 41.02 40.32 39.34 51.26 53.83 48.93 51.26 58.28 60.07 60.80 59.76
51.38 51.30 51.28 51.32 51.02 51.11 49.59 40.72 45.00 46.60 42.27 40.74 43.36 43.60 43.93 42.23 41.36 35.94 35.88 37.35 35.55 38.13 35.52 36.12 36.37 32.99 35.71 34.25 33.37 44.36 39.37 42.37 41.30 42.02 43.36 48.17 50.26 53.74 59.42 58.69 57.61 58.81 59.30 60.28
51.15 51.44 51.32 51.26 51.31 51.25 49.84 42.62 43.47 42.50 41.47 38.58 38.70 38.26 43.43 45.03 44.20 45.32 36.83 37.20 40.87 39.89 41.50 38.65 37.44 36.47 39.97 35.41 37.23 42.37 45.53 48.83 43.84 45.73 48.52 50.43 56.88 58.98 58.59 57.86 58.26 59.13 59.23 59.01
51.23 51.48 51.29 51.25 51.38 51.13 50.57 42.90 43.85 43.97 42.56 35.34 36.56 44.74 41.16 45.52 44.34 44.56 44.22 42.70 42.90 43.94 42.42 38.61 35.23 36.03 43.54 39.29 43.01 41.51 46.43 48.18 47.07 45.64 49.16 51.30 54.47 57.36 57.86 57.42 58.26 58.25 58.42 58.69
51.47 51.38 51.61 51.86 51.53 51.54 49.24 46.53 45.71 46.89 42.26 35.88 37.48 40.87 42.13 42.40 42.38 43.25 44.49 42.97 41.15 39.07 36.87 38.29 37.78 42.47 41.13 44.16 43.64 42.09 47.88 47.43 46.67 46.58 50.60 50.99 51.07 56.37 57.53 55.59 55.47 56.14 55.95 56.25
51.53 51.72 51.64 51.70 51.87 51.86 44.02 39.01 44.81 47.84 47.43 39.35 32.88 37.81 39.99 43.73 46.18 43.97 42.51 42.95 42.21 39.68 36.09 39.07 43.11 45.80 42.31 38.17 38.58 46.04 48.31 50.08 51.35 51.06 52.22 51.74 53.98 54.19 55.22 54.02 54.82 56.30 55.75 55.16
51.87 51.89 51.76 52.05 51.84 48.71 40.89 38.25 43.76 48.29 46.32 40.03 35.92 33.21 41.52 46.42 43.97 41.12 39.85 40.88 39.62 40.73 40.64 41.59 42.55 43.62 41.17 40.24 39.14 45.65 48.94 51.34 53.97 53.75 53.41 51.63 52.41 51.96 54.58 54.79 55.38 55.74 56.38 57.98
52.12 52.01 51.96 51.86 51.75 50.58 46.22 47.97 49.15 48.72 43.19 42.49 35.47 34.78 38.69 45.21 41.58 39.68 45.25 39.78 41.92 43.08 42.50 42.99 41.43 42.62 41.42 39.71 44.39 45.93 48.77 51.78 53.60 53.28 53.97 53.07 54.32 54.14 53.25 54.10 53.84 53.67 53.71 55.34
51.79 51.94 52.28 49.32 46.51 43.47 46.75 51.09 50.25 48.29 43.65 37.61 37.40 34.81 33.90 45.50 43.75 44.20 44.05 45.27 39.32 44.66 40.16 40.89 41.49 41.64 38.22 43.27 44.94 47.50 50.34 51.88 51.93 52.60 52.52 53.03 52.83 53.16 52.55 52.57 51.84 51.78 52.57 53.83
51.69 49.10 45.23 42.19 47.25 52.93 51.89 47.97 43.41 41.68 42.18 41.16 35.45 40.40 36.66 41.69 42.68 40.70 41.77 43.71 39.22 35.00 39.13 44.37 39.30 39.35 44.52 46.84 49.37 50.07 51.53 52.30 52.94 50.01 49.58 49.26 50.21 50.90 51.86 52.01 52.94 52.49 51.86 53.68
44.88 41.42 41.48 45.76 52.54 48.58 45.77 40.55 38.30 39.55 37.14 39.63 39.71 40.51 37.75 46.36 41.08 40.17 44.96 40.50 40.17 33.57 39.14 39.65 37.60 36.45 43.65 48.87 50.14 51.95 52.17 52.53 51.87 51.82 51.65 52.33 52.38 51.65 52.26 52.90 54.06 54.07 54.44 53.52
45.12 45.11 46.80 46.25 44.20 43.03 38.99 33.04 36.25 35.27 34.70 41.01 40.40 44.23 45.63 45.90 47.32 41.31 44.17 40.32 41.25 36.48 45.18 38.52 34.26 40.99 46.91 48.71 49.83 50.85 52.03 52.59 52.78 53.84 53.35 53.64 51.83 51.77 52.62 53.17 53.88 54.56 55.36 55.32
46.94 44.14 43.57 40.56 40.30 36.46 33.96 31.97 34.76 36.67 41.64 44.55 45.84 43.27 45.10 45.95 46.91 43.88 41.66 38.51 38.78 46.08 37.96 33.53 37.73 44.69 47.09 48.38 50.06 51.23 52.61 52.84 52.95 53.55 54.23 54.33 54.35 54.62 53.21 54.21 54.99 56.16 54.94 55.96
43.17 40.21 35.37 37.64 36.40 40.05 40.81 42.40 43.11 44.05 45.20 45.31 46.20 45.57 43.53 45.62 44.15 43.30 40.97 42.94 41.78 36.95 33.78 33.53 41.47 44.74 46.44 48.16 50.06 51.10 51.09 52.45 52.60 53.37 54.14 53.90 53.66 54.10 55.34 55.89 54.68 54.04 53.62 54.77
42.69 41.74 35.97 40.04 42.43 44.72 46.49 47.63 46.74 47.59 47.15 46.62 45.14 45.40 44.83 42.82 41.28 41.47 41.20 38.13 34.23 35.27 37.38 41.95 47.07 48.82 49.81 50.39 51.24 51.63 51.64 51.89 52.65 53.07 52.87 53.80 53.16 53.24 53.20 53.98 53.79 54.79 54.06 53.49
44.83 44.53 42.97 44.38 43.33 43.86 46.31 46.45 46.22 49.13 47.65 45.24 44.31 42.44 40.38 39.55 39.04 37.87 36.41 35.39 34.34 39.30 44.65 47.07 47.92 48.83 49.41 50.04 51.33 50.79 51.37 51.34 51.03 51.51 51.25 50.13 51.00 51.04 50.83 51.68 52.03 52.01 50.73 50.93
44.59 42.55 45.00 44.65 44.03 43.67 45.74 46.27 46.46 50.07 47.03 42.73 42.73 40.33 39.30 41.49 36.97 36.27 40.47 38.86 42.92 46.13 47.32 49.22 49.76 48.75 48.35 50.29 49.97 50.05 50.77 50.70 50.39 49.27 47.08 47.03 48.11 48.95 50.19 48.30 49.09 51.38 50.63 50.59

GFSNW_sfc_wetblb_015.txt.gz
Wetbulb
52.86 52.88 52.86 51.91 51.27 50.11 45.06 36.16 30.43 41.75 43.60 32.08 30.33 29.78 33.91 40.68 40.44 41.92 40.26 40.46 39.04 37.66 38.61 36.55 37.35 38.66 41.84 46.64 45.67 40.66 42.21 34.89 38.97 41.49 44.91 47.96 46.07 44.09 39.44 38.08 35.36 35.70 38.53 39.46
52.90 52.90 52.38 51.66 50.80 50.46 41.30 34.44 32.76 41.75 39.90 28.37 28.61 32.62 36.34 39.34 37.84 38.02 38.02 37.71 39.11 39.60 36.64 33.84 38.72 39.54 45.60 46.02 44.26 41.24 42.46 35.17 32.93 35.75 39.68 41.92 42.02 44.02 43.73 41.89 37.36 40.58 36.56 38.23
52.80 52.82 52.11 51.34 50.88 50.45 41.63 35.42 30.68 33.44 35.01 34.88 32.16 30.61 32.13 34.24 40.59 39.09 38.89 37.65 39.17 37.08 34.85 36.72 35.45 37.96 43.84 44.25 44.41 49.42 41.64 33.65 34.53 33.34 36.29 41.14 40.05 43.85 45.53 42.58 39.16 41.32 41.87 40.33
52.74 52.96 52.40 51.66 50.79 50.27 41.24 34.45 29.96 32.57 28.88 31.54 31.61 32.26 32.50 33.55 33.13 39.14 39.45 34.96 36.20 35.14 30.10 33.67 34.13 38.37 39.24 42.40 45.20 41.34 36.84 31.24 34.57 37.87 41.15 42.55 43.24 43.31 45.14 42.01 43.81 41.21 43.77 40.49
52.65 52.63 52.49 51.91 50.99 49.66 42.09 35.87 33.82 36.53 34.13 34.73 30.82 30.83 31.60 32.58 33.33 34.98 34.90 34.28 35.58 34.65 31.63 33.63 32.37 35.03 35.42 36.05 39.07 37.03 35.76 32.98 34.77 35.73 42.03 43.55 42.60 44.69 45.78 45.57 45.41 44.27 44.53 40.37
52.70 52.51 52.23 52.15 50.80 47.31 38.48 41.14 39.22 39.05 36.15 34.13 31.71 29.41 31.04 32.25 34.88 37.23 38.41 36.37 33.78 32.95 35.55 38.71 38.86 39.43 38.71 38.31 36.03 34.01 34.29 32.53 31.97 30.09 38.48 39.30 38.63 44.07 45.62 46.40 46.19 45.75 42.80 44.25
52.12 51.97 52.15 52.09 51.33 48.04 43.25 41.64 42.65 37.49 32.16 33.26 32.92 33.92 33.99 33.21 34.17 33.58 36.82 37.33 33.34 37.77 41.42 40.33 38.48 36.54 37.60 39.10 38.29 38.73 33.80 32.83 32.41 30.45 34.14 31.59 42.52 47.41 48.85 47.09 46.73 46.46 45.29 47.02
52.02 52.10 52.06 52.22 51.74 50.82 44.28 44.27 43.41 39.15 32.30 34.45 33.91 34.11 33.57 34.73 34.60 33.33 34.07 37.40 39.19 39.88 37.17 31.74 30.15 30.15 31.41 35.15 38.62 38.41 38.97 36.11 31.54 30.04 30.96 38.04 44.22 47.55 47.02 45.78 44.85 49.60 47.11 48.10
52.01 52.12 52.22 51.94 52.09 51.28 43.86 42.04 42.50 40.87 35.34 33.52 36.81 33.56 34.80 31.43 32.35 32.60 35.56 39.58 39.83 37.57 34.02 31.39 26.12 24.66 30.67 31.27 36.29 40.23 39.20 39.59 36.84 32.42 31.02 32.02 40.46 49.33 53.08 50.68 43.70 55.45 52.35 49.26
51.67 51.81 51.90 51.92 51.76 51.14 44.52 42.12 42.78 42.57 36.64 38.43 37.47 33.24 31.50 35.38 32.49 31.23 32.70 35.13 35.58 36.78 32.85 27.15 26.49 27.19 34.44 28.66 31.92 32.28 34.78 38.48 34.57 34.67 32.88 38.76 47.03 53.92 53.92 41.94 43.66 55.57 55.80 54.64
51.42 51.59 51.63 51.64 51.51 51.28 45.09 42.31 44.25 41.07 38.53 37.87 40.19 40.15 36.52 36.31 35.52 31.95 32.55 33.27 35.19 31.69 32.11 31.53 29.32 29.19 32.35 30.98 34.01 34.55 35.87 36.36 36.65 36.18 35.82 34.55 53.07 53.76 49.65 52.53 56.18 58.58 58.41 58.32
51.46 51.48 51.61 51.45 51.53 51.40 49.61 43.77 44.29 45.57 42.05 38.13 41.50 42.14 42.81 41.33 40.36 37.30 36.06 33.82 33.49 35.52 31.91 32.54 33.27 31.36 33.83 31.33 29.89 38.66 34.89 40.41 39.79 40.56 41.23 47.21 51.55 53.19 57.70 57.19 56.36 58.12 58.13 59.74
51.33 51.29 51.38 51.94 51.65 51.42 50.13 45.37 43.86 42.83 40.61 39.23 39.36 38.04 42.12 43.83 43.75 44.37 36.26 38.46 38.30 37.34 41.17 38.46 35.79 32.96 37.54 30.45 33.32 36.26 41.03 45.06 43.01 43.77 47.35 50.65 53.72 55.24 56.37 56.93 56.37 57.19 57.86 58.01
52.03 51.61 51.50 51.61 51.59 51.92 51.09 45.51 43.19 43.97 41.48 35.48 35.86 43.51 39.66 42.90 42.71 42.86 42.81 41.20 41.34 43.75 42.94 38.15 35.52 34.06 39.87 36.04 38.02 36.23 39.63 44.20 43.53 45.14 48.35 51.73 54.05 54.69 55.67 56.10 56.26 56.49 57.49 57.89
52.33 52.41 52.09 51.84 51.80 52.08 50.34 46.11 45.52 45.44 40.00 36.09 36.68 39.85 40.59 40.75 40.94 41.38 41.84 41.00 39.37 38.62 38.56 37.82 36.08 39.33 39.23 41.31 38.61 37.96 45.15 45.28 42.28 41.64 49.69 50.08 51.59 54.23 55.32 54.36 54.43 54.06 56.02 56.21
52.44 52.77 52.49 52.16 52.14 51.76 45.28 39.59 44.48 45.97 46.54 39.64 33.28 35.73 37.76 39.95 41.80 41.55 40.01 40.40 39.59 39.64 37.85 34.64 37.27 42.96 40.33 37.22 32.66 44.96 48.01 49.54 50.34 49.96 51.58 52.46 53.30 54.07 54.77 54.22 54.47 57.06 56.33 55.54
52.38 52.46 52.38 52.30 51.81 49.38 42.71 39.28 44.85 48.86 47.10 39.82 35.57 34.85 38.26 42.94 42.35 40.66 40.37 41.45 38.53 39.74 36.98 36.84 37.97 40.32 41.25 37.82 35.46 44.91 47.37 48.63 51.02 53.30 52.38 50.96 53.11 51.96 54.17 55.48 55.74 55.93 56.21 56.55
52.18 52.26 52.47 52.15 51.65 50.49 46.74 49.25 49.32 48.72 43.52 41.55 35.13 35.08 37.48 45.03 40.44 39.45 44.61 37.93 40.38 42.31 41.64 42.36 41.03 41.98 40.82 35.40 41.10 45.54 46.85 49.96 50.57 53.31 52.50 52.48 53.19 53.57 53.57 54.12 55.35 53.73 53.56 53.77
51.96 52.17 52.26 49.25 46.49 44.12 45.32 51.14 50.62 48.33 43.26 36.11 36.29 33.53 33.80 45.28 42.55 43.65 43.14 44.15 38.55 43.97 40.26 40.46 41.00 37.58 35.28 41.00 43.06 44.24 47.69 49.26 51.87 52.80 52.30 52.55 51.77 52.00 52.15 52.26 52.26 53.13 53.72 54.44
51.35 47.72 44.65 40.98 45.67 52.11 51.88 47.55 43.12 41.63 41.87 40.91 34.77 38.74 34.74 41.00 42.00 40.85 40.99 42.65 38.82 34.26 37.36 43.36 36.56 34.78 41.63 44.21 47.23 49.52 51.77 52.10 51.87 50.00 49.59 50.16 49.91 50.59 51.01 51.35 52.23 53.09 53.27 54.49
43.99 41.02 40.39 44.47 49.96 48.69 45.66 38.86 37.80 38.64 35.07 38.23 38.50 38.40 35.52 44.20 39.58 40.05 43.17 36.37 38.48 32.67 36.80 37.57 33.70 33.89 43.62 48.76 49.52 51.44 52.35 52.59 51.88 51.86 51.47 51.82 51.58 50.61 49.98 51.11 52.36 53.87 54.56 54.36
44.86 46.13 47.96 44.54 42.73 42.61 38.34 35.91 36.98 34.39 33.76 39.56 39.56 42.41 42.28 44.78 46.69 41.50 42.23 37.82 38.39 35.27 43.84 37.12 32.81 37.87 46.13 48.60 50.11 51.39 52.61 52.84 52.98 53.40 52.74 52.62 52.61 52.31 52.20 52.34 52.71 53.85 54.89 56.24
46.31 43.21 42.53 39.25 39.80 38.10 34.78 32.13 37.26 39.87 41.90 43.24 44.34 44.01 44.80 45.91 46.42 42.90 40.74 39.71 39.28 44.83 35.79 32.29 35.25 42.54 46.81 47.93 49.63 51.52 52.90 53.67 53.99 54.12 53.97 53.66 53.87 54.34 53.74 54.64 55.54 55.00 54.47 54.81
42.78 39.37 36.73 38.42 38.08 40.80 41.44 42.28 43.31 45.85 44.61 45.25 45.84 45.46 42.88 45.15 42.06 43.74 39.87 41.08 40.53 35.98 32.66 33.92 42.36 47.48 49.38 50.73 51.83 50.75 50.64 51.07 51.75 53.07 53.70 53.60 53.32 53.32 54.02 53.32 53.22 52.43 51.09 53.07
42.72 41.98 34.44 39.94 43.47 44.58 45.16 45.47 45.32 46.69 47.76 46.27 44.43 44.58 43.09 40.33 39.94 41.19 39.74 37.49 33.55 35.48 37.50 42.69 46.65 48.53 49.23 49.11 49.32 49.40 48.80 48.71 49.35 50.18 50.60 51.19 51.27 50.46 50.23 50.85 50.87 50.33 51.01 50.45
45.46 44.68 42.12 43.44 41.80 42.45 43.51 43.33 43.22 46.86 47.12 45.24 44.70 41.20 39.26 39.25 39.46 38.02 36.11 34.35 33.58 39.21 44.69 47.39 48.47 48.26 48.58 48.65 47.82 46.97 45.83 45.10 44.94 45.38 45.98 46.48 47.61 47.85 48.19 48.78 48.11 48.49 49.22 48.59
45.49 44.06 45.39 42.41 42.05 41.13 43.17 43.55 43.60 46.69 45.71 42.39 42.48 39.07 39.25 41.71 38.34 37.61 41.39 39.77 43.25 46.09 47.08 48.58 49.08 48.70 48.38 48.41 47.11 46.57 45.63 44.12 44.17 44.11 44.29 44.34 45.45 45.80 45.24 44.93 46.08 47.94 48.86 47.84

GFSNW_sfc_wetblb_018.txt.gz
Wetbulb
53.10 53.14 52.85 52.07 51.43 50.09 43.78 36.64 29.14 40.29 41.23 30.36 29.52 28.88 32.33 39.04 38.18 40.07 38.15 38.49 37.10 35.90 37.35 35.26 35.91 36.96 39.90 44.94 44.61 39.25 40.21 33.12 35.54 39.06 42.21 47.11 47.74 43.95 39.09 37.67 33.96 32.87 33.75 38.35
53.14 53.18 52.77 51.79 50.86 50.16 41.99 36.35 36.07 40.50 38.36 25.42 26.52 32.94 34.02 36.89 37.45 37.04 36.07 35.58 37.33 37.90 35.11 31.95 37.37 38.22 44.21 43.56 42.27 40.46 40.43 32.95 30.88 33.93 39.05 41.08 39.35 43.65 42.07 40.15 36.16 37.70 35.03 38.27
53.31 53.14 52.48 51.65 50.79 50.36 40.68 37.65 30.51 32.73 37.85 32.26 28.59 29.02 29.34 31.85 39.65 38.86 38.31 36.31 37.31 35.59 33.74 35.08 33.71 36.91 42.18 43.28 43.22 47.99 41.42 32.17 31.74 30.84 33.55 38.34 37.87 41.02 41.68 41.92 39.27 40.17 40.40 42.12
53.06 53.14 52.49 51.79 50.90 49.91 41.17 33.57 28.66 34.52 28.72 29.52 32.91 28.24 29.82 31.88 31.44 36.82 38.81 36.22 34.29 32.90 28.64 32.11 32.78 36.36 37.59 40.98 44.04 40.24 36.58 31.51 32.85 35.44 39.10 40.06 40.26 40.89 42.13 39.37 42.34 39.57 42.66 42.95
53.18 53.16 52.74 52.11 51.03 48.82 40.44 36.35 34.56 36.26 33.78 35.40 33.17 30.38 27.55 31.30 32.27 33.51 33.37 34.40 35.40 34.52 29.61 31.62 30.49 33.50 33.20 34.26 37.91 34.71 34.57 32.12 32.67 33.59 39.68 40.28 38.69 41.83 43.17 43.02 42.52 41.73 43.62 41.36
52.75 52.94 52.58 52.23 51.09 46.72 37.55 39.68 40.99 38.65 34.98 34.78 31.47 28.76 31.47 31.63 33.12 35.11 37.57 36.28 33.04 31.99 34.65 37.62 37.34 36.64 36.61 36.54 34.27 32.99 32.26 31.72 30.60 29.06 36.73 37.03 35.54 40.78 42.72 43.45 43.86 43.97 40.88 45.06
51.84 52.71 52.85 52.29 51.50 47.98 43.55 42.52 42.56 37.12 31.84 32.59 32.57 33.77 33.97 32.67 33.49 32.44 35.42 36.62 33.42 36.57 39.54 38.95 36.08 34.02 33.88 35.47 35.87 36.47 31.82 31.35 31.11 29.09 32.14 28.37 38.63 44.36 47.47 44.92 46.15 46.15 46.70 46.69
51.75 51.88 52.44 52.58 51.91 50.36 42.02 41.11 40.95 38.88 32.55 33.87 33.28 33.79 34.25 33.55 34.00 32.49 33.42 36.24 36.89 38.35 37.00 30.74 28.18 27.64 29.17 33.50 36.84 36.02 37.27 31.53 29.69 28.90 29.00 35.71 40.52 45.72 47.19 45.29 44.63 47.48 46.89 48.02
51.62 51.82 51.87 52.15 51.99 51.13 42.96 40.67 41.48 41.50 35.35 31.76 36.36 33.50 34.28 30.92 30.32 31.21 33.98 37.51 38.05 36.55 32.95 29.06 22.69 23.27 26.65 28.83 33.79 36.63 35.00 36.88 31.48 29.15 28.23 28.78 39.14 48.71 52.79 50.89 41.27 53.64 51.25 48.19
51.89 52.17 52.07 51.97 51.82 51.19 44.65 42.16 42.04 42.04 36.26 37.79 37.60 33.87 32.51 35.78 34.91 32.18 33.69 35.24 34.14 35.31 34.51 29.04 24.67 24.64 31.98 26.42 28.55 28.28 29.55 31.47 29.32 30.92 30.54 35.13 44.59 51.08 54.94 41.57 44.25 55.69 56.68 56.31
51.89 52.00 51.98 51.84 51.87 51.93 46.42 43.34 43.59 43.40 38.52 37.23 38.00 39.66 36.57 35.98 35.34 30.93 33.98 32.34 32.99 32.45 31.22 31.18 29.15 27.20 29.80 28.33 31.77 30.72 30.13 29.94 30.01 31.15 30.59 29.59 48.96 51.94 49.60 52.17 55.65 56.32 57.64 57.82
52.04 52.00 52.14 52.27 52.33 52.00 50.37 43.72 43.84 45.61 40.97 39.70 42.48 42.01 42.41 40.87 39.48 37.21 37.59 35.87 31.60 32.81 29.93 32.86 30.68 30.68 32.44 32.58 26.96 35.30 29.69 36.50 35.24 36.26 36.03 43.49 50.43 50.04 55.15 56.47 55.14 56.06 55.83 57.29
52.37 52.20 52.37 52.50 52.54 52.37 51.15 45.92 46.36 43.87 40.38 37.52 36.68 36.72 41.33 42.49 42.69 43.41 35.33 37.39 38.62 38.06 41.16 37.87 35.55 32.41 35.75 28.64 30.94 34.89 37.84 41.31 38.15 39.02 42.85 46.09 51.41 54.43 54.61 55.35 55.26 55.69 57.03 57.73
52.48 52.08 52.58 53.10 52.97 52.50 51.93 46.88 46.34 44.59 40.90 34.37 33.69 42.23 38.95 42.69 42.58 42.20 41.98 39.67 38.55 39.99 42.57 37.43 34.30 33.72 38.59 34.94 36.50 34.00 36.72 38.76 37.51 38.79 43.14 48.29 52.76 53.74 53.59 54.98 55.84 55.82 57.13 56.82
52.55 52.52 52.44 52.95 53.01 52.63 51.12 48.88 47.04 47.27 40.75 32.92 34.24 40.05 39.71 39.68 39.78 41.00 41.30 40.12 38.03 38.13 37.55 37.07 35.56 38.14 37.26 38.64 38.03 35.76 39.28 36.74 36.60 36.62 44.06 46.77 49.03 52.92 54.47 54.12 55.38 55.67 55.67 55.83
52.16 52.51 52.75 52.75 52.84 52.43 45.71 39.47 44.69 47.67 46.43 38.75 34.46 37.65 38.27 41.08 39.26 38.84 38.72 39.32 38.12 38.65 36.09 35.85 39.56 40.24 38.76 34.99 34.46 39.49 42.91 44.81 44.99 45.60 49.99 51.07 52.81 54.08 55.18 54.84 56.61 57.64 56.93 56.92
52.21 52.35 52.45 52.60 52.30 48.88 42.85 40.37 45.21 47.52 47.00 39.62 34.56 35.91 39.12 40.40 41.45 40.30 38.38 39.15 38.15 36.97 37.79 36.41 34.84 38.84 41.08 37.56 32.85 39.44 43.37 44.72 46.97 49.96 50.76 51.01 53.01 52.40 54.89 56.03 56.05 56.49 57.69 57.91
52.35 52.14 52.45 52.58 51.94 50.26 46.64 49.08 49.42 48.82 43.93 40.82 33.72 35.29 37.71 43.07 37.79 37.60 39.69 36.39 37.08 39.80 38.51 40.45 38.50 41.60 40.67 34.75 39.52 41.98 43.76 45.16 46.91 49.07 51.50 52.77 53.98 54.66 54.43 55.18 56.01 54.78 54.15 54.68
51.95 51.94 51.99 49.11 46.58 45.00 45.58 51.32 51.46 49.03 42.50 34.27 34.25 32.83 33.51 43.95 41.92 43.00 42.62 42.79 37.87 43.12 39.44 40.24 40.83 37.83 33.66 37.27 39.07 42.34 44.81 45.65 47.93 51.45 51.87 52.54 52.98 53.53 54.12 54.27 54.35 53.90 53.94 54.71
51.10 45.40 42.23 40.14 44.47 51.09 52.03 45.72 42.09 41.10 41.63 40.46 33.38 37.16 33.69 39.55 40.55 41.50 40.48 42.20 37.77 34.66 37.33 41.49 36.89 34.63 39.70 41.87 43.24 46.72 46.92 49.62 50.78 49.97 49.61 51.49 51.39 52.40 52.85 52.94 53.72 54.11 54.57 54.70
43.23 40.76 39.00 44.81 49.34 48.57 45.09 38.87 37.86 37.68 33.94 35.16 35.54 36.50 34.93 42.47 37.20 39.31 42.37 36.09 36.13 32.14 35.85 34.76 32.68 32.98 41.12 46.81 47.40 51.20 52.29 52.17 51.94 52.03 51.82 51.89 51.63 52.24 52.55 52.53 53.24 54.25 54.68 54.62
46.33 46.57 48.41 45.38 43.14 42.84 39.18 37.05 38.36 35.44 34.71 40.11 38.52 41.30 40.09 42.05 45.12 41.31 41.36 36.13 34.25 33.03 42.55 34.55 32.14 37.73 44.87 49.37 50.52 52.46 52.96 52.87 52.94 53.46 52.92 53.00 52.91 52.21 53.16 54.33 54.64 54.76 55.01 55.72
46.50 42.01 40.41 41.32 42.55 38.30 36.72 34.31 37.60 40.09 44.00 43.92 44.98 43.57 45.08 46.05 46.37 43.12 40.98 38.41 36.79 42.47 34.13 31.20 39.82 45.04 45.98 46.81 49.50 50.53 52.89 53.39 53.23 53.24 54.23 53.96 53.02 52.76 52.46 52.31 53.69 55.26 54.46 53.95
41.54 39.75 35.39 39.11 38.37 39.88 40.85 40.46 41.00 45.22 45.38 44.06 43.50 43.89 42.64 43.35 39.64 42.78 38.92 40.86 40.03 34.74 31.58 35.04 42.43 44.10 44.32 44.39 45.33 45.69 46.93 50.51 49.80 50.17 50.32 50.06 49.48 49.11 49.87 50.69 52.47 52.16 51.89 52.56
41.04 41.75 35.35 37.08 42.61 43.64 43.78 44.49 44.06 45.08 46.00 43.26 43.01 41.65 41.81 40.83 41.29 41.39 38.74 37.35 33.57 35.17 35.98 41.00 44.60 45.67 44.85 43.58 43.60 43.90 44.52 44.60 45.65 46.17 46.38 47.14 47.90 47.31 47.50 48.35 49.00 48.11 47.23 47.10
44.43 42.92 39.30 41.75 40.41 40.21 41.26 40.97 40.30 44.46 45.86 44.85 43.87 40.78 39.35 39.60 39.93 38.24 37.32 33.53 33.77 39.55 43.64 45.96 46.06 44.78 44.03 42.95 42.75 42.64 43.41 43.91 43.89 44.63 45.33 45.34 46.02 46.50 46.26 46.90 46.50 45.98 45.17 43.84
43.24 40.94 41.79 40.63 40.18 39.26 40.89 41.76 40.89 42.87 42.98 40.93 42.38 39.56 39.11 42.02 37.97 38.11 40.68 38.63 41.97 44.35 44.72 45.92 46.11 45.27 43.34 41.85 41.09 41.15 41.12 41.21 41.81 42.29 42.67 43.66 45.33 45.30 44.98 43.25 43.84 44.04 43.99 44.62

GFSNW_sfc_wetblb_024.txt.gz
Wetbulb
53.48 53.63 53.52 52.46 51.39 50.06 49.43 47.18 40.22 50.12 51.59 42.23 42.16 37.68 38.57 39.45 40.91 43.71 42.88 42.92 41.54 42.03 43.16 43.61 44.52 45.02 46.87 48.40 50.46 49.01 52.80 51.16 48.62 49.28 53.15 53.86 52.71 51.04 51.09 46.70 46.73 48.10 48.18 48.42
53.30 53.55 53.32 52.26 51.19 50.54 49.39 43.60 44.10 50.98 49.19 35.90 36.62 39.76 39.12 40.21 39.91 39.63 40.14 40.00 42.58 43.63 42.28 40.68 43.56 45.25 47.12 48.11 49.83 49.81 52.18 48.81 46.32 48.13 51.19 53.17 51.15 51.92 52.36 51.65 51.56 49.01 45.96 49.05
53.30 53.30 52.88 52.17 51.39 50.56 49.64 44.23 38.81 44.25 45.38 45.14 38.63 36.55 37.14 36.92 41.32 39.52 40.57 38.80 41.97 41.41 41.03 44.16 42.00 43.47 45.75 47.26 47.77 48.55 49.06 50.19 48.77 46.48 48.93 51.20 49.37 50.76 51.98 51.08 48.28 48.76 49.58 50.98
53.02 53.32 52.76 52.29 51.54 50.03 49.64 45.11 40.16 40.57 36.16 38.17 37.73 37.78 37.89 34.98 34.05 39.94 41.26 36.15 36.60 35.82 36.99 40.32 40.16 42.76 44.81 46.17 47.81 48.47 49.17 46.89 48.13 50.77 48.36 48.73 50.65 50.09 51.09 50.42 51.23 48.95 50.98 51.68
52.77 53.06 53.03 52.66 51.48 49.90 47.73 41.26 40.36 43.07 37.77 39.11 38.05 36.83 36.19 34.90 35.63 36.45 36.19 35.30 35.19 36.26 34.99 35.81 36.01 39.89 42.76 42.85 45.98 46.08 47.73 45.73 46.65 46.27 47.77 47.27 46.61 48.99 49.98 51.00 52.01 51.82 52.01 52.05
52.62 52.73 53.16 52.92 51.69 49.16 46.65 48.28 47.37 43.07 38.10 37.70 37.21 36.55 34.48 34.94 36.96 39.37 39.55 38.41 37.21 36.21 37.78 40.34 42.52 44.38 44.59 44.71 43.13 43.37 44.34 45.20 44.20 43.45 47.21 46.68 44.10 47.95 49.06 50.20 51.71 51.59 49.26 53.39
52.42 52.56 52.99 52.82 52.52 50.98 49.63 47.57 46.32 40.13 35.39 36.64 35.16 36.35 36.26 34.89 35.50 33.87 39.19 40.23 37.53 41.28 45.93 45.52 45.22 44.41 43.95 44.06 44.18 45.39 42.90 43.39 44.26 43.19 44.94 37.68 48.67 53.36 52.29 50.55 51.76 53.07 53.33 54.53
52.36 52.50 52.38 52.79 52.47 52.00 49.24 49.91 46.67 41.28 35.55 37.42 37.90 36.68 36.15 37.67 37.49 36.30 38.83 41.01 43.53 46.01 43.28 39.44 36.89 38.54 39.02 40.79 42.78 43.42 45.00 43.34 40.84 39.08 40.40 45.69 47.34 48.67 49.42 49.92 50.44 54.13 54.24 55.51
52.58 52.27 52.49 52.79 52.78 51.96 50.05 49.11 50.01 45.48 37.28 37.32 39.81 37.37 37.58 35.88 35.99 36.89 38.47 43.56 46.37 44.60 40.88 37.62 31.84 33.08 35.25 36.00 38.28 43.88 44.69 44.54 41.22 40.92 36.86 37.15 46.83 50.79 54.68 53.61 47.97 55.70 58.15 58.44
52.27 52.69 52.83 52.66 52.98 52.33 50.75 48.13 49.70 45.43 38.53 40.37 41.32 36.90 36.67 39.53 38.17 36.12 38.75 39.49 40.58 43.85 37.63 34.29 33.50 32.97 38.25 33.76 35.42 37.85 38.28 40.01 37.65 38.41 37.76 42.56 49.29 52.78 57.11 45.92 52.07 59.97 60.42 61.16
52.45 52.64 52.60 52.93 53.11 53.30 51.67 48.37 48.67 44.81 39.66 41.69 44.63 44.04 40.66 39.51 38.40 35.11 38.65 38.26 39.93 39.94 35.20 35.03 37.18 35.08 38.78 37.04 39.27 38.19 37.73 36.56 36.86 38.36 36.78 35.10 48.98 48.95 47.43 54.61 59.06 59.43 60.59 62.08
52.60 52.37 52.61 52.80 53.21 53.56 52.84 47.70 48.62 48.67 42.79 41.48 47.36 47.77 47.25 45.65 44.13 39.80 39.61 38.91 39.45 43.27 38.67 40.48 39.17 36.50 38.70 37.24 33.93 42.79 36.14 40.29 39.47 41.38 41.06 48.40 50.43 50.50 53.37 54.42 54.98 58.35 58.61 59.96
52.24 52.22 52.61 52.95 53.52 53.34 52.63 49.13 46.74 45.31 41.52 41.04 42.50 45.08 49.07 50.87 49.56 48.86 37.85 39.70 41.89 41.52 44.47 39.37 39.82 35.13 40.49 34.98 36.36 39.06 42.66 45.38 41.02 41.63 44.25 47.12 49.10 51.15 52.70 54.49 54.83 56.85 59.19 59.89
51.97 52.31 52.74 53.07 53.50 53.49 53.13 50.50 47.37 46.70 43.17 37.24 42.00 49.26 47.10 50.55 50.14 48.86 48.05 45.63 45.25 44.03 43.61 40.54 37.10 35.21 41.67 38.90 40.90 39.86 42.86 43.89 42.45 42.66 45.92 47.22 48.80 50.71 52.31 53.48 56.56 58.16 59.39 61.23
52.13 52.27 52.75 53.20 53.11 53.22 53.95 54.02 49.67 49.55 43.06 37.69 40.08 46.34 48.88 49.49 49.40 47.73 47.78 45.53 42.97 40.48 38.78 37.20 35.60 38.96 38.45 41.65 40.24 38.60 43.59 42.35 40.68 40.27 46.84 46.83 48.06 51.75 53.85 53.89 54.74 57.11 58.59 60.34
52.01 52.69 52.67 52.73 52.50 52.10 52.18 46.28 49.83 50.28 48.31 40.71 36.23 46.52 46.02 47.63 47.10 46.44 45.50 44.50 43.09 41.42 38.49 36.88 39.00 41.85 39.50 37.55 36.14 44.03 46.44 48.21 48.20 46.38 50.18 50.16 51.59 52.46 53.26 53.59 54.59 56.54 59.14 62.35
52.44 52.68 52.49 52.92 52.45 51.73 48.53 44.99 47.94 49.88 49.41 39.97 36.54 38.36 46.01 46.21 46.04 44.74 43.29 44.18 42.11 40.53 38.89 37.23 37.67 39.83 40.60 37.36 34.69 42.16 46.26 47.43 47.76 48.36 48.19 47.09 49.94 49.87 52.74 54.92 56.79 57.87 60.92 60.99
52.50 52.31 52.62 52.53 51.69 50.79 47.98 50.25 49.34 50.00 45.12 41.69 35.48 36.81 40.03 45.79 42.20 41.56 43.78 39.56 39.87 39.07 37.49 38.50 37.48 39.82 38.87 34.41 39.60 43.24 44.74 46.14 46.22 45.92 46.58 47.23 49.78 51.39 51.10 54.11 58.15 57.80 57.62 57.18
52.38 51.60 52.42 53.02 51.41 47.72 48.16 51.95 50.40 50.18 44.40 35.84 34.83 33.43 34.99 43.85 41.38 43.49 40.94 39.89 34.65 40.00 35.89 37.30 39.61 36.54 32.87 37.13 39.24 39.84 42.32 43.29 42.92 45.49 45.93 47.14 49.43 51.12 51.29 53.82 55.20 51.67 56.21 57.09
50.74 52.46 51.71 49.99 50.88 52.22 51.13 46.42 43.06 42.44 42.62 39.86 33.79 36.64 33.26 39.12 39.53 40.20 40.30 41.51 36.37 34.34 36.79 37.94 33.61 33.25 37.78 40.68 45.70 49.63 44.27 43.87 45.69 43.84 43.63 46.63 49.75 52.24 53.30 52.74 52.12 54.38 56.17 57.70
54.67 53.40 51.09 53.53 51.62 49.10 48.41 44.63 39.53 39.55 36.55 37.95 37.77 37.46 36.26 42.42 37.10 38.61 41.28 37.48 36.06 33.43 37.03 34.62 32.71 33.02 38.26 44.05 45.90 48.04 50.31 47.93 47.40 48.29 49.11 51.47 53.42 52.62 52.56 53.57 56.64 57.08 56.49 57.04
51.37 51.15 50.42 53.03 51.30 48.85 43.99 40.98 42.41 41.54 40.75 46.37 42.48 44.65 41.19 42.72 43.89 41.37 41.84 37.64 39.04 35.66 44.45 37.33 32.15 34.65 41.60 43.10 44.65 46.35 48.09 51.16 51.74 51.21 50.61 52.76 52.82 52.20 53.10 52.38 52.17 53.34 53.84 54.65
55.11 51.17 48.20 48.50 46.39 37.19 36.09 32.89 37.89 39.45 45.83 47.50 47.31 45.51 48.58 49.82 48.22 47.98 46.73 41.15 39.76 47.07 38.77 32.34 33.61 39.73 42.26 42.72 43.74 45.87 46.98 47.45 48.32 48.83 49.12 47.71 47.53 47.90 48.82 48.64 50.40 51.68 51.78 53.76
51.59 47.13 37.84 42.99 41.40 40.30 39.71 40.74 42.50 46.24 47.44 48.71 50.18 48.26 47.20 49.14 45.30 45.10 40.94 44.65 43.78 37.30 33.07 32.34 38.69 42.80 43.59 43.91 44.50 45.68 45.13 46.03 46.48 46.83 47.58 46.82 46.46 46.57 47.97 48.65 51.13 51.43 50.23 51.92
48.61 47.92 39.71 42.41 45.28 47.07 47.90 48.54 47.69 49.51 50.45 51.14 50.91 50.83 49.86 46.96 44.63 44.87 42.19 39.77 35.06 34.31 34.13 39.47 43.80 44.95 44.51 44.56 44.51 45.84 45.93 46.41 45.93 46.16 46.57 46.74 46.25 45.70 45.02 45.68 46.12 47.50 49.80 49.90
49.74 47.93 44.99 46.95 45.60 45.55 47.51 48.01 47.78 50.76 51.98 54.51 52.27 47.11 44.10 44.12 43.88 38.26 36.79 35.43 32.69 36.02 41.14 43.72 44.48 44.05 45.02 45.23 46.34 46.87 47.36 47.92 47.28 47.77 47.56 48.37 49.14 47.54 46.06 46.39 46.36 45.41 46.75 46.48
47.46 46.54 49.43 48.32 47.56 46.54 47.46 48.12 48.00 51.86 49.81 46.84 47.23 40.35 38.36 43.73 38.55 36.62 38.14 35.68 38.01 40.84 41.57 42.19 43.92 45.01 46.58 47.62 46.83 46.88 48.28 48.52 48.43 48.95 48.67 47.57 48.15 48.92 48.63 47.40 47.97 47.95 47.39 47.31

GFSNW_sfc_wetblb_027.txt.gz
Wetbulb
53.84 53.86 53.56 52.95 51.81 50.42 50.57 50.22 43.39 52.45 53.11 43.54 42.60 37.40 40.34 40.77 42.08 44.32 42.51 43.46 42.71 40.88 41.93 41.07 45.17 48.57 49.60 50.36 52.54 51.42 54.47 52.81 49.91 51.51 54.34 55.32 54.39 52.39 53.01 48.04 48.91 49.75 50.10 52.00
53.92 53.96 53.38 52.68 51.31 50.94 50.23 47.03 46.99 52.97 50.35 38.61 39.58 41.33 40.12 41.84 41.36 41.04 40.91 40.02 41.59 43.67 41.23 39.08 42.28 45.94 50.30 50.03 51.85 51.52 55.05 51.33 48.23 50.81 52.50 54.05 52.05 53.07 53.90 53.17 52.67 50.66 47.40 49.96
53.96 53.84 53.34 52.58 51.79 51.18 49.83 47.50 42.34 46.03 46.83 45.30 40.82 38.81 38.70 37.68 42.11 40.68 41.89 41.29 42.62 40.63 40.82 43.30 42.01 42.64 47.92 49.47 49.85 51.18 52.44 51.65 50.34 49.00 51.69 52.77 50.42 51.80 52.77 52.83 49.97 50.39 50.84 52.41
53.82 53.82 53.30 52.85 52.14 51.26 50.09 46.73 43.34 44.15 38.97 41.02 41.30 41.23 39.30 37.51 36.24 41.21 42.24 38.99 38.79 38.10 36.30 39.91 37.95 42.64 45.95 49.23 51.05 51.79 51.91 48.88 51.73 52.66 53.74 53.78 52.17 51.28 51.92 51.34 52.78 50.21 52.60 53.01
53.84 53.90 53.49 53.11 52.50 50.96 49.19 43.08 41.21 43.82 40.87 41.11 40.74 40.37 38.39 37.52 38.32 39.16 38.34 37.76 39.00 39.44 37.06 37.84 35.66 40.17 41.92 43.35 47.93 48.64 51.63 47.31 51.16 50.59 52.79 51.57 50.62 53.13 52.64 52.49 52.66 53.10 53.34 53.88
53.74 53.66 53.45 53.15 52.62 50.40 45.68 48.06 47.92 44.04 41.03 39.79 38.37 37.87 39.03 38.28 38.70 41.01 41.44 40.25 38.73 38.23 39.86 43.15 44.97 45.03 46.02 45.38 43.93 45.23 46.96 47.95 48.82 46.77 51.23 50.64 47.32 51.53 52.92 53.58 54.25 54.04 51.57 55.54
53.52 53.47 53.45 53.11 52.76 51.43 49.45 47.45 45.20 40.47 37.39 39.41 39.12 39.42 39.20 38.50 39.55 38.24 41.03 42.14 40.46 43.21 46.86 46.66 46.51 45.77 45.26 45.40 45.94 47.65 44.98 46.47 47.77 45.88 49.24 42.04 51.53 55.48 54.63 53.31 54.66 55.82 55.96 57.16
53.08 53.25 53.62 53.47 52.84 52.34 49.80 49.22 44.67 40.95 37.65 40.36 40.57 39.78 39.22 39.65 40.55 40.16 41.42 42.78 44.83 47.06 44.78 40.24 39.02 40.08 41.10 42.71 44.23 45.33 47.17 45.16 44.19 43.37 45.43 48.78 50.76 53.32 53.13 52.08 52.14 55.86 55.45 56.55
53.24 52.85 53.11 53.42 53.18 52.51 50.93 49.26 49.16 43.43 38.08 38.96 42.48 40.31 40.97 37.44 38.67 39.92 41.78 45.84 47.26 45.21 41.24 39.04 34.10 34.57 38.80 38.90 40.73 45.78 45.87 46.61 42.71 44.26 42.09 42.48 50.38 53.29 54.77 55.41 49.36 56.57 56.54 56.68
52.89 53.08 52.76 53.37 53.70 53.01 51.54 49.48 50.12 44.76 38.06 42.38 43.42 39.93 39.58 42.40 40.30 37.63 39.98 41.78 42.67 45.53 39.45 35.80 35.70 34.90 41.16 37.21 38.75 39.55 40.56 42.05 39.83 41.05 41.01 46.46 53.13 55.63 56.44 47.25 53.18 61.46 59.19 59.60
52.64 52.60 52.93 53.44 53.44 53.57 52.36 50.36 50.71 45.63 40.43 41.30 45.66 46.58 41.24 42.74 40.65 36.62 41.49 41.24 42.74 40.56 37.33 37.16 37.42 36.54 41.14 39.53 41.76 41.12 40.31 39.32 39.79 41.44 39.77 39.07 52.51 52.00 50.17 53.84 57.21 57.81 59.68 60.01
52.55 52.41 52.92 53.17 53.67 53.79 53.47 48.63 50.20 49.81 43.54 42.67 49.28 49.59 50.11 48.75 46.51 41.99 42.47 41.74 41.70 41.41 40.06 41.12 40.70 38.11 39.99 39.62 35.88 44.72 38.71 43.23 41.36 42.91 43.85 51.13 53.14 52.40 54.39 54.62 54.68 56.34 57.89 59.65
52.59 52.59 53.17 53.42 53.73 53.57 53.17 51.05 48.41 46.80 42.11 41.86 43.03 45.78 49.97 52.46 50.01 49.96 39.17 42.53 44.64 43.28 45.33 41.25 40.81 37.14 41.99 36.58 38.53 41.03 44.87 47.54 43.24 44.03 47.24 48.58 50.67 52.74 53.51 53.86 54.08 55.62 56.66 57.78
52.49 52.76 52.90 53.32 53.75 53.59 53.59 51.17 48.16 47.63 43.96 37.31 42.79 51.52 48.43 50.99 50.97 49.77 48.46 46.60 46.03 45.17 45.88 41.20 40.26 37.22 44.26 39.89 40.96 41.45 44.57 45.79 44.13 44.13 47.03 48.63 49.92 51.42 52.20 53.12 54.27 54.98 57.64 59.20
52.33 52.74 52.93 53.48 53.46 53.38 53.82 54.76 50.27 50.24 44.73 39.12 40.86 47.79 49.97 51.04 50.34 48.62 47.72 45.83 44.25 41.68 39.34 39.44 38.20 41.87 41.14 43.23 42.48 40.68 45.39 43.71 41.58 41.75 48.47 48.58 49.49 52.24 53.12 52.14 53.39 55.99 56.77 56.95
52.32 52.81 53.03 53.07 52.99 52.10 52.92 47.99 51.64 51.98 49.33 41.50 37.52 47.38 46.20 48.51 48.90 46.86 46.17 45.91 44.61 43.23 40.84 38.96 40.33 43.40 40.02 37.43 38.43 45.20 46.74 47.96 48.23 46.43 49.79 49.89 52.00 52.79 53.79 52.70 54.48 55.16 55.67 56.58
52.76 53.13 53.00 52.93 52.78 54.96 49.05 46.62 50.02 50.91 50.24 41.00 37.20 39.30 45.95 47.18 46.67 46.18 45.40 45.99 43.95 42.31 39.10 37.20 38.53 39.63 39.82 36.80 35.05 43.07 45.16 46.56 48.28 49.16 48.57 48.62 50.59 49.71 54.00 53.90 54.18 54.42 55.24 55.78
52.88 52.67 52.61 52.30 51.62 50.71 50.81 52.10 50.28 50.95 45.71 42.55 35.94 37.01 40.68 45.68 41.68 41.24 43.75 39.90 40.59 38.48 36.49 37.46 36.58 38.50 37.61 33.50 39.19 42.61 43.32 44.13 46.20 48.89 49.78 49.03 51.29 51.78 52.65 53.25 54.14 54.43 55.61 57.66
52.21 52.47 52.79 54.38 51.13 49.43 49.65 51.29 50.62 50.64 45.41 36.78 35.82 33.69 34.37 43.24 41.26 43.57 41.51 39.31 35.31 39.63 35.25 35.20 36.47 35.44 32.97 36.58 35.95 36.34 39.37 40.45 41.79 48.02 47.79 48.19 49.37 50.28 50.83 51.57 53.15 52.46 53.67 58.24
51.24 52.36 51.58 48.91 52.89 52.72 50.75 47.02 44.97 43.10 43.10 40.84 36.05 38.71 34.73 40.18 40.28 40.29 40.98 39.77 37.39 35.51 37.92 38.20 33.87 32.97 37.49 39.66 44.69 48.96 47.50 43.60 43.45 43.28 43.18 43.98 45.12 49.05 49.88 50.86 53.75 53.48 57.19 56.16
54.70 55.26 53.09 55.19 53.44 49.85 49.67 48.20 46.68 46.81 44.06 43.34 43.17 40.56 38.95 43.36 38.48 39.49 42.04 38.82 38.12 34.78 40.26 38.43 33.69 32.95 38.05 43.02 45.41 48.51 50.30 48.52 46.89 46.41 46.85 47.90 48.79 49.86 51.45 53.65 56.10 56.75 55.49 56.08
53.23 54.33 55.09 58.06 52.03 50.73 47.38 44.73 47.18 46.27 45.80 49.34 48.02 49.77 45.08 45.72 44.57 41.86 45.69 43.81 43.92 38.50 46.12 38.78 32.61 36.68 42.61 43.77 45.30 46.59 47.59 48.20 48.35 49.97 49.15 50.79 52.06 54.20 54.23 52.53 53.60 52.54 51.80 52.42
58.26 54.24 49.91 49.92 49.85 41.70 39.11 34.78 39.76 40.33 46.85 49.13 49.44 50.31 52.40 51.49 49.12 49.31 48.00 41.58 40.52 47.02 40.05 32.61 36.49 43.04 44.27 44.88 46.49 46.72 48.09 47.86 47.72 47.50 47.70 47.59 48.41 50.26 50.47 50.31 51.04 51.39 50.52 50.28
53.74 48.91 40.71 45.00 43.81 44.47 43.94 44.80 45.71 50.32 50.66 50.86 50.82 51.63 53.14 52.09 49.63 48.49 41.93 45.91 44.18 37.38 32.79 33.32 41.98 44.22 46.49 47.51 48.54 48.13 47.04 47.85 48.23 47.36 46.81 46.56 46.63 46.37 47.93 49.39 49.65 49.60 47.99 47.64
50.64 49.94 42.56 45.02 48.09 49.74 50.00 51.44 51.32 52.61 54.11 53.78 51.02 50.70 51.22 48.23 45.53 45.14 44.04 40.77 36.74 36.21 34.58 40.01 43.17 46.49 47.69 47.60 48.08 48.44 48.65 49.57 48.74 50.04 48.37 47.22 46.72 45.94 46.01 48.09 48.50 49.55 50.38 49.71
52.46 50.34 47.44 49.35 47.98 47.74 48.92 49.56 49.41 53.14 53.28 55.15 51.64 48.39 46.08 44.07 44.20 38.74 37.07 36.18 33.30 36.88 41.86 44.77 47.26 47.31 48.27 48.61 48.07 48.15 48.66 49.08 49.18 49.36 49.38 49.83 48.06 47.80 47.88 47.78 48.63 48.13 47.16 47.65
49.55 49.18 51.86 50.35 48.78 47.90 48.85 50.09 50.06 53.52 51.59 48.54 48.99 42.49 41.17 45.33 41.28 38.10 39.68 36.68 38.55 45.26 45.39 45.45 47.83 47.99 48.74 48.62 48.53 47.74 47.79 48.53 48.64 49.00 50.47 49.93 50.39 50.08 48.60 47.82 48.30 48.46 49.26 49.20

GFSNW_sfc_wetblb_030.txt.gz
Wetbulb
54.14 54.40 54.13 53.21 52.15 50.67 50.38 50.04 44.92 53.65 53.15 43.62 43.71 39.95 41.18 41.60 42.38 44.96 42.41 41.82 40.30 38.70 38.87 37.80 38.78 42.47 46.25 51.31 50.90 50.15 52.96 49.93 48.09 51.34 54.97 55.20 53.54 51.98 52.59 47.95 47.91 49.61 49.63 49.80
54.49 54.36 53.83 52.95 51.81 51.42 49.36 46.61 48.67 53.81 50.58 39.32 39.66 42.11 40.93 41.43 41.20 41.80 40.81 39.92 41.56 41.42 38.14 35.01 39.32 41.16 47.13 49.58 49.39 48.72 51.61 50.00 46.76 48.74 52.95 54.47 52.13 52.59 53.12 52.80 51.67 50.17 47.23 49.14
54.24 54.03 53.56 52.90 52.20 51.94 50.07 47.17 42.16 47.53 46.88 46.06 42.02 39.72 38.86 39.06 43.64 41.95 42.31 40.82 42.60 40.18 37.75 39.79 36.95 39.10 45.14 48.29 49.19 54.85 52.67 49.61 49.68 47.32 50.60 53.74 51.10 51.54 52.85 52.08 49.06 49.76 49.88 52.34
54.02 54.10 53.76 53.02 52.50 51.78 50.29 46.68 43.15 44.63 38.70 41.36 42.03 41.57 40.48 37.33 37.67 41.37 42.09 39.81 39.80 38.73 34.87 36.31 36.97 40.05 41.88 45.10 51.02 50.00 51.85 47.94 50.83 51.56 53.38 53.86 51.70 51.12 51.87 51.48 53.10 50.16 52.11 52.55
53.91 54.20 53.95 53.46 52.90 51.68 48.77 42.76 41.96 44.13 41.52 43.22 41.70 40.80 39.00 38.51 39.09 39.13 37.80 38.31 40.04 40.04 36.06 36.99 35.35 38.46 39.78 39.18 44.87 45.74 49.64 47.06 50.98 50.01 52.79 53.15 51.48 52.16 52.12 52.06 52.10 52.80 53.19 53.41
53.78 53.85 53.87 53.35 52.80 51.98 47.35 48.37 45.11 42.79 40.12 41.56 39.62 40.25 40.15 38.99 41.22 41.72 41.85 40.04 39.45 38.28 39.51 42.47 42.89 43.59 43.29 43.25 42.19 43.20 45.47 46.50 46.95 45.80 51.24 51.54 49.13 52.46 52.47 52.70 53.55 53.22 51.85 56.29
53.45 53.63 53.67 53.42 53.10 52.24 51.44 48.56 44.57 38.45 35.53 39.18 39.69 40.87 41.52 40.32 40.77 38.72 41.33 42.57 40.34 43.36 46.88 45.52 44.60 43.77 43.77 44.29 44.80 46.23 43.37 44.54 46.04 44.74 48.76 41.72 52.24 56.44 55.60 53.80 54.20 55.35 56.12 58.24
53.22 53.51 53.49 53.59 53.50 52.67 52.89 50.11 44.02 39.41 35.78 39.82 40.98 41.26 41.54 42.53 42.46 41.13 41.95 43.58 45.66 46.99 44.28 39.27 37.11 38.28 40.27 41.80 44.34 44.37 46.60 44.55 42.95 43.26 44.50 49.45 51.91 54.39 53.87 53.04 53.54 56.79 56.56 58.10
52.93 52.95 52.80 53.42 53.41 52.88 53.89 50.35 48.26 43.09 36.92 37.30 42.15 40.76 41.72 38.66 40.23 40.65 42.31 45.93 48.21 46.07 40.77 37.27 33.13 32.61 38.81 37.28 39.91 45.80 45.58 46.62 42.72 43.92 41.81 41.24 50.80 55.20 56.79 56.62 49.76 60.46 58.41 56.77
52.80 52.93 53.32 53.61 53.69 53.17 53.64 50.50 49.71 44.55 37.74 40.94 42.38 38.83 39.95 43.40 41.92 39.17 41.99 42.82 43.23 44.89 38.03 35.26 34.67 34.53 40.86 37.57 37.58 38.98 40.03 41.71 40.05 41.52 41.54 47.39 51.98 55.02 56.89 48.55 50.28 59.44 60.61 60.30
52.36 52.96 53.23 53.46 53.71 53.66 53.28 50.69 50.76 45.51 40.72 41.20 44.47 45.27 41.88 42.60 42.90 37.99 42.46 41.18 42.39 41.13 36.94 37.07 36.92 35.80 39.84 39.89 41.66 40.24 40.16 38.38 38.96 41.81 40.72 39.13 52.16 53.43 50.54 54.92 56.33 56.91 58.27 59.29
52.69 52.98 53.31 53.44 53.64 53.85 53.48 48.64 51.36 49.91 44.00 42.72 47.83 47.13 48.49 47.96 47.32 43.43 43.70 41.05 41.69 42.10 38.38 40.01 39.20 37.06 39.17 38.65 35.39 45.11 39.69 43.97 41.38 43.18 44.11 54.18 53.18 52.59 54.42 55.21 54.80 54.89 56.15 56.60
52.88 53.17 53.42 53.39 53.78 53.76 53.26 51.18 49.74 47.80 42.53 42.35 42.43 44.23 50.10 51.57 50.51 51.07 40.39 43.63 44.79 43.58 45.36 40.81 40.03 37.36 41.51 36.45 38.61 39.11 42.96 47.27 43.23 44.18 47.41 48.83 50.48 52.36 53.37 54.17 53.59 54.54 54.99 55.78
52.76 53.02 53.31 53.48 53.76 53.91 53.50 51.81 49.13 47.93 44.03 37.58 41.85 51.14 48.38 52.09 51.25 49.99 49.32 46.86 47.10 46.69 45.23 40.78 40.06 36.92 43.70 39.28 40.78 40.34 43.67 44.87 44.00 44.02 47.20 48.97 49.81 51.50 52.26 52.63 53.46 53.48 54.76 55.50
52.66 53.11 53.46 53.62 53.48 53.58 53.59 54.07 49.96 50.66 44.95 39.34 41.18 47.31 49.91 49.89 50.37 48.90 49.65 47.53 45.38 43.02 40.38 38.71 36.76 41.02 40.78 42.85 42.29 40.18 44.66 42.98 40.52 40.57 47.74 49.06 50.58 52.11 53.20 52.15 52.25 53.51 53.64 54.83
52.62 53.13 53.58 53.44 53.17 52.43 53.78 48.59 52.33 52.21 49.75 41.67 37.05 46.10 46.78 47.84 48.89 48.26 46.50 46.51 46.05 45.51 41.38 40.07 41.07 43.44 39.67 36.62 37.56 44.38 46.62 47.64 47.05 43.75 47.57 48.73 50.81 51.75 52.85 52.61 53.69 53.95 54.23 55.27
53.25 53.55 53.30 52.86 53.06 53.72 50.23 47.08 50.28 51.23 50.70 41.55 37.04 37.99 45.87 46.83 46.47 46.57 45.56 46.46 44.16 41.90 38.68 36.71 37.98 39.21 39.77 35.83 33.44 40.74 43.26 45.26 46.56 47.20 47.48 46.59 49.14 49.25 52.56 53.15 54.37 55.00 55.13 55.51
53.03 52.87 52.75 52.80 50.28 49.95 50.92 51.73 51.11 51.65 45.94 43.32 36.56 37.27 40.47 45.35 41.74 41.38 44.17 40.42 40.40 38.93 36.88 37.21 36.48 38.60 37.29 32.63 37.41 39.40 40.90 41.49 41.64 43.24 45.57 46.70 49.62 50.86 52.24 53.64 54.00 53.00 52.88 53.85
52.55 52.30 52.55 54.86 51.74 49.78 50.73 51.30 50.88 51.11 46.87 39.90 38.49 35.53 37.85 44.75 42.53 43.63 41.86 40.24 36.60 40.36 35.32 35.12 35.08 33.90 31.91 33.69 34.08 43.03 44.92 42.98 42.97 43.27 43.78 46.12 46.41 49.16 51.17 51.77 51.92 51.51 51.89 52.77
51.86 52.75 53.43 50.42 53.89 52.79 51.86 48.69 45.64 45.31 45.46 44.14 40.61 42.16 41.88 41.97 42.09 40.89 41.20 39.82 38.75 35.53 39.90 37.75 32.99 32.27 40.71 44.21 45.40 45.65 46.90 46.26 45.48 42.43 43.81 44.71 47.68 48.73 50.43 50.94 52.02 52.01 51.96 53.76
54.67 54.88 53.85 54.82 53.38 52.50 49.88 50.34 48.43 50.13 48.82 48.64 48.45 45.42 45.52 46.24 41.68 41.53 43.56 40.94 39.83 37.16 42.06 40.10 34.08 33.54 40.60 45.36 45.73 47.06 48.12 47.54 47.60 49.09 48.80 49.18 49.41 49.11 49.81 50.56 52.08 52.65 54.05 55.11
53.36 55.65 56.44 56.22 53.30 51.52 48.23 46.51 48.45 47.17 45.56 50.02 48.55 48.48 50.28 50.22 47.05 42.76 45.42 44.40 44.60 37.55 44.55 38.69 32.63 38.80 44.52 44.94 45.91 47.22 46.97 47.16 47.03 47.17 48.97 49.58 49.73 51.16 51.05 51.73 50.77 51.23 51.40 51.67
59.33 54.75 52.38 51.89 51.00 41.98 42.33 36.24 42.94 44.92 48.68 51.34 51.61 50.40 51.24 53.52 50.38 49.61 49.19 42.30 40.28 46.07 39.40 32.63 36.89 44.13 46.19 46.25 46.62 46.93 48.24 47.51 47.04 46.97 46.80 47.42 47.47 48.38 49.43 49.36 49.94 50.07 49.06 49.33
54.39 50.13 39.00 46.52 44.86 46.09 46.92 47.24 46.87 50.59 51.12 51.58 51.41 50.71 50.08 51.33 49.26 47.69 42.88 44.91 43.73 36.88 33.18 34.61 41.24 46.00 46.68 47.90 46.97 47.18 47.07 48.25 47.70 46.94 46.89 46.24 46.17 46.35 46.53 48.39 48.82 48.33 46.60 47.23
51.53 51.18 41.65 46.15 49.36 49.87 50.03 50.96 50.62 51.96 53.25 53.28 50.50 51.29 50.56 48.30 45.73 46.12 43.89 40.57 35.99 37.66 36.34 40.34 45.04 48.11 48.57 47.79 46.57 46.96 47.17 47.85 47.92 48.99 48.12 47.17 46.89 46.78 45.92 46.67 46.12 47.89 48.33 47.51
53.13 51.14 48.30 49.59 47.91 48.05 49.21 49.72 49.17 52.58 52.91 54.16 52.16 47.41 45.13 43.19 44.49 40.60 37.91 36.68 34.90 39.12 42.26 44.43 46.62 48.75 48.42 47.92 48.03 47.73 47.84 47.28 48.47 49.00 48.90 48.29 48.06 46.77 47.08 46.72 46.42 46.16 45.95 44.98
51.17 50.61 52.51 50.57 49.22 48.48 49.26 50.35 50.08 53.35 51.24 47.59 48.78 42.69 41.59 45.15 40.26 37.97 42.71 38.18 42.89 45.49 45.88 46.97 49.10 48.32 47.82 48.73 47.88 47.88 48.45 48.25 47.79 49.54 48.77 50.02 49.30 48.26 47.17 46.21 46.99 47.84 48.09 47.44

GFSNW_sfc_wetblb_033.txt.gz
Wetbulb
54.17 54.45 54.15 53.47 52.23 50.96 49.06 46.59 40.99 53.57 52.68 41.02 41.17 36.82 39.24 41.01 40.18 42.82 40.71 40.42 38.20 36.30 36.86 34.74 34.75 35.79 39.37 44.27 44.29 39.20 45.40 42.01 41.34 44.28 51.58 53.67 50.38 47.55 46.86 42.58 39.13 41.53 40.53 43.22
54.29 54.31 53.84 53.02 51.89 51.36 47.65 43.18 45.32 52.82 50.36 35.86 37.07 40.15 39.83 40.94 39.64 39.62 39.27 37.71 38.79 39.38 35.94 32.91 36.30 38.02 43.59 43.52 41.81 38.77 43.43 39.13 39.07 41.53 45.31 49.47 48.70 48.96 48.32 45.59 43.85 41.75 38.48 41.73
54.13 54.00 53.63 52.80 52.20 51.87 48.61 44.99 39.51 44.39 45.49 44.18 39.40 37.71 37.50 37.34 42.45 40.69 41.03 38.76 39.55 37.76 36.03 37.74 34.57 35.97 41.05 43.20 42.83 48.48 45.79 40.96 39.11 39.23 42.71 46.41 46.76 48.96 49.07 46.65 43.81 43.91 43.40 45.04
54.03 54.09 53.61 53.26 52.64 51.82 48.79 44.85 40.87 42.37 35.59 38.19 38.83 39.98 38.98 37.16 36.64 41.13 41.20 37.42 37.73 35.27 32.46 34.17 34.42 37.08 38.37 40.87 43.60 41.99 39.53 36.50 43.11 46.50 48.74 49.68 49.89 48.92 49.19 46.89 46.43 44.64 45.58 46.94
54.07 54.09 53.67 53.37 52.75 51.77 47.12 41.58 39.26 40.67 38.24 39.66 38.76 39.45 37.80 37.51 38.67 38.65 36.79 36.07 37.75 37.23 33.26 34.54 32.74 36.20 36.56 36.11 39.57 38.14 39.56 36.19 42.73 44.09 49.55 49.58 48.85 50.15 50.27 49.47 49.24 48.49 48.46 47.06
53.62 53.80 53.53 53.28 52.77 51.68 45.29 47.87 45.63 41.13 38.54 37.43 36.55 37.41 38.53 38.62 40.39 40.78 41.06 39.17 36.86 36.43 38.44 41.23 41.12 40.90 40.64 39.94 37.96 36.31 36.75 38.57 37.93 38.40 47.59 49.47 44.29 49.68 49.77 49.99 50.87 49.76 46.57 48.99
53.76 53.76 53.70 53.08 52.97 52.38 50.50 49.22 44.80 37.73 34.00 36.09 36.30 38.15 39.65 39.24 40.02 38.08 41.25 41.29 38.05 41.62 45.24 44.01 42.87 41.47 40.79 40.74 40.45 40.87 36.76 37.51 38.07 38.94 43.33 37.12 47.15 52.65 54.49 51.02 51.76 52.06 51.30 55.39
53.19 53.08 52.74 53.27 53.26 52.86 50.70 50.97 44.21 38.42 33.61 37.18 37.13 38.43 38.90 40.65 41.36 40.38 40.55 41.95 43.36 44.28 41.46 36.29 33.24 34.53 36.12 38.30 40.92 40.23 41.21 38.56 35.16 37.00 39.55 44.09 49.19 51.09 49.98 49.27 49.81 55.13 56.07 56.72
52.51 52.53 53.18 53.47 53.82 53.17 51.77 51.34 48.49 42.24 35.26 35.69 39.93 37.49 38.86 36.47 38.54 38.79 40.63 44.82 46.13 44.45 38.40 34.67 29.14 28.17 32.67 34.91 37.21 42.07 41.51 41.75 38.16 38.46 37.29 38.10 42.75 49.87 54.40 54.05 45.95 54.78 56.88 57.44
52.54 53.28 53.45 53.60 53.76 53.18 51.99 50.96 49.13 43.90 36.69 39.64 40.92 38.92 38.67 41.56 39.65 37.66 40.03 41.19 40.89 43.02 35.80 31.96 31.22 31.32 38.91 33.33 34.41 34.76 36.94 37.76 36.22 37.57 38.21 42.40 47.76 51.24 54.68 45.47 45.61 53.32 53.42 55.55
52.79 53.28 53.55 53.55 53.67 53.74 52.70 50.42 50.51 45.37 39.88 41.03 43.16 43.59 41.54 41.43 40.71 37.32 40.57 38.81 39.79 39.13 34.64 34.39 33.85 33.86 35.90 35.21 38.27 33.82 36.39 35.79 35.01 38.27 37.81 36.12 48.80 49.30 45.91 49.75 50.83 51.75 52.26 53.17
53.06 53.14 53.39 53.55 53.61 53.67 53.39 48.68 51.37 50.39 43.97 42.70 46.65 46.44 47.04 46.03 45.31 42.06 42.65 39.88 39.35 40.47 36.55 36.64 36.22 33.43 37.14 35.56 32.26 40.02 34.94 38.18 36.49 39.26 40.39 46.49 48.67 47.87 50.87 51.48 50.61 50.06 49.94 51.54
52.91 53.06 53.67 53.78 53.78 53.86 53.15 50.68 49.93 47.94 43.04 42.44 43.07 43.85 48.75 49.94 49.03 50.01 41.01 42.46 43.60 42.23 43.46 39.14 37.39 34.67 37.52 32.37 35.20 36.83 40.33 43.27 37.71 39.98 43.58 44.97 47.42 50.38 50.61 51.29 50.52 50.33 50.54 51.54
52.79 53.35 53.61 53.92 53.92 53.96 53.73 51.46 49.50 47.45 43.64 37.78 41.05 49.56 47.42 51.04 51.01 49.82 48.65 46.51 46.10 44.87 43.09 38.12 38.21 35.81 40.10 35.10 36.90 36.11 38.83 40.45 39.51 38.76 43.99 45.16 46.70 48.66 49.71 49.91 51.68 52.43 51.58 51.72
52.84 53.45 53.82 53.84 53.53 53.55 53.12 51.30 49.39 50.65 44.81 39.22 40.48 45.68 48.54 49.24 49.08 48.07 48.51 46.86 45.02 42.55 39.31 37.77 35.33 38.34 37.42 38.24 38.00 36.25 40.92 38.32 35.88 34.59 41.14 41.94 43.14 46.96 49.08 49.04 49.77 51.51 52.22 52.71
53.19 53.50 53.72 53.61 53.53 52.35 52.96 47.21 50.12 51.56 49.80 42.07 36.98 45.05 45.53 47.34 47.72 46.57 46.20 46.37 45.49 43.97 40.56 39.50 40.62 42.91 39.17 34.43 32.75 39.29 41.03 41.36 41.14 38.70 42.86 43.05 44.52 46.38 48.89 49.48 50.45 51.75 51.89 52.31
53.75 53.44 53.43 53.55 53.37 52.27 48.84 46.41 50.14 51.48 51.03 42.24 37.73 40.30 45.90 46.64 46.95 46.44 45.00 45.39 42.53 41.16 38.22 36.07 36.71 37.83 39.46 35.08 32.09 38.34 40.18 41.15 41.48 42.15 41.92 40.23 42.91 43.24 48.68 49.82 50.51 52.47 52.81 52.20
53.23 53.06 52.89 51.75 51.37 49.93 49.82 50.22 50.95 51.60 45.71 43.77 39.65 40.18 42.92 45.80 43.06 41.54 44.57 40.70 40.67 38.96 37.48 37.47 35.62 37.45 35.57 31.48 37.07 40.35 43.76 45.15 46.34 45.32 44.16 42.68 43.65 44.76 46.24 48.66 49.69 50.22 50.15 50.65
52.78 52.77 52.91 52.81 51.75 50.14 50.14 51.89 51.14 51.73 46.87 41.24 41.06 38.76 39.67 45.83 43.24 43.78 41.77 41.19 37.12 40.18 36.21 35.48 34.91 32.96 31.87 36.22 38.58 41.12 43.06 44.49 44.43 44.53 45.92 44.41 42.56 43.53 45.56 47.49 48.14 48.48 48.49 49.53
52.54 51.88 51.98 50.38 51.92 52.97 52.06 48.13 45.37 45.16 45.25 44.72 41.48 44.76 41.78 44.22 42.65 41.91 41.23 40.49 39.08 35.86 39.85 37.21 33.32 32.06 41.66 43.20 43.49 43.60 44.20 45.84 46.60 44.71 41.05 41.98 42.40 43.14 45.37 46.84 49.27 49.72 49.37 49.78
51.85 53.33 53.26 52.53 53.45 51.20 49.05 48.85 47.53 49.16 46.10 46.32 45.83 44.04 46.10 47.35 42.11 41.91 43.83 40.87 40.44 35.14 38.79 38.37 33.87 32.78 41.18 44.52 45.40 45.02 45.25 45.26 45.91 46.99 47.70 47.50 48.46 48.17 47.84 48.55 50.10 51.05 51.31 51.41
52.24 51.45 57.69 54.05 51.45 50.35 48.27 46.07 47.62 47.78 44.88 49.71 47.13 48.38 48.04 47.61 47.30 42.72 43.94 41.75 41.49 35.90 42.48 35.89 32.06 38.93 43.97 44.48 45.44 45.91 46.05 44.81 44.29 45.58 45.88 46.02 46.14 48.68 50.69 50.07 50.42 49.99 49.30 48.51
57.94 55.23 53.57 49.78 49.45 42.15 41.95 34.05 40.42 44.92 49.13 50.14 48.49 48.87 51.41 50.39 48.43 46.46 46.39 41.52 38.21 44.77 37.46 32.59 36.69 42.56 44.77 44.53 45.35 46.35 47.23 46.42 44.79 44.46 45.19 45.49 45.61 46.03 46.98 47.30 48.39 47.79 46.66 46.91
53.70 51.13 39.00 45.64 45.01 46.40 45.86 45.22 45.94 49.13 49.25 49.72 51.66 51.77 49.91 50.69 47.68 46.56 42.01 43.11 41.90 35.04 31.71 33.23 40.22 43.32 44.45 45.54 45.15 44.54 45.00 47.38 46.06 45.26 44.86 44.21 44.07 44.99 45.73 45.72 47.10 46.64 45.72 46.57
52.95 51.80 39.40 46.67 48.64 49.16 49.13 49.90 49.32 50.17 51.20 50.95 49.67 50.29 49.07 46.71 44.77 44.52 41.24 37.82 34.44 36.35 35.41 39.75 42.93 45.04 44.93 44.78 45.33 44.47 44.17 44.71 47.32 46.55 45.40 45.01 44.65 44.21 44.39 45.40 45.44 45.17 44.98 45.52
54.38 52.85 48.03 49.12 46.82 46.98 48.22 48.49 47.75 51.14 51.07 51.82 50.83 46.77 44.22 41.85 42.69 39.50 36.44 34.10 32.74 38.02 42.48 44.77 45.95 45.88 45.85 45.45 45.20 45.66 46.03 45.23 44.67 47.42 47.14 46.36 45.18 44.51 44.57 45.28 44.82 44.64 44.83 44.36
53.04 50.76 52.26 50.52 49.17 48.03 48.68 49.55 49.24 52.81 49.82 45.33 47.16 41.17 39.91 45.22 39.40 37.78 41.42 38.65 41.87 43.94 45.39 46.75 47.35 46.57 46.53 46.35 45.68 46.50 46.48 45.76 45.58 45.98 47.24 46.51 46.90 46.53 44.56 43.33 45.26 45.37 45.08 44.77

GFSNW_sfc_wetblb_036.txt.gz
Wetbulb
54.01 54.21 53.96 53.35 52.20 50.88 47.21 39.85 35.38 46.99 50.08 35.87 32.43 29.54 34.27 40.51 38.13 40.42 37.65 37.66 36.51 33.66 34.18 34.44 34.30 33.86 37.05 42.56 41.72 36.18 40.07 37.20 33.95 41.17 46.48 49.74 51.29 44.86 43.65 40.37 35.41 35.94 36.88 41.58
54.05 54.03 53.60 52.91 51.97 51.38 46.64 38.58 38.09 46.67 43.38 30.08 31.05 35.12 38.79 39.26 37.02 36.39 37.34 35.50 36.60 35.11 33.27 32.04 35.42 36.34 41.57 42.89 40.51 37.86 39.83 36.19 30.10 36.29 40.04 44.50 43.84 48.80 45.50 40.55 39.27 37.98 38.48 41.54
53.87 53.90 53.41 52.71 51.92 51.73 44.01 38.22 33.71 38.45 39.29 38.13 33.33 32.85 34.56 35.71 42.08 39.33 38.99 36.80 35.53 32.69 31.35 36.17 34.35 35.12 39.48 41.38 40.70 43.21 42.61 31.92 31.74 30.18 37.08 42.01 41.06 45.27 46.45 45.13 40.53 40.04 41.71 42.88
53.52 53.70 53.37 52.72 51.89 51.59 43.91 37.65 33.58 37.21 32.26 34.65 35.16 33.74 35.56 36.06 35.48 39.28 39.10 34.75 36.17 31.27 26.11 32.10 33.90 36.15 37.38 39.36 42.04 40.21 37.60 28.33 32.79 36.63 40.37 42.77 43.61 45.92 47.93 43.95 44.51 42.45 43.79 43.57
53.50 53.62 53.49 53.16 52.17 51.23 41.93 36.47 34.46 36.81 37.12 36.81 34.99 35.41 35.08 36.34 37.10 38.00 35.06 34.01 36.27 33.19 28.24 32.72 31.17 35.12 35.29 35.16 38.35 36.32 37.45 28.57 32.85 33.74 44.85 46.07 45.42 48.23 48.48 47.09 47.00 44.32 43.96 44.80
53.81 53.42 53.53 53.16 52.32 50.63 43.28 41.15 40.73 39.96 37.98 35.40 33.64 34.51 35.74 35.67 38.97 39.95 40.85 38.57 35.52 33.40 35.61 38.90 39.23 40.08 39.51 38.34 36.43 35.06 33.91 30.02 29.19 30.77 41.85 46.24 41.92 45.46 47.76 47.53 47.49 47.71 42.60 46.42
52.97 52.53 52.89 53.16 52.88 51.76 48.47 46.44 44.47 38.15 33.88 36.44 36.47 37.29 37.71 37.51 38.55 37.04 40.15 39.56 35.07 39.30 41.58 40.87 39.58 39.62 39.19 39.08 38.62 39.09 33.91 29.88 29.94 31.36 38.25 36.06 43.01 48.40 49.25 50.27 50.06 50.08 52.07 53.33
52.49 52.71 53.06 53.27 53.55 52.91 49.40 48.58 44.87 39.01 33.44 36.83 37.43 37.89 38.66 38.10 39.04 39.01 39.91 40.71 40.88 40.78 37.29 31.30 30.08 31.95 34.21 36.45 38.64 38.30 38.88 33.23 28.63 31.38 35.46 40.91 43.13 44.51 45.53 44.67 45.80 49.13 49.68 57.23
52.71 52.98 53.37 53.57 53.70 53.23 51.00 49.60 48.27 41.33 35.81 35.24 39.62 38.18 38.22 36.32 37.38 38.01 39.35 42.56 42.74 42.73 33.43 30.52 27.85 27.39 32.50 34.14 37.38 39.49 38.81 38.81 31.09 32.06 33.39 34.37 40.45 46.49 52.65 51.69 40.67 49.17 51.68 55.87
52.87 53.27 53.68 53.72 53.90 53.33 51.23 49.43 48.83 43.50 36.55 39.34 40.43 37.65 37.12 39.41 38.56 36.61 38.91 38.88 37.93 40.20 35.41 31.76 31.84 31.03 36.98 32.09 33.61 32.76 33.94 35.35 34.24 35.48 36.93 39.32 44.77 47.15 51.79 40.27 42.16 49.83 50.36 51.97
52.91 53.24 53.39 53.76 53.84 53.86 52.11 49.59 49.90 45.04 39.57 40.99 43.62 43.71 40.97 41.24 40.20 36.20 39.57 38.71 36.19 34.80 32.95 32.81 32.48 32.48 34.27 33.95 36.29 35.19 34.82 33.92 33.03 36.97 35.19 34.69 47.33 46.48 40.01 44.58 48.40 48.69 50.58 51.44
52.75 53.16 53.45 53.78 53.96 53.94 53.15 47.77 51.02 50.28 43.77 42.66 46.67 46.50 47.38 46.00 45.04 41.69 41.29 36.46 34.53 38.80 32.68 34.41 34.80 32.75 35.32 33.55 31.07 39.59 33.38 37.00 35.50 37.06 38.12 44.63 48.40 46.28 47.97 48.21 47.65 49.51 48.99 50.04
52.90 53.20 53.72 54.02 54.09 53.88 53.04 50.03 49.92 47.71 43.21 42.65 42.28 43.62 48.40 49.68 48.10 48.82 40.47 41.47 41.60 37.13 38.43 35.86 36.04 33.03 35.87 30.92 33.17 35.17 38.36 41.24 37.73 36.75 41.24 41.56 46.65 47.76 47.26 47.68 47.95 51.01 51.01 48.38
53.02 53.49 53.94 54.09 53.86 53.53 53.55 49.87 49.39 47.15 43.32 38.04 40.38 49.20 46.84 50.32 49.65 48.48 47.89 43.45 44.30 41.43 37.93 33.57 33.38 31.00 35.71 32.76 34.15 33.17 36.98 38.35 35.82 35.05 37.74 41.77 45.13 45.17 45.52 45.93 48.39 50.62 51.70 51.08
53.21 53.76 53.88 53.51 53.41 53.21 52.30 50.14 48.43 48.15 43.77 38.76 39.91 42.70 46.14 48.49 48.31 46.94 46.84 43.34 41.53 39.34 36.26 37.06 34.97 37.09 36.20 33.84 33.34 33.10 39.14 37.02 34.32 32.55 37.82 36.88 38.81 44.00 45.45 44.94 45.75 50.12 49.89 49.64
53.52 53.60 53.56 53.76 53.37 53.29 51.33 46.07 48.88 48.96 45.68 39.76 36.33 42.71 42.81 44.55 44.93 44.49 43.18 43.21 41.37 43.06 39.88 37.91 39.11 40.91 36.15 31.89 28.45 35.23 40.39 41.22 41.21 39.36 42.23 41.69 41.84 43.34 44.73 44.44 46.79 50.15 49.75 49.90
53.59 53.36 53.18 52.94 52.94 48.29 45.26 42.92 47.28 50.00 47.01 38.96 36.21 38.62 42.38 43.34 41.86 42.02 41.34 42.50 41.19 40.45 37.91 36.10 36.39 36.64 38.19 35.04 31.99 37.90 41.23 43.38 44.90 46.07 44.21 42.23 43.07 41.46 44.68 46.19 49.13 50.09 50.50 51.67
52.99 52.94 53.12 51.61 51.17 49.28 46.33 46.60 50.15 48.38 41.85 41.27 37.12 38.12 39.83 44.96 41.04 39.57 42.66 39.14 39.53 38.48 37.58 37.89 36.14 37.31 34.71 31.48 37.93 40.64 42.14 43.64 44.68 46.09 46.37 44.56 44.92 45.62 44.41 45.00 46.26 48.24 49.46 50.29
52.68 52.88 53.18 50.15 47.19 45.91 45.33 51.87 50.68 47.08 43.53 40.01 40.00 37.13 37.94 42.91 39.57 39.07 39.73 39.24 37.10 39.96 36.57 35.66 35.42 32.78 32.23 37.67 39.21 40.70 41.85 41.53 43.30 45.74 46.08 44.04 44.32 44.94 43.90 43.34 44.33 44.86 46.01 48.50
52.58 49.44 48.02 47.10 48.18 53.02 51.34 47.03 44.46 44.14 43.10 40.08 39.49 44.17 38.99 41.93 41.82 41.58 40.11 40.63 38.47 35.12 38.15 37.76 33.50 32.42 41.09 43.52 44.56 43.94 43.29 43.53 43.77 42.33 41.75 43.86 43.08 42.59 42.80 43.65 44.73 45.70 47.14 49.18
47.32 47.14 47.44 48.06 53.41 47.12 47.73 43.21 40.62 40.94 37.32 40.14 40.58 41.37 40.55 44.58 41.15 40.92 42.12 38.63 39.17 33.70 32.90 33.77 32.96 33.14 40.06 43.63 44.46 45.88 44.80 44.51 44.03 43.98 44.51 45.07 46.44 48.40 44.88 46.77 48.81 48.24 48.20 49.04
48.55 46.83 51.05 48.52 45.69 45.36 41.45 38.68 41.03 39.51 38.81 43.99 44.84 44.11 44.12 43.56 42.87 40.85 42.10 39.50 37.91 30.01 37.70 34.32 32.17 37.58 41.86 42.82 43.26 45.86 46.55 45.03 44.08 44.17 43.67 44.19 44.34 45.97 47.10 46.55 46.19 45.91 46.71 47.03
50.46 49.55 46.19 44.25 43.00 36.18 37.19 31.89 34.46 38.29 41.60 46.08 45.43 43.52 45.35 43.73 42.24 40.54 42.25 37.46 33.06 38.66 32.26 31.71 35.49 39.36 40.62 41.38 43.15 44.01 47.22 46.25 44.89 43.82 44.06 44.13 43.60 44.03 43.95 44.10 45.51 45.75 45.32 45.73
49.02 46.92 35.21 39.15 38.09 39.78 38.76 37.98 38.43 42.22 42.21 43.05 44.70 44.95 44.09 45.20 42.76 39.48 36.88 37.56 36.84 32.13 30.87 32.93 38.00 37.62 39.76 40.67 41.74 41.38 44.03 45.45 45.02 43.97 43.93 43.29 43.07 42.93 43.45 44.06 44.55 44.50 43.49 44.16
48.38 44.11 35.09 38.59 41.69 41.61 42.29 42.89 41.90 43.36 44.16 43.43 42.65 42.23 41.95 38.92 38.24 37.75 35.48 33.93 29.03 29.14 31.04 35.48 38.92 39.70 39.75 39.73 40.09 40.37 41.02 44.69 44.28 44.65 44.08 43.76 43.47 42.36 42.63 43.58 43.45 43.50 43.40 43.38
48.44 44.58 40.87 41.61 40.21 40.22 41.20 41.61 40.88 43.71 44.08 43.17 42.32 39.33 37.48 37.95 36.92 34.53 32.17 31.21 29.25 36.75 38.89 39.63 41.65 40.96 40.21 40.09 39.04 39.74 41.39 41.89 45.39 44.75 44.46 44.27 43.91 43.23 43.27 44.45 44.12 43.01 42.14 41.82
47.91 45.66 44.84 42.62 41.64 40.98 41.72 41.99 42.41 44.18 42.24 38.21 38.76 35.27 34.46 37.81 33.97 32.56 35.87 32.48 34.57 37.39 39.12 40.45 40.58 40.66 40.61 40.61 39.29 39.62 39.95 40.79 40.29 44.50 44.59 44.74 45.27 45.16 44.20 42.73 43.67 44.15 43.98 44.15

GFSNW_sfc_wetblb_039.txt.gz
Wetbulb
53.97 54.05 53.81 53.24 52.13 50.84 45.44 36.86 30.71 44.68 43.37 34.71 30.50 28.23 32.99 39.57 36.48 39.00 36.52 35.73 33.46 30.76 32.67 30.84 31.37 32.94 36.13 41.71 41.07 35.34 38.43 36.86 33.86 37.01 43.27 44.82 48.72 44.42 40.66 43.13 36.76 33.59 34.62 40.16
53.83 53.99 53.48 52.71 51.57 51.04 46.20 37.97 34.78 44.25 42.80 30.05 29.35 33.15 36.40 38.11 36.13 36.20 36.28 34.91 35.05 33.46 31.72 28.03 33.64 35.52 40.86 42.06 38.75 36.38 38.30 36.22 27.66 33.83 37.82 43.45 41.22 47.62 43.58 42.92 38.06 36.51 39.72 41.48
53.62 53.87 53.42 52.47 51.66 51.32 42.06 38.48 32.02 36.50 36.93 36.32 30.97 31.90 33.68 35.31 42.12 39.67 38.37 36.31 35.38 31.44 30.63 32.21 30.71 33.78 38.94 40.75 39.67 43.42 42.24 35.57 28.94 27.77 31.71 36.22 35.96 40.16 45.67 42.27 36.92 38.79 40.86 44.44
53.42 53.85 53.29 52.79 52.09 51.44 42.81 35.69 31.43 34.94 29.27 31.81 32.28 34.60 34.33 34.94 35.30 40.24 39.82 34.21 34.36 30.75 25.69 28.10 29.02 33.92 36.89 38.72 41.11 39.43 37.96 30.49 30.15 32.19 34.13 35.12 35.72 37.29 40.25 39.95 42.63 40.95 41.14 40.64
53.32 53.24 53.37 52.86 52.00 50.39 40.91 35.62 34.34 34.41 36.24 37.35 34.46 34.87 33.18 34.64 35.92 36.75 36.12 35.17 36.84 36.98 27.59 29.31 27.99 32.07 33.70 34.68 37.75 35.89 37.67 31.46 30.44 29.89 36.43 36.06 35.90 41.99 44.53 44.65 44.05 42.53 42.22 42.83
52.50 52.45 52.86 53.01 52.17 49.93 42.90 40.77 42.00 40.08 38.21 36.82 35.35 34.89 36.46 36.21 37.98 39.70 40.34 38.50 36.64 33.68 34.62 36.44 35.59 35.87 38.06 37.93 36.23 34.29 34.01 31.88 27.25 25.72 37.30 41.00 38.53 41.51 44.55 45.39 45.10 44.41 41.10 44.42
52.18 52.53 52.90 53.19 52.91 51.72 47.94 46.16 44.75 38.67 34.57 36.98 36.69 37.56 38.08 37.30 38.48 36.22 39.18 40.03 35.86 38.75 41.39 39.72 36.46 35.76 37.32 38.03 37.66 38.28 34.17 31.59 27.87 25.59 34.21 35.20 40.00 45.55 46.43 46.21 46.19 47.22 48.65 51.42
52.82 53.17 53.21 53.35 53.56 52.92 49.54 48.73 45.37 40.08 33.74 37.25 37.60 38.43 38.32 38.76 39.10 38.17 39.29 40.73 41.26 41.41 39.15 29.99 27.23 30.90 34.30 34.31 37.23 36.72 37.29 33.37 27.08 26.04 32.98 40.16 41.65 43.32 42.12 41.06 42.57 47.21 47.68 52.51
52.98 52.94 53.35 53.60 53.87 53.26 50.96 49.34 49.01 42.02 36.89 36.01 39.70 37.86 38.42 36.11 36.03 37.08 38.78 42.16 41.41 40.11 36.93 30.49 27.27 26.60 32.64 30.77 34.08 37.95 37.47 36.31 33.28 27.87 34.35 33.13 39.54 44.49 46.98 48.19 38.41 47.46 49.29 48.72
52.84 53.09 53.48 53.69 53.78 53.50 51.24 49.55 49.00 43.22 37.23 39.99 40.45 38.03 37.26 39.30 37.28 34.06 38.16 37.95 37.41 39.76 34.49 30.46 30.20 29.75 34.24 32.07 31.19 31.64 33.88 34.56 30.79 31.16 36.79 38.70 43.13 45.53 47.58 36.00 38.15 47.15 49.52 49.77
52.82 53.15 53.41 53.76 53.89 53.91 51.67 48.84 49.73 45.34 39.87 41.24 43.45 44.02 41.27 41.12 39.80 35.72 37.01 33.68 36.33 34.65 31.96 31.58 31.39 31.03 33.35 33.52 34.06 34.30 33.14 32.49 34.38 37.54 35.89 34.10 45.45 44.97 38.47 40.60 46.61 47.31 48.77 50.67
52.94 53.00 53.52 53.91 53.99 53.85 52.19 46.78 50.83 50.31 44.03 42.97 46.93 46.55 47.24 46.04 46.04 42.23 41.03 38.97 37.49 36.53 33.99 34.46 34.30 33.22 35.22 32.92 28.39 38.11 32.84 34.83 34.53 36.41 36.91 44.33 47.55 46.27 45.37 45.56 44.32 45.51 48.68 49.63
52.84 53.29 53.91 54.11 54.21 53.64 52.16 50.04 49.86 47.80 43.51 40.54 41.83 43.60 48.52 50.14 48.78 49.39 40.41 40.18 39.96 37.98 38.44 36.51 35.62 32.68 33.83 30.15 31.69 34.26 37.96 40.55 35.60 35.93 38.45 40.08 45.14 46.17 44.83 45.26 44.94 46.20 48.65 50.21
53.25 53.72 53.85 53.97 53.81 53.72 53.04 49.80 49.10 46.80 42.36 37.77 38.77 47.81 44.26 50.14 48.79 48.26 47.35 44.80 43.96 39.09 37.90 34.59 34.51 33.50 36.77 33.66 33.84 34.73 37.35 38.58 35.93 35.89 38.04 41.42 44.25 43.32 43.96 44.88 45.83 46.17 46.80 49.66
53.52 53.71 53.54 53.60 53.23 53.23 50.93 50.09 46.97 45.03 40.42 35.86 36.61 41.43 42.34 45.93 44.93 44.93 45.50 43.83 42.62 40.53 36.83 36.24 35.11 38.60 36.60 35.32 35.20 35.42 38.82 36.77 34.63 33.68 39.05 38.96 39.84 43.54 45.23 44.41 44.90 45.79 45.72 48.48
53.43 53.38 53.70 53.62 53.25 53.26 51.00 46.53 46.55 46.37 44.05 36.86 33.77 39.23 39.13 41.13 44.66 44.00 42.29 43.23 41.52 41.54 38.93 37.27 38.50 40.04 37.40 33.32 32.79 38.87 41.38 42.82 43.53 40.39 43.52 43.29 43.69 44.18 45.97 44.61 45.34 46.99 46.85 49.05
53.29 53.05 52.63 52.80 52.39 47.72 45.70 42.02 45.54 48.90 46.05 39.52 36.47 37.49 40.35 42.02 40.74 40.42 40.26 40.16 38.31 39.95 38.19 36.03 36.11 36.99 37.75 34.32 32.29 39.70 41.93 42.86 44.11 45.50 45.78 44.35 44.95 43.16 45.62 46.30 46.43 47.54 48.20 49.97
53.18 53.00 52.24 51.92 51.53 49.12 45.89 46.26 49.64 46.54 41.06 42.41 40.01 39.62 39.36 40.08 36.70 35.57 38.45 36.60 37.29 38.77 37.37 38.45 36.08 37.80 35.06 32.19 39.69 41.25 42.12 42.99 42.97 43.87 45.23 44.93 45.66 44.28 44.36 46.01 45.71 44.94 48.14 49.78
52.70 52.59 52.47 49.95 47.74 45.47 45.40 51.46 50.16 45.79 42.91 34.74 38.48 38.53 36.51 41.69 37.50 37.01 37.02 36.91 36.36 38.80 36.67 36.49 36.84 33.64 32.55 37.29 40.13 41.06 41.58 41.14 41.52 43.25 43.68 44.32 44.50 44.62 45.25 45.55 44.73 43.65 44.03 47.11
52.16 48.62 47.49 45.47 47.11 52.78 50.85 46.61 43.74 44.02 43.75 38.09 37.99 41.15 39.65 41.37 41.92 41.56 40.93 40.75 37.24 34.65 37.20 39.05 34.00 32.91 39.36 39.70 42.97 44.08 43.63 43.65 43.21 40.92 39.91 41.12 43.27 46.63 42.62 43.52 42.91 43.50 44.11 48.74
46.23 45.69 45.52 47.00 52.34 46.57 47.50 42.92 40.34 40.91 36.01 38.75 38.32 41.18 40.21 43.89 41.53 40.66 41.21 38.33 38.55 29.94 34.58 34.94 33.09 27.61 35.21 40.68 40.74 44.88 45.52 44.72 43.74 43.75 43.36 42.88 42.88 43.89 45.23 46.02 46.29 47.22 47.45 47.80
47.91 46.03 48.29 46.15 46.86 45.04 39.31 36.08 38.63 37.48 36.63 40.93 41.48 43.16 43.03 42.59 45.18 39.15 41.55 38.88 37.25 28.69 36.16 29.05 28.98 32.83 37.41 39.25 40.28 41.46 43.58 44.48 42.40 42.99 42.41 42.99 42.78 43.65 43.81 43.52 43.75 44.20 45.04 45.65
48.44 47.92 44.44 42.95 41.08 33.59 35.41 28.68 32.76 35.28 39.04 41.57 43.97 44.33 44.24 44.50 42.66 41.70 40.92 35.14 31.92 36.15 32.46 30.43 33.08 40.41 38.34 38.15 39.33 40.36 43.54 43.82 42.89 42.71 43.13 42.80 42.59 43.02 42.53 42.20 43.43 43.45 43.05 44.10
47.63 46.04 33.87 37.26 35.29 36.97 36.80 36.51 36.46 39.96 40.08 40.69 39.43 43.86 44.90 44.57 41.94 38.10 34.42 36.84 35.07 30.51 28.31 30.44 34.90 37.50 38.22 38.89 38.96 38.23 39.15 42.01 42.31 42.08 42.31 41.74 41.32 41.04 42.13 42.43 42.41 41.94 41.03 41.48
46.54 42.64 33.12 36.97 39.93 39.65 40.22 40.47 39.49 41.15 40.96 39.84 40.35 39.80 38.33 36.78 36.28 35.38 33.29 31.97 28.65 31.71 27.78 37.05 38.58 40.33 38.92 38.40 38.67 37.13 37.86 41.47 40.82 41.68 41.68 41.83 42.45 41.96 40.65 41.81 42.08 41.75 41.21 40.95
48.41 43.47 39.24 39.90 40.80 38.58 39.68 39.82 39.31 40.78 40.69 40.16 39.32 36.87 35.83 34.78 34.61 32.73 31.27 27.95 23.87 30.67 35.71 38.22 41.54 39.08 38.94 38.48 38.78 37.29 37.13 39.26 42.07 41.78 41.31 41.74 41.86 41.36 42.41 43.00 41.85 41.59 41.82 40.84
45.27 44.97 43.91 40.70 39.84 39.62 39.99 40.01 40.32 40.81 39.58 36.24 36.22 33.41 32.59 35.56 32.54 31.66 33.50 30.17 32.74 37.40 38.48 38.24 38.59 38.35 39.21 40.12 37.99 36.89 37.19 38.09 38.56 42.34 41.73 42.09 43.11 43.03 42.41 41.64 42.34 43.60 43.25 43.70

GFSNW_sfc_wetblb_042.txt.gz
Wetbulb
53.72 53.84 53.72 53.09 51.97 50.71 45.73 35.26 28.45 41.37 43.05 34.12 29.60 27.45 31.57 38.23 35.29 38.11 35.92 34.87 32.96 30.88 32.01 28.90 29.86 31.09 35.25 41.59 40.47 34.87 38.67 36.00 31.35 33.61 41.61 43.86 40.61 41.90 42.91 41.23 36.26 33.88 34.77 40.60
53.68 53.94 53.61 52.72 51.48 51.04 46.19 36.97 37.05 42.89 41.51 29.06 28.44 32.16 34.87 37.08 35.50 35.14 35.03 33.84 34.78 32.62 30.10 26.43 31.89 34.18 40.14 41.89 39.27 35.78 37.32 32.67 28.90 30.06 36.89 39.13 38.57 43.03 43.11 39.37 43.31 40.25 39.24 39.61
53.70 53.70 53.20 52.14 51.43 51.23 41.79 38.13 30.90 35.10 35.89 33.49 29.13 32.43 32.47 33.85 41.05 39.34 39.69 36.38 35.25 31.29 28.37 30.20 28.75 32.16 39.03 41.05 39.23 42.86 41.28 34.83 31.37 26.20 30.65 33.80 31.81 35.91 42.62 40.08 40.57 41.79 42.99 43.77
52.90 53.33 52.93 52.47 51.57 50.51 42.18 34.67 30.37 36.94 29.55 30.69 35.25 35.54 33.65 33.45 34.68 39.63 40.08 36.34 35.95 33.62 25.36 26.31 28.19 32.20 33.78 38.70 40.97 39.51 36.21 31.59 33.09 33.12 33.90 34.21 33.44 34.16 36.40 35.63 38.86 41.07 42.13 43.07
52.64 52.69 52.93 52.84 51.92 49.67 39.24 35.03 33.90 34.40 35.58 36.09 35.37 35.43 34.66 34.03 35.76 36.39 35.79 35.57 36.92 36.19 33.50 32.74 29.09 30.69 29.44 31.45 37.03 36.68 37.77 30.69 34.51 29.96 33.27 33.61 32.26 36.67 37.74 38.49 40.93 41.26 42.01 41.25
52.63 52.97 52.89 53.23 52.42 49.86 43.01 41.74 42.51 40.38 37.88 36.50 34.70 35.51 36.15 36.01 38.25 38.19 39.52 39.30 37.41 36.38 36.42 37.60 35.49 34.34 33.98 34.66 34.58 34.38 34.46 33.23 29.84 24.08 33.57 34.66 31.56 37.24 41.64 43.82 44.82 43.45 39.94 44.41
52.93 53.22 53.39 53.45 53.11 51.62 47.70 46.00 44.61 39.20 34.42 36.21 36.64 37.81 38.54 37.54 38.39 36.79 38.52 39.55 37.12 39.92 42.51 40.23 38.96 35.17 34.81 34.74 35.03 37.08 33.38 32.93 31.68 26.36 29.57 30.68 39.24 45.06 46.91 44.17 43.74 46.07 46.46 48.09
53.12 53.10 53.26 53.45 53.47 52.95 49.36 48.80 45.56 40.60 34.31 37.61 37.99 38.62 38.12 38.79 39.04 38.44 38.98 40.00 42.45 41.41 37.24 33.59 25.51 26.02 28.49 30.64 35.22 36.35 36.67 33.79 29.35 25.29 27.71 38.67 41.26 42.16 41.52 40.78 41.46 44.97 45.81 48.14
52.73 53.22 53.37 53.55 53.84 53.01 50.62 49.36 48.96 42.69 37.44 36.83 40.11 38.60 39.21 36.00 35.53 36.89 38.08 40.95 41.35 39.97 36.54 33.23 27.20 23.46 30.14 29.26 31.48 37.32 36.84 36.06 31.58 30.19 28.13 34.38 38.40 42.96 46.44 45.63 37.83 45.54 46.06 48.15
53.03 53.55 53.72 53.82 53.94 53.40 51.02 49.23 49.10 43.67 37.95 40.75 40.84 38.54 37.99 39.79 37.88 34.40 36.88 38.81 37.16 39.27 34.15 30.23 28.59 27.81 32.01 29.09 30.01 30.80 32.16 32.35 27.96 30.58 31.11 37.89 42.05 45.03 45.53 37.80 37.60 45.03 47.19 47.96
53.10 53.47 53.59 53.86 54.12 54.00 50.68 46.76 49.41 45.69 40.62 41.62 42.69 44.08 41.77 41.59 39.96 34.31 38.31 34.70 36.50 35.98 32.68 31.76 30.30 30.53 32.55 32.73 33.29 33.11 32.53 31.48 33.80 35.39 36.48 35.13 45.55 43.11 37.98 40.78 44.48 44.46 45.64 47.69
53.06 53.53 53.76 54.15 54.08 53.74 50.62 46.34 50.90 50.12 44.29 42.95 46.02 46.98 47.57 45.89 45.84 43.10 40.51 36.93 38.84 38.72 34.69 34.69 34.35 32.73 33.56 32.91 29.27 37.58 31.54 34.54 32.19 34.16 35.91 40.66 46.07 42.74 44.07 44.91 43.89 44.34 44.43 47.85
53.31 53.71 54.09 54.15 54.02 53.78 51.19 50.07 49.56 47.81 42.81 38.88 38.35 40.02 45.49 50.02 48.23 49.50 40.64 39.24 41.63 40.94 40.93 37.33 36.05 32.93 34.86 30.68 32.22 34.96 36.97 39.52 35.52 36.53 38.23 40.42 44.13 44.76 44.40 45.15 45.08 46.12 46.75 47.28
53.67 53.96 53.98 53.88 53.49 54.04 52.57 49.07 49.59 46.56 40.14 33.84 37.27 44.73 41.70 46.36 46.37 47.83 47.33 44.05 43.77 41.29 38.47 34.90 36.09 34.35 37.25 34.40 35.21 35.21 37.14 38.19 35.11 36.06 38.67 41.41 44.24 43.58 44.29 45.12 46.46 47.17 47.47 47.31
53.70 53.60 53.55 53.45 53.24 53.78 49.97 46.99 45.29 44.04 41.43 34.80 36.10 39.65 40.68 43.11 44.79 44.10 44.35 42.54 40.33 37.91 37.28 34.25 34.77 37.50 35.99 36.30 36.65 34.66 39.78 37.53 35.11 34.78 40.17 39.81 40.81 44.15 45.85 44.65 44.75 46.22 46.70 46.72
53.31 53.43 53.82 53.47 53.24 52.68 50.02 46.59 45.11 47.41 45.77 37.26 33.50 38.36 39.23 41.15 43.62 42.89 41.27 41.72 40.86 40.27 36.98 36.21 37.09 39.19 37.46 33.79 33.09 39.39 41.28 42.67 42.88 40.29 44.29 44.39 45.41 46.56 47.56 45.58 46.30 46.83 46.68 47.54
53.17 53.15 52.46 52.70 52.51 49.20 45.18 41.94 44.66 48.18 44.05 39.62 39.88 37.17 39.00 40.47 38.87 38.93 38.83 38.70 37.12 39.07 38.10 36.38 36.09 37.17 37.30 34.18 32.01 39.60 41.38 42.50 42.96 43.76 43.67 41.96 43.84 42.85 45.95 46.10 46.78 47.77 47.46 47.60
52.91 52.94 52.13 52.30 51.31 49.11 44.89 46.20 49.31 45.70 40.24 39.09 39.29 41.25 40.70 41.50 37.35 35.01 37.04 35.38 35.92 37.99 36.82 38.73 36.80 38.51 35.98 32.40 39.40 40.86 42.04 42.57 42.45 42.83 43.51 43.00 44.94 45.60 45.15 45.22 45.68 45.11 45.82 48.18
52.64 52.49 52.32 48.62 46.60 43.83 44.72 51.04 49.45 44.85 41.38 33.17 37.98 36.02 39.11 42.27 39.55 36.30 36.16 35.81 35.59 37.89 37.36 36.16 36.95 34.21 32.03 36.63 39.22 41.20 42.04 41.25 41.21 42.87 42.67 43.20 43.91 44.14 44.46 44.95 45.42 44.31 44.38 45.89
52.09 47.85 46.20 43.69 47.08 52.23 50.61 46.85 44.73 44.20 43.49 36.94 37.47 41.46 38.61 41.37 42.42 41.37 39.42 40.79 36.67 33.84 36.53 39.30 31.86 31.28 36.90 39.67 40.64 43.65 43.96 43.32 42.47 40.71 39.47 41.05 41.70 42.33 43.40 43.62 46.05 45.30 44.86 46.52
45.40 44.53 44.50 46.69 51.39 46.47 47.21 43.77 40.99 40.58 35.68 38.68 39.12 40.86 39.63 43.22 41.30 40.54 41.84 37.64 37.89 30.78 34.42 34.75 29.62 28.36 33.53 38.71 39.62 42.02 45.07 43.99 42.09 42.09 43.03 42.90 42.58 42.42 42.39 42.48 43.38 43.89 44.39 44.98
47.03 45.57 46.56 45.11 46.48 44.22 37.79 34.62 36.33 35.35 35.74 39.42 39.26 41.15 43.29 41.63 45.21 41.00 41.35 38.35 33.23 27.42 35.58 28.18 29.25 35.83 36.91 37.72 39.14 40.61 42.72 43.94 42.39 42.11 40.93 41.77 42.34 42.81 42.07 41.64 41.35 41.54 42.16 43.51
47.41 46.24 43.07 41.46 39.81 32.33 32.90 27.44 31.65 34.02 37.46 39.47 41.16 43.34 42.75 44.64 43.71 41.79 40.61 32.79 31.16 34.94 31.54 29.20 33.03 38.18 38.96 37.92 38.44 39.43 42.68 42.74 42.43 41.62 41.63 41.49 41.02 42.50 42.33 41.32 42.20 42.05 41.73 41.86
46.03 44.73 34.88 36.18 34.17 36.06 35.76 35.74 36.21 38.72 38.20 38.67 37.59 41.58 40.76 41.06 38.42 36.32 33.03 33.97 33.70 28.96 19.53 22.53 33.54 36.15 37.99 38.81 38.89 37.54 38.80 41.98 41.87 41.98 42.05 41.42 41.18 40.43 40.77 41.33 41.67 41.39 41.19 41.22
45.28 42.00 32.99 36.41 39.62 38.62 39.38 39.04 38.02 39.30 38.73 38.03 38.89 37.77 36.87 35.61 34.66 33.65 32.08 31.03 27.04 30.98 25.67 31.85 36.61 38.18 38.67 38.82 38.52 37.09 36.55 40.79 41.23 41.75 41.51 41.88 41.91 41.30 40.38 41.19 41.11 41.12 41.86 41.82
47.15 44.27 39.52 39.90 40.26 37.94 38.07 38.49 38.32 38.97 38.39 38.60 37.46 35.75 34.94 33.81 33.40 31.95 31.58 28.46 23.60 29.92 33.98 37.05 37.76 38.51 39.00 38.82 38.61 37.11 36.43 37.76 41.09 41.33 41.40 41.56 41.34 40.93 40.90 42.26 42.14 41.78 41.83 40.84
43.91 42.25 43.74 41.95 39.41 39.43 38.72 38.61 39.49 39.19 38.26 35.54 34.99 32.82 32.50 34.44 31.67 31.59 32.91 30.46 33.16 34.95 36.01 35.94 37.06 38.33 38.79 39.52 39.49 37.54 37.64 38.16 38.95 41.54 41.99 41.96 43.09 42.84 42.23 40.71 39.84 42.10 42.54 42.52

GFSNW_sfc_wetblb_045.txt.gz
Wetbulb
53.70 53.89 53.69 52.47 51.58 50.60 48.40 42.54 38.13 48.75 48.29 42.20 38.72 37.49 36.82 39.00 40.07 42.08 40.07 39.53 38.05 35.95 35.98 34.81 34.71 34.46 37.36 43.01 42.56 36.94 40.54 35.90 30.43 33.96 40.42 43.48 42.86 41.41 46.37 43.89 42.63 45.74 44.57 44.40
53.57 53.67 53.19 52.19 51.15 50.45 47.05 39.57 40.10 48.29 48.07 36.70 36.21 37.73 37.06 38.69 39.34 39.97 39.26 37.66 39.09 39.04 36.13 32.23 35.57 36.82 41.89 43.21 41.25 38.79 40.50 34.30 28.41 31.63 38.32 42.58 40.30 43.30 44.10 47.42 48.26 45.58 41.91 44.27
53.18 53.19 52.95 52.02 51.38 50.27 47.30 42.43 37.86 42.06 42.37 40.36 35.92 32.55 34.81 35.85 41.21 40.67 41.22 39.40 39.19 36.51 34.79 36.94 34.06 35.49 40.79 43.26 41.94 43.84 42.11 35.83 31.89 27.99 33.05 38.69 36.21 40.48 41.80 43.71 43.85 45.26 46.83 47.67
52.93 53.07 53.09 52.42 51.86 49.64 47.43 41.37 37.64 38.55 35.42 37.35 36.11 36.02 35.04 34.70 35.32 40.44 41.36 38.58 37.52 35.78 32.70 33.09 33.33 36.21 37.71 41.73 43.21 41.99 40.11 31.77 34.11 35.05 36.17 35.65 35.70 36.16 38.01 37.91 43.67 45.43 48.53 49.91
52.95 53.15 53.52 53.20 52.21 48.46 45.06 41.51 40.01 39.50 38.55 37.67 36.41 35.67 34.89 34.47 35.93 36.57 35.68 35.46 37.49 37.82 35.30 35.54 33.86 36.06 37.06 36.38 40.23 39.41 40.03 32.29 34.57 31.96 35.30 35.59 34.59 37.66 38.77 39.62 41.34 44.85 47.67 49.97
53.17 53.38 53.66 53.42 52.64 50.64 45.77 42.86 43.40 41.42 38.22 36.97 35.43 35.99 36.29 36.53 38.58 38.87 39.46 38.82 34.27 34.77 37.29 39.74 41.56 42.04 41.26 39.53 37.78 37.52 36.51 33.35 31.07 27.93 34.64 35.14 33.24 37.48 39.34 41.39 45.48 46.28 45.06 51.17
53.19 53.27 53.23 53.48 53.06 51.70 49.55 46.92 45.23 39.79 34.87 36.52 36.74 38.07 38.62 38.14 38.41 36.82 39.06 40.35 37.45 39.99 44.88 43.65 43.04 41.88 40.81 40.14 39.58 40.72 35.06 33.58 32.93 28.34 31.03 25.88 40.67 48.45 45.21 46.83 46.91 49.44 51.34 52.31
52.86 53.27 53.48 53.66 53.63 52.64 50.19 49.43 46.00 41.60 35.82 38.18 38.34 38.11 37.94 39.39 39.97 37.76 38.08 40.56 43.29 45.25 41.32 36.55 33.25 31.89 33.88 35.96 38.60 38.78 39.41 35.14 30.31 27.21 29.23 33.58 42.66 45.23 46.14 47.48 43.47 47.79 48.74 52.43
53.29 53.44 53.56 53.85 53.73 52.89 51.85 50.23 49.86 43.98 38.61 38.08 41.01 38.74 39.08 36.46 35.98 36.82 38.35 43.28 45.11 43.21 38.95 35.30 28.69 26.46 30.45 29.92 33.07 38.98 38.37 38.02 32.12 29.54 27.38 29.00 40.05 44.78 48.42 49.01 42.50 46.13 48.88 49.91
53.40 53.58 53.79 53.76 53.85 53.10 52.47 50.96 50.47 44.79 39.48 42.17 41.93 39.07 38.65 40.91 38.42 34.92 38.27 39.27 39.87 41.70 35.99 32.22 30.46 29.80 31.92 29.74 29.01 29.95 32.31 32.48 28.45 29.04 27.91 31.14 42.13 46.36 48.22 41.96 41.11 45.16 46.82 48.39
53.44 53.58 53.71 53.93 54.06 54.01 53.03 50.73 50.91 47.01 42.01 44.12 44.53 44.07 41.94 41.37 40.78 35.25 39.23 38.42 38.81 37.48 33.40 33.52 32.81 31.96 33.60 33.04 33.23 32.78 30.83 30.12 29.24 30.60 28.40 26.71 42.81 45.52 41.68 44.11 45.51 46.16 46.91 47.81
53.71 53.79 54.06 54.08 53.87 53.99 51.73 49.58 51.71 51.05 45.11 45.22 48.38 48.30 48.16 46.82 46.14 43.08 41.56 39.74 38.69 39.45 34.79 35.68 35.17 33.05 35.06 34.32 30.43 37.20 32.28 33.22 32.69 33.38 33.22 38.05 43.58 44.04 47.11 47.26 45.21 45.42 45.62 47.49
53.75 53.61 54.04 54.04 53.91 53.99 52.16 51.05 50.77 49.52 45.66 45.58 45.26 45.29 48.61 51.23 49.81 50.42 41.51 43.13 42.93 42.72 42.76 38.33 36.86 33.04 35.50 31.67 33.32 34.59 36.77 39.11 34.44 35.32 38.21 40.49 43.53 45.43 47.27 46.64 45.65 46.93 47.84 47.72
53.46 53.81 53.79 53.75 53.64 54.16 52.71 51.36 51.64 49.38 45.79 42.39 44.47 48.50 47.16 49.56 49.14 48.79 49.04 46.51 46.99 45.49 41.67 38.59 37.54 34.62 37.84 34.77 34.62 34.94 37.04 38.47 35.50 36.81 39.35 41.20 43.41 44.51 46.35 46.73 47.34 46.90 47.56 48.36
53.19 53.67 53.68 53.62 53.68 53.79 52.76 51.61 51.20 50.45 46.32 43.49 45.27 46.67 47.34 48.50 47.81 46.09 46.29 46.01 44.58 42.93 40.10 37.50 35.42 37.90 36.45 38.09 38.27 34.44 39.28 37.26 34.65 34.62 40.33 41.02 42.15 46.00 47.79 46.05 45.85 46.69 46.74 46.95
52.62 53.40 53.56 53.89 53.75 52.79 51.84 48.13 50.42 51.15 50.12 44.43 42.30 46.41 45.43 47.49 47.71 45.98 44.24 44.06 44.08 43.06 40.22 38.36 39.94 40.42 37.74 34.80 34.12 39.22 41.53 42.49 42.52 39.96 42.89 43.76 44.37 45.75 46.87 46.07 46.84 46.75 47.00 47.46
52.64 53.08 52.88 52.76 52.87 52.99 49.49 46.82 48.78 49.86 49.79 44.36 43.82 44.72 45.30 45.79 45.61 46.22 45.81 44.84 42.92 42.31 41.06 40.05 39.11 39.47 38.23 35.56 32.33 40.02 42.48 43.16 43.22 43.54 43.07 41.48 44.60 44.59 46.92 46.59 47.26 48.09 47.74 48.84
52.42 52.94 52.27 52.47 51.33 50.25 49.22 51.49 50.21 49.26 46.61 45.56 43.87 44.93 45.00 46.61 42.42 41.74 43.62 43.75 43.96 42.36 41.53 42.26 38.61 40.63 39.84 34.50 39.82 42.53 43.16 43.12 42.47 43.26 43.56 43.35 45.31 47.41 46.41 47.51 47.53 46.19 46.18 46.97
52.77 52.57 52.22 52.10 50.75 49.49 50.06 51.55 50.53 49.58 47.28 44.01 42.03 40.85 42.06 45.42 42.69 41.46 44.26 44.80 39.14 42.73 41.24 40.57 40.76 36.43 33.23 38.58 41.13 42.37 42.32 41.99 40.80 42.31 42.33 42.89 42.30 42.89 43.47 44.10 45.71 45.57 46.03 47.05
52.01 51.31 50.06 49.45 49.61 52.07 51.95 48.57 45.73 45.70 44.76 44.45 40.37 44.16 43.49 45.64 43.76 41.65 41.20 42.27 38.09 35.39 39.53 42.58 34.50 37.22 41.52 42.73 43.72 45.29 44.51 43.97 43.37 40.31 38.81 40.37 40.57 40.92 41.64 42.12 43.11 43.55 44.70 45.91
50.66 50.27 50.38 50.54 51.73 49.39 48.52 44.91 43.36 45.27 43.20 43.31 42.98 42.94 43.36 47.75 44.30 42.13 43.49 38.91 39.92 32.86 36.43 38.03 33.96 36.25 41.52 43.55 43.65 46.24 46.03 44.96 44.05 43.73 43.53 42.76 42.41 41.76 41.85 41.51 42.21 42.39 42.79 43.55
50.69 50.45 50.64 50.73 48.16 47.24 43.55 41.54 43.08 43.08 43.12 45.49 46.35 47.57 45.80 46.94 47.49 44.31 43.06 38.87 39.47 32.36 40.87 37.24 34.14 41.06 43.80 44.21 43.91 44.68 45.37 44.99 43.88 43.96 43.18 43.25 43.06 43.15 42.94 42.78 42.11 42.32 43.08 43.72
51.83 50.78 49.22 47.14 45.66 39.64 39.63 36.29 41.91 41.89 45.86 46.54 47.04 44.69 48.15 46.82 46.03 43.72 42.72 37.88 37.06 41.13 36.94 33.60 38.75 44.04 45.54 45.21 44.93 44.11 46.66 45.24 44.47 44.00 44.40 44.26 43.41 43.66 43.40 42.80 43.75 44.09 42.87 43.04
50.81 48.97 39.73 42.95 41.96 43.13 43.82 44.00 44.65 47.21 45.41 45.73 44.76 46.15 46.59 47.01 44.20 43.82 38.88 39.79 39.95 34.57 31.71 34.80 42.65 44.59 45.19 46.26 45.97 43.49 43.44 46.48 45.26 44.91 44.92 44.71 44.94 44.58 44.54 44.20 44.45 43.56 42.08 43.17
49.30 48.25 41.34 43.32 46.77 45.95 46.81 46.43 44.99 47.07 46.23 45.31 45.27 44.69 44.59 43.54 41.08 41.29 38.97 35.53 32.69 35.51 36.10 41.26 45.12 46.51 46.60 46.08 45.82 44.68 43.11 45.39 46.53 46.38 45.82 45.69 45.78 45.72 45.91 46.65 46.04 44.70 44.33 44.12
50.62 49.47 46.48 47.05 45.17 47.52 46.87 46.74 46.71 47.88 46.93 46.00 45.20 43.00 41.01 39.38 40.39 37.70 35.81 34.44 33.26 38.02 42.69 45.05 45.05 45.60 47.05 46.93 46.52 45.81 44.06 44.54 46.20 47.58 47.24 46.89 46.76 46.68 47.23 47.94 47.02 46.03 44.84 44.20
49.40 48.71 49.03 48.42 47.35 47.29 48.62 47.97 48.56 46.98 46.34 43.83 43.07 39.46 38.09 41.10 38.07 36.72 39.05 37.18 40.75 43.12 44.19 44.92 44.85 46.59 47.33 46.66 46.63 46.50 45.23 45.66 46.02 47.09 48.43 47.91 48.50 48.49 47.02 43.90 44.75 45.01 46.29 45.37

GFSNW_sfc_wetblb_048.txt.gz
Wetbulb
53.82 54.05 53.64 52.67 51.62 50.29 50.99 50.67 44.84 52.94 55.40 48.77 48.50 44.91 42.15 40.56 43.68 44.82 43.40 42.95 42.12 40.69 40.83 39.56 39.81 38.88 40.96 45.09 44.62 39.63 43.60 40.93 37.19 39.31 43.48 45.02 44.67 46.44 48.61 44.72 44.78 47.81 47.43 48.79
53.50 53.86 53.35 52.39 51.42 50.36 51.27 48.16 48.10 53.64 54.14 44.33 43.51 43.44 42.04 42.59 42.79 43.05 42.37 41.22 42.37 43.47 40.63 37.11 39.72 39.83 42.96 44.86 43.38 40.82 43.18 38.79 34.12 36.82 40.72 43.36 41.37 44.30 47.03 48.31 48.81 46.16 45.17 47.59
53.48 53.60 53.31 52.50 51.63 50.74 51.41 48.87 45.56 48.78 48.78 45.57 39.72 37.57 39.61 39.89 43.81 43.04 43.90 43.17 44.01 41.41 39.77 41.51 37.90 38.78 41.79 44.34 44.04 44.35 42.92 39.20 36.67 34.02 37.66 40.20 39.22 42.23 45.42 46.60 43.70 45.55 46.81 48.78
53.52 53.70 53.68 52.97 52.02 51.04 51.09 48.65 43.87 44.30 38.83 40.15 40.45 40.19 39.04 36.15 36.49 42.54 43.48 40.99 40.60 39.32 36.47 38.40 37.54 39.09 40.20 42.83 44.54 44.47 42.60 36.16 38.45 39.01 39.39 39.40 38.87 38.61 41.16 42.03 44.55 42.66 47.07 49.09
53.52 53.64 53.98 53.53 52.46 51.38 51.90 46.08 44.16 43.18 39.70 39.83 40.47 39.57 39.12 37.66 37.61 37.74 37.14 37.80 39.21 38.95 37.05 39.19 36.67 38.54 39.35 39.18 43.14 41.11 42.58 36.53 38.19 36.29 39.32 39.06 37.06 38.66 39.45 41.23 42.85 44.32 45.99 47.10
53.44 53.40 53.66 53.60 52.59 51.61 49.97 47.11 45.18 44.10 38.82 38.85 39.13 38.52 37.45 37.71 39.29 39.92 40.89 39.56 37.67 35.70 38.72 40.98 42.69 43.72 43.48 42.38 41.29 40.54 39.06 38.02 35.96 32.25 37.57 37.30 33.88 38.15 39.81 41.09 44.21 45.21 43.29 49.89
53.35 53.49 53.72 53.82 52.90 52.19 51.45 48.29 46.69 42.29 40.35 41.82 39.39 39.64 41.30 38.64 40.53 37.91 40.84 41.79 39.38 42.92 46.91 46.55 45.07 44.33 43.96 43.91 42.81 43.94 39.73 37.29 36.90 32.99 35.52 26.31 38.15 43.32 43.54 42.42 44.09 47.47 48.74 51.38
53.41 53.74 53.82 53.82 53.22 52.71 53.01 51.40 47.64 43.83 38.56 40.34 39.79 39.87 39.79 41.14 40.89 39.66 41.16 42.14 44.82 47.07 44.00 37.59 36.15 36.49 37.05 39.70 42.30 40.75 42.01 37.84 32.72 30.37 30.65 35.21 38.11 41.95 44.65 42.36 42.99 47.40 50.60 52.75
53.50 53.62 53.91 53.87 53.39 52.91 54.72 54.06 52.77 46.10 41.07 41.33 42.37 39.68 41.64 37.83 38.51 40.45 41.44 46.32 48.44 45.34 40.39 37.02 31.45 30.95 33.23 32.03 36.19 43.08 39.77 41.12 35.04 33.48 27.04 24.97 37.35 37.89 40.88 48.09 40.31 52.81 54.42 56.17
53.50 53.88 53.98 53.85 53.99 53.09 54.17 53.34 54.22 47.15 45.25 48.18 45.36 40.60 39.55 42.06 40.19 37.61 41.85 43.50 41.90 43.47 37.22 33.87 33.56 32.47 34.57 30.18 31.30 32.85 35.45 36.42 31.33 30.97 29.72 32.95 39.45 39.67 41.39 35.57 43.96 51.72 51.92 52.85
53.60 53.86 53.85 54.07 54.14 53.80 53.64 53.07 53.79 50.02 46.26 47.26 48.00 46.87 44.59 42.72 42.61 37.96 40.73 42.31 41.60 38.44 35.07 35.19 34.72 33.30 34.90 32.58 34.75 33.52 32.88 31.23 30.76 32.29 28.65 26.17 41.18 38.41 37.04 46.20 48.05 46.80 47.72 52.16
53.68 53.88 54.30 53.95 54.05 54.15 52.71 50.87 53.96 53.41 46.65 49.15 51.89 51.59 51.74 49.34 48.42 44.44 45.28 42.76 41.45 40.51 36.29 37.40 35.96 34.21 36.45 35.11 31.81 35.75 31.55 35.11 33.29 33.48 34.86 40.71 39.57 39.09 46.60 47.08 46.58 46.23 47.70 51.79
53.76 54.10 54.38 53.97 54.13 54.17 53.05 53.79 52.97 51.52 49.28 50.54 50.83 49.53 51.95 53.62 51.85 52.64 44.15 46.02 47.21 44.30 44.67 39.89 37.20 33.66 36.30 33.20 34.69 34.55 35.91 37.19 34.57 33.65 37.90 37.22 41.65 44.33 46.95 47.83 46.60 47.59 49.28 49.08
53.18 53.82 53.78 53.91 54.07 54.45 53.72 53.33 54.85 52.32 50.22 47.02 47.99 53.20 50.91 52.95 53.20 51.32 50.42 48.60 48.77 47.73 45.27 40.72 39.02 35.89 39.37 36.06 36.25 34.28 35.89 37.86 35.56 34.66 36.16 39.55 43.13 43.69 46.54 46.86 47.93 47.54 48.79 49.39
52.64 53.74 53.70 53.91 53.87 54.27 55.20 56.77 56.78 56.42 49.58 46.75 48.71 50.54 51.93 52.38 52.81 50.99 50.43 49.69 48.60 47.81 44.61 41.63 37.31 38.80 37.25 39.29 39.36 36.12 39.94 37.15 34.37 33.97 38.71 39.15 39.61 45.12 47.23 46.64 45.98 47.18 47.52 48.36
52.37 53.35 53.21 53.99 54.13 53.36 54.43 49.87 55.16 56.20 54.76 48.90 44.59 51.13 50.01 50.54 51.35 51.15 50.11 49.54 48.87 48.87 46.29 43.39 44.60 43.43 39.83 36.78 35.11 41.19 42.46 42.60 41.96 38.97 42.84 44.22 45.74 46.05 46.87 46.64 47.31 48.13 48.39 50.06
51.98 52.98 52.96 53.04 53.27 55.10 51.68 51.25 52.71 52.13 55.19 49.27 47.42 48.78 50.26 48.84 48.27 49.60 51.20 51.63 49.87 47.98 47.76 44.30 44.44 43.05 43.56 39.54 34.57 42.28 43.70 43.14 43.09 43.13 42.85 41.19 43.24 42.28 45.29 47.68 47.99 48.79 48.96 48.77
51.78 53.00 52.33 52.75 53.07 51.56 52.14 54.76 50.80 53.04 51.57 50.80 45.72 49.09 49.29 50.97 47.74 45.14 47.88 49.48 50.69 47.50 46.79 46.72 42.74 45.48 43.12 36.74 42.17 44.88 45.31 44.25 43.08 42.99 43.55 43.29 43.85 43.86 44.06 45.33 46.61 46.73 47.59 48.93
52.39 52.84 52.40 54.51 52.83 51.29 52.24 52.42 51.02 52.81 49.58 47.27 46.07 45.16 44.83 51.05 49.92 47.83 47.58 50.13 46.74 49.44 45.72 44.76 44.79 40.57 34.55 40.93 42.86 44.01 45.27 43.52 42.34 43.55 43.21 43.64 42.27 41.80 42.11 43.23 42.81 42.60 43.47 45.82
52.42 53.35 53.45 51.74 52.87 52.52 52.75 50.34 49.33 48.48 49.35 48.40 44.85 48.27 46.33 50.09 47.86 47.60 45.36 45.98 42.26 39.78 45.05 47.41 39.84 37.45 43.67 45.17 45.96 47.07 46.63 45.93 44.79 41.40 40.63 41.07 41.28 41.49 41.78 41.82 43.24 43.36 43.40 44.34
54.95 54.36 55.10 54.52 52.81 51.08 49.54 49.13 48.46 50.44 48.16 50.37 49.81 47.71 48.23 52.74 45.16 43.74 46.16 42.14 43.71 36.35 42.34 42.65 38.56 36.95 43.85 46.48 45.98 48.19 48.62 47.55 46.21 45.91 45.24 44.39 43.35 42.46 42.41 43.23 43.69 43.27 44.13 43.64
54.19 55.00 55.95 55.26 50.74 51.10 47.99 48.17 49.08 47.69 45.43 50.31 48.45 50.28 50.51 49.73 51.49 45.61 45.76 41.54 42.99 36.15 47.54 43.03 35.48 43.42 46.75 46.64 45.93 46.75 47.52 47.64 46.58 46.83 46.07 45.79 45.48 45.10 44.77 44.96 44.50 43.39 43.93 43.99
56.93 54.87 53.46 52.64 51.71 42.67 42.95 39.73 44.30 45.12 48.79 50.04 49.48 47.85 50.29 48.48 48.51 45.05 44.22 40.73 41.46 47.43 41.55 35.11 40.66 45.85 47.21 47.24 47.03 46.48 48.34 48.94 47.74 47.00 47.16 47.25 47.02 47.24 46.73 45.60 46.27 46.50 44.13 44.54
54.50 52.65 41.58 47.71 46.44 48.14 48.62 47.97 48.19 49.98 50.56 49.95 49.72 51.28 47.35 48.25 46.90 48.47 41.24 45.01 45.11 39.31 35.71 35.07 42.22 46.69 48.08 48.02 47.77 47.13 46.35 47.18 47.82 47.45 47.57 47.25 47.41 47.45 48.22 47.72 47.47 46.69 46.07 44.27
52.87 52.91 42.81 48.12 52.10 52.11 52.71 52.86 51.57 52.39 52.90 50.67 49.71 49.16 49.63 45.94 44.54 45.81 43.43 39.13 36.78 39.10 38.73 42.22 45.99 48.24 48.78 48.87 47.71 47.15 46.99 47.20 48.15 48.54 48.02 47.84 47.87 47.80 47.44 48.36 48.13 47.68 47.16 46.82
54.47 53.26 50.57 52.88 50.86 50.79 52.25 52.53 51.59 54.75 53.21 52.49 50.31 44.50 43.69 42.29 45.31 40.46 38.38 35.28 34.88 39.52 44.78 46.84 47.79 48.21 49.07 48.62 48.52 48.44 47.51 47.79 48.09 48.50 48.20 47.98 47.73 46.73 47.50 47.67 47.36 47.65 47.87 46.96
52.78 52.06 55.26 53.83 53.13 52.16 52.77 53.24 52.99 54.43 50.66 45.44 45.16 41.63 40.00 43.76 38.70 36.83 38.48 37.88 41.53 44.97 46.73 47.83 49.19 48.74 48.40 48.54 48.51 49.04 48.87 47.97 48.18 48.27 48.11 48.17 48.26 48.15 46.50 45.53 46.77 47.58 48.17 48.40

GFSNW_sfc_wetblb_051.txt.gz
Wetbulb
54.21 54.36 54.09 53.12 51.92 50.90 52.58 54.82 49.40 56.65 58.05 49.73 52.29 47.63 46.50 42.05 47.13 48.10 45.95 46.17 44.80 43.96 44.48 43.19 42.86 42.81 45.42 47.40 46.53 43.34 45.45 43.57 40.84 42.97 46.91 47.41 46.75 46.84 47.47 44.94 45.80 49.12 48.11 49.16
54.36 54.44 54.02 53.09 51.83 51.44 53.16 52.44 52.96 57.14 56.74 45.50 48.19 47.32 46.02 46.23 45.77 46.21 45.65 44.61 46.32 46.37 42.27 39.53 43.04 43.86 47.12 46.45 45.24 43.55 45.72 42.09 37.83 40.39 44.26 46.29 43.34 45.59 48.42 49.44 48.99 47.62 46.04 47.75
54.48 54.52 54.08 53.00 52.30 52.02 52.84 52.55 49.09 52.36 51.71 50.10 46.60 45.22 43.85 43.67 46.92 45.68 46.27 45.31 45.80 43.97 41.88 44.27 41.39 42.39 44.30 45.16 45.86 45.75 44.74 42.59 40.79 38.21 41.55 43.32 42.71 42.93 45.29 46.95 44.43 46.13 47.80 50.65
54.16 54.72 54.15 53.25 52.47 52.05 52.68 52.64 47.26 48.30 46.17 45.80 46.45 45.98 44.45 41.43 40.90 45.69 46.23 42.99 42.40 42.18 39.74 40.82 40.04 43.28 43.82 45.08 46.18 45.58 44.36 38.12 41.06 41.82 42.49 42.29 41.56 42.39 43.72 43.41 45.35 43.71 48.02 48.95
54.20 54.28 54.25 53.84 52.80 51.72 54.06 49.79 48.83 50.57 46.67 45.47 45.22 43.65 40.39 39.56 39.65 39.66 40.74 40.01 41.69 42.54 38.87 39.82 38.96 39.51 42.10 42.12 44.32 43.31 44.14 37.61 39.65 39.34 42.35 41.77 39.89 41.77 42.29 42.23 42.81 45.30 47.59 48.12
53.95 54.17 54.49 54.23 52.96 51.98 51.68 52.21 51.85 49.52 41.22 44.01 42.00 40.60 40.55 40.44 42.65 43.30 44.20 42.38 41.11 39.76 42.29 44.79 46.56 47.32 46.01 44.32 43.95 42.79 42.08 39.92 38.00 35.15 41.33 40.59 36.78 40.79 41.64 42.54 43.81 43.17 41.46 47.75
54.05 54.14 54.34 54.33 53.43 52.46 54.48 52.72 52.22 46.96 43.76 44.50 42.13 41.52 42.29 41.92 41.89 40.51 43.27 44.56 41.09 45.07 48.92 48.25 47.78 46.51 46.09 45.81 44.39 44.95 41.17 40.85 40.31 35.23 37.84 28.73 40.90 45.12 44.18 42.58 43.89 45.29 45.72 46.88
53.99 54.06 54.45 54.32 53.22 53.01 55.40 54.95 51.18 46.87 43.25 44.27 42.58 41.53 42.72 43.03 43.65 42.30 43.20 44.31 46.42 48.49 46.43 40.72 38.68 40.30 39.60 42.43 44.60 44.16 44.70 41.97 36.93 32.57 33.31 37.70 40.15 42.50 41.95 40.97 40.22 46.94 47.09 49.33
54.00 54.15 54.30 54.04 53.18 53.08 55.15 55.23 53.49 51.01 45.97 45.37 45.83 44.22 43.96 41.01 42.34 44.12 43.71 47.83 49.71 48.19 43.25 38.24 32.79 33.77 35.54 36.42 38.30 44.08 43.62 43.80 37.16 36.12 30.11 27.77 39.80 44.09 46.52 44.38 37.32 47.51 49.24 49.65
54.08 54.16 53.97 54.28 53.77 53.32 53.09 53.88 56.36 53.07 48.49 50.22 48.04 45.01 44.24 44.45 43.95 39.76 44.96 45.24 44.29 46.53 38.17 34.97 34.91 34.51 37.07 32.93 32.94 35.38 36.94 38.77 33.17 35.50 32.08 36.22 43.43 44.11 44.99 32.51 38.90 49.07 51.26 52.75
54.10 54.00 54.09 54.25 54.39 53.88 53.80 55.75 58.23 52.37 51.27 51.63 51.22 49.58 45.51 46.89 45.53 41.26 45.95 43.87 44.17 40.46 36.64 36.25 35.98 35.06 36.64 33.26 35.39 36.27 35.80 34.60 33.86 34.38 31.64 29.23 44.28 43.08 36.30 43.81 43.29 41.82 49.56 54.19
54.14 53.89 54.22 54.08 54.35 54.46 53.21 52.45 57.64 56.54 49.30 52.02 54.93 54.53 53.94 51.39 50.26 48.38 47.09 44.43 42.85 41.60 37.82 37.88 36.78 34.88 37.08 35.26 31.79 38.16 34.59 38.49 35.72 37.27 36.94 43.93 44.37 42.29 44.24 42.62 42.34 43.44 51.14 57.18
53.49 54.33 54.23 54.10 54.26 54.52 53.44 55.20 55.40 53.18 51.98 51.19 52.30 51.45 54.57 55.79 54.72 55.31 46.88 47.92 47.62 45.51 48.93 40.91 37.97 34.34 37.46 33.60 34.72 35.79 37.61 39.16 34.34 34.35 39.61 41.29 42.02 41.68 43.45 44.32 44.87 48.68 49.46 52.11
53.08 54.15 54.22 54.06 54.41 54.56 53.81 53.74 57.58 55.48 53.77 48.23 49.77 55.80 54.06 55.49 55.83 54.09 53.55 51.26 51.48 50.44 48.70 43.73 39.71 36.57 39.89 36.34 37.25 34.67 37.07 37.51 35.56 35.20 37.80 38.00 41.23 43.57 43.74 45.98 48.20 48.55 49.47 50.76
53.10 53.96 54.24 54.25 54.21 54.80 55.25 56.24 57.23 59.07 53.16 49.38 50.69 55.10 55.82 55.76 54.84 54.07 54.05 52.21 48.91 47.98 45.21 43.50 40.72 41.01 38.17 38.94 38.72 35.24 39.72 36.68 33.61 33.43 37.45 39.13 39.54 42.84 46.15 46.70 46.60 48.54 49.94 49.22
52.71 53.66 53.91 54.12 54.22 53.08 54.99 51.47 57.69 60.13 57.52 50.42 47.37 55.67 54.09 54.87 54.77 52.06 53.15 51.71 50.77 48.44 45.98 44.82 46.39 46.73 42.78 38.96 35.23 41.04 42.32 42.81 42.71 37.82 41.54 41.00 42.68 42.56 45.83 47.24 47.81 48.94 48.54 49.21
52.29 53.24 53.56 53.23 53.96 55.81 52.70 51.77 53.97 53.30 57.01 49.92 47.21 50.72 55.68 55.19 54.02 54.15 50.60 52.02 51.09 50.01 49.30 46.54 45.99 45.76 45.16 42.03 36.27 42.81 44.15 44.02 43.88 44.01 43.32 39.79 41.41 40.72 44.50 45.14 46.90 48.96 49.18 49.81
52.08 52.83 53.35 53.33 53.20 53.28 53.65 56.57 52.36 53.16 52.45 53.58 47.42 48.55 53.18 55.35 52.28 48.62 51.42 50.85 48.81 49.14 48.57 48.45 45.42 46.93 44.38 39.25 42.04 43.98 45.46 45.35 43.64 43.65 44.49 43.00 43.51 43.49 43.52 44.78 44.89 44.14 44.81 46.10
51.89 53.08 52.89 55.75 53.98 52.98 54.52 53.10 51.79 56.87 52.46 47.76 47.98 47.98 45.18 55.85 51.24 52.90 50.87 49.81 45.54 51.57 45.83 46.22 46.37 43.47 36.15 41.71 42.59 43.75 44.54 45.05 44.78 44.68 44.34 43.99 43.06 43.08 43.52 43.13 42.93 42.10 43.40 44.88
52.59 53.99 55.37 53.84 55.42 53.92 53.76 52.22 49.46 48.86 50.59 52.21 49.58 53.59 48.44 52.38 51.69 49.14 48.51 51.35 45.88 44.12 47.26 48.16 44.36 38.14 45.23 46.27 47.17 47.49 46.64 46.50 46.58 44.53 42.91 43.23 42.06 42.65 42.98 42.24 43.47 43.50 43.77 44.31
56.63 57.14 56.11 57.30 52.95 54.87 52.37 52.00 51.13 52.31 49.73 53.19 52.80 52.34 49.84 55.07 49.13 45.91 49.49 46.28 45.48 38.62 45.23 45.30 43.31 39.36 45.08 47.63 47.75 48.44 48.02 47.49 47.74 47.50 47.15 46.46 45.70 43.79 43.71 44.49 44.23 44.08 44.20 44.00
55.76 56.06 57.98 58.84 53.70 53.55 50.60 49.96 50.80 49.39 47.03 51.40 50.71 51.72 52.99 53.73 55.12 48.69 48.64 43.65 45.45 38.64 49.77 42.51 36.78 44.27 47.47 47.35 47.58 48.55 48.31 48.29 47.59 47.88 46.52 46.81 46.08 46.56 46.71 45.57 45.01 44.57 44.50 44.29
59.53 57.11 55.27 54.99 53.86 44.20 45.32 41.83 46.77 46.25 50.60 51.18 51.16 48.65 53.22 51.70 51.40 46.41 46.25 41.47 41.21 49.06 43.70 37.98 42.05 48.13 48.77 48.71 48.30 48.61 49.73 48.40 48.19 48.08 47.99 47.76 47.11 47.16 46.58 45.99 47.60 46.16 45.79 45.19
56.28 54.40 43.46 49.81 47.63 48.40 49.02 48.82 49.12 52.28 51.60 51.31 51.54 49.65 49.92 52.84 48.47 47.21 42.46 44.72 46.05 39.83 37.54 36.37 46.07 48.39 48.48 49.25 49.50 49.27 48.37 48.67 47.93 48.75 48.52 47.37 47.75 46.77 47.72 47.29 46.97 46.12 45.54 46.54
54.77 54.54 44.56 49.44 52.00 52.94 53.60 53.44 53.41 53.29 54.34 52.61 50.79 50.11 52.19 46.97 45.61 44.77 43.11 40.02 37.93 39.75 38.36 43.53 47.50 49.84 49.85 48.85 48.15 48.54 48.72 48.71 47.89 47.80 46.94 47.77 47.97 46.90 46.81 48.56 48.20 47.10 46.48 46.33
55.94 54.66 51.84 52.70 51.26 51.96 52.78 53.38 52.13 56.04 53.83 53.20 50.94 48.75 43.83 40.72 40.79 38.01 34.99 36.34 35.40 40.89 45.96 47.17 49.42 50.14 49.84 48.94 49.69 48.68 49.56 48.87 48.89 49.18 48.97 48.20 48.46 47.52 47.59 48.54 48.54 47.78 47.30 46.27
54.02 52.91 54.85 53.35 53.88 52.02 54.06 55.08 55.28 57.08 52.99 49.53 50.36 42.54 38.31 45.49 39.79 36.70 40.64 39.70 44.50 46.18 47.39 49.39 50.79 50.09 49.50 49.71 49.37 49.12 49.64 49.02 48.93 49.21 48.61 48.38 49.15 48.82 48.03 46.84 48.13 48.63 49.44 49.27

GFSNW_sfc_wetblb_054.txt.gz
Wetbulb
54.35 54.70 54.53 53.63 52.21 51.06 53.26 56.20 49.45 57.73 58.66 50.19 51.38 47.24 48.20 43.22 48.84 49.96 47.59 47.18 45.86 44.55 45.05 43.86 44.16 43.99 46.13 48.60 48.01 43.80 47.13 43.31 40.47 43.08 48.39 49.26 47.70 45.95 45.97 42.32 44.58 47.61 46.99 47.17
54.72 54.78 54.41 53.41 52.15 51.96 51.85 53.35 53.32 57.96 57.28 45.88 47.01 49.21 47.75 48.03 47.09 47.43 46.69 45.54 47.10 47.33 44.38 41.00 44.06 44.82 48.55 48.32 46.13 44.88 46.65 42.26 37.31 39.84 44.17 46.97 44.59 45.29 45.52 45.82 45.97 44.87 44.55 46.91
54.97 54.84 54.23 53.02 52.45 52.39 52.14 53.59 49.47 52.85 53.17 51.84 48.11 46.42 45.57 44.99 48.00 47.17 47.30 46.08 46.59 44.89 43.39 45.31 42.38 43.67 46.75 47.86 46.17 48.16 46.63 42.28 40.50 37.54 41.48 43.83 42.79 44.54 44.90 43.79 42.93 44.01 44.79 48.55
55.03 54.89 54.53 53.68 52.82 52.18 53.16 53.47 48.60 49.81 45.23 46.66 47.78 47.70 45.86 43.03 42.08 46.25 47.01 44.58 43.97 42.51 39.61 41.88 42.00 43.87 44.93 46.20 48.46 45.66 44.55 38.52 40.88 41.61 42.61 42.99 42.67 42.60 43.49 42.79 43.59 43.08 46.36 47.54
54.89 55.13 54.84 54.29 53.16 51.59 54.64 49.17 48.98 50.25 47.11 47.31 46.90 44.71 43.60 41.35 43.07 43.20 42.85 42.27 43.13 43.05 40.53 41.65 39.95 42.52 42.51 42.24 46.59 44.22 45.29 38.43 40.75 38.65 42.26 42.62 41.32 42.81 43.18 43.67 44.04 44.15 45.61 45.95
54.81 55.03 55.04 54.63 53.37 51.98 53.66 54.55 54.69 51.33 44.14 46.25 44.83 43.36 42.88 42.56 44.42 44.93 45.59 44.04 42.54 41.48 43.06 45.35 46.21 46.34 45.82 46.18 43.30 43.28 42.79 40.90 37.76 34.11 39.93 40.48 37.09 42.12 42.64 43.33 44.97 44.41 41.50 46.67
54.63 54.71 55.34 55.13 54.02 52.79 55.81 54.08 53.95 50.29 43.86 45.03 44.26 44.59 44.13 44.04 43.91 42.00 44.96 45.62 42.46 45.94 49.47 48.69 47.58 46.74 45.88 45.12 45.27 46.22 41.36 41.37 40.05 34.77 37.38 28.29 40.94 46.63 46.27 43.77 44.71 45.78 45.89 47.03
54.39 54.68 54.97 54.86 54.54 53.65 56.55 55.96 52.04 48.76 46.12 46.86 45.53 44.66 44.28 46.30 46.41 44.44 44.53 45.86 48.03 49.75 46.65 41.50 39.48 40.48 41.15 42.45 44.22 44.06 44.94 41.54 36.36 32.76 32.46 36.77 40.02 43.78 43.50 42.47 42.59 46.32 46.12 47.74
54.51 54.76 54.91 54.94 54.84 53.96 56.70 55.16 55.96 53.10 49.02 46.39 47.52 46.10 45.36 43.41 43.53 44.50 44.98 48.78 51.11 48.64 43.17 39.30 33.71 32.79 35.98 35.64 38.51 45.16 44.05 43.95 39.54 36.50 30.54 27.78 39.06 44.55 46.24 45.78 37.32 46.79 46.80 46.52
54.58 54.70 54.74 55.17 55.03 54.20 54.44 55.98 57.49 53.90 50.12 50.86 50.40 46.62 45.62 47.65 45.58 43.63 45.14 45.65 45.76 47.88 38.97 36.12 34.92 34.05 37.38 32.73 32.34 35.30 37.47 39.54 35.46 35.12 33.43 36.31 43.76 45.55 46.92 34.01 37.44 47.71 48.22 48.28
54.11 54.70 54.67 54.84 55.06 54.71 54.71 56.47 58.06 54.13 51.80 51.77 52.40 51.39 49.39 49.31 47.72 42.73 46.39 46.05 45.46 42.93 37.95 35.78 35.22 33.83 36.13 34.21 35.98 36.08 34.27 35.54 34.74 36.08 33.07 29.54 45.84 45.03 39.61 44.14 46.98 46.81 46.49 46.91
53.94 54.58 54.62 54.34 54.53 54.83 53.85 54.88 58.28 57.54 52.51 52.88 56.62 55.50 54.42 53.12 51.82 49.67 48.73 45.61 45.40 45.02 40.51 39.97 37.91 35.45 37.49 35.78 32.01 39.19 34.18 36.02 32.94 34.69 36.51 43.34 44.72 43.71 46.08 46.42 45.03 45.44 45.47 46.86
53.43 54.41 54.73 54.55 54.73 54.80 54.15 56.40 57.63 56.11 53.16 53.08 52.70 52.03 55.58 56.54 55.44 55.43 47.23 47.63 49.08 46.56 48.65 43.51 39.55 35.63 38.40 33.96 34.74 35.81 38.28 38.97 34.75 34.74 39.88 40.62 42.21 42.61 43.23 44.29 44.07 44.29 45.26 46.63
53.34 54.02 54.72 54.80 54.75 54.88 54.32 55.55 57.81 56.08 53.38 48.23 50.69 57.04 54.82 57.04 56.16 54.63 54.02 51.38 51.90 51.63 49.32 44.37 41.29 37.27 41.36 36.71 37.74 34.68 37.88 38.87 35.57 35.24 38.02 38.87 40.94 41.96 42.97 43.78 45.20 44.90 46.99 49.03
53.21 53.81 54.76 54.87 54.89 55.09 55.03 56.69 57.65 57.97 52.13 48.49 50.24 53.60 56.10 56.83 56.10 53.72 54.74 51.65 51.47 49.50 47.30 44.86 42.18 44.11 40.94 40.73 39.07 34.56 39.40 37.31 33.83 32.75 38.37 36.53 38.13 41.69 42.04 42.31 45.14 47.15 48.52 49.37
53.04 53.67 54.40 54.65 54.91 54.04 55.48 51.88 57.88 57.39 57.08 49.69 47.41 55.07 54.80 55.45 55.88 54.04 53.55 52.25 51.52 49.05 47.53 45.79 46.81 47.52 44.27 40.62 37.73 41.63 43.29 43.48 41.92 38.78 42.47 41.53 41.14 42.35 42.97 43.80 46.11 48.01 48.46 48.79
52.54 53.12 53.92 54.15 54.68 54.90 53.10 52.48 55.25 53.47 56.85 49.94 47.32 50.41 55.13 56.36 55.20 53.03 53.04 53.96 51.49 50.71 47.81 46.81 45.41 45.58 44.92 42.97 37.47 43.17 43.28 43.92 43.85 44.10 42.30 39.60 40.56 39.50 42.45 42.29 43.59 46.34 46.92 47.63
52.42 52.93 53.72 54.25 53.72 53.02 53.79 57.78 53.04 54.66 53.73 52.86 47.64 48.49 52.11 56.79 52.57 50.82 53.97 48.93 51.36 50.24 48.34 48.18 45.55 46.57 45.06 39.97 43.04 44.99 45.10 44.49 43.63 43.86 44.53 43.27 44.21 44.00 42.77 43.27 42.76 42.31 43.08 45.07
51.73 52.62 53.43 55.10 53.47 54.52 56.54 54.66 53.63 56.55 53.25 49.24 49.69 47.27 44.64 55.52 51.31 52.65 50.37 50.80 45.87 51.14 46.41 46.69 46.66 44.05 35.46 42.44 44.18 44.75 44.46 43.84 44.16 45.24 45.05 44.18 42.74 43.16 42.83 42.06 41.65 40.81 41.86 42.95
52.12 53.84 54.12 53.18 57.16 54.91 54.54 53.91 50.58 50.32 51.92 52.02 49.54 52.83 48.65 52.54 52.51 50.26 49.30 48.74 44.73 43.98 46.52 49.38 45.36 38.53 46.69 47.37 47.30 48.06 46.48 46.70 46.22 43.30 41.65 42.82 42.91 42.78 42.95 42.49 42.62 42.77 42.38 42.10
55.37 56.07 55.62 58.46 54.17 56.44 54.21 51.61 51.51 53.00 50.19 52.90 52.76 52.00 49.95 54.93 48.76 48.37 51.59 46.62 47.12 39.30 44.27 44.69 42.47 40.27 46.10 48.36 47.27 48.66 48.65 48.12 46.52 46.70 46.09 45.70 45.24 44.48 43.88 43.47 44.14 43.75 42.99 42.01
54.79 54.19 56.95 59.87 55.92 54.04 51.30 50.55 51.41 49.61 48.17 52.33 50.45 51.99 52.77 53.18 54.46 47.97 49.16 44.96 45.84 39.15 47.67 43.81 37.07 45.20 47.57 48.25 47.45 48.73 48.92 48.96 48.11 47.61 46.66 46.80 46.60 47.02 46.11 45.13 45.07 44.66 44.59 44.57
59.48 57.09 55.47 54.01 54.11 43.32 46.11 41.77 45.01 46.60 49.16 50.06 49.81 48.61 54.86 53.80 53.29 47.83 46.57 42.24 40.13 48.02 41.31 39.10 42.05 48.21 48.35 49.33 48.95 48.78 49.66 48.88 49.57 48.84 48.00 48.10 47.79 48.23 47.13 46.16 46.71 46.45 45.05 45.08
56.26 53.05 42.70 49.80 48.03 48.88 48.05 47.92 49.64 53.42 51.97 51.82 50.52 48.67 51.18 52.77 45.08 45.38 40.83 44.21 45.35 38.78 36.82 36.48 45.81 48.75 49.21 50.46 50.14 49.33 48.63 49.45 48.81 48.79 48.90 48.25 47.47 47.59 48.33 48.07 47.66 46.81 45.90 46.07
54.48 54.09 43.54 49.92 52.81 53.64 54.00 54.61 53.98 55.53 56.39 53.67 51.71 51.23 50.99 46.82 44.50 44.61 42.38 38.72 37.01 39.72 39.57 44.55 48.87 50.37 50.12 49.71 49.30 49.26 49.11 48.79 48.79 48.90 47.89 48.38 47.76 47.77 47.75 48.62 48.58 48.37 47.75 47.36
55.53 54.35 51.73 54.04 52.10 51.82 53.70 54.20 53.91 55.75 54.63 55.02 52.88 49.07 45.67 42.86 44.10 40.31 38.42 37.58 36.47 41.96 46.89 47.88 49.79 49.83 49.66 50.59 49.29 49.59 49.79 49.45 49.03 49.37 49.36 48.33 48.32 47.87 48.00 48.64 48.38 48.51 48.88 47.67
54.32 53.22 55.67 53.40 54.82 54.23 54.56 55.42 55.02 56.53 52.89 49.48 49.57 44.17 42.32 47.28 41.45 39.00 43.34 41.00 44.81 47.29 47.58 49.23 51.59 50.63 50.30 50.32 50.00 49.61 49.44 49.78 49.75 49.04 49.09 49.26 49.66 49.51 48.20 47.50 48.90 49.20 49.66 49.38

GFSNW_sfc_wetblb_057.txt.gz
Wetbulb
54.87 55.01 54.66 53.83 52.41 51.27 51.72 52.22 47.50 55.51 56.44 46.91 49.08 44.60 45.83 46.83 47.00 48.93 46.96 46.43 44.68 42.32 42.66 40.66 40.67 41.24 44.10 47.61 46.08 41.28 42.29 35.87 32.27 37.06 43.78 45.60 43.83 39.07 38.86 34.41 35.17 38.74 39.05 41.70
55.15 55.07 54.40 53.42 52.47 52.24 49.35 48.86 51.08 55.44 55.06 43.46 44.46 47.15 45.94 46.13 44.90 44.85 44.51 44.04 44.56 44.39 40.96 37.29 42.08 43.29 47.44 47.45 44.97 40.60 40.97 34.93 29.83 33.09 37.07 41.60 40.43 41.05 38.04 38.02 36.30 35.03 34.15 39.99
55.24 55.05 54.48 53.50 52.86 52.53 50.09 49.85 46.60 50.29 51.03 49.10 44.94 43.76 43.44 42.75 46.44 44.77 45.58 44.47 44.86 41.84 39.01 41.19 39.42 41.75 46.02 47.41 46.08 49.40 44.99 34.79 31.95 28.95 33.77 38.87 37.42 40.42 41.79 36.61 31.09 33.35 36.63 40.12
55.28 55.25 54.68 53.93 53.05 52.43 50.75 51.42 45.60 48.63 41.86 43.76 44.55 44.42 42.47 40.81 40.10 44.49 45.11 43.29 41.85 39.28 35.08 37.63 37.70 41.40 42.91 45.56 48.02 44.57 39.48 31.68 35.08 37.36 39.46 39.92 39.31 39.34 40.76 38.39 37.84 32.35 38.33 40.22
55.48 55.36 55.01 54.56 53.23 51.92 52.58 46.75 46.03 48.11 44.74 46.46 44.41 42.83 40.85 40.83 41.29 42.34 40.64 40.23 41.63 41.56 36.07 37.81 36.00 38.44 38.75 38.06 41.89 40.22 40.45 33.26 35.47 34.75 39.26 39.34 37.81 40.22 41.24 41.20 41.38 40.32 40.80 40.45
55.34 55.38 55.29 54.82 53.17 52.46 52.25 53.31 53.38 48.95 44.69 44.01 41.83 40.79 42.14 42.37 43.57 44.01 44.41 43.28 41.37 39.66 41.37 43.84 42.99 42.90 41.87 40.76 38.32 37.74 37.62 35.20 33.31 29.55 37.06 37.18 33.08 38.00 39.90 41.09 42.78 40.75 36.98 40.70
55.04 55.36 55.52 55.23 54.27 52.88 52.89 52.92 51.99 47.90 41.48 42.83 42.10 43.56 44.27 43.32 43.49 41.73 44.32 45.18 41.46 44.51 47.87 46.97 45.21 43.83 42.88 42.54 40.74 40.46 37.10 35.76 36.67 29.57 32.44 24.17 36.70 43.07 43.69 42.01 43.01 43.96 43.82 43.84
54.88 55.56 55.93 55.96 55.09 53.60 54.10 54.03 51.52 48.38 42.89 45.50 45.07 45.07 44.02 45.21 45.33 43.49 44.55 45.71 47.39 47.91 45.14 38.25 35.70 37.66 38.53 40.37 41.84 40.91 41.94 36.45 31.88 26.29 27.93 33.22 37.14 40.12 39.87 37.87 37.76 44.05 42.93 44.68
54.78 55.51 55.77 55.89 55.53 54.13 54.87 54.76 55.62 51.52 46.77 43.86 47.45 45.86 45.52 41.69 41.25 43.25 45.18 48.52 49.18 46.49 40.57 37.65 33.06 30.16 33.23 32.95 36.06 41.39 40.33 39.71 36.87 33.21 25.45 23.78 34.17 42.04 44.67 42.56 32.34 43.94 44.87 44.29
54.44 55.26 55.59 55.77 56.12 55.15 53.24 55.16 57.57 53.35 49.02 49.12 49.62 44.28 43.83 46.70 43.99 41.51 43.85 44.82 44.21 45.23 37.29 34.34 31.43 31.54 36.28 29.55 30.52 31.68 32.76 33.94 31.40 32.91 32.08 34.30 39.26 41.80 46.02 33.20 32.97 43.19 44.29 43.71
54.09 55.11 55.33 55.67 55.71 55.86 53.39 55.80 57.80 53.21 49.98 50.79 52.26 51.10 48.46 47.26 45.88 41.32 44.91 44.24 43.53 40.45 35.67 34.21 33.51 32.44 34.12 33.05 34.02 33.18 32.05 31.27 32.29 32.91 31.28 26.88 41.12 40.65 35.77 39.15 41.06 41.68 42.63 43.61
53.66 54.57 55.36 55.89 55.53 55.50 54.24 53.96 58.13 57.19 51.54 50.90 55.15 55.71 55.35 53.71 51.35 47.06 46.51 44.22 43.05 41.97 39.30 38.34 37.42 33.86 35.95 34.11 29.41 37.18 30.55 35.65 32.03 32.70 33.00 39.51 41.62 40.00 41.72 41.76 39.89 40.30 41.32 43.09
53.76 53.91 54.92 55.67 55.53 55.38 53.93 52.57 55.65 55.86 52.05 51.75 52.50 51.07 55.16 55.12 53.87 53.31 45.07 46.84 47.47 45.19 46.41 41.40 39.41 33.50 37.32 31.30 33.84 35.49 37.91 39.26 34.39 33.14 38.45 38.62 39.82 41.02 42.31 41.92 41.61 42.04 41.99 43.26
53.38 53.84 54.54 55.21 55.40 55.43 54.43 52.43 55.84 55.26 52.22 47.32 50.64 56.44 53.71 56.53 54.73 53.87 53.45 49.84 50.69 49.44 46.28 42.47 39.33 35.70 40.13 35.18 36.90 35.31 37.81 38.33 35.95 35.16 37.97 39.34 40.17 40.06 41.02 41.12 41.24 42.62 44.37 43.69
52.63 53.63 54.16 55.10 55.34 55.24 54.09 54.39 56.19 57.51 51.73 46.03 47.94 53.53 54.71 55.89 54.66 53.29 52.48 50.85 49.08 47.34 44.63 42.57 40.41 41.10 39.52 38.91 38.90 35.74 38.40 37.44 34.04 32.35 38.97 38.45 38.65 41.38 41.85 40.31 40.66 42.39 43.11 45.64
52.57 53.27 53.99 54.88 55.16 54.87 52.93 51.42 57.74 57.77 56.42 49.16 44.68 53.95 52.74 54.19 53.81 53.27 52.38 51.37 50.05 47.67 45.79 44.75 44.94 46.68 41.44 37.67 35.61 40.70 41.42 42.89 42.91 39.09 42.24 42.52 42.59 42.71 43.07 41.69 41.50 42.18 43.16 44.85
52.05 52.42 53.47 54.30 54.38 53.04 51.58 50.70 53.98 53.00 56.72 49.73 46.48 47.69 52.69 53.99 52.30 52.42 51.41 51.60 50.08 48.73 46.64 44.40 44.28 43.64 43.11 39.73 33.97 41.47 42.25 43.24 44.34 44.16 43.28 40.96 42.03 41.27 42.72 42.94 42.35 43.14 43.28 43.82
52.02 52.30 53.29 54.11 54.01 52.43 50.44 55.49 53.82 54.34 53.00 51.19 45.60 46.44 50.43 54.10 50.64 49.42 52.16 48.26 48.75 48.71 46.55 46.15 43.23 44.54 42.54 36.22 41.23 42.60 43.61 43.21 43.06 43.26 44.24 43.01 44.38 44.50 43.47 43.68 43.15 41.26 41.60 41.42
51.80 51.92 53.16 53.07 51.06 51.74 54.68 56.77 54.99 56.87 52.77 46.74 48.55 45.25 43.72 54.15 51.05 51.17 49.48 49.51 44.21 49.48 44.84 44.54 44.71 40.40 32.40 37.76 41.88 43.12 43.64 41.76 41.69 44.71 43.92 43.95 43.24 42.84 43.54 42.58 41.13 40.05 40.13 40.41
51.50 52.44 51.57 51.32 56.05 55.62 55.61 52.28 49.09 48.66 49.74 49.80 46.65 50.82 46.21 50.79 49.06 48.34 47.80 47.66 43.86 41.69 44.61 47.37 40.81 35.86 42.80 46.43 45.90 46.36 45.49 45.52 44.47 41.17 40.59 41.65 41.79 42.82 42.61 42.40 42.45 41.64 41.02 40.88
52.52 53.77 54.55 56.77 55.70 54.95 53.65 50.04 48.09 49.48 47.14 49.57 49.26 49.60 47.52 52.03 45.80 46.58 48.43 44.36 44.27 38.43 41.87 41.58 37.67 36.55 43.93 47.12 46.75 47.61 47.88 46.99 45.85 44.57 44.25 44.85 44.58 43.32 42.79 43.16 43.76 43.53 43.33 42.50
52.84 51.73 54.28 57.32 54.33 52.61 49.87 48.86 48.95 48.15 45.43 49.06 48.30 50.05 50.99 51.50 52.63 45.39 44.29 43.16 44.02 37.31 45.68 40.62 34.75 41.70 46.41 47.01 47.48 47.53 47.76 48.44 47.32 47.54 45.99 46.46 47.13 45.33 44.61 44.19 43.64 43.30 44.02 43.86
56.00 53.63 53.68 53.96 52.51 44.59 45.35 40.33 42.97 44.76 51.10 51.26 51.06 48.42 53.11 52.75 50.46 44.79 44.59 40.65 38.42 44.60 37.71 34.04 39.92 46.01 47.62 47.12 48.02 47.26 47.93 49.09 48.34 47.58 47.75 47.36 46.74 47.26 45.17 44.57 45.41 44.58 44.17 43.85
52.74 53.17 39.42 49.05 47.82 48.16 48.78 47.89 48.96 51.40 51.06 51.53 51.29 50.55 49.99 49.75 46.21 45.86 39.44 42.31 43.57 38.27 35.39 35.59 43.34 45.42 47.38 47.81 48.72 48.02 46.82 48.18 48.48 47.95 48.21 47.46 45.75 45.69 46.32 46.21 46.03 45.20 44.27 44.61
53.28 53.53 41.13 49.12 52.41 53.91 53.32 53.86 53.04 53.38 54.01 52.56 50.43 49.91 49.75 45.99 43.99 43.64 42.02 39.42 37.12 38.91 38.13 42.39 45.75 47.48 47.66 47.79 47.37 47.31 46.09 46.99 46.89 46.88 46.21 46.95 46.81 46.17 46.35 46.44 46.49 45.60 45.60 45.34
54.52 53.72 50.68 52.21 50.92 49.56 50.11 51.25 51.45 54.82 55.24 54.72 52.72 48.22 44.81 42.08 42.84 40.26 38.97 37.14 35.46 39.85 44.17 47.17 48.34 47.07 47.95 47.88 48.49 48.22 48.33 46.71 46.75 47.30 46.95 46.85 45.29 45.26 46.17 47.60 45.76 46.19 46.22 45.61
53.40 52.51 54.75 54.21 54.35 49.92 52.46 52.40 51.27 56.38 52.41 48.50 48.65 44.25 42.23 46.41 41.32 39.89 42.70 40.28 42.93 44.86 47.22 48.28 48.71 48.39 48.19 48.06 48.95 48.91 48.43 48.39 46.48 46.71 47.77 46.89 48.03 46.16 44.90 44.37 46.16 46.93 46.94 45.99

GFSNW_sfc_wetblb_060.txt.gz
Wetbulb
54.99 55.21 54.82 53.87 52.58 51.31 48.65 45.48 41.99 51.75 51.14 42.44 40.41 36.09 39.96 44.98 43.17 45.00 42.82 42.89 40.67 38.40 38.99 37.12 37.41 38.16 41.11 46.06 43.90 38.32 37.56 32.36 29.92 34.84 40.55 42.37 39.71 36.73 34.38 32.44 31.76 33.80 35.44 37.14
55.45 55.47 54.62 53.57 52.32 51.15 44.80 43.65 44.71 51.43 50.03 35.76 35.76 39.86 42.59 43.45 41.99 41.72 41.24 40.49 40.92 39.92 36.54 34.15 39.11 41.09 46.15 46.31 42.98 38.94 38.34 30.86 27.62 32.11 34.29 38.79 36.91 38.60 35.59 33.14 30.92 30.54 30.76 33.83
55.58 55.37 54.56 53.55 52.65 52.07 46.02 44.38 39.34 43.44 43.50 41.28 38.99 36.52 38.30 38.78 45.15 42.92 42.99 40.41 39.64 37.32 35.00 35.44 35.70 37.95 43.54 45.19 45.87 50.78 42.09 30.56 29.49 26.02 30.02 35.18 34.43 37.95 38.93 32.42 27.77 29.34 31.33 34.40
55.62 55.47 54.94 53.85 52.89 51.99 47.28 42.95 39.18 41.52 37.01 39.01 39.69 40.60 39.62 38.97 37.67 41.86 41.79 39.53 39.02 35.15 30.75 33.12 33.48 36.55 37.84 42.13 46.10 41.62 36.28 28.90 30.89 31.78 36.77 37.55 36.99 37.35 38.48 34.65 33.28 29.99 34.22 34.97
55.56 55.66 55.21 54.60 53.13 51.71 46.48 41.21 40.74 42.38 38.38 40.28 40.07 38.34 36.54 38.72 39.15 39.29 37.61 37.57 39.94 38.15 32.86 33.39 32.34 34.55 33.07 33.09 37.71 37.33 36.42 31.29 32.81 31.99 37.59 37.59 35.78 38.26 39.00 38.68 38.77 37.83 38.14 35.79
55.54 55.80 55.43 54.88 53.32 51.02 46.05 47.55 46.57 42.23 39.48 38.06 36.11 35.92 37.40 39.94 40.15 41.34 43.09 41.82 38.17 36.87 38.80 40.57 38.86 37.72 36.93 36.22 33.37 32.68 33.83 32.32 29.79 25.14 34.35 34.53 30.30 35.34 37.52 38.14 39.19 37.58 33.94 37.74
55.56 55.84 55.72 55.39 54.27 51.69 47.80 47.03 45.95 40.18 36.03 38.47 38.57 42.22 43.05 42.04 40.55 38.03 42.75 42.40 37.95 42.18 44.68 42.73 39.44 36.69 37.03 37.99 37.81 34.39 32.26 32.10 30.72 27.07 30.33 21.84 32.55 39.66 40.56 38.66 40.47 40.97 40.53 42.52
55.08 55.99 56.03 55.87 54.94 53.44 48.99 49.09 46.92 42.98 35.98 40.74 41.95 42.33 41.45 40.58 40.12 39.82 43.12 43.32 42.85 42.68 40.21 33.97 31.41 32.59 33.22 36.14 37.44 35.66 35.51 31.68 27.42 27.70 23.80 30.16 35.60 37.68 37.41 36.05 35.44 42.31 40.64 42.43
54.67 55.95 56.30 56.26 55.35 53.73 49.72 49.93 50.11 46.28 40.33 38.67 46.22 41.74 40.80 36.40 35.27 38.92 43.01 44.39 43.65 41.74 36.16 32.23 26.17 26.96 30.09 29.53 33.14 36.11 36.24 35.72 31.31 31.10 25.54 22.27 32.61 38.26 41.83 41.40 29.83 39.83 40.57 40.06
54.45 55.33 55.77 56.29 55.87 54.41 49.33 49.09 50.59 48.00 42.90 42.57 43.34 39.97 39.20 41.56 38.27 36.25 38.59 40.01 40.36 40.08 31.41 32.42 29.73 30.41 35.34 22.88 27.91 29.47 30.00 30.48 28.28 31.38 29.19 32.90 36.92 39.66 42.76 28.82 30.72 39.36 39.75 39.39
54.05 54.82 55.69 56.18 55.85 55.47 50.13 49.21 51.92 47.76 43.23 45.42 47.81 47.96 43.39 42.51 40.06 36.18 39.22 37.74 37.99 35.08 29.33 32.02 31.71 30.88 32.92 30.65 33.10 32.35 30.76 27.67 29.10 29.00 28.77 25.84 39.71 39.33 33.50 36.57 38.78 39.75 39.14 39.37
53.89 54.22 55.26 55.78 55.52 55.23 53.23 47.50 52.40 51.76 46.21 45.79 50.31 52.00 51.95 48.73 46.55 42.01 40.44 38.28 37.96 37.59 34.05 34.42 30.56 32.10 33.97 32.08 27.06 37.50 28.61 31.09 28.14 32.46 28.89 36.86 37.98 37.70 39.66 40.49 38.91 38.98 39.03 39.55
53.68 54.05 54.41 55.27 55.39 55.33 53.58 46.92 48.84 50.01 46.03 45.81 46.14 47.51 50.98 49.17 49.70 48.42 41.18 40.78 42.27 40.22 41.20 35.88 35.16 30.79 33.15 29.14 31.78 34.24 36.33 35.77 32.86 33.31 34.91 35.84 39.11 41.57 41.89 41.51 40.14 40.12 40.39 41.27
52.40 53.72 54.38 54.95 55.49 55.13 54.50 46.91 48.97 49.12 46.64 41.97 44.22 53.12 47.53 52.10 49.11 49.25 47.72 45.31 46.21 43.84 41.63 36.53 35.88 33.33 35.07 27.88 33.07 34.57 34.84 36.35 35.15 34.54 36.64 38.42 39.58 40.48 42.06 41.83 42.27 41.24 41.89 42.48
51.94 52.79 54.17 54.76 55.33 54.64 52.19 49.12 49.77 51.27 49.07 42.20 43.01 47.42 50.55 51.17 48.99 48.79 48.39 46.53 44.66 42.44 40.85 37.98 36.69 38.36 34.96 35.18 37.19 34.74 37.96 35.05 33.51 30.00 35.80 36.42 37.85 40.76 43.48 41.67 40.98 41.93 41.17 41.54
51.69 51.92 53.31 54.21 54.66 54.09 48.76 47.16 53.46 53.66 53.74 47.45 40.08 46.94 47.97 49.65 49.03 47.94 46.43 45.17 44.07 43.30 41.09 38.97 43.88 42.73 37.50 32.11 33.42 35.89 37.59 39.15 39.20 37.04 39.69 40.25 41.96 42.59 44.36 42.16 41.92 42.35 42.03 42.63
51.63 51.83 52.54 53.42 53.67 48.60 46.55 47.01 50.27 51.45 52.19 47.78 43.93 42.49 48.67 51.06 49.89 47.88 46.50 49.42 45.83 43.60 41.54 40.20 39.69 39.33 39.07 33.00 27.81 36.90 39.22 40.54 41.20 42.34 41.11 39.80 40.87 39.75 43.65 43.53 43.47 43.35 42.90 42.71
51.62 51.98 52.17 52.87 53.28 50.93 46.62 49.18 51.40 51.25 49.40 49.44 43.05 42.44 45.69 49.77 46.16 45.41 49.49 46.48 45.51 43.80 43.45 41.17 38.80 38.63 36.97 29.48 36.38 39.16 41.35 41.32 40.77 41.34 42.38 42.10 42.07 42.75 42.98 43.40 43.64 41.36 40.68 41.19
51.71 52.01 52.65 49.80 47.00 45.36 49.05 55.59 55.29 54.04 49.99 44.10 45.32 40.39 40.05 51.30 49.58 49.13 48.71 48.29 42.28 47.23 43.25 40.42 41.19 34.01 28.94 34.47 37.11 39.37 40.65 39.59 39.33 41.11 41.18 41.20 40.99 42.16 42.38 42.63 42.69 40.79 40.69 41.16
51.71 49.26 47.72 45.75 50.49 56.69 54.99 48.39 44.88 45.07 45.63 45.03 40.31 45.04 41.52 45.62 45.88 43.53 46.24 46.74 43.27 39.38 43.07 44.58 36.56 33.90 37.39 38.93 41.87 42.62 42.23 41.78 41.60 39.32 37.18 38.45 38.82 40.43 40.74 40.94 43.00 41.75 42.28 41.73
46.65 47.54 48.65 52.42 55.93 49.82 47.66 44.73 45.08 46.29 44.18 43.94 44.41 44.56 42.24 47.82 40.29 39.97 44.68 41.85 40.93 35.72 40.07 40.60 35.72 33.68 40.09 44.10 44.00 44.12 43.26 43.64 43.04 42.81 42.64 41.20 41.27 41.28 41.24 41.21 42.69 43.04 42.72 42.06
48.47 47.41 49.34 50.10 48.56 48.30 44.95 45.44 46.37 44.92 42.05 47.16 45.14 45.44 46.62 46.31 49.14 43.19 41.27 40.10 42.22 34.01 42.42 36.44 31.88 37.15 44.62 44.18 43.85 44.66 44.37 44.90 45.10 45.65 43.86 43.90 44.14 43.68 42.56 42.61 41.84 42.07 43.18 43.30
48.90 48.17 47.71 48.91 48.11 39.62 43.73 37.82 40.55 40.93 45.78 48.09 47.52 46.03 46.15 45.36 43.58 39.30 39.80 39.05 36.65 39.62 35.15 32.05 34.32 42.56 46.16 44.38 43.74 43.93 43.83 45.43 46.09 45.60 45.38 45.36 44.84 44.90 43.11 42.74 43.90 43.57 42.62 43.27
47.05 48.51 37.84 44.87 42.74 46.20 46.99 46.91 46.87 49.10 49.42 47.05 46.12 44.47 43.02 43.87 40.32 40.42 35.64 38.25 40.72 34.78 30.88 33.16 39.18 41.08 42.91 44.16 44.29 44.09 43.23 44.18 45.59 45.57 45.89 45.42 44.89 43.78 43.83 43.73 44.51 44.60 43.80 44.10
48.16 48.75 38.81 44.17 48.99 49.80 50.60 50.09 49.09 50.59 49.58 47.59 45.63 44.66 43.07 40.09 38.79 38.72 36.82 35.44 32.41 32.68 31.00 36.88 40.06 41.66 43.35 42.66 42.07 42.25 43.35 42.76 43.26 43.26 43.46 43.10 43.46 42.40 43.03 42.73 43.11 44.64 45.53 43.72
49.50 48.58 45.11 46.66 48.30 47.16 48.99 48.95 47.61 48.91 47.51 47.47 45.43 41.33 39.11 37.70 37.72 35.65 33.76 32.83 29.05 34.12 37.95 41.12 41.62 42.23 43.15 41.42 42.60 43.23 43.33 42.57 42.53 42.81 42.99 43.53 41.81 41.28 41.16 42.31 42.14 43.87 43.64 43.10
50.12 47.19 49.23 48.79 50.34 49.33 49.97 47.89 48.32 48.95 45.19 41.09 41.30 38.74 37.28 40.51 36.78 33.76 37.04 34.78 37.33 40.06 41.67 43.48 42.77 42.67 46.44 46.83 44.85 43.72 43.55 42.82 42.09 41.03 42.58 43.77 42.39 40.38 38.75 40.55 40.96 42.68 42.79 42.29

GFSNW_sfc_wetblb_063.txt.gz
Wetbulb
55.27 55.50 54.91 54.12 52.92 51.20 47.57 45.19 39.77 52.09 48.50 39.71 35.80 33.33 38.06 43.11 41.54 43.25 41.67 40.57 38.35 36.30 35.86 34.97 35.81 37.02 39.67 44.98 41.64 36.89 36.21 30.42 30.00 32.05 38.63 41.83 39.72 33.22 30.56 29.19 29.83 30.98 33.18 34.49
55.42 55.37 54.74 53.73 52.25 51.37 44.44 43.49 43.00 49.53 47.78 35.52 33.32 37.40 40.43 41.96 40.33 39.48 39.65 37.79 38.95 38.08 34.41 32.41 36.45 39.22 43.31 45.35 42.99 38.81 37.91 29.86 26.34 27.68 32.87 36.86 34.87 36.47 32.89 29.90 27.01 26.73 28.24 32.02
55.62 55.45 54.68 53.51 52.55 51.74 46.90 41.93 37.70 42.35 42.27 38.24 36.55 34.42 36.97 36.96 44.00 41.43 41.00 38.74 37.89 35.58 33.33 34.15 33.44 35.88 40.86 43.23 43.99 49.63 40.45 28.52 28.00 24.79 28.19 32.94 32.44 35.97 36.21 30.97 27.38 27.96 29.64 32.64
55.66 55.76 54.93 54.13 52.67 51.49 45.96 40.25 37.46 39.35 34.39 36.81 37.71 38.14 38.22 37.79 36.50 40.37 40.18 38.55 37.25 32.80 30.38 31.53 31.82 35.16 36.45 40.46 42.70 40.06 34.90 28.24 30.13 30.47 34.33 35.60 34.89 35.93 36.78 32.65 31.63 28.79 32.10 33.12
55.60 55.92 55.39 54.60 52.97 51.12 45.53 40.83 39.42 39.99 36.73 37.74 37.23 36.47 34.77 37.39 37.75 37.91 37.06 36.63 38.10 36.87 32.06 32.11 29.98 33.22 32.17 31.56 36.79 34.09 34.71 29.95 30.53 30.54 35.40 35.60 33.87 36.61 37.40 37.10 36.95 36.28 36.31 34.19
55.64 56.04 55.60 54.85 53.10 50.30 44.75 44.53 44.09 40.03 38.00 36.06 34.83 34.78 36.83 38.69 38.48 40.67 41.93 40.51 36.66 35.50 37.37 39.79 38.83 37.86 36.20 33.74 31.89 31.56 31.95 30.09 28.01 24.46 32.41 32.80 28.28 33.79 35.65 36.08 37.52 36.28 32.66 35.56
55.18 56.00 55.94 55.31 53.87 51.00 46.42 45.04 43.80 38.73 35.32 37.20 37.18 40.69 41.84 40.61 39.48 37.64 40.36 41.06 36.87 40.75 42.44 40.36 38.22 36.05 34.67 37.11 34.35 32.23 31.14 29.91 28.19 24.58 28.02 18.94 30.44 37.75 39.26 37.55 39.78 40.22 40.18 40.91
54.85 56.03 56.39 56.11 54.44 53.12 49.07 47.26 45.19 39.86 34.85 38.90 40.28 40.96 39.29 39.23 39.42 38.82 41.41 42.37 41.28 40.59 38.52 32.76 30.72 30.38 31.35 33.97 35.07 33.97 32.35 30.39 25.84 23.38 20.62 28.75 34.07 35.88 34.72 33.83 34.48 38.94 37.93 39.10
54.57 55.55 56.26 56.25 54.95 53.34 49.20 48.07 47.53 44.44 38.08 37.28 44.23 39.88 39.08 35.20 34.23 37.46 40.21 42.69 41.44 39.81 34.38 30.01 24.89 22.38 27.84 28.67 31.47 33.02 34.05 32.62 28.75 28.13 22.43 21.98 31.64 37.29 40.29 39.24 30.45 38.15 38.38 37.61
54.38 54.86 55.57 56.12 55.65 54.01 48.67 48.62 48.59 46.33 41.45 42.46 40.76 38.60 38.58 39.58 36.50 34.84 36.64 39.66 38.99 37.60 29.50 24.29 21.28 26.54 34.51 20.19 25.29 25.82 26.05 26.25 23.76 30.32 30.38 31.17 36.16 38.22 40.48 29.22 29.75 37.62 38.74 37.64
54.11 54.37 54.83 55.57 55.59 55.28 49.21 48.63 49.54 46.07 41.52 43.48 46.16 46.53 42.47 41.39 38.11 35.09 37.84 36.90 35.88 33.01 27.58 24.17 30.50 29.92 32.13 28.09 32.42 26.33 27.91 24.94 18.37 28.09 25.56 20.52 38.43 37.70 30.40 34.18 37.69 39.46 38.67 38.80
53.52 54.05 54.63 55.25 55.35 55.25 51.07 47.04 49.62 49.63 45.19 44.00 47.99 50.46 51.42 48.04 45.74 40.47 38.10 35.65 35.71 35.54 30.85 30.62 32.65 31.60 33.83 30.30 17.60 37.34 28.92 27.93 23.83 27.53 26.56 34.58 37.34 36.30 40.96 41.44 39.04 38.66 38.66 39.54
52.48 53.44 54.20 54.75 55.27 54.97 51.48 45.25 46.61 47.46 44.12 44.25 44.77 46.13 49.96 47.59 47.44 47.50 40.28 39.26 40.33 38.03 38.08 33.53 30.98 23.70 31.33 29.05 30.70 33.82 35.98 35.15 27.72 29.64 31.57 34.40 36.27 38.25 39.76 42.31 41.05 41.30 41.52 41.45
51.90 52.38 53.60 54.32 55.05 54.73 53.09 45.86 46.47 46.95 44.37 39.50 42.45 50.52 47.31 49.16 47.42 47.48 46.64 44.98 42.86 41.70 39.37 34.80 31.67 27.78 33.35 26.02 29.25 26.81 31.40 37.03 35.08 33.93 34.32 35.66 38.03 39.12 40.11 41.27 43.24 41.88 42.34 42.14
51.48 52.00 52.61 53.91 54.79 54.07 50.89 47.37 47.67 49.07 46.85 40.09 41.35 46.15 48.74 49.51 47.24 47.09 46.87 46.53 43.19 40.35 38.01 38.20 34.71 37.86 33.60 32.30 34.83 34.55 36.57 33.38 31.29 28.84 34.05 33.60 34.33 39.38 41.68 41.33 42.26 42.25 41.76 41.22
51.25 51.74 51.92 53.15 53.95 53.03 48.43 46.90 50.27 50.43 52.53 44.74 39.76 45.05 45.84 47.64 47.02 45.01 45.98 46.63 45.33 44.67 40.87 38.50 41.92 43.24 38.69 33.80 31.46 34.87 36.29 37.01 36.44 34.80 36.83 37.80 39.30 41.18 42.78 41.93 42.89 43.51 42.49 42.10
51.61 51.78 52.19 52.29 52.70 47.33 45.75 45.97 48.76 50.22 49.52 47.09 40.14 39.88 45.85 49.26 46.76 46.04 45.14 47.72 47.04 44.90 42.43 39.91 42.00 40.46 40.46 36.78 26.99 35.98 37.25 39.30 39.02 39.47 37.68 38.14 40.24 39.16 41.22 42.62 43.34 44.96 42.54 43.19
51.39 51.91 51.68 51.92 52.41 50.09 46.06 47.97 50.99 50.26 47.63 48.37 40.11 39.68 42.70 47.10 42.98 44.31 46.86 44.23 47.02 46.48 45.02 43.16 40.39 40.44 39.55 34.39 35.70 36.86 39.46 39.68 39.41 40.42 40.93 41.27 40.93 40.33 41.04 42.17 43.25 42.38 39.94 41.82
51.54 51.52 52.11 48.68 45.98 44.09 47.53 54.97 53.42 52.88 49.44 40.02 39.70 36.21 36.91 47.24 45.41 44.95 44.81 48.33 43.27 47.44 42.84 42.76 42.38 36.85 33.34 36.85 36.54 38.21 39.90 39.89 39.68 40.40 40.40 40.28 39.66 40.05 40.08 40.92 41.25 40.91 39.63 40.25
51.27 49.32 46.52 45.10 48.10 54.67 54.60 48.71 44.81 44.08 43.49 43.14 39.98 41.76 39.63 43.39 42.27 41.07 43.72 45.23 42.23 39.29 41.72 44.75 37.67 34.60 38.86 38.83 37.89 40.55 41.22 41.03 40.14 37.71 37.19 37.27 37.50 38.10 38.70 39.65 40.99 41.62 40.52 41.27
46.07 46.05 46.14 49.35 54.75 48.75 46.00 43.61 44.56 45.40 42.61 41.52 43.23 42.68 40.91 45.61 40.33 41.61 44.70 40.97 42.09 34.05 35.59 38.14 33.52 33.15 40.95 44.68 43.03 42.78 42.58 41.83 41.61 42.40 42.14 39.72 39.45 39.66 40.09 40.76 41.67 41.61 41.88 42.30
48.21 47.76 47.38 47.87 46.49 45.95 45.31 44.36 44.45 43.44 41.10 44.56 42.75 43.35 43.49 44.51 47.26 43.67 42.25 40.37 40.95 34.80 38.70 35.34 25.81 33.59 40.03 43.45 44.38 43.73 43.35 43.25 44.06 43.61 43.26 43.29 42.82 42.37 41.87 41.42 41.30 40.92 41.45 43.36
47.13 46.31 45.59 46.11 45.46 40.12 41.81 37.71 38.66 41.98 43.85 45.72 45.02 43.18 43.65 43.91 42.10 40.40 39.63 39.31 35.23 38.22 33.26 27.95 30.39 36.86 42.28 42.73 43.50 43.94 44.27 43.41 44.42 43.89 44.18 44.20 43.88 44.37 43.34 42.26 41.94 41.81 43.27 42.07
45.01 46.26 38.58 43.67 41.13 43.77 45.44 44.67 44.34 46.75 45.92 45.32 44.75 43.14 42.17 41.76 39.13 38.93 34.27 37.12 38.20 33.51 30.03 26.62 35.73 39.02 41.12 42.18 43.90 43.21 43.22 43.31 44.06 44.69 44.95 44.53 44.46 43.78 43.70 43.36 42.27 42.15 42.46 40.99
45.79 46.36 38.58 43.50 46.27 47.16 48.31 48.48 47.15 48.17 48.14 45.82 43.46 45.84 41.66 38.90 37.93 37.29 35.74 33.83 31.64 30.74 29.42 34.69 39.08 40.13 40.45 41.79 42.53 41.62 42.35 42.41 42.05 42.75 42.84 43.73 42.98 41.89 40.57 41.55 41.46 42.31 43.57 40.81
46.68 45.84 43.44 44.78 45.64 46.35 47.71 46.65 45.58 47.45 46.47 45.36 43.48 39.62 39.57 36.71 36.48 34.67 32.78 32.03 28.50 32.67 36.16 39.29 40.15 40.55 40.28 42.13 43.41 43.84 44.57 42.08 41.59 41.58 41.88 41.98 41.62 40.69 38.87 40.57 41.07 42.62 42.71 40.58
48.72 46.88 47.04 45.97 47.72 47.69 47.69 47.31 46.12 47.06 43.04 39.84 40.27 37.88 36.60 38.40 35.33 33.77 35.57 33.13 35.58 38.00 40.22 40.84 40.23 40.41 40.49 45.49 46.92 47.30 46.16 43.80 41.29 40.92 40.81 39.90 40.76 39.70 38.18 38.78 40.30 41.48 41.75 41.86

GFSNW_sfc_wetblb_066.txt.gz
Wetbulb
55.35 55.62 55.27 54.34 52.93 51.25 47.80 43.88 39.09 49.35 47.31 39.10 33.06 32.13 35.95 41.60 39.70 41.39 39.67 39.57 37.69 35.46 34.59 33.15 34.46 34.76 36.97 43.36 40.58 36.39 35.36 32.43 30.45 30.62 37.15 39.30 36.84 32.57 29.75 31.55 30.58 28.60 31.75 33.68
55.64 55.64 55.07 53.77 52.42 51.20 45.42 42.33 40.71 46.83 45.84 34.62 32.12 36.10 38.87 40.52 39.01 38.08 37.99 36.95 37.17 36.04 31.92 31.50 35.25 36.91 41.76 42.36 42.77 37.70 35.95 28.65 25.21 27.99 32.05 35.37 33.89 34.90 30.41 28.74 27.00 26.31 29.01 31.68
55.74 55.66 54.77 53.69 52.52 51.46 46.36 40.06 36.75 40.61 40.68 36.37 35.41 33.80 35.47 35.55 42.50 39.73 39.71 37.45 36.78 34.54 32.85 33.73 32.34 34.77 40.02 41.24 42.59 48.29 39.58 28.11 27.97 26.03 28.23 31.57 31.89 35.02 35.03 30.10 27.31 27.34 29.34 32.83
55.68 55.78 55.05 53.85 52.54 51.30 44.63 39.50 36.29 37.15 33.53 36.00 36.17 36.21 36.38 36.73 35.37 39.13 39.26 36.98 35.75 32.38 29.13 30.92 31.36 34.49 35.63 39.36 41.80 38.43 33.75 29.04 28.92 30.44 34.44 34.93 34.12 34.76 35.61 31.90 31.79 29.68 31.95 34.04
55.64 56.00 55.37 54.13 52.81 50.97 45.04 40.96 38.05 37.08 34.69 35.85 36.20 36.08 34.70 35.88 36.78 36.96 36.59 35.35 36.90 36.17 31.18 30.47 28.82 32.48 31.08 30.74 36.09 32.65 32.89 29.54 30.32 28.89 34.52 34.26 33.04 35.50 36.47 35.99 36.03 34.88 35.18 34.96
55.68 56.22 55.62 54.34 52.79 49.54 44.14 42.88 41.64 39.35 36.96 34.38 33.25 33.92 35.13 37.26 37.28 39.64 40.99 39.33 35.81 35.37 36.64 38.22 36.64 35.99 33.91 31.57 30.28 30.86 30.64 28.70 25.91 22.24 31.19 30.97 27.34 32.26 34.27 35.49 36.79 35.85 32.16 36.14
55.30 56.20 56.04 54.83 53.68 50.10 46.15 43.73 41.71 38.35 34.63 36.37 36.21 38.99 39.96 39.01 38.05 36.80 39.19 39.90 35.89 39.32 40.35 39.20 37.13 35.75 35.05 35.97 33.70 30.19 30.06 28.15 26.37 23.60 24.34 18.03 28.88 36.97 37.64 37.02 38.73 38.36 38.95 38.65
55.06 56.05 56.47 55.64 54.32 52.68 48.34 45.47 43.84 38.44 34.54 37.53 38.97 38.92 37.72 37.59 38.09 37.76 40.13 40.90 39.49 38.58 37.07 31.84 29.33 28.65 29.96 32.49 33.36 32.91 31.26 29.33 25.15 21.77 17.91 27.14 32.95 34.86 33.69 32.80 33.69 37.56 36.83 37.67
54.61 55.20 56.03 56.05 54.89 53.00 48.53 46.30 45.71 42.00 36.82 36.44 42.74 38.82 37.91 34.52 33.26 36.26 38.87 41.09 40.18 37.92 31.94 28.97 23.87 20.23 27.99 27.37 30.26 31.15 32.28 31.06 27.74 23.10 22.49 21.76 31.01 36.82 39.10 38.15 30.54 36.92 37.67 37.04
54.56 54.78 55.35 55.63 55.58 53.83 48.87 47.60 46.63 45.47 39.74 41.25 40.41 37.69 37.58 37.98 35.07 34.14 34.56 36.83 37.15 35.31 26.97 22.88 19.97 18.96 33.88 19.63 22.96 25.20 24.04 25.30 24.03 26.46 25.70 29.73 35.28 37.71 40.26 27.79 29.27 37.01 38.14 37.81
54.05 54.40 54.83 55.16 55.16 55.25 49.69 48.15 47.94 45.52 40.75 41.76 45.75 44.93 41.12 39.66 37.14 34.65 37.02 35.25 34.49 31.35 25.48 23.69 29.50 28.73 31.82 27.80 26.64 25.42 22.85 19.06 17.88 28.50 25.25 19.18 38.17 36.77 30.95 33.47 36.71 38.36 38.29 38.62
53.35 53.93 54.52 54.91 55.05 54.99 50.12 46.04 47.80 48.35 45.03 42.91 46.27 48.23 48.62 47.12 44.84 39.38 36.06 34.89 34.15 34.16 29.97 28.61 30.50 31.36 32.92 28.42 17.54 30.76 25.80 26.28 22.46 25.21 24.74 33.34 37.43 35.87 38.49 39.19 38.20 39.21 39.56 39.64
52.05 52.69 54.01 54.44 55.05 55.03 49.90 44.42 45.17 46.16 43.53 43.58 44.23 44.81 47.91 46.67 46.61 45.92 39.32 37.92 38.32 35.76 36.07 31.74 29.17 22.72 31.53 25.37 24.72 27.41 34.85 33.14 26.31 27.97 30.87 33.50 35.90 38.17 39.82 40.33 39.47 41.11 41.48 41.16
51.57 52.01 52.94 54.19 54.62 54.64 51.98 45.34 45.10 46.28 42.86 39.01 41.22 48.91 45.56 48.07 46.43 46.38 44.98 42.27 40.99 39.77 37.65 33.43 30.37 27.50 32.03 27.29 27.98 27.06 30.93 34.87 35.14 33.85 33.55 34.49 36.52 38.34 39.60 40.01 41.27 41.79 43.39 42.34
51.11 51.52 51.82 53.05 53.85 53.96 49.16 46.26 46.27 47.38 45.49 39.56 40.71 44.66 46.09 46.70 45.65 46.00 45.36 43.79 43.28 42.68 39.94 36.12 32.96 33.69 32.32 31.00 32.12 28.21 34.56 32.60 30.67 28.22 33.51 33.56 34.41 38.94 41.11 40.41 40.82 42.15 42.46 41.13
51.22 51.34 51.61 52.20 53.24 52.06 47.56 45.53 47.83 48.51 48.81 42.88 38.73 43.46 43.87 46.76 45.10 44.28 44.30 45.43 44.85 44.11 42.19 40.90 40.63 40.25 36.20 31.87 32.37 34.50 35.90 36.38 35.78 34.56 36.06 36.97 38.74 40.29 41.77 41.31 42.19 43.30 43.36 42.74
51.68 51.57 51.51 51.51 52.09 46.53 45.13 44.68 47.71 49.55 47.35 46.47 38.60 38.37 43.98 47.45 43.89 42.35 43.28 47.46 46.56 45.59 43.76 41.68 42.63 40.78 39.05 36.83 29.60 36.25 37.28 38.46 37.78 38.07 38.86 37.29 39.44 38.94 41.53 42.10 43.03 44.05 43.99 44.02
50.96 51.17 51.10 51.55 51.89 49.35 45.53 47.41 50.79 51.01 47.55 48.01 39.17 38.24 41.27 45.66 41.69 40.86 45.98 45.78 46.55 46.08 44.61 44.00 41.28 41.24 40.40 34.69 38.57 38.00 39.64 38.76 38.45 38.95 39.65 40.12 40.15 40.59 41.00 41.74 42.07 41.53 41.60 42.15
50.75 50.63 51.61 47.87 45.53 43.77 47.13 54.37 52.82 52.26 49.25 40.64 39.30 36.20 36.20 44.83 43.01 42.78 43.76 47.17 43.25 46.50 42.67 43.04 42.44 37.83 33.86 38.45 39.36 38.30 39.14 38.90 39.74 40.36 40.27 40.29 39.82 40.55 40.70 40.53 40.57 40.20 40.65 41.39
50.93 48.89 45.90 45.28 46.68 53.29 53.84 49.06 46.28 44.12 42.77 44.42 42.11 39.87 38.92 42.43 40.63 41.83 44.23 44.61 40.32 39.27 41.33 40.05 35.25 33.68 41.43 42.54 41.59 39.62 40.80 41.56 40.92 38.48 37.44 38.10 38.34 38.69 39.11 39.33 40.63 40.91 40.61 41.22
44.96 45.36 45.54 48.09 53.08 47.98 46.34 44.26 42.58 44.89 41.92 40.89 42.86 40.20 39.68 44.16 39.86 42.21 41.72 37.56 38.12 35.10 34.14 38.00 34.20 32.89 39.95 44.15 43.47 42.68 42.74 42.50 41.84 41.60 41.15 40.98 40.65 39.73 39.46 40.32 41.40 41.94 41.49 42.27
47.58 47.31 46.88 47.29 45.64 45.28 45.03 43.89 45.90 44.58 40.80 43.73 42.56 42.53 43.60 42.77 44.05 41.35 39.81 40.46 40.12 33.42 37.64 35.97 28.46 33.34 37.56 41.42 42.96 44.34 43.39 43.69 43.34 42.75 42.14 42.31 42.30 41.90 41.42 41.61 42.00 41.56 41.63 43.66
46.50 45.51 43.81 43.92 43.43 39.76 41.87 34.46 39.60 42.38 45.39 45.60 45.83 42.47 43.15 44.03 41.36 41.71 40.82 39.12 36.44 37.59 34.17 30.41 29.92 36.24 39.23 40.45 42.31 43.66 44.43 43.62 43.77 43.91 44.23 43.72 43.53 44.93 43.38 43.20 44.09 42.59 41.91 41.18
42.49 44.55 40.62 45.22 39.51 42.10 42.50 43.16 42.79 45.63 45.01 45.04 44.22 42.58 42.17 41.28 41.61 38.32 34.94 36.39 37.75 35.78 31.18 25.60 34.76 38.26 39.84 41.00 42.69 43.33 43.32 43.97 43.73 44.08 44.88 44.80 44.58 44.31 44.75 44.13 43.21 42.23 42.01 40.81
43.50 44.22 37.35 42.06 45.85 45.21 46.56 49.27 47.56 47.02 47.06 45.00 43.11 42.58 41.66 40.81 40.08 37.53 35.92 33.70 32.66 31.52 29.32 33.42 37.87 39.55 39.76 40.95 42.06 40.16 42.62 43.37 43.01 43.59 43.50 44.49 44.53 43.67 42.73 42.11 42.14 42.48 42.96 40.65
44.32 43.25 41.44 43.76 43.26 44.13 47.59 47.06 45.66 46.97 45.85 44.68 43.27 39.55 38.27 37.64 37.11 35.40 33.99 32.66 30.01 33.11 35.27 38.49 39.17 39.84 40.16 40.52 42.09 43.75 44.76 44.80 44.92 44.15 43.98 43.71 42.27 42.48 42.64 41.26 41.39 43.01 42.90 41.36
45.98 45.03 45.73 44.14 44.22 45.15 45.99 49.23 49.17 47.10 45.38 40.59 39.88 38.09 38.09 38.96 35.75 34.49 35.46 33.46 35.64 37.87 39.63 40.46 39.40 40.00 40.67 41.54 42.76 43.83 43.10 42.46 42.24 41.53 42.17 43.07 43.24 42.61 41.60 40.49 41.10 43.36 42.64 41.95

GFSNW_sfc_wetblb_069.txt.gz
Wetbulb
55.43 55.65 55.55 54.47 52.92 51.05 50.56 50.99 46.74 53.94 52.63 45.71 42.44 40.81 41.64 42.10 43.48 44.90 43.44 42.76 40.03 39.06 39.87 39.89 39.99 39.31 41.55 44.64 45.90 40.74 41.55 41.03 37.45 39.12 42.68 43.31 43.37 40.67 41.09 43.42 41.15 41.76 44.94 40.25
55.73 55.77 55.19 54.11 52.26 51.02 53.10 49.04 47.57 53.65 51.72 41.43 40.97 42.50 41.84 43.29 42.83 42.20 42.00 40.31 41.42 41.36 38.61 38.45 40.25 41.09 43.78 44.74 46.41 42.86 43.23 38.56 36.14 37.70 41.23 42.71 40.96 41.96 40.83 39.56 41.72 38.79 41.63 39.19
55.73 55.79 55.10 53.77 52.16 51.44 50.47 48.16 44.17 47.87 46.78 43.09 42.56 40.59 40.38 40.05 44.14 42.61 43.07 41.54 42.31 40.72 39.22 40.97 38.52 39.69 42.60 43.74 45.92 47.16 44.72 39.30 38.30 37.56 37.82 40.63 38.86 40.29 41.61 41.38 41.22 38.75 40.25 40.75
55.87 56.00 55.19 53.99 52.37 51.29 51.51 47.07 43.17 43.50 40.90 42.55 42.06 42.15 41.05 39.48 38.88 43.01 43.79 41.18 40.38 39.12 37.57 38.21 37.82 39.92 41.51 43.87 44.39 44.08 44.19 38.83 38.99 39.48 39.91 40.32 39.67 39.22 40.14 39.88 40.38 39.76 40.50 41.37
55.85 56.04 55.61 54.33 52.68 50.61 50.53 47.62 44.93 44.27 42.53 41.58 42.90 40.96 40.15 39.86 40.70 41.66 40.18 39.68 41.06 41.61 38.34 38.82 37.42 39.64 40.23 38.77 43.32 41.35 42.24 38.11 39.32 36.57 39.20 39.43 37.84 39.16 39.56 39.67 40.23 40.62 41.26 41.03
55.67 56.22 55.94 54.72 52.81 51.48 51.28 48.70 47.26 48.24 40.71 41.72 42.15 41.50 41.24 40.71 42.42 43.52 44.26 42.12 41.70 40.81 41.28 43.48 43.83 43.50 42.26 41.91 40.63 39.93 40.04 39.32 37.00 33.61 37.15 37.14 34.55 37.78 38.84 40.35 42.47 41.91 39.90 42.28
55.05 55.85 56.22 55.29 53.68 51.61 52.71 50.24 48.39 46.97 41.62 43.40 42.27 42.75 43.15 42.17 42.48 41.42 43.90 44.89 42.40 43.59 45.78 45.49 44.68 43.82 43.14 43.03 40.83 40.53 39.55 39.18 38.48 34.61 35.20 27.76 37.22 41.41 40.64 40.92 41.22 43.06 43.42 42.50
54.95 55.40 56.30 56.16 54.43 52.18 53.12 51.56 50.03 47.67 42.96 43.85 42.97 42.95 42.65 43.12 44.18 43.71 43.86 44.43 45.56 45.98 44.05 40.53 37.67 38.86 39.22 39.23 39.98 40.59 40.89 39.89 35.54 33.38 32.10 34.11 36.36 38.57 38.29 38.72 37.49 40.31 40.21 41.63
54.35 55.13 55.63 56.04 55.19 52.44 53.97 52.17 51.03 49.61 45.42 43.80 45.99 43.55 43.29 42.36 42.59 43.03 43.93 45.96 46.02 44.67 42.26 39.71 33.64 33.11 33.36 34.15 35.82 39.93 40.18 40.81 39.33 35.44 30.38 29.16 37.05 39.45 42.03 42.17 35.93 40.36 40.73 40.48
53.84 54.89 55.22 55.65 55.72 53.78 54.56 53.54 52.29 52.04 47.74 47.22 46.94 44.78 44.29 44.32 42.75 42.99 43.15 44.32 43.90 43.33 39.19 36.15 34.64 33.09 35.05 32.17 31.95 33.54 36.28 37.74 35.55 35.65 33.93 36.24 40.74 40.86 43.36 34.15 36.15 40.92 41.06 40.84
52.91 53.97 54.80 55.05 55.33 55.27 54.36 53.18 53.15 52.20 48.91 48.69 48.63 48.94 46.23 44.62 45.34 43.39 43.53 42.81 42.00 40.79 36.71 36.08 34.29 34.20 34.71 32.97 33.66 34.26 34.52 34.45 34.29 33.50 31.17 29.44 42.90 40.26 37.06 40.35 41.79 41.87 41.91 41.57
52.10 53.12 54.23 54.70 55.04 55.18 51.69 52.51 52.30 52.97 51.48 49.54 50.59 52.19 52.65 51.77 50.99 46.87 44.12 43.36 42.25 42.61 38.15 37.07 37.00 35.32 35.30 34.46 33.24 37.71 33.30 37.15 35.96 36.52 37.02 40.92 43.66 42.44 44.17 43.50 41.58 42.42 42.36 42.11
51.63 52.29 53.31 54.35 54.88 55.02 52.02 51.53 51.43 52.49 50.72 50.26 50.80 50.52 53.10 53.81 53.27 53.09 46.79 45.33 45.56 43.73 45.13 40.73 39.30 35.09 38.92 34.46 35.12 36.33 39.04 39.23 37.64 35.72 40.32 40.39 42.69 43.97 44.40 44.82 43.61 44.15 44.07 43.50
51.42 51.66 52.35 53.23 54.27 54.35 52.73 52.40 51.44 52.19 49.54 46.33 47.30 52.70 51.83 53.55 52.62 52.02 51.23 48.56 46.80 46.18 45.39 43.22 40.99 39.49 40.30 38.52 38.19 37.98 40.28 40.18 38.77 38.10 41.00 40.86 42.26 43.98 45.10 44.97 45.46 44.93 45.81 45.94
51.16 51.18 51.58 52.13 53.31 53.71 52.44 52.63 52.28 53.26 51.07 46.80 48.32 51.51 51.92 52.64 51.93 51.18 50.31 48.87 45.66 45.06 43.71 42.82 41.05 40.56 39.63 40.34 39.82 38.65 41.05 40.38 38.19 39.52 43.41 43.65 43.00 45.18 46.07 45.06 44.88 46.25 46.38 46.13
51.31 51.00 51.10 51.35 52.33 52.24 53.29 52.03 53.70 53.99 54.25 49.63 44.75 50.23 50.34 52.31 50.13 49.70 49.17 48.37 47.26 46.16 44.68 43.63 42.36 43.11 42.16 37.34 35.77 43.36 43.41 44.51 45.56 43.17 45.19 44.92 45.79 46.35 46.98 45.96 46.41 47.14 47.19 47.61
51.53 51.26 50.91 51.00 51.61 52.86 50.96 50.99 52.68 52.00 53.54 49.91 44.99 45.49 50.11 51.49 48.85 49.17 49.13 49.54 48.50 48.78 46.15 44.45 46.11 43.63 41.91 38.65 35.98 42.48 43.99 44.70 44.88 45.22 44.32 43.04 44.50 45.04 47.25 47.35 47.70 47.39 48.20 48.12
50.87 50.77 50.65 51.21 51.70 51.05 50.89 53.47 51.84 52.83 52.08 50.90 43.93 44.76 47.44 51.79 48.98 48.39 51.07 47.66 48.63 47.33 47.13 46.44 42.64 41.92 39.88 34.21 41.13 44.43 45.23 45.44 44.35 44.17 45.54 46.67 47.00 47.48 47.23 47.55 47.59 46.89 46.71 47.42
50.75 50.13 51.11 51.55 50.95 51.25 52.25 54.23 53.68 53.87 51.72 46.83 45.63 42.18 43.46 50.68 49.07 50.07 50.02 50.64 44.90 49.05 45.33 44.31 42.97 39.37 34.21 40.36 43.55 44.65 44.83 43.98 44.95 45.65 45.35 45.21 45.04 46.44 47.06 47.15 46.97 45.87 46.44 47.28
50.68 50.67 50.23 50.16 52.60 54.67 54.38 52.36 49.22 50.42 50.10 49.79 44.00 46.55 44.29 48.70 48.05 47.51 47.43 48.30 45.39 42.29 42.76 44.00 40.50 38.38 45.42 46.31 44.66 46.25 46.76 45.14 45.47 43.94 43.36 44.46 44.70 46.03 46.70 46.64 47.47 47.44 47.53 47.70
49.35 50.59 51.10 52.71 53.39 52.99 50.71 47.30 46.01 46.65 43.78 46.30 45.62 45.51 46.34 49.42 46.60 46.81 48.05 43.97 44.96 38.45 40.95 39.64 36.57 36.57 44.70 46.94 48.03 48.54 49.16 45.95 47.20 48.51 49.11 48.78 48.09 47.27 45.97 46.95 47.11 47.65 48.08 47.66
50.28 50.67 50.37 52.48 51.10 48.94 45.58 45.98 47.15 44.67 44.23 47.25 46.71 46.49 47.48 48.96 50.11 47.22 45.51 43.40 42.68 36.45 44.51 39.08 32.40 42.71 45.92 46.10 48.25 49.39 50.23 48.80 48.23 49.06 48.71 48.87 48.08 48.11 48.09 48.34 48.02 48.16 48.92 48.23
50.41 49.83 48.48 48.21 47.70 40.29 42.05 40.76 42.78 44.58 49.23 49.89 48.91 48.23 49.37 47.73 48.16 44.99 43.86 40.53 38.51 44.04 38.93 33.47 38.96 46.48 46.67 47.12 47.65 48.25 49.77 50.03 49.41 49.58 49.91 49.64 49.15 49.60 48.71 48.55 49.88 49.65 48.33 47.76
46.49 47.40 38.38 44.81 43.06 44.77 46.85 47.50 49.35 49.96 51.28 50.32 50.12 48.17 48.10 46.63 44.52 44.47 40.25 42.50 42.68 36.08 33.68 34.98 44.43 46.85 47.35 47.93 48.24 47.93 48.14 48.51 48.62 48.98 49.58 49.36 49.29 49.06 49.80 49.87 50.38 48.98 47.81 47.20
45.74 47.64 38.79 45.09 50.19 50.90 51.72 51.58 50.69 51.80 52.11 50.44 48.61 47.58 47.33 44.84 42.02 42.39 40.25 38.18 35.37 38.50 38.89 43.56 47.02 47.66 47.46 48.15 48.01 47.90 47.78 48.25 48.36 47.97 47.66 48.18 48.83 48.69 49.08 49.82 49.23 48.92 49.07 47.35
46.48 46.14 45.89 49.81 48.59 50.00 50.88 51.64 51.60 51.54 50.93 49.99 49.18 45.98 43.16 41.82 41.50 38.86 38.30 36.86 35.85 40.66 44.28 47.83 47.84 47.53 47.97 48.08 48.46 48.90 48.73 48.64 48.33 48.03 47.30 47.16 45.70 45.84 46.36 47.41 47.90 48.56 48.92 47.44
46.65 46.30 49.79 47.69 48.47 48.45 50.24 52.46 53.70 53.76 51.04 47.62 46.64 42.54 41.10 43.17 38.97 38.01 40.71 40.40 44.31 46.72 48.09 48.79 47.90 47.40 47.84 48.15 48.85 48.15 47.56 47.38 47.24 47.31 47.61 46.09 47.17 46.62 45.75 44.71 46.26 48.26 49.02 48.19

GFSNW_sfc_wetblb_072.txt.gz
Wetbulb
55.70 55.89 55.66 54.53 53.04 51.25 51.68 56.90 52.34 57.58 58.32 52.13 51.40 46.47 46.25 44.33 47.62 48.96 46.37 46.21 45.97 44.61 44.71 44.35 43.41 42.78 44.63 48.28 49.30 44.44 47.14 46.96 43.81 45.34 46.70 48.06 48.76 48.69 50.12 46.38 46.50 48.91 48.56 44.23
55.83 55.99 55.26 54.00 52.69 51.59 58.46 54.67 52.93 57.72 56.97 47.98 46.32 46.98 45.77 47.10 46.99 46.90 46.40 45.19 46.25 46.05 44.54 42.13 44.72 44.73 45.94 48.30 48.99 47.19 46.04 44.57 41.39 42.16 45.49 47.18 46.84 47.66 48.47 49.09 49.98 48.20 45.55 43.65
56.03 55.91 55.24 53.92 52.81 51.82 56.95 54.48 49.00 51.84 53.03 52.31 48.31 45.60 44.45 43.57 47.18 46.40 47.06 46.04 47.52 46.43 44.92 46.96 43.95 43.90 45.82 47.32 48.91 47.86 48.90 44.56 41.43 40.80 43.41 47.04 44.44 44.78 46.76 48.13 46.42 47.96 48.18 46.03
56.09 56.15 55.38 54.16 53.07 51.79 56.51 53.00 47.65 49.03 46.15 46.79 46.89 47.08 44.93 42.82 42.40 46.37 47.21 44.70 44.63 44.54 43.44 44.45 43.72 45.28 46.27 47.60 47.88 49.00 49.49 44.33 44.63 43.45 43.89 44.78 44.44 43.81 44.28 45.97 47.32 46.45 47.70 47.56
56.07 56.21 55.60 54.75 53.28 51.53 57.27 52.26 51.45 50.90 48.30 47.56 46.94 44.52 44.52 43.57 44.34 45.18 43.52 43.58 44.70 45.59 43.57 44.11 42.94 45.22 46.92 45.05 48.09 47.69 48.07 44.49 45.80 42.38 43.56 44.06 42.62 43.44 43.56 43.84 44.92 46.85 48.35 46.37
55.85 56.25 55.89 55.14 53.28 53.43 55.24 56.36 54.38 52.46 44.32 46.71 47.85 45.56 44.49 43.86 46.20 46.70 46.84 45.53 45.28 43.82 44.34 47.05 47.84 48.25 47.24 47.28 46.14 44.55 45.50 45.73 43.44 41.10 42.44 41.74 39.52 43.85 43.43 44.61 46.04 46.64 45.25 48.43
55.22 56.19 56.05 55.68 54.08 52.87 58.95 56.41 55.43 53.16 45.69 47.38 46.25 45.84 45.95 45.36 46.41 44.99 46.83 47.72 46.44 46.65 50.30 49.77 48.95 47.88 47.29 46.93 46.77 47.42 43.86 43.99 44.56 43.70 41.15 33.71 42.82 46.32 45.79 45.47 45.89 47.90 48.08 47.66
54.98 55.59 56.20 56.01 54.87 53.00 59.26 59.36 55.69 53.78 47.56 47.83 46.55 46.35 46.12 47.21 47.91 46.94 46.84 47.84 48.89 50.98 48.73 45.50 42.22 42.87 43.03 43.46 44.96 46.10 47.40 44.83 41.09 38.49 38.42 40.05 40.83 43.31 43.68 44.29 43.20 46.04 46.35 46.48
54.08 55.15 55.72 56.16 55.36 53.61 59.80 58.26 58.83 55.28 50.89 48.25 48.47 46.96 47.37 47.51 46.61 46.29 47.06 50.47 51.30 50.00 48.19 46.38 38.63 40.46 40.24 39.24 40.89 46.85 44.51 46.86 42.97 39.98 36.19 33.93 43.24 44.24 46.60 46.72 41.07 46.11 46.40 45.93
53.26 54.23 55.48 55.68 55.79 54.41 57.52 58.60 58.86 57.11 53.07 51.85 51.24 50.15 49.15 49.76 47.98 48.06 47.59 48.09 47.79 49.12 47.41 43.18 41.89 40.70 40.43 38.02 37.59 39.03 41.60 42.62 39.45 39.86 38.18 41.84 45.25 45.19 47.58 37.62 41.46 46.72 46.42 46.67
52.49 53.51 54.82 55.22 55.32 55.36 55.85 57.86 59.53 57.00 53.71 53.32 52.74 52.50 50.55 50.52 51.27 48.69 48.49 47.15 46.78 46.03 42.14 43.36 41.81 41.62 40.31 38.06 39.42 39.38 39.54 39.32 39.82 41.10 37.76 34.47 47.65 45.02 41.72 46.29 47.23 46.73 46.46 47.06
51.78 52.80 53.59 54.75 55.08 55.28 53.85 57.99 59.32 58.91 55.59 54.52 56.35 56.11 56.20 55.03 54.38 52.89 50.46 47.72 46.22 48.93 46.00 45.67 44.45 41.76 42.21 40.43 39.43 43.02 38.30 42.98 43.06 41.79 43.48 46.04 49.04 47.17 48.53 47.41 46.86 46.54 47.13 46.91
51.43 51.68 52.87 53.96 54.71 54.93 53.88 58.17 58.52 57.86 55.44 54.44 54.14 53.39 56.80 58.18 57.43 58.59 51.74 52.07 50.13 49.62 51.22 48.57 47.72 40.29 44.61 40.77 40.93 41.75 43.83 45.30 42.18 41.18 44.56 45.78 48.03 48.36 48.40 48.28 47.65 48.17 47.78 47.67
51.43 51.30 51.95 52.66 53.85 54.28 53.46 57.79 58.68 57.56 55.35 50.06 51.56 57.52 55.55 57.98 57.94 57.52 56.25 54.34 53.73 53.15 51.80 49.66 47.91 45.26 46.48 45.60 44.66 43.26 46.80 45.47 43.45 43.51 45.64 45.80 47.40 48.69 49.16 48.68 48.70 48.14 48.14 48.14
51.15 50.96 51.30 51.62 52.93 53.49 55.33 59.48 60.02 59.86 54.86 50.49 52.15 55.33 56.18 57.57 57.10 56.04 55.75 54.19 51.00 48.15 47.29 45.73 43.49 48.12 46.30 47.32 45.64 44.47 46.86 45.05 43.09 43.50 47.92 47.49 46.35 49.84 50.14 48.72 48.17 48.85 48.23 48.19
51.62 51.32 50.94 51.45 51.75 52.88 57.09 55.16 58.81 61.20 58.99 53.42 49.14 54.65 54.64 55.53 55.59 55.36 54.82 53.95 52.72 52.49 46.42 48.54 46.54 48.21 44.32 42.07 39.91 46.53 49.45 50.30 50.53 47.76 49.66 49.53 49.42 49.88 50.45 49.32 49.67 50.07 49.75 49.79
51.79 51.27 50.80 50.93 51.27 55.21 54.49 54.01 56.00 54.95 59.49 53.42 49.52 50.10 54.39 55.02 53.92 54.38 54.06 53.68 51.42 51.64 48.93 47.12 46.86 45.36 44.34 39.94 38.09 46.72 49.68 50.35 50.59 50.82 49.63 47.31 48.46 47.68 50.12 50.20 50.55 50.07 50.45 50.56
51.22 50.63 50.40 51.17 51.98 52.20 54.57 57.53 53.10 55.39 56.22 54.52 49.88 49.50 50.88 55.60 53.19 51.40 55.59 52.28 51.84 50.61 49.71 48.62 47.11 43.95 42.30 37.34 45.07 48.61 47.49 48.27 49.49 49.87 49.95 49.58 50.65 50.26 50.48 51.10 50.75 49.79 49.45 49.92
50.70 50.27 50.62 54.71 54.31 55.73 56.30 54.31 54.40 58.07 55.68 51.87 51.69 49.65 48.53 54.93 55.04 55.15 52.32 53.07 46.89 53.10 48.65 48.53 46.75 42.33 36.80 44.76 48.08 46.69 47.35 47.53 48.96 50.28 49.90 49.56 49.06 49.41 49.99 50.22 49.87 49.11 49.08 49.53
50.49 52.73 54.40 54.04 56.72 54.28 54.66 55.27 53.62 53.19 54.24 54.05 49.94 53.43 50.52 53.65 53.00 51.86 51.52 51.59 46.80 44.24 45.91 46.90 43.24 41.49 49.00 50.75 51.21 49.65 47.91 50.22 49.49 47.98 47.70 48.03 47.66 48.59 49.30 49.84 50.48 50.37 49.81 49.74
52.79 54.31 54.43 56.87 53.80 55.90 53.81 49.50 48.99 49.07 48.30 52.04 51.58 50.99 51.59 54.61 49.93 49.42 51.51 47.23 48.47 41.70 42.95 41.98 39.57 39.63 47.50 50.64 49.87 51.26 51.53 51.56 49.70 49.63 50.29 50.77 50.26 49.82 50.11 50.37 50.85 50.95 50.63 50.10
52.93 54.71 55.47 56.95 53.76 51.22 47.42 46.70 48.78 46.77 49.37 52.29 51.69 52.67 51.42 52.57 55.16 49.66 48.94 45.70 46.89 38.16 47.86 41.59 36.75 44.77 48.75 50.09 50.77 51.97 52.39 52.72 51.71 51.93 51.53 51.69 52.10 52.13 51.83 51.71 51.19 51.81 51.50 51.63
55.44 53.21 51.29 52.10 50.21 41.85 43.74 43.61 47.58 49.10 53.25 53.86 52.32 50.68 51.64 50.53 51.82 50.05 47.90 42.71 41.41 48.23 41.94 38.47 41.54 48.99 50.77 51.36 51.61 51.50 53.08 53.06 52.75 52.57 52.76 52.95 52.47 53.25 52.70 51.94 52.63 52.88 52.28 52.02
50.31 48.77 40.45 46.31 45.48 47.43 50.59 51.65 53.97 55.21 55.97 54.79 54.48 51.32 50.48 50.45 48.07 48.93 42.72 46.09 45.93 37.20 35.16 38.34 46.38 49.08 50.24 51.33 52.22 51.64 50.52 51.44 51.78 51.60 51.66 51.75 52.06 51.82 52.70 52.75 53.21 52.48 51.72 51.86
48.30 48.95 40.37 46.31 51.76 54.93 56.94 57.51 56.10 56.79 58.64 54.62 52.19 52.93 51.74 48.73 46.07 47.35 43.95 40.00 37.58 40.59 40.72 46.22 49.11 51.68 51.03 50.69 51.03 50.89 50.82 50.86 50.84 51.26 50.76 50.82 51.40 51.51 51.23 52.04 52.79 52.70 52.30 51.75
49.56 48.64 47.02 50.67 51.29 50.91 54.32 55.11 55.14 57.89 56.26 55.01 54.86 50.09 47.36 45.63 45.62 40.36 38.79 38.58 38.04 43.58 47.91 50.08 51.71 50.91 51.21 52.13 52.04 50.91 50.71 50.17 49.89 48.87 48.94 49.91 49.50 49.36 48.52 48.52 49.61 52.10 52.13 50.56
48.19 48.37 51.41 50.25 49.57 49.29 51.23 55.09 56.28 58.24 53.79 50.07 50.05 44.53 43.69 46.22 40.65 38.28 42.38 41.14 45.41 48.12 50.10 51.99 52.59 51.34 51.12 51.23 50.25 49.85 49.20 48.70 48.77 48.72 47.39 48.16 48.72 48.84 48.28 48.37 48.21 49.49 50.15 50.65

GFSNW_sfc_wetblb_075.txt.gz
Wetbulb
55.71 56.19 55.75 54.63 53.11 51.51 49.66 58.27 53.25 59.47 59.81 52.91 53.14 49.11 49.41 46.44 50.08 51.53 49.44 50.00 47.42 46.24 47.43 46.84 46.18 46.39 48.71 50.59 51.45 47.26 50.10 49.47 46.68 47.82 51.82 52.20 52.36 51.71 52.71 48.56 48.57 50.34 49.48 46.36
56.09 56.15 55.44 54.14 52.75 52.02 59.99 55.98 53.98 59.18 58.45 49.00 48.83 49.67 48.06 49.69 49.14 49.76 48.88 48.02 48.98 49.89 45.83 45.23 46.75 47.09 48.89 50.86 51.04 49.92 50.58 47.48 44.09 45.34 48.39 51.26 49.56 51.50 52.29 52.40 52.09 50.03 47.32 47.61
56.31 56.11 55.42 54.08 52.89 52.57 57.25 54.78 50.86 53.62 55.98 54.99 50.32 47.66 46.67 45.71 48.93 48.73 49.98 49.46 50.41 49.40 46.44 48.75 46.51 45.71 47.96 49.90 51.11 49.36 51.88 48.18 46.46 42.54 45.85 49.41 47.74 48.90 50.56 50.83 48.13 49.46 49.89 50.55
56.29 56.11 55.60 54.51 53.24 52.65 57.90 54.77 50.12 52.53 48.65 49.02 49.61 49.26 47.66 45.07 44.95 48.21 49.53 47.71 48.26 48.98 46.74 46.99 46.27 48.40 48.09 49.07 49.91 51.38 51.44 43.99 47.22 46.67 47.05 48.70 48.87 48.45 48.18 48.36 50.24 48.41 50.13 51.48
56.27 56.35 55.79 54.94 53.49 52.05 58.31 54.69 54.13 52.63 51.62 50.27 48.99 46.39 47.10 45.95 46.80 48.06 46.03 45.81 46.16 48.16 47.89 48.83 47.19 48.38 49.22 48.59 50.37 50.17 51.27 45.93 46.39 43.81 46.00 46.16 44.96 46.59 46.74 48.07 49.06 50.22 51.75 51.17
55.89 56.35 56.03 55.28 53.35 54.38 57.31 59.14 57.40 54.35 47.94 49.41 49.25 47.19 46.66 46.14 48.66 48.64 49.33 48.41 48.29 46.48 47.52 49.87 51.24 52.11 51.82 51.50 50.23 48.35 49.23 47.82 46.40 42.22 45.21 43.52 40.99 45.45 46.56 47.50 48.98 50.43 49.46 52.10
55.37 56.20 56.31 55.73 54.32 53.30 60.90 58.35 57.75 54.09 48.05 49.55 48.24 47.42 48.12 47.71 49.03 47.46 49.28 50.35 48.96 49.26 52.42 51.63 50.86 49.99 49.96 49.26 49.46 50.72 48.45 48.21 47.62 43.66 45.80 36.37 44.59 48.79 48.44 47.32 48.93 52.13 52.28 52.70
54.63 55.64 56.46 56.42 55.18 53.73 61.12 61.23 58.09 55.01 50.84 49.58 48.68 48.36 48.16 49.60 50.32 49.17 49.12 49.39 51.02 53.20 51.64 48.12 45.02 45.10 45.46 46.16 47.44 47.81 49.45 48.40 44.55 41.49 42.33 44.57 44.94 46.11 45.50 46.48 45.54 50.16 51.00 51.16
53.94 54.96 55.97 56.36 55.67 53.96 60.99 60.75 62.08 57.29 54.23 50.13 50.63 49.20 50.13 49.85 48.77 49.12 49.07 51.96 54.67 52.70 50.12 48.39 41.93 42.07 43.06 42.44 43.97 48.38 47.39 49.23 45.33 43.69 39.27 37.80 45.58 48.19 50.23 49.87 43.53 49.88 51.09 50.06
53.32 54.29 55.44 55.87 56.08 54.87 57.70 60.88 62.89 58.98 53.81 53.50 53.49 52.41 52.13 52.19 50.66 50.16 50.10 50.10 49.83 51.95 50.00 46.03 44.58 43.72 44.44 40.82 40.92 42.36 43.77 44.76 42.01 43.07 41.25 45.02 48.83 48.62 49.74 39.95 44.19 50.43 50.46 50.14
52.74 53.49 54.33 55.39 55.60 55.83 56.49 60.52 62.50 59.20 55.02 55.15 54.20 54.06 53.05 52.59 52.58 49.59 51.11 49.31 49.40 48.22 45.53 46.36 45.60 43.53 44.91 42.60 44.66 43.73 44.01 42.43 42.35 43.78 41.61 38.72 50.41 48.07 44.44 49.68 51.59 51.00 50.32 50.26
52.28 52.66 53.43 54.71 55.22 55.65 54.97 59.99 62.53 61.91 57.39 57.01 57.96 57.15 58.18 56.87 56.42 54.62 51.93 51.07 48.64 50.57 48.71 48.73 48.11 44.95 46.08 44.01 41.65 46.82 41.76 46.22 44.04 45.15 45.23 50.90 51.65 50.26 52.93 52.80 51.39 49.94 50.56 50.05
51.99 52.12 52.87 53.88 54.57 54.90 54.83 59.77 61.20 60.18 56.79 56.21 55.52 54.37 58.18 59.56 58.43 59.58 52.68 54.04 53.50 51.43 53.87 51.42 49.68 43.14 47.70 43.18 43.64 45.17 46.97 48.77 45.37 44.22 48.00 48.54 50.71 51.20 51.08 50.54 50.26 50.75 50.56 49.97
51.87 51.82 52.12 52.64 53.75 54.36 54.34 59.82 61.04 59.67 56.97 51.91 54.40 59.20 56.98 59.80 59.43 58.58 58.33 56.43 56.70 56.34 53.81 50.20 48.36 45.25 50.19 45.76 47.29 46.41 48.44 48.97 46.08 45.95 48.35 48.80 50.32 51.41 51.19 50.58 50.78 50.48 50.83 50.48
51.74 51.63 51.70 52.24 52.86 53.44 55.86 61.13 63.01 63.15 57.44 52.94 53.84 57.19 58.31 59.11 58.65 57.31 58.07 56.57 56.25 53.95 50.64 48.74 47.25 48.73 49.70 49.44 47.96 46.95 50.73 48.31 46.53 45.06 50.34 50.23 50.08 52.21 52.75 51.17 50.43 50.99 50.52 50.41
52.30 51.85 51.30 51.68 52.01 52.84 58.92 56.73 60.82 64.31 61.41 55.31 51.13 57.67 55.67 57.76 57.76 57.16 56.83 55.84 54.52 51.91 49.59 52.02 51.46 52.00 49.70 44.45 42.94 50.31 51.88 51.50 52.47 50.11 53.14 52.36 52.49 52.11 53.14 51.74 51.69 52.01 51.62 51.75
52.47 51.83 51.26 51.39 51.51 55.32 56.22 55.49 57.76 55.48 61.13 55.65 51.54 51.70 56.36 57.29 56.69 56.81 56.02 56.10 53.55 54.27 50.07 49.02 50.78 49.26 48.74 42.69 40.73 48.99 50.43 52.31 51.27 53.63 52.32 50.40 50.92 49.78 52.08 52.33 52.39 52.01 52.64 52.61
52.08 51.15 51.30 51.37 51.98 52.83 55.38 58.54 53.60 55.97 58.06 56.84 51.63 52.08 53.37 57.80 52.75 51.68 56.97 51.61 51.96 51.63 51.75 53.46 49.52 48.02 48.24 41.00 48.06 50.33 49.80 51.64 50.96 51.51 52.89 52.27 52.97 52.30 52.19 52.59 52.50 51.30 50.79 51.21
51.66 50.90 51.26 55.35 55.08 56.82 57.60 55.14 54.79 59.96 56.99 53.00 53.96 51.26 48.65 57.64 55.33 56.09 55.16 54.17 48.65 54.77 49.99 50.08 49.50 47.18 40.81 46.70 49.08 50.35 51.75 50.41 50.25 50.53 50.54 52.22 50.73 51.62 51.63 51.92 51.61 50.86 50.86 51.41
50.86 53.10 55.68 54.81 57.79 55.14 56.03 57.19 53.67 52.80 55.46 55.78 52.58 58.06 53.33 55.28 54.35 53.13 52.44 52.66 48.87 45.97 48.71 51.08 47.02 45.47 50.86 52.23 52.89 53.34 52.71 51.87 50.48 47.16 47.38 49.53 49.54 50.05 50.81 51.20 51.87 52.15 50.83 51.46
54.72 54.54 55.21 59.02 54.21 57.76 55.01 50.33 48.85 50.27 50.89 54.85 55.07 55.22 53.11 58.12 52.03 52.15 53.75 50.43 51.28 44.96 47.00 46.16 45.04 42.02 49.19 51.37 52.44 54.13 52.87 52.77 52.36 52.95 52.51 51.98 50.92 51.19 50.75 51.02 51.13 51.41 51.35 51.42
54.80 56.22 58.24 59.18 55.29 52.32 48.60 48.01 50.12 48.74 51.10 55.10 53.51 54.49 55.84 55.01 57.85 52.68 52.23 48.64 49.32 40.52 48.43 44.11 39.29 46.25 51.78 51.96 52.10 52.63 53.29 53.02 51.91 53.15 53.16 53.22 52.98 52.35 51.75 51.95 51.28 51.85 52.41 51.94
58.60 55.20 52.82 52.51 50.47 43.58 44.48 44.51 48.49 50.80 54.89 55.94 55.56 53.36 55.66 55.39 55.53 52.59 50.59 44.11 42.97 50.36 44.15 41.68 44.46 51.08 52.01 52.54 52.15 51.87 53.28 54.25 54.04 53.23 53.12 53.17 52.57 52.63 51.72 51.36 52.52 53.51 52.63 52.72
52.95 50.39 42.15 47.74 46.52 49.41 51.56 52.57 54.80 56.59 57.14 56.45 57.12 55.32 53.04 53.76 51.10 51.53 44.41 46.83 48.69 40.23 37.39 39.87 47.37 50.86 51.69 53.03 53.11 52.59 52.08 52.41 52.58 52.64 52.98 53.09 53.37 52.80 53.50 53.31 53.44 52.94 52.88 52.74
51.02 50.34 41.38 47.63 51.63 54.33 56.13 57.04 56.81 57.34 58.12 58.60 57.01 54.03 53.35 51.30 47.83 49.48 45.18 41.41 38.47 40.63 41.85 45.66 50.15 53.15 53.36 52.30 52.35 52.26 52.02 51.93 51.06 50.77 49.92 50.08 50.35 50.95 52.06 53.07 52.98 53.99 53.56 50.34
52.13 50.85 48.85 50.96 50.80 51.17 53.70 55.32 55.67 58.75 57.64 59.19 57.69 50.92 48.37 46.71 46.26 42.23 39.17 38.42 37.62 43.00 46.35 51.67 53.28 53.06 52.84 52.39 52.11 52.01 52.03 51.22 51.03 50.72 50.49 50.48 50.01 50.05 50.57 51.61 51.84 52.30 52.50 50.39
50.40 50.19 52.95 51.50 51.15 50.30 50.84 52.85 55.46 61.01 58.82 53.45 52.09 45.85 45.39 48.07 42.58 38.99 42.79 41.43 44.75 49.59 51.15 52.01 53.76 52.78 52.37 51.94 51.02 50.66 50.37 49.91 50.01 49.64 49.68 50.16 50.45 49.80 49.89 48.49 49.79 50.89 52.16 50.86

GFSNW_sfc_wetblb_078.txt.gz
Wetbulb
56.07 56.39 55.89 55.05 53.56 52.00 50.45 58.75 52.48 59.37 58.53 52.56 52.66 48.90 49.56 47.24 50.56 50.78 49.75 50.23 49.41 48.16 48.83 46.45 46.73 45.70 48.14 51.50 51.47 48.31 51.10 49.02 46.65 48.42 52.41 54.05 53.92 52.53 52.49 48.88 48.46 50.63 46.37 46.13
56.29 56.41 55.60 54.48 53.05 52.69 56.94 56.34 53.67 58.66 58.40 47.80 49.97 49.93 48.59 50.32 50.20 49.96 48.87 48.43 48.16 50.24 47.47 45.66 48.29 47.63 50.15 51.43 51.01 49.71 51.39 47.00 44.68 45.89 49.43 51.58 49.37 51.53 52.16 52.12 52.35 50.44 44.23 48.11
56.23 56.29 55.46 54.24 53.39 53.00 56.06 56.29 50.79 53.69 55.22 53.44 50.45 48.28 47.20 46.36 48.95 49.51 51.22 50.35 50.53 47.79 46.65 48.15 47.45 47.28 48.85 50.73 51.45 52.16 53.16 46.84 46.17 40.22 44.75 49.10 47.52 49.60 51.40 50.47 47.31 48.65 47.76 50.91
56.35 56.33 55.68 54.42 53.48 53.09 56.95 55.70 49.85 52.91 48.40 49.15 49.84 50.19 48.11 45.77 45.90 48.21 49.74 49.03 49.28 48.09 45.58 45.59 45.17 48.63 48.31 49.76 49.74 50.51 50.29 44.91 47.36 48.40 48.35 48.03 48.93 48.59 49.76 48.64 50.03 48.34 50.12 52.07
56.07 56.35 56.09 55.09 53.71 52.24 58.61 53.49 52.94 53.67 51.56 51.05 50.23 46.81 47.26 46.81 47.57 49.09 46.49 46.48 46.97 48.63 46.49 46.57 45.64 48.71 48.71 46.89 50.19 49.18 50.57 45.88 48.08 45.57 48.12 47.12 46.19 48.84 48.72 49.37 49.41 50.42 51.89 51.55
55.71 56.21 56.17 55.56 53.99 53.77 57.73 58.37 57.90 55.09 49.14 50.68 48.81 47.01 47.19 46.92 48.97 48.69 50.07 49.45 48.60 47.22 49.44 51.32 52.41 52.96 52.85 50.52 50.38 49.19 48.51 46.67 44.95 42.57 46.75 46.00 42.53 46.28 47.04 47.80 49.86 51.77 48.56 52.06
55.11 55.91 56.25 55.99 54.81 53.50 58.97 58.68 58.69 54.52 49.00 49.37 48.11 47.99 48.78 48.77 49.84 48.21 50.20 51.58 49.85 50.83 52.50 52.18 51.11 50.31 49.86 50.12 50.66 51.55 48.64 48.65 46.86 43.07 44.43 36.34 46.51 50.64 49.42 47.81 49.98 53.60 54.30 54.10
54.60 55.18 56.27 56.64 55.62 54.30 58.18 60.72 58.80 55.44 50.20 49.64 48.90 48.63 48.77 49.99 51.07 49.71 49.45 49.97 51.87 53.72 52.07 48.02 44.68 44.83 45.60 46.85 47.84 48.47 49.53 47.59 44.02 41.36 37.67 43.52 46.23 47.58 47.40 46.44 47.27 53.53 53.47 54.16
54.13 54.70 55.72 56.62 55.79 54.54 57.65 61.40 61.68 58.70 52.86 50.71 51.59 49.55 50.70 49.99 49.27 49.67 49.36 52.24 54.39 53.23 50.54 47.66 41.94 39.87 44.52 42.29 45.07 48.73 48.61 48.92 45.66 43.75 39.39 37.00 45.18 48.19 50.51 50.20 43.44 52.21 53.32 52.68
53.92 54.19 54.97 55.97 56.30 55.11 55.50 60.23 63.41 59.97 54.52 54.06 53.33 52.23 52.10 51.98 50.70 50.05 50.71 50.32 50.45 52.61 49.25 45.02 44.53 43.53 45.88 41.71 42.03 42.87 43.31 44.36 42.11 42.59 41.27 44.16 49.51 49.32 50.43 40.68 43.59 51.94 52.58 52.56
53.78 53.43 54.27 55.09 55.84 56.05 55.50 60.72 62.80 59.52 56.73 55.87 54.65 54.39 53.11 52.73 52.81 49.73 51.53 49.84 50.25 49.01 45.69 46.15 46.45 43.92 46.29 43.36 45.62 45.30 43.48 42.79 43.04 43.02 41.15 39.59 51.19 49.14 44.60 50.15 52.44 51.38 51.58 50.76
53.74 53.30 53.72 54.55 55.20 55.76 55.29 58.76 62.98 62.27 57.34 57.05 58.62 57.20 57.81 56.95 57.01 54.45 52.47 50.87 50.96 51.19 48.73 48.34 48.59 45.27 46.11 44.58 41.23 47.87 42.88 46.23 45.77 45.59 46.13 52.31 52.20 51.78 54.20 53.90 52.07 51.58 51.53 51.39
53.47 53.22 53.57 53.79 54.24 55.00 55.11 58.83 60.83 59.71 56.22 56.46 55.67 53.81 57.77 58.81 58.01 59.24 52.92 54.41 54.36 52.80 53.67 50.45 48.97 45.13 47.78 42.69 44.17 45.76 48.41 49.62 46.46 46.79 49.18 50.34 52.09 52.67 53.13 52.75 53.03 52.50 52.54 51.10
53.23 52.95 52.99 53.30 53.61 54.14 54.11 58.85 61.44 59.54 57.87 52.14 54.53 60.25 56.62 59.36 58.80 58.08 58.58 56.94 56.89 56.38 53.51 50.06 49.38 46.60 50.73 46.31 47.16 47.66 49.11 49.33 46.74 46.35 48.79 49.94 50.40 52.05 51.74 51.10 51.70 51.81 51.64 51.28
52.95 52.57 52.72 52.87 53.36 53.46 55.11 59.57 61.72 61.88 57.67 53.47 54.69 57.53 58.74 59.04 58.17 56.99 57.97 57.02 55.37 54.14 50.36 49.57 48.40 50.30 49.28 49.70 48.26 46.54 50.07 47.86 46.97 45.89 50.51 51.05 51.03 52.86 53.45 51.69 50.65 51.45 51.04 50.76
52.78 52.86 52.99 52.74 52.78 52.96 56.81 56.82 60.40 62.18 60.89 54.74 50.32 58.73 56.94 57.29 57.96 57.09 56.88 56.94 55.73 54.49 52.02 50.76 51.15 53.11 49.65 45.06 44.94 49.74 51.84 51.99 52.22 49.69 52.68 52.70 53.68 55.06 54.31 52.67 52.46 52.08 51.73 52.37
52.82 52.86 52.53 52.20 52.30 54.08 56.01 54.79 57.03 55.06 60.84 55.51 52.58 52.08 56.80 57.94 56.99 56.72 56.07 57.18 55.68 53.58 51.58 49.91 50.59 51.05 49.69 46.62 43.32 48.92 50.93 52.21 52.46 53.76 53.09 50.62 52.60 51.46 53.40 53.39 53.45 53.21 52.89 53.00
52.72 52.36 52.03 52.11 52.51 52.59 54.99 58.74 53.82 54.94 57.76 57.45 51.39 51.79 54.21 58.02 53.39 51.72 56.64 52.84 53.94 53.27 51.20 52.86 51.47 50.33 49.30 44.02 48.39 50.73 51.46 52.16 52.21 52.47 53.46 51.19 52.97 53.79 52.56 53.18 53.01 51.69 50.92 51.75
52.57 51.95 51.95 54.82 54.77 57.25 58.16 56.25 56.31 60.42 57.44 53.28 53.32 50.77 48.55 57.48 54.61 54.24 53.57 54.40 50.02 54.73 50.48 51.11 51.06 48.22 40.64 47.01 49.12 50.68 51.65 51.01 51.29 52.72 52.39 50.59 49.59 51.27 51.79 51.57 51.51 50.90 51.00 51.46
51.86 52.09 54.61 54.36 58.11 56.58 57.41 57.46 54.67 54.08 56.17 55.65 52.50 55.74 50.57 55.40 53.34 53.44 53.15 54.26 49.67 47.01 50.12 52.08 48.35 47.15 50.99 52.16 53.10 53.50 52.70 52.80 52.83 50.11 48.77 49.82 49.92 49.64 51.30 51.07 51.69 52.02 51.66 52.29
54.27 53.83 55.05 59.26 55.11 58.18 55.66 50.41 49.86 51.52 50.23 54.41 54.52 54.81 52.64 58.04 52.13 52.20 54.05 50.31 50.73 44.85 47.19 46.20 45.66 43.85 49.11 52.95 53.44 54.21 53.99 53.34 52.97 52.84 52.81 52.57 50.41 49.56 49.94 49.62 52.12 52.31 52.95 52.65
54.03 55.56 59.17 59.30 55.80 52.89 49.08 47.83 50.33 49.78 49.54 54.84 53.24 54.12 55.26 56.63 57.58 53.64 52.38 48.35 49.14 42.44 49.54 45.07 39.88 45.97 51.64 52.24 51.43 52.31 53.81 52.67 52.08 53.01 52.21 51.55 51.46 52.13 53.02 52.61 52.78 52.68 54.29 54.65
59.25 55.27 53.15 52.89 51.54 43.33 44.43 43.31 47.74 49.72 53.26 55.18 54.95 54.26 56.82 57.31 57.25 53.08 50.64 45.64 43.39 49.68 43.88 43.12 43.19 50.76 52.56 52.81 52.62 51.99 53.29 52.81 53.77 52.92 53.50 53.79 53.20 53.61 53.02 51.83 53.33 53.53 51.09 51.82
53.27 50.82 39.45 47.42 46.53 48.58 50.72 51.22 53.04 55.54 56.63 53.10 55.11 55.07 54.52 54.17 49.26 50.99 44.06 46.63 46.16 39.90 39.18 39.59 47.67 52.10 50.12 53.02 53.03 52.01 51.40 52.45 52.20 52.30 52.60 51.05 50.82 51.94 53.74 53.37 52.70 52.95 49.94 51.07
51.37 51.06 40.97 47.85 51.38 52.91 54.73 57.03 55.25 56.65 57.42 56.72 55.91 55.72 54.34 51.48 49.21 48.48 44.86 40.50 37.90 40.44 40.58 45.71 51.99 52.18 52.60 52.87 52.50 51.94 51.53 51.28 50.56 50.19 49.95 50.65 50.66 50.08 50.96 51.96 51.53 51.57 52.49 52.86
52.26 51.48 49.06 51.41 50.17 50.75 52.52 55.51 55.43 57.09 57.22 58.47 57.35 52.16 49.56 47.36 46.10 41.64 38.35 37.73 37.11 42.87 47.04 51.34 51.79 53.02 53.15 52.24 52.14 51.06 50.48 50.47 50.02 50.42 49.82 49.80 49.48 49.03 49.44 50.43 50.28 50.07 51.41 50.78
50.88 50.24 52.80 51.59 51.48 50.80 51.86 52.73 52.78 57.68 57.23 52.96 53.55 47.19 46.16 46.61 40.12 39.68 43.06 41.32 46.59 49.53 49.63 52.41 54.30 53.11 52.14 52.16 50.75 50.19 50.08 49.48 49.54 49.20 48.97 50.25 49.83 50.18 49.26 48.23 49.67 50.12 50.36 51.36

GFSNW_sfc_wetblb_081.txt.gz
Wetbulb
55.97 56.23 56.11 54.92 53.57 52.11 51.56 55.77 49.77 60.27 55.23 49.50 50.74 46.39 47.11 47.70 48.95 50.77 48.20 47.83 47.04 45.94 46.50 45.02 44.61 45.21 47.08 49.67 49.20 44.72 47.76 43.32 40.52 43.92 50.14 50.72 47.61 47.67 48.04 40.57 39.70 44.38 45.49 44.96
56.22 56.19 55.77 54.47 53.12 52.66 52.69 51.74 53.56 55.94 55.84 46.06 46.45 47.64 47.66 48.16 47.51 48.08 48.67 47.55 47.16 47.53 45.49 43.76 46.45 47.34 49.47 50.58 49.31 44.67 45.46 41.22 37.19 42.22 46.17 46.29 44.11 47.54 44.51 44.15 43.38 43.19 41.95 44.42
56.08 56.01 55.46 54.43 53.58 52.91 51.81 52.74 48.56 52.35 52.80 50.61 47.21 46.22 45.92 45.58 48.03 47.86 48.80 49.00 48.81 45.20 43.88 44.71 43.51 45.72 48.41 49.93 48.87 54.83 50.90 42.66 39.16 37.30 42.21 44.28 41.98 45.42 46.63 42.93 37.98 44.41 46.25 47.29
55.94 55.95 55.46 54.75 53.84 52.83 52.58 53.76 46.82 50.66 44.37 46.18 46.38 47.39 47.18 45.57 44.89 48.53 48.28 47.97 48.23 46.54 42.34 43.73 42.47 47.17 47.41 48.90 51.20 47.85 44.07 38.93 41.34 45.48 47.31 46.18 44.67 45.14 46.82 43.51 43.05 44.29 48.23 48.25
55.88 55.97 55.79 55.12 54.06 52.46 57.25 50.29 49.46 52.24 48.01 50.11 49.55 45.70 44.89 45.24 45.86 46.72 45.91 45.55 47.17 48.62 43.66 44.23 43.41 45.54 45.71 43.39 46.52 42.25 44.43 39.86 42.93 40.79 46.40 45.86 43.79 45.82 47.41 47.25 50.21 50.06 50.74 48.85
55.43 55.73 55.73 55.52 54.17 52.87 56.71 56.67 56.90 53.68 49.28 48.51 45.84 44.50 45.39 45.90 49.40 48.23 48.74 48.53 47.60 46.66 47.53 50.13 50.22 49.16 48.32 47.66 44.16 44.35 42.27 41.10 39.51 35.43 45.03 45.06 39.14 43.63 44.44 49.15 51.94 50.11 46.42 48.42
55.09 55.47 55.85 55.95 54.88 53.42 53.23 57.78 56.16 52.59 48.44 47.20 46.18 47.51 48.70 47.87 48.54 47.31 48.81 49.97 48.03 48.99 50.04 48.58 45.91 47.22 46.69 46.90 45.94 45.83 42.08 41.94 40.01 35.42 39.93 32.13 42.62 48.69 47.82 46.26 51.47 52.04 51.22 51.25
54.94 55.25 55.76 56.20 55.62 54.23 53.65 57.72 55.82 54.92 49.09 48.40 48.01 48.16 47.92 49.07 49.06 48.23 47.95 49.16 49.62 50.64 48.53 43.03 40.14 39.21 39.37 43.29 45.13 42.17 43.54 41.21 37.64 34.87 33.83 39.58 44.38 46.78 44.73 44.01 46.83 52.90 51.26 51.75
54.39 54.74 54.98 55.86 55.83 54.57 55.01 57.05 60.63 56.39 52.22 47.91 51.13 49.21 51.41 47.13 46.91 47.38 48.03 50.39 50.79 49.81 46.10 44.66 37.38 36.25 40.58 40.74 42.37 42.75 43.71 42.88 38.98 38.76 35.74 31.39 40.78 46.56 49.80 48.53 41.07 52.41 51.99 50.73
53.77 54.47 54.65 55.52 56.14 54.96 54.08 56.08 61.88 57.45 53.24 52.94 53.24 50.43 50.04 51.06 49.36 46.96 48.38 48.08 47.47 48.46 44.15 41.13 39.60 38.81 45.67 37.37 39.82 39.30 37.87 38.22 35.63 36.88 35.55 41.20 45.99 47.67 49.30 38.58 41.20 48.86 50.94 50.10
53.51 54.31 54.24 54.75 55.31 55.77 54.72 56.21 61.19 57.13 54.10 55.56 55.25 54.96 52.94 51.49 51.22 46.94 48.56 47.14 47.86 44.74 40.87 42.65 42.42 40.32 42.29 39.02 41.10 39.62 38.84 36.89 35.88 36.96 33.94 32.81 49.04 47.63 42.48 46.18 47.54 48.29 48.47 48.84
53.78 54.02 54.01 54.44 54.59 55.30 55.28 56.50 62.45 61.74 55.20 55.55 58.88 57.41 59.21 57.27 55.71 51.76 49.49 48.03 48.60 47.39 44.52 44.43 45.21 41.91 41.62 41.04 35.88 43.27 35.87 42.10 38.45 40.15 39.81 46.88 49.30 48.32 49.48 49.75 47.73 48.41 47.74 48.71
53.67 53.87 53.81 53.95 54.49 54.76 54.18 54.99 59.03 58.96 54.73 54.50 54.65 52.25 56.13 56.65 56.27 56.27 50.02 51.50 52.17 50.50 50.43 46.91 45.66 41.29 44.41 38.20 39.99 41.92 44.48 44.99 40.94 41.32 45.13 47.35 48.40 50.00 50.30 50.48 48.66 49.68 49.28 48.36
53.61 53.71 53.31 53.66 53.98 54.14 53.73 54.88 58.25 58.07 56.14 50.97 52.61 58.32 55.99 57.89 56.23 57.08 56.80 54.51 53.95 53.22 50.53 45.08 44.79 42.67 47.15 42.77 43.39 42.57 45.25 45.97 42.65 42.15 44.68 46.11 48.46 49.83 49.55 48.69 50.00 49.84 49.71 48.75
53.46 53.45 53.22 53.49 53.49 53.63 52.85 55.11 58.39 60.58 55.79 51.09 52.80 56.77 56.63 57.02 56.57 56.59 56.65 54.68 52.61 51.16 48.19 46.18 43.98 46.90 46.14 45.80 44.72 42.17 45.86 45.68 41.98 40.79 48.00 47.43 47.78 49.98 50.59 48.46 47.87 48.97 47.75 47.61
53.49 53.36 53.24 53.18 53.10 52.88 53.79 55.09 59.68 57.90 59.61 52.90 50.17 56.53 55.53 56.03 56.22 55.48 54.71 54.53 53.47 51.70 48.97 46.99 48.70 50.27 46.32 41.35 41.29 46.68 48.30 49.58 48.83 46.29 49.58 50.65 50.73 51.78 53.40 49.59 49.07 50.08 49.11 48.72
53.28 53.45 53.07 52.66 52.75 51.62 53.12 53.23 55.56 52.11 58.57 53.59 50.75 50.48 55.58 56.80 56.10 54.58 54.19 54.95 53.00 51.44 49.92 48.22 47.39 48.16 47.12 43.71 39.49 46.25 47.81 48.89 49.94 49.43 48.79 48.04 50.00 49.65 50.93 52.85 51.34 51.72 50.32 50.10
53.26 53.26 52.93 52.71 52.34 51.61 52.39 57.07 53.05 52.95 55.36 55.83 49.21 50.50 52.02 56.17 51.24 50.30 54.91 51.74 51.79 51.36 49.70 50.39 48.84 48.42 47.09 41.54 45.84 47.65 49.20 50.01 49.99 50.71 50.86 49.51 49.87 50.51 50.66 52.58 52.36 49.19 48.41 49.04
52.76 52.99 52.56 52.96 51.62 54.56 57.74 57.44 57.14 58.87 56.81 51.46 51.56 48.79 46.97 55.45 52.62 53.64 52.61 51.69 47.44 53.15 47.70 48.44 49.20 46.00 39.17 44.61 46.65 48.18 49.65 48.97 47.28 49.60 49.53 50.66 50.35 48.63 50.53 49.80 50.65 48.26 47.44 48.38
52.17 50.97 52.52 52.95 56.73 57.51 58.46 56.43 54.88 54.45 54.83 53.94 50.50 54.60 50.01 53.64 51.81 50.73 50.89 51.22 48.48 44.92 47.92 51.39 46.25 43.63 48.33 50.18 50.91 50.83 52.45 50.44 49.48 46.71 47.80 48.61 48.26 48.57 49.29 49.64 49.44 49.07 48.75 49.37
52.18 52.91 54.08 58.64 55.73 57.10 55.31 50.03 49.30 50.93 48.64 52.30 51.77 51.28 50.36 55.13 49.04 49.86 52.25 48.57 48.75 42.46 46.31 45.23 43.19 41.64 47.02 51.10 51.49 52.74 51.70 51.46 50.29 50.24 50.40 49.62 49.00 49.09 49.19 48.59 49.64 49.24 49.59 49.97
51.66 51.11 54.55 59.30 55.28 52.77 48.55 47.65 50.29 48.68 47.51 53.81 51.50 52.71 53.72 55.38 55.45 49.86 50.47 46.96 47.69 41.96 48.68 43.28 37.46 44.71 49.33 51.93 51.06 50.74 51.24 51.39 51.13 52.01 51.54 51.33 51.42 50.88 50.12 49.29 48.81 49.46 50.72 50.69
56.64 53.57 52.73 51.65 50.72 40.46 43.22 42.05 45.30 47.08 52.26 54.15 53.86 52.97 55.22 54.78 53.60 49.90 48.20 44.27 43.13 48.27 42.40 38.97 41.61 47.66 47.39 48.36 48.85 51.54 51.46 52.53 52.31 51.12 51.07 51.42 52.01 51.97 51.29 50.56 51.72 51.22 51.26 51.74
51.79 50.05 36.56 46.09 44.74 46.59 47.79 48.11 50.93 53.19 52.51 51.04 53.43 51.06 52.20 53.31 50.06 50.31 43.15 44.94 44.86 39.02 37.27 39.41 46.24 47.88 47.71 48.28 50.29 52.02 51.16 51.21 50.43 50.42 50.99 50.64 50.16 49.74 50.48 51.12 50.08 50.99 50.44 51.06
50.79 50.76 38.72 46.08 49.79 51.36 52.36 54.59 52.85 52.37 55.18 51.78 50.95 50.16 52.01 49.56 47.68 45.76 43.33 39.68 37.62 39.46 40.37 45.59 48.99 49.94 50.91 50.59 50.93 48.29 49.01 48.94 48.29 48.80 48.63 48.58 48.39 47.78 48.08 48.87 49.30 49.26 49.11 50.10
51.12 50.68 47.88 50.64 49.60 49.67 52.03 53.17 54.80 54.27 54.48 54.33 52.50 49.95 48.13 46.34 45.79 40.72 39.14 38.02 36.60 42.26 47.36 50.01 51.01 50.78 50.90 50.18 49.88 49.51 49.06 48.07 47.79 47.16 47.45 47.25 46.98 46.63 46.97 47.78 47.69 47.32 47.40 47.94
49.85 48.61 51.86 50.51 50.05 49.63 50.92 52.82 53.30 58.59 55.59 52.80 52.53 46.52 45.38 46.72 41.60 40.29 43.39 40.29 45.41 47.35 50.13 51.22 51.25 50.54 50.56 49.84 49.43 48.48 48.34 47.81 46.77 46.73 46.73 46.68 47.74 48.14 46.88 45.37 45.33 45.87 46.14 46.30

GFSNW_sfc_wetblb_084.txt.gz
Wetbulb
55.52 56.06 55.80 54.65 53.43 52.07 51.07 47.42 44.60 55.31 51.66 43.28 42.31 40.23 43.53 46.52 45.18 46.85 45.48 44.64 43.53 42.87 45.03 42.57 43.73 42.67 43.86 48.62 46.86 42.50 42.96 37.00 35.14 42.06 48.16 49.28 47.65 43.45 42.94 41.44 40.41 42.39 42.34 46.37
55.68 55.94 55.39 54.33 52.97 52.45 48.31 45.70 47.02 53.46 51.43 39.26 38.91 41.92 43.60 44.28 43.16 43.51 44.99 44.55 43.77 45.47 43.90 41.91 44.06 44.88 47.75 48.56 46.98 41.24 42.50 37.17 33.57 38.90 43.39 45.54 42.51 42.73 39.96 40.61 40.14 41.17 38.37 43.37
55.73 55.84 55.19 54.26 53.42 52.81 48.58 46.77 43.95 45.46 44.06 40.78 40.79 39.37 39.94 40.29 45.88 44.79 45.31 45.14 45.95 43.27 41.22 43.86 42.98 44.77 46.90 48.08 46.28 55.53 48.29 36.96 38.17 34.69 41.04 41.64 40.25 43.26 43.22 39.42 35.59 41.91 42.17 45.64
55.60 55.70 55.03 54.69 53.88 52.57 49.83 47.86 44.38 42.37 38.21 40.06 39.58 40.30 41.94 42.92 41.68 45.42 44.70 44.40 45.58 42.14 36.26 40.48 42.07 44.58 45.54 46.47 50.51 45.94 42.83 37.42 37.63 44.32 43.93 43.74 42.57 43.27 44.48 38.99 41.60 42.80 45.27 45.65
55.44 55.58 55.29 55.05 54.04 52.39 52.46 45.61 45.94 47.22 41.84 42.63 40.97 39.86 38.28 42.00 42.22 42.98 42.20 43.48 46.74 45.28 39.94 40.98 39.00 42.22 41.17 40.99 45.92 43.21 40.87 38.37 38.48 39.81 46.42 44.76 41.95 44.34 46.53 48.97 50.87 48.86 47.63 44.96
55.20 55.64 55.35 55.35 54.16 51.49 50.38 52.46 51.27 48.54 44.48 40.32 38.92 38.23 40.17 44.65 45.34 45.36 47.23 47.07 44.03 42.65 44.16 46.95 46.35 44.22 43.31 41.39 41.21 41.76 41.89 36.94 35.14 33.27 42.73 44.00 37.81 41.43 43.43 48.31 51.83 49.53 45.25 46.99
54.98 55.44 55.42 55.65 54.91 52.88 48.45 51.31 49.64 46.77 44.13 40.40 41.37 44.98 46.57 45.88 45.13 43.30 45.24 46.05 43.23 45.55 46.95 45.77 43.98 42.67 41.38 42.74 40.94 40.50 37.61 36.95 34.97 32.73 37.11 31.61 41.98 46.94 46.41 47.90 49.87 49.76 48.49 48.81
54.97 55.30 55.48 55.90 55.35 54.22 49.08 50.28 50.07 48.27 44.15 45.19 43.90 44.83 44.15 44.37 43.88 43.06 45.07 45.74 45.33 45.28 44.18 38.99 34.92 36.12 37.56 41.65 41.70 38.73 39.11 35.83 33.00 31.81 30.59 37.24 43.83 45.09 43.84 41.76 44.31 51.04 49.33 49.91
54.50 54.89 55.09 55.68 55.47 54.22 50.10 49.70 53.91 50.94 46.84 42.63 48.16 45.04 45.47 41.84 40.30 41.39 43.94 45.48 46.58 45.15 40.69 38.97 32.35 29.63 37.21 37.61 41.21 40.44 39.36 37.25 34.86 33.31 30.88 28.89 38.26 46.15 48.48 48.89 39.60 49.83 50.54 48.82
53.70 54.31 54.89 54.92 55.52 54.38 51.44 49.30 53.41 51.44 47.30 48.60 46.85 45.21 44.09 45.36 42.66 40.44 41.25 41.81 42.18 43.61 38.00 37.14 31.85 32.93 41.82 33.01 35.61 35.90 35.24 32.99 31.13 33.08 31.94 38.35 44.35 46.35 48.42 36.61 38.19 48.56 50.17 49.22
53.68 54.20 54.47 54.73 54.91 55.17 51.92 50.38 53.34 51.24 47.32 49.10 51.35 50.88 46.74 47.33 44.87 40.78 42.93 42.32 43.74 39.48 36.58 37.47 33.89 32.50 35.98 33.45 37.67 35.45 35.05 31.13 28.91 32.25 28.78 29.35 47.10 46.85 40.66 42.78 44.16 46.42 47.41 46.41
53.82 54.17 54.16 54.16 54.74 54.82 54.20 51.15 55.31 55.99 49.30 49.85 53.07 53.52 52.65 53.00 51.21 46.18 42.68 43.68 42.58 41.88 39.22 39.34 38.93 35.29 36.96 35.25 30.12 38.82 32.28 38.22 34.82 36.39 35.85 43.62 45.92 45.88 46.74 47.41 45.77 45.22 47.31 48.70
53.61 54.10 54.00 53.73 54.17 54.34 53.07 49.05 51.50 52.46 48.99 49.47 48.79 49.49 50.06 52.31 51.22 51.42 45.44 45.30 45.99 44.14 44.01 40.90 39.97 37.33 38.23 33.68 34.96 37.34 40.41 40.98 36.29 37.89 42.38 43.31 45.09 47.15 48.16 47.59 47.50 47.61 47.73 47.11
53.17 53.91 53.60 53.72 54.21 53.82 53.19 48.51 51.17 52.28 50.19 45.93 47.28 52.29 50.14 51.98 51.01 52.56 51.47 49.22 47.98 47.21 43.83 38.63 38.35 38.06 41.38 37.76 38.94 37.76 40.95 41.31 38.39 37.72 41.11 42.94 46.55 46.97 47.36 47.20 48.70 48.36 47.42 47.40
53.13 53.64 53.56 53.66 53.52 53.13 50.30 48.40 51.05 53.67 50.91 45.85 47.11 51.81 50.69 51.10 51.43 51.86 51.22 48.61 46.71 44.96 42.52 40.21 38.69 41.33 41.49 40.39 39.64 37.18 41.97 40.37 37.49 37.14 43.18 42.29 42.86 45.97 47.69 46.35 47.14 47.19 46.62 45.79
52.88 53.33 53.62 53.41 53.01 52.40 50.48 50.38 53.83 51.92 53.40 47.85 43.67 50.19 48.68 49.16 50.77 50.19 48.16 48.69 46.98 45.27 43.16 41.05 43.06 45.03 41.23 36.56 33.10 41.84 43.37 45.39 44.82 43.37 45.77 46.76 48.54 51.21 50.67 47.04 45.85 47.60 46.37 46.83
52.69 53.00 52.96 52.74 52.02 47.93 49.24 50.51 53.30 51.17 51.96 48.90 45.72 46.01 49.24 51.03 49.88 48.43 48.14 48.39 47.17 45.60 43.31 42.27 42.80 43.05 42.87 37.94 33.17 42.18 44.19 44.54 46.48 47.47 46.57 44.26 47.13 46.06 49.83 50.12 49.15 50.03 47.62 47.49
52.92 52.63 52.67 52.45 52.17 50.44 47.70 50.93 51.77 50.14 50.61 50.66 44.90 45.07 46.42 49.01 45.15 44.55 47.73 45.99 45.56 45.26 43.80 44.57 43.45 43.58 42.00 36.10 41.43 43.38 45.48 45.90 45.73 47.35 47.39 46.19 46.52 47.47 47.98 49.32 49.57 47.18 46.94 47.04
52.13 52.34 52.42 50.40 48.96 48.39 53.08 57.08 54.79 53.26 51.80 46.75 46.19 42.77 42.98 49.60 46.75 46.94 46.99 45.67 41.84 47.45 42.72 42.96 44.04 39.81 36.27 41.17 42.70 44.41 46.21 45.95 45.99 47.69 47.24 46.71 46.46 46.42 47.00 47.49 48.33 46.85 45.42 46.17
51.91 50.53 49.75 48.67 52.96 57.34 56.94 52.96 50.04 49.57 49.47 48.11 44.88 48.59 45.83 48.33 46.15 45.12 46.16 45.99 43.26 40.59 44.21 46.33 40.49 40.20 43.60 44.92 46.64 47.58 47.33 48.16 48.46 43.23 42.85 43.54 44.35 45.75 46.73 46.51 49.66 48.97 48.55 47.09
50.36 49.01 50.16 55.92 56.36 51.93 50.08 44.63 45.13 45.50 43.57 46.46 46.64 46.51 45.08 51.68 44.90 45.54 49.53 46.05 45.15 35.76 41.09 41.70 34.91 39.51 44.94 48.63 48.62 48.56 49.29 47.95 47.06 46.69 46.90 47.31 46.36 46.41 47.00 47.25 49.65 49.89 49.40 49.33
48.60 48.88 50.87 51.87 50.59 48.29 43.59 42.58 46.36 45.55 43.25 47.71 46.60 47.47 46.98 49.13 50.80 47.09 47.14 44.57 46.12 40.12 47.28 42.58 36.05 42.09 45.23 46.60 47.80 49.42 47.41 47.61 47.76 48.49 48.49 48.33 49.55 49.03 48.22 48.06 47.30 50.25 50.21 50.57
50.02 48.89 47.61 49.02 45.05 37.80 40.22 38.06 41.53 43.02 47.18 49.45 50.41 48.64 49.28 50.55 49.39 44.62 43.94 42.43 42.56 46.73 41.67 37.20 39.14 43.54 45.34 44.89 47.53 47.61 47.82 48.92 48.88 48.24 48.80 48.86 48.67 51.00 50.08 49.68 49.08 49.40 48.71 49.59
47.14 46.88 36.61 41.41 39.96 42.66 42.96 43.06 45.39 48.53 49.35 49.71 50.16 48.78 48.05 48.46 45.37 44.75 40.71 43.92 44.04 39.40 36.45 36.43 41.58 42.15 43.39 46.36 47.11 48.35 47.16 47.48 47.14 47.61 48.34 47.24 47.73 48.84 50.15 50.45 49.87 50.53 49.44 50.42
46.78 46.55 35.69 41.91 44.60 45.38 47.40 49.76 48.65 50.73 51.20 48.90 46.59 45.93 48.12 46.55 44.95 44.46 43.12 40.39 37.53 37.74 35.08 39.58 42.91 43.86 47.07 44.89 46.62 43.87 44.02 43.58 43.42 43.83 44.39 44.67 44.90 45.12 45.74 46.69 45.83 45.18 45.29 46.20
47.72 45.78 42.91 44.63 43.32 43.45 44.24 47.68 48.39 52.71 52.11 51.11 47.10 44.12 45.24 44.64 44.49 40.63 39.58 37.88 34.29 36.80 41.89 44.41 45.72 48.47 46.89 43.57 43.65 43.20 43.57 42.61 41.95 42.22 42.78 43.43 43.54 43.20 43.15 43.69 42.77 42.95 43.38 43.26
46.96 43.93 45.39 44.63 43.52 42.99 44.12 45.76 49.05 53.52 50.37 46.28 46.53 42.91 41.44 43.07 39.73 38.42 41.52 37.49 39.39 43.72 46.75 47.43 45.32 44.94 43.78 42.82 42.29 43.31 43.21 42.22 41.56 41.46 41.84 42.67 43.06 42.26 40.79 39.48 40.39 41.35 41.75 41.91

GFSNW_sfc_wetblb_087.txt.gz
Wetbulb
55.28 55.71 55.50 54.58 53.56 52.13 49.85 45.35 43.22 53.03 50.44 44.28 39.48 38.15 41.68 45.18 43.03 45.06 44.37 42.87 41.48 41.51 42.72 42.02 40.86 40.18 41.82 46.84 45.69 41.67 40.57 35.60 34.50 39.58 45.36 45.87 43.26 38.81 40.94 39.16 37.60 39.45 40.26 42.48
55.53 55.63 55.16 54.11 52.86 52.05 46.72 43.27 43.38 51.62 49.67 38.13 38.11 40.28 41.76 41.94 42.49 42.26 43.69 43.53 43.11 43.67 40.79 39.83 43.57 43.84 46.59 46.74 44.80 41.48 40.72 35.60 33.21 37.33 41.00 44.59 40.97 41.26 38.02 37.92 39.65 39.73 38.37 40.97
55.62 55.51 54.77 53.95 53.19 52.77 48.18 45.10 40.31 43.19 41.80 37.87 38.25 37.28 38.06 38.75 46.58 44.57 43.93 43.34 44.25 42.06 40.40 42.39 41.90 44.16 46.63 47.10 46.42 54.65 46.93 36.14 36.20 35.04 39.13 40.16 38.41 40.97 40.74 36.87 34.98 37.74 39.36 46.27
55.52 55.37 55.00 54.39 53.37 52.10 47.84 45.69 41.56 41.92 36.80 39.67 38.21 38.50 40.16 41.29 40.01 43.82 44.33 44.55 44.02 39.38 37.05 40.38 42.38 44.60 43.99 46.65 49.25 43.88 41.90 37.01 38.09 42.08 43.04 42.65 41.27 41.50 44.07 38.49 39.13 40.12 43.17 44.99
55.43 55.43 55.28 54.82 53.67 51.77 48.86 44.57 44.87 45.70 41.00 39.39 38.30 37.02 35.99 40.04 40.23 41.49 41.43 42.07 44.13 43.26 38.46 39.89 37.87 43.05 40.27 39.94 44.51 41.61 40.31 37.71 38.07 38.66 46.76 43.46 40.97 43.63 43.45 47.80 47.72 46.13 45.21 42.50
55.39 55.45 55.40 55.16 53.77 50.72 48.41 49.32 49.39 46.87 43.85 36.83 36.88 36.03 38.70 43.19 43.62 44.06 46.08 46.19 42.21 41.05 42.40 45.20 44.04 43.79 42.20 39.70 38.78 38.18 38.03 35.91 35.37 34.06 39.31 44.74 39.70 40.85 41.59 45.71 48.93 46.96 43.40 45.17
55.39 55.31 55.56 55.56 54.48 52.30 47.14 48.89 48.45 45.08 42.22 39.27 40.38 43.98 45.16 44.36 43.48 41.40 43.44 45.01 41.34 43.32 45.48 43.63 41.68 39.62 40.00 42.09 38.28 37.45 35.98 35.30 32.97 32.82 35.40 30.63 41.87 47.11 47.13 47.51 48.20 47.90 47.12 47.39
55.48 55.15 55.71 55.68 55.00 53.89 47.81 46.99 48.46 46.54 42.40 43.80 42.04 43.20 43.04 42.87 42.34 41.70 43.19 44.11 44.41 43.56 43.07 38.19 34.24 36.47 37.40 41.49 40.37 37.43 37.10 34.32 32.23 30.24 30.11 35.75 41.69 44.27 43.73 43.29 43.22 48.80 47.68 48.35
55.64 54.64 55.18 55.49 55.10 53.91 48.36 48.30 51.47 49.72 42.73 42.78 46.32 43.22 43.77 39.96 38.62 40.44 42.32 44.28 44.75 44.19 39.19 37.73 30.33 28.53 35.28 36.23 39.15 37.87 37.61 35.32 33.94 32.02 30.19 28.61 37.38 45.20 46.99 45.70 39.04 49.45 49.53 48.45
55.57 53.92 54.80 55.01 55.16 54.13 50.19 48.01 51.45 50.10 46.55 48.50 45.71 43.37 42.87 43.20 40.33 38.84 39.43 41.13 42.25 41.15 37.28 35.57 30.00 31.94 40.07 31.95 34.04 33.94 32.97 31.38 29.41 32.20 29.70 36.00 43.12 46.30 47.95 38.43 36.79 48.08 50.60 49.47
55.45 53.69 54.50 54.47 54.63 54.75 51.26 49.15 50.84 49.59 45.17 46.71 50.56 50.13 45.89 45.45 42.26 39.34 41.50 41.09 42.18 37.88 36.38 35.54 31.42 31.30 34.43 31.47 36.24 34.28 33.95 29.28 26.56 30.07 27.75 28.28 45.08 45.09 38.04 41.56 43.40 45.86 49.20 49.72
54.98 53.60 54.19 54.10 54.28 54.57 52.94 48.96 51.76 53.38 47.04 47.36 51.26 51.54 52.13 51.72 49.65 43.94 40.79 41.54 41.20 40.31 37.76 38.11 36.67 33.34 35.51 32.09 29.05 36.82 32.25 37.05 33.84 35.24 34.14 40.85 43.85 44.03 44.77 44.34 43.97 44.27 45.42 46.16
54.45 53.56 53.95 53.81 54.36 54.12 52.29 47.22 49.55 49.94 47.80 47.85 48.87 47.96 50.18 49.65 50.42 50.38 44.98 43.06 43.62 41.48 42.52 40.17 38.38 35.76 36.73 33.33 34.02 35.05 38.34 39.63 34.91 37.47 40.76 42.24 44.56 45.23 45.47 45.51 45.59 46.96 48.02 49.31
53.37 53.39 53.43 53.71 53.81 53.49 52.56 46.40 48.11 50.74 48.72 44.31 46.58 52.66 47.34 49.33 50.41 51.03 49.83 47.58 45.59 44.33 40.95 36.87 37.52 37.03 39.66 35.51 37.50 36.50 39.67 38.77 36.70 36.13 39.44 41.84 45.10 45.41 45.46 46.48 47.09 47.10 47.82 48.31
52.79 53.16 53.22 53.30 53.17 52.95 49.59 46.29 48.53 51.10 49.23 45.28 45.74 50.26 50.29 48.31 51.09 50.16 48.82 47.61 45.34 42.75 41.11 38.49 37.82 39.00 39.46 38.18 38.11 35.97 40.68 38.97 36.86 36.27 40.42 40.48 41.07 44.56 47.07 45.99 46.30 46.62 45.78 45.27
52.60 52.89 53.07 53.09 52.77 52.02 50.36 48.87 51.97 50.78 51.63 46.45 43.30 48.76 47.24 47.70 49.21 49.18 47.44 46.62 44.96 43.43 41.75 39.91 41.11 43.11 40.16 35.44 31.20 39.91 41.57 42.96 43.11 42.20 43.99 44.86 45.86 48.27 48.89 46.49 46.13 46.67 45.88 45.95
52.66 52.64 52.66 52.58 52.05 47.21 48.99 49.22 51.77 50.04 50.53 47.47 45.21 45.13 48.21 48.76 47.61 46.83 46.34 46.70 44.98 44.30 41.51 40.94 41.56 41.27 40.63 36.11 30.98 40.31 42.61 44.37 45.06 45.87 45.94 43.12 46.61 45.74 49.13 50.09 49.79 48.80 46.62 46.17
52.57 52.37 52.14 52.04 52.05 50.55 47.55 50.54 51.32 50.07 50.07 49.62 44.02 43.83 44.60 47.65 44.14 43.58 45.65 44.63 44.24 43.51 41.82 42.71 42.28 42.03 39.91 34.74 40.11 41.81 43.18 44.44 45.23 45.99 46.07 45.02 44.93 46.30 47.06 47.93 48.32 47.17 45.78 46.09
51.74 52.22 52.27 49.78 48.62 48.97 51.39 55.33 53.88 53.27 50.89 46.19 45.13 41.47 40.51 47.91 44.44 44.75 45.25 44.49 40.77 44.32 41.02 41.24 42.83 37.31 36.13 40.84 41.65 43.32 45.16 44.80 45.48 46.43 46.24 46.13 44.85 45.40 45.97 46.27 45.90 45.34 45.17 45.01
51.73 50.49 50.35 48.97 51.72 57.09 56.11 52.02 48.67 48.52 48.36 47.21 43.75 47.03 44.50 45.60 44.05 44.00 45.54 46.67 44.35 38.65 41.59 44.17 39.04 38.89 42.33 44.07 44.43 45.06 45.98 47.91 46.70 42.62 41.25 41.86 42.36 44.80 44.80 45.48 47.29 46.42 46.53 46.21
50.33 49.95 50.73 53.54 55.52 51.47 49.17 44.42 43.46 44.21 42.55 44.82 45.74 45.77 44.32 48.87 43.74 46.05 48.71 44.85 41.96 38.14 39.60 40.76 35.31 37.53 42.24 46.42 46.69 46.86 46.48 47.24 46.43 44.76 43.75 45.59 45.20 44.98 45.57 46.28 47.19 47.57 47.93 49.03
48.34 47.86 50.25 50.85 49.65 46.87 43.60 41.43 42.72 42.56 41.88 45.43 45.04 45.69 45.15 47.98 47.82 45.83 44.56 41.26 41.83 38.07 45.49 42.81 36.14 40.06 43.98 44.62 46.92 47.80 47.49 47.53 46.47 46.94 47.18 47.18 47.56 46.90 47.18 47.10 46.57 47.56 47.94 48.12
49.41 49.38 47.54 47.76 44.42 37.93 38.85 35.69 39.05 40.93 45.70 47.13 47.78 46.22 46.65 46.89 46.60 43.52 43.88 41.26 39.13 44.99 41.58 38.00 38.15 41.91 45.39 44.07 44.77 46.07 46.48 47.42 47.64 47.52 47.67 47.90 47.25 48.14 48.99 49.62 49.72 47.40 47.19 47.62
46.08 45.09 34.88 40.16 38.95 40.80 41.23 41.30 42.38 45.99 48.22 47.97 47.70 48.02 47.21 45.88 44.22 42.53 39.07 40.68 42.12 39.83 36.89 36.77 39.81 42.60 43.41 43.49 45.62 46.01 45.48 46.44 46.63 46.56 46.52 46.32 46.44 46.10 48.19 50.02 49.43 48.66 47.39 47.03
45.19 45.43 35.19 40.43 43.00 44.31 46.03 46.33 46.12 48.93 49.32 47.14 44.84 44.25 45.51 43.92 41.24 41.52 40.56 40.54 38.48 39.00 36.77 37.77 41.58 41.96 42.78 45.09 45.46 42.56 42.95 42.99 43.87 45.24 44.80 43.20 43.56 44.52 45.21 44.99 44.22 43.53 44.51 44.35
45.24 44.54 41.75 42.63 41.84 41.34 41.86 43.99 44.91 49.48 48.87 46.76 44.99 41.74 41.96 41.48 40.74 38.89 38.05 38.65 35.36 35.81 39.13 42.05 42.71 42.67 43.33 43.00 42.05 42.04 41.80 40.61 40.51 41.01 41.81 42.42 42.02 41.21 39.63 40.09 40.56 40.54 41.03 41.07
45.58 43.75 43.74 43.26 42.30 42.23 42.49 43.59 47.64 50.40 47.49 43.75 43.86 41.21 40.17 41.23 37.04 36.22 40.85 37.37 37.76 39.40 42.44 44.01 43.70 44.05 42.06 41.09 41.09 41.87 41.94 41.05 40.12 40.51 41.24 40.70 40.25 39.93 39.39 38.09 38.95 39.89 41.02 41.04

GFSNW_sfc_wetblb_090.txt.gz
Wetbulb
55.83 55.55 55.24 54.33 53.21 51.90 48.96 43.59 42.82 50.41 48.77 42.93 37.83 37.35 40.16 43.59 40.85 43.28 42.76 41.69 40.08 41.07 42.75 40.28 40.30 38.94 41.57 45.96 44.91 41.64 40.46 35.73 34.24 37.44 42.98 43.98 40.80 38.38 39.14 37.16 36.59 38.58 39.26 40.91
56.35 55.43 54.73 53.87 52.78 52.03 45.96 43.05 42.33 50.14 47.72 37.20 36.21 39.16 39.89 42.10 41.56 41.47 42.10 41.64 42.53 44.33 41.97 38.76 41.62 42.34 46.00 46.72 44.26 41.47 42.48 36.09 33.22 35.71 39.23 42.16 40.22 39.92 36.30 36.90 39.51 39.73 38.40 39.51
56.61 55.33 54.59 53.75 53.23 52.37 46.80 44.00 39.76 42.77 39.52 36.15 37.13 36.35 36.50 38.13 44.81 43.39 43.14 42.95 42.71 41.62 40.55 42.71 41.73 42.52 46.33 47.86 48.86 51.98 47.17 37.32 37.25 33.42 35.16 38.09 37.63 40.31 41.31 35.87 35.38 37.21 38.96 43.59
56.67 55.21 54.73 54.25 53.39 51.98 46.56 43.05 39.54 40.93 36.70 38.85 36.55 36.73 37.71 39.85 38.87 42.56 43.97 42.99 42.83 38.48 36.42 37.67 41.27 41.53 44.62 46.07 48.40 43.69 42.47 38.47 38.93 41.27 41.87 41.23 40.82 40.86 42.46 41.82 36.73 38.86 41.06 44.43
56.69 55.31 55.12 54.71 53.67 51.76 47.48 43.84 43.36 43.72 40.02 38.27 36.16 36.89 36.45 38.48 38.62 40.38 40.77 41.00 42.53 41.57 38.88 38.29 36.99 39.74 40.18 39.52 42.85 40.76 41.56 38.54 39.88 38.37 42.63 43.91 41.77 42.74 44.52 47.43 47.26 45.64 45.24 44.75
56.77 55.33 55.26 55.02 53.71 50.53 47.58 47.87 46.80 45.39 41.21 35.94 36.38 35.35 37.69 40.88 42.06 42.35 44.22 44.10 40.96 39.96 40.61 42.88 41.44 40.90 42.09 39.63 37.08 37.62 38.01 37.06 36.85 34.06 38.55 43.80 39.58 41.42 44.38 46.13 47.84 46.16 42.43 44.37
57.05 55.41 55.60 55.36 54.45 51.96 46.37 46.96 47.15 42.64 38.99 38.40 40.03 42.29 43.60 42.51 41.72 39.90 41.98 43.63 39.74 42.17 43.28 42.12 40.75 41.47 42.52 41.29 36.77 34.95 35.68 34.47 34.11 33.56 34.28 30.43 40.57 46.71 48.39 46.96 47.67 47.80 46.48 46.90
57.39 55.49 55.61 55.48 54.98 53.65 46.19 45.48 47.36 45.03 39.22 41.26 40.78 42.30 41.69 41.35 40.60 39.94 41.20 42.85 42.84 42.61 41.93 37.50 33.98 34.88 34.94 40.01 38.37 36.52 35.63 34.17 31.90 30.46 29.12 34.80 40.61 42.43 42.41 42.31 43.86 48.12 46.39 47.18
57.31 55.44 55.04 55.37 55.20 53.85 46.96 46.32 49.74 48.14 41.43 40.72 44.90 42.07 42.21 38.72 37.65 39.20 40.78 42.89 42.98 43.57 39.04 36.83 29.70 27.74 33.69 34.64 37.05 37.72 36.38 34.54 34.85 30.80 29.04 28.18 35.82 44.33 48.33 46.47 37.15 48.79 48.50 47.61
57.03 55.48 54.38 55.01 55.14 54.15 48.73 47.29 49.21 49.11 44.93 46.18 44.25 41.55 41.56 41.87 38.76 38.10 37.94 40.19 41.34 40.45 37.07 34.32 28.38 30.92 38.74 30.93 32.21 31.51 31.20 30.80 29.72 31.74 29.27 34.96 41.64 45.22 47.34 37.21 37.82 48.40 50.45 49.24
56.67 54.93 54.12 54.58 54.53 54.73 49.89 48.46 49.80 48.02 44.02 44.61 49.20 48.50 44.20 43.53 40.78 38.77 40.12 40.30 40.65 36.57 36.00 34.24 30.06 30.39 33.29 31.09 34.69 33.14 32.39 28.63 25.66 29.24 28.38 28.28 44.31 44.62 38.74 41.88 45.21 47.65 50.29 49.61
56.44 54.33 53.97 54.33 54.38 54.53 52.88 47.87 49.98 51.76 46.58 46.44 49.44 50.56 50.70 49.98 48.25 42.51 39.81 40.52 39.52 39.30 37.45 36.52 34.44 32.03 33.95 30.24 26.96 35.93 32.04 35.96 33.21 33.67 33.31 39.91 42.63 42.90 45.15 44.54 45.30 47.30 48.33 48.63
56.32 53.45 53.64 53.96 54.51 54.04 51.63 45.99 47.99 49.04 47.11 45.25 47.15 46.82 49.08 48.44 48.84 48.59 43.85 41.78 41.91 39.89 41.19 39.41 36.53 34.69 35.74 31.99 32.79 33.82 37.07 38.53 36.44 37.20 40.41 42.64 44.41 45.48 46.18 46.74 46.54 47.65 48.10 48.48
55.42 52.81 53.30 53.53 53.77 53.46 52.33 45.10 46.27 49.35 47.37 43.28 45.18 52.74 48.89 47.78 48.97 49.44 48.53 46.09 43.48 41.84 39.50 36.25 37.09 35.83 38.08 34.45 36.65 35.40 38.55 38.64 36.19 36.14 39.05 41.91 44.65 46.22 46.32 47.03 47.92 48.22 48.65 49.22
53.65 52.78 52.89 53.09 53.21 52.81 48.53 45.38 46.68 49.05 48.24 43.87 45.34 48.13 48.37 46.09 49.32 48.48 47.81 46.18 43.74 41.61 40.37 37.95 37.68 37.85 38.62 36.67 37.20 35.38 39.66 38.28 35.99 35.85 41.02 41.47 42.20 45.01 47.58 46.30 46.94 47.51 47.29 47.10
52.35 52.62 52.90 53.05 52.81 51.74 49.60 47.07 50.29 49.60 50.21 44.53 42.66 47.49 46.84 46.63 47.73 47.49 46.24 45.37 43.23 42.07 41.03 39.42 40.17 41.24 39.51 35.29 30.89 39.44 40.49 41.28 42.38 42.01 42.67 43.52 46.48 48.67 49.12 46.78 46.85 47.53 46.60 47.18
52.28 52.39 52.37 52.41 51.88 46.42 48.22 47.72 49.97 49.76 49.67 45.46 43.36 44.55 47.45 47.65 46.35 45.44 45.31 45.48 43.39 43.27 40.67 40.03 40.53 40.50 39.40 35.42 30.84 40.52 41.77 43.08 44.09 44.92 45.93 43.94 46.87 45.73 49.24 49.73 50.39 49.72 47.83 46.27
52.24 52.18 52.05 51.83 51.76 50.29 47.27 50.11 50.82 49.67 48.98 48.37 43.38 43.35 43.74 46.85 42.83 42.50 44.46 43.29 42.99 42.47 40.87 41.21 40.94 40.74 38.82 34.35 39.46 41.24 42.99 43.94 44.63 45.73 45.80 44.92 45.53 46.47 47.46 48.58 48.30 48.02 46.90 46.86
51.75 51.60 52.33 48.57 47.45 47.85 50.91 54.84 54.08 52.94 48.72 43.71 43.89 40.37 39.23 46.56 43.34 43.70 44.53 43.30 40.32 42.99 39.99 40.02 41.79 36.57 35.70 40.46 41.50 42.54 44.62 44.06 45.01 45.70 45.74 46.03 46.28 45.97 46.20 46.82 47.19 46.36 45.80 46.27
51.46 49.09 48.16 46.80 50.50 56.73 56.12 52.22 48.77 47.99 47.92 46.96 43.59 45.38 43.64 44.34 42.93 42.61 45.10 46.32 42.62 37.83 40.25 42.72 37.98 36.69 41.45 43.09 44.25 44.41 45.69 46.25 45.91 43.61 42.45 42.70 42.81 44.84 45.41 46.00 47.10 46.77 46.53 46.64
49.87 47.89 49.59 52.16 54.83 51.02 49.04 45.41 43.98 43.72 42.58 44.56 44.74 45.64 44.28 47.61 42.73 42.77 47.25 44.71 43.26 36.21 38.84 40.48 35.31 37.73 41.43 45.55 45.86 46.79 46.26 46.67 45.58 45.32 45.04 45.26 45.38 45.35 45.50 46.34 47.37 47.42 47.83 47.74
48.41 48.41 50.12 50.80 49.33 45.75 42.89 40.97 41.65 42.15 41.28 44.03 44.19 44.71 44.28 46.80 46.57 46.46 46.39 43.53 42.52 37.84 43.28 42.65 34.91 40.17 43.25 45.01 45.74 47.71 46.55 47.24 47.68 46.53 46.63 47.34 47.59 47.15 46.73 47.16 47.30 48.28 49.32 49.30
50.80 50.83 48.60 48.16 44.40 37.10 38.89 35.65 38.64 39.85 44.22 46.05 46.82 45.20 45.74 45.02 45.09 45.24 44.60 41.81 40.17 43.00 41.40 38.37 37.29 41.41 44.22 44.08 44.81 45.95 46.32 47.43 47.61 47.66 48.09 48.38 48.21 48.99 48.66 48.13 48.88 48.79 48.62 48.54
47.31 44.27 34.79 39.89 37.59 40.30 40.38 39.49 41.15 44.99 47.32 46.89 46.06 45.21 44.27 44.01 43.72 43.10 40.33 41.51 41.81 39.95 37.56 35.36 40.78 42.10 43.45 43.62 45.32 45.71 45.60 46.46 46.41 46.27 46.64 46.86 47.63 46.05 45.90 44.40 44.74 46.30 46.32 46.13
43.78 44.01 37.11 40.06 43.06 43.21 44.74 45.20 44.56 47.30 48.13 46.22 45.18 44.48 44.65 41.86 42.12 39.96 39.62 40.14 38.66 39.13 37.62 39.30 41.06 41.94 42.74 43.54 43.40 43.07 43.48 43.69 43.46 43.82 43.53 43.50 43.81 43.26 42.18 42.28 42.06 42.27 42.45 42.48
43.06 42.26 40.59 42.06 41.15 40.96 41.27 42.17 42.93 47.39 46.69 45.33 44.59 41.40 41.20 40.65 39.32 37.31 36.46 36.18 34.33 37.02 39.17 41.28 41.69 41.56 42.83 43.28 42.11 42.02 42.09 41.38 40.67 41.20 42.24 41.86 41.32 40.68 40.15 40.48 40.99 41.46 41.73 41.43
42.96 41.99 42.92 41.76 41.66 41.37 41.32 41.13 43.05 48.40 46.11 42.69 42.47 40.12 38.99 39.93 36.67 35.73 38.46 37.14 38.65 39.46 40.49 42.18 42.30 42.96 43.21 41.14 41.29 41.02 41.17 40.72 40.62 40.66 41.07 40.49 40.42 40.27 39.86 39.62 40.35 40.90 41.39 40.95

GFSNW_sfc_wetblb_093.txt.gz
Wetbulb
56.98 56.22 55.06 54.31 53.25 52.01 50.74 51.37 50.68 55.44 53.91 50.92 46.73 47.55 46.41 44.13 45.96 47.93 47.63 46.91 46.97 45.76 46.06 45.47 44.38 43.93 45.83 48.08 49.67 46.53 47.95 47.50 45.36 44.90 48.12 49.23 49.05 49.09 50.33 45.59 45.27 49.54 49.62 49.84
57.38 56.26 54.72 53.93 52.82 52.16 50.77 51.07 51.01 55.48 54.16 46.43 46.22 47.00 45.14 47.00 46.89 46.35 47.10 46.42 47.74 47.34 45.39 44.29 45.53 45.90 48.31 49.66 47.93 46.96 48.00 44.84 42.48 43.70 47.05 49.30 48.01 47.45 47.87 49.55 51.88 49.20 45.61 48.89
57.10 56.11 54.43 53.75 53.06 52.13 51.59 50.96 47.38 49.50 47.70 45.58 46.77 44.81 44.00 45.05 47.82 47.65 47.87 48.11 47.90 47.38 45.85 46.88 45.16 45.86 49.11 50.14 50.85 51.38 51.50 44.84 44.94 43.06 44.30 46.89 46.15 48.08 46.53 48.20 46.61 48.87 49.75 51.03
57.60 56.36 54.72 54.32 53.26 52.06 51.23 49.81 47.27 46.80 46.11 46.13 45.27 45.79 44.98 43.95 43.92 47.41 49.62 48.09 46.77 45.39 44.49 44.09 44.19 45.73 47.45 49.83 50.25 48.89 48.89 44.05 46.01 46.79 47.63 48.29 48.10 49.63 50.64 46.89 46.91 47.63 49.05 50.58
57.58 56.40 55.04 54.82 53.70 51.70 53.24 51.32 50.96 49.87 48.14 44.24 45.34 43.43 44.23 43.57 44.17 46.04 46.37 45.56 46.08 47.49 45.75 45.27 43.81 44.97 46.13 44.74 48.82 48.38 49.24 43.89 45.01 44.07 46.55 48.24 46.39 49.36 51.84 51.17 50.59 50.46 50.60 50.73
57.54 56.64 55.14 55.10 53.70 51.57 53.81 53.47 52.93 52.09 44.10 43.62 45.40 45.06 45.36 45.57 46.79 46.61 48.27 47.38 46.31 45.92 45.97 47.81 48.96 47.84 45.95 44.85 46.20 45.76 46.17 45.09 44.05 41.88 44.89 47.05 44.30 46.88 48.79 50.10 51.87 51.61 49.74 52.32
57.12 56.72 55.41 55.32 54.46 52.49 51.67 53.10 53.47 50.68 45.29 45.95 46.43 46.39 47.55 46.26 46.50 44.95 46.34 48.74 47.20 48.04 50.03 48.95 48.48 48.61 48.97 47.97 45.14 45.27 46.17 44.62 44.05 42.61 44.95 38.01 45.66 50.25 51.31 50.28 51.30 52.66 52.25 52.31
56.40 57.20 55.60 55.71 54.86 53.71 52.46 52.18 53.69 51.87 46.21 46.66 46.19 47.45 47.05 47.29 46.98 46.30 45.91 47.98 49.35 49.86 49.63 46.36 43.66 44.73 45.30 46.86 46.53 44.91 47.18 46.27 41.17 41.49 41.27 42.55 45.03 46.26 46.54 47.03 48.16 52.71 51.93 52.61
55.98 57.29 55.49 55.54 55.00 53.65 52.59 52.67 55.00 54.54 49.24 47.15 48.03 47.02 47.80 47.21 46.57 46.86 47.00 49.21 50.16 51.20 48.81 46.18 39.46 39.81 41.40 41.69 43.73 47.95 46.31 47.47 46.21 42.12 38.41 36.24 43.95 48.02 50.82 50.41 45.22 53.57 53.72 53.67
55.55 56.95 55.37 54.87 55.15 54.03 53.55 53.62 54.57 55.18 52.00 53.11 50.04 48.86 48.39 48.44 46.75 47.62 47.00 47.99 48.45 49.46 47.80 44.20 43.16 42.51 44.39 41.34 40.19 41.87 43.03 43.31 41.40 42.07 41.04 42.62 47.61 49.50 50.95 43.20 45.70 52.72 54.38 55.03
55.02 56.78 54.82 54.49 54.60 54.65 53.80 54.57 55.44 55.22 51.47 52.63 53.57 51.90 49.79 49.03 49.01 47.99 47.58 47.71 47.99 47.55 45.40 44.82 43.51 44.57 43.98 42.93 44.06 43.64 41.74 41.75 41.53 40.76 39.77 37.85 49.52 49.65 45.80 49.03 52.07 52.29 55.45 55.60
54.76 56.61 54.26 54.29 54.43 54.41 53.53 54.59 54.85 55.91 53.71 52.50 53.66 55.58 55.72 54.87 54.11 50.67 47.49 49.30 48.06 48.60 47.02 46.10 43.94 43.55 43.43 41.23 40.03 44.97 42.46 45.38 45.97 44.11 44.59 47.99 50.16 50.80 52.09 51.93 51.68 53.24 54.00 56.57
54.73 56.37 53.53 54.03 54.39 53.96 53.01 52.40 53.79 54.89 53.66 51.85 53.68 53.82 55.39 54.60 54.68 55.33 51.48 50.24 49.75 48.67 49.82 48.85 46.64 43.36 45.53 41.56 42.20 43.55 45.43 46.04 47.01 46.09 48.80 49.56 51.06 52.03 52.19 52.80 52.88 53.60 53.94 55.45
54.59 55.61 53.19 53.62 54.00 53.28 52.62 51.13 52.96 55.38 53.40 49.69 51.45 56.82 54.61 55.28 55.26 55.44 55.10 52.36 50.12 49.82 49.90 48.76 47.98 46.04 46.11 45.00 45.04 45.23 47.25 46.44 46.45 46.17 47.81 48.94 51.53 52.42 52.92 52.45 53.30 53.61 53.66 54.65
55.04 53.84 53.00 53.14 53.34 52.89 52.06 51.58 53.08 54.65 53.97 48.61 52.05 54.21 54.35 53.42 55.55 54.19 54.17 53.63 52.60 51.67 49.54 48.48 46.28 46.71 46.84 46.29 46.24 45.33 47.47 47.80 46.07 46.34 51.41 52.16 51.29 53.41 53.61 52.62 52.85 53.83 53.93 53.59
54.94 52.75 52.70 52.99 52.72 51.74 55.21 52.65 55.02 55.38 56.46 51.42 48.72 53.60 52.63 52.96 54.06 53.64 52.86 53.03 51.67 51.65 51.25 49.31 48.43 47.61 48.17 45.52 44.87 49.59 49.82 49.95 51.32 50.34 51.47 52.04 52.33 53.27 53.59 52.73 52.69 53.01 53.50 53.75
52.89 52.56 52.47 52.29 51.61 51.83 53.32 51.85 53.98 52.33 55.69 51.25 47.93 50.63 52.48 52.89 52.80 52.36 53.27 52.62 51.13 52.17 49.74 49.08 49.96 49.43 48.94 47.22 45.39 48.73 49.86 50.53 50.76 51.02 51.68 50.50 52.55 52.40 54.39 54.46 54.07 52.73 53.44 53.94
52.31 52.37 51.94 51.77 51.80 51.68 52.01 54.92 52.04 52.95 54.46 53.87 48.57 49.19 49.26 52.63 50.53 49.94 51.72 51.32 51.33 49.55 49.31 48.94 49.75 48.16 48.31 45.86 49.53 49.35 49.63 49.92 50.55 51.59 52.17 52.39 54.21 53.68 53.91 53.95 53.42 52.77 52.70 52.82
52.32 51.69 52.25 52.21 51.87 52.98 55.06 54.12 53.47 56.22 53.49 48.52 49.35 47.73 45.55 51.83 49.49 50.91 50.85 51.02 48.59 49.97 48.98 49.20 49.78 47.51 42.54 49.02 50.45 50.25 51.05 50.30 51.06 52.18 52.05 51.26 51.90 52.35 51.98 51.91 51.96 51.74 52.11 52.33
51.42 51.14 51.00 51.08 55.13 56.96 56.80 55.28 53.06 52.66 51.63 51.95 49.12 51.23 49.07 50.24 49.80 49.19 50.76 50.93 48.16 46.71 48.37 49.82 47.35 46.80 50.20 50.82 51.70 52.08 51.94 52.10 51.76 49.87 49.41 50.59 50.63 50.65 51.25 51.63 52.73 52.81 52.61 52.54
51.03 50.37 52.72 55.54 54.81 54.99 52.74 49.04 47.98 47.79 46.01 48.98 49.61 50.79 49.67 52.94 49.50 49.31 52.04 48.82 48.15 45.39 47.43 47.52 45.57 41.50 48.98 50.07 50.87 52.55 52.33 52.24 52.11 52.48 53.35 53.13 52.99 51.66 51.71 51.98 52.31 52.76 52.69 52.79
50.51 50.82 52.43 54.52 52.82 49.73 47.12 45.67 46.37 45.97 44.32 47.94 48.26 49.24 51.98 52.40 53.62 51.75 50.57 47.67 47.30 42.79 49.33 46.80 39.54 46.88 49.61 49.87 50.26 51.71 52.31 52.20 51.97 52.18 51.78 52.77 52.99 53.24 52.98 52.58 52.85 53.08 53.31 53.39
52.00 52.05 50.26 49.46 48.08 40.77 42.18 39.53 42.63 43.82 47.63 49.58 50.38 49.20 52.47 51.43 52.64 50.04 49.21 44.67 45.32 49.40 45.39 42.88 43.93 49.16 49.39 49.84 50.83 51.96 52.86 53.24 52.43 51.81 52.94 53.26 52.96 53.12 53.01 52.48 52.72 52.84 52.46 52.35
48.90 46.46 39.36 44.29 42.81 44.17 45.64 44.80 46.66 49.80 51.62 51.51 52.51 50.61 51.59 50.99 49.69 49.57 45.33 46.69 47.73 42.35 39.80 41.49 48.37 49.50 50.35 50.83 51.24 51.61 51.22 52.26 52.29 51.93 52.04 51.51 50.44 49.39 49.37 48.90 49.14 48.97 48.44 48.77
47.02 48.16 39.62 43.87 48.06 48.66 49.23 49.55 49.50 51.55 52.91 52.08 50.83 50.42 50.98 48.76 46.20 45.03 45.03 42.68 40.59 42.06 42.70 47.21 49.90 50.42 50.92 50.86 50.71 51.13 51.06 50.79 49.99 49.95 49.35 49.38 49.18 48.49 47.41 47.70 47.79 47.73 47.57 47.74
46.10 46.45 46.14 47.83 46.87 47.37 47.06 48.03 48.85 52.99 52.86 51.40 51.83 48.45 47.18 45.41 46.38 43.97 42.84 41.62 40.20 44.41 47.76 50.49 50.18 50.17 50.87 50.46 50.55 50.64 50.63 49.95 48.84 48.84 48.72 48.40 48.05 47.62 46.74 47.26 47.24 47.24 47.78 47.51
44.29 45.08 48.57 47.81 47.20 47.05 48.53 48.85 49.78 52.93 51.42 49.68 49.29 45.18 43.80 46.21 44.48 42.84 45.57 44.12 47.58 49.34 48.95 50.20 51.42 50.72 50.59 49.96 49.60 49.24 48.54 48.23 48.36 48.21 48.32 47.61 47.45 47.11 46.71 46.15 46.68 47.22 47.58 47.78

GFSNW_sfc_wetblb_096.txt.gz
Wetbulb
57.26 57.04 55.41 54.29 53.29 51.84 52.78 58.41 53.27 60.29 60.38 53.89 54.82 51.54 49.22 46.06 48.66 51.13 50.64 50.66 50.13 49.42 49.49 47.91 48.34 47.74 50.14 51.47 52.93 50.51 53.39 50.70 48.14 48.21 52.47 53.81 52.78 51.15 51.73 47.32 48.95 51.03 50.91 51.90
57.56 57.08 55.02 53.84 52.79 51.98 58.48 57.74 57.51 60.60 58.34 49.87 50.46 51.31 48.58 49.93 48.51 48.45 49.19 49.10 50.96 52.19 49.82 47.42 48.63 49.09 51.61 52.63 51.47 51.22 52.90 49.29 45.88 46.88 50.36 52.48 50.83 52.17 53.26 52.82 52.19 50.57 48.11 51.25
57.60 57.04 55.02 53.83 53.01 52.24 57.08 56.94 51.76 55.21 56.76 55.40 50.40 49.09 48.23 47.46 50.56 49.47 50.51 50.99 51.60 50.75 49.56 51.48 48.38 48.53 50.06 52.26 52.67 52.66 53.35 50.55 49.26 45.48 47.79 51.19 49.78 51.06 52.24 51.94 48.32 49.61 50.96 54.03
57.50 57.22 55.28 54.29 53.33 52.54 56.32 57.25 52.95 53.19 48.86 50.44 51.61 50.86 48.86 46.47 46.22 50.21 50.95 50.70 49.61 49.32 47.94 48.14 47.49 49.71 50.20 51.31 55.00 53.14 52.43 48.39 50.64 50.69 51.22 51.16 51.02 50.92 50.79 50.57 51.43 49.47 51.82 52.79
57.08 57.28 55.71 54.87 53.73 52.07 59.07 56.47 55.03 55.91 53.73 51.70 50.34 47.30 48.90 46.21 46.89 48.34 47.10 48.26 49.27 50.63 49.45 49.78 45.98 48.54 48.99 48.99 51.31 51.76 53.83 47.59 50.63 48.48 50.44 50.79 50.47 52.38 52.05 51.53 51.70 51.96 53.12 53.24
56.82 57.34 56.09 55.10 53.87 52.59 59.25 60.84 60.45 57.26 47.43 50.78 49.65 50.31 48.76 47.07 48.73 49.67 51.63 50.57 50.18 48.82 49.62 51.63 52.37 51.85 51.14 49.99 50.84 51.18 50.29 50.42 47.14 45.09 48.83 49.57 46.70 50.37 51.69 53.11 54.40 54.47 51.18 57.28
56.08 56.78 56.60 55.44 54.53 53.29 58.35 59.26 59.20 56.00 49.36 50.47 50.59 48.93 48.81 47.99 49.26 47.43 48.01 52.35 50.44 51.54 54.26 53.40 52.81 52.62 52.55 52.18 51.08 53.72 50.12 51.69 49.80 45.45 47.59 40.01 49.50 53.66 53.52 53.07 53.96 55.68 56.40 57.43
55.48 56.54 57.15 55.80 55.18 53.90 58.40 60.61 58.86 57.45 51.31 52.42 50.26 49.92 49.13 51.03 51.09 49.02 47.96 51.25 53.68 55.50 52.71 49.86 47.21 47.45 48.40 49.39 50.69 50.48 54.15 51.79 47.46 44.72 44.64 47.41 48.61 50.43 50.96 50.35 51.63 55.60 56.43 57.56
55.47 55.90 57.43 55.83 55.26 53.98 57.70 60.31 61.04 59.14 53.67 50.67 52.41 50.78 51.37 50.81 51.07 49.76 49.46 53.46 56.08 55.04 52.68 49.45 43.88 44.30 45.52 45.02 47.25 52.27 50.77 53.23 48.38 45.93 42.58 40.53 48.76 50.99 53.46 53.66 47.94 55.83 57.71 58.00
55.08 55.62 56.93 55.53 55.32 54.28 56.41 60.55 61.47 59.16 54.93 54.87 54.26 51.30 51.05 53.53 52.27 51.81 51.53 52.08 52.31 54.67 50.25 46.53 46.02 45.58 48.69 43.91 43.66 45.64 47.12 48.05 45.64 45.49 43.49 46.50 51.30 52.39 53.84 45.82 48.25 56.19 58.72 59.05
54.16 55.06 56.48 54.87 54.61 54.68 55.53 60.62 62.62 59.18 56.81 57.41 56.23 54.94 54.20 54.20 53.46 50.71 53.05 51.60 51.87 51.44 48.01 48.73 48.58 47.35 49.80 47.21 48.74 47.10 45.45 44.88 45.22 46.58 43.59 40.89 52.78 52.26 48.71 53.09 55.99 56.41 58.67 59.49
53.61 54.90 56.43 54.33 54.31 54.31 53.85 58.99 61.52 61.50 57.82 57.50 59.21 59.06 58.94 57.98 57.71 56.37 54.36 53.68 51.47 53.24 51.44 51.34 51.83 47.83 49.43 47.24 44.73 50.85 46.18 48.96 49.47 47.07 48.48 53.63 55.29 54.99 56.01 56.39 55.87 56.57 57.74 59.36
53.67 54.63 56.41 53.99 54.09 53.82 53.30 57.90 61.13 59.81 57.05 56.81 56.62 56.16 58.51 59.81 59.05 59.73 53.73 56.42 55.36 54.99 56.89 54.59 52.98 46.45 51.28 44.83 45.46 46.99 50.77 51.69 50.10 48.41 51.69 52.54 54.46 55.51 56.08 56.59 55.71 56.37 58.20 59.61
53.73 54.61 55.81 53.55 53.80 53.10 52.41 56.45 60.17 59.93 57.34 52.82 54.18 60.45 57.99 59.44 59.39 58.98 59.23 58.08 57.67 57.38 56.89 53.31 51.93 49.32 52.30 50.56 49.94 48.44 51.42 51.62 49.95 49.82 52.25 53.68 54.82 55.70 55.69 55.60 55.98 55.80 57.67 58.61
53.88 55.12 53.74 53.13 53.31 52.99 53.94 57.42 59.64 60.77 57.26 52.09 54.44 58.50 58.31 57.86 59.52 57.91 58.00 58.02 56.72 54.72 52.61 51.60 50.55 53.42 51.31 53.03 51.47 48.93 52.57 50.31 48.35 48.11 51.99 52.89 52.06 56.15 57.20 55.68 55.30 56.03 56.10 56.68
54.06 54.71 52.59 52.87 52.64 52.33 57.18 53.82 58.52 61.17 61.35 55.48 49.87 58.06 56.03 57.00 58.70 57.89 57.58 57.73 57.91 56.93 54.13 54.24 54.49 53.72 52.21 49.19 48.57 53.11 54.40 54.96 55.65 52.80 55.99 55.23 56.39 56.47 57.34 56.15 56.28 56.58 56.52 57.52
54.68 52.68 52.62 52.35 51.83 54.57 54.55 53.97 56.88 54.58 61.66 56.04 51.60 52.38 55.76 57.35 57.58 57.23 57.00 58.10 58.08 56.70 55.93 53.04 54.52 53.38 51.84 51.20 48.21 51.39 53.83 55.00 55.50 55.82 55.73 54.05 55.37 54.77 56.80 56.89 56.82 54.59 57.03 57.53
53.06 52.33 52.08 51.99 52.06 52.16 53.24 58.17 53.06 56.23 57.93 57.23 52.53 52.52 52.40 56.87 53.98 53.17 58.57 54.96 55.91 55.48 55.87 54.94 52.91 53.51 53.16 49.27 53.61 54.55 54.54 54.54 54.76 55.42 56.48 55.76 57.36 57.49 56.93 56.97 55.76 54.69 54.80 55.79
52.83 52.31 52.01 54.36 54.24 54.13 56.48 53.86 54.26 59.59 57.38 52.24 52.84 50.80 48.77 55.67 55.11 56.32 54.97 56.35 51.71 56.42 52.41 53.77 53.36 52.22 48.57 52.24 54.12 54.43 55.07 54.20 54.56 55.92 55.62 55.53 55.61 55.67 55.61 54.86 54.12 53.14 54.23 54.91
51.65 52.10 51.82 50.78 56.71 56.14 56.59 57.86 55.69 55.87 55.99 55.39 51.71 56.75 50.90 53.98 53.36 52.41 52.90 54.84 52.94 49.67 52.58 54.14 50.87 50.87 55.39 56.43 56.02 57.69 56.34 56.12 55.89 53.80 53.07 53.78 53.68 53.95 53.76 53.44 54.89 54.97 55.17 55.20
51.71 50.63 54.44 58.74 54.82 57.72 56.29 51.73 50.14 51.00 48.45 51.46 51.55 54.09 52.56 56.39 51.35 51.12 55.56 52.07 52.57 47.03 51.15 50.49 49.62 46.66 53.71 54.49 55.09 57.46 57.62 56.79 56.19 56.18 56.11 56.65 56.30 54.62 53.76 53.62 54.20 54.79 55.11 55.49
51.69 53.85 56.44 58.95 56.02 53.21 49.19 47.84 50.01 48.07 46.21 50.73 50.35 52.28 56.75 55.17 59.16 54.35 53.76 50.06 51.29 45.31 53.15 50.04 45.74 50.85 54.60 54.26 54.70 55.68 56.57 56.65 56.12 56.31 56.09 56.00 55.40 55.17 54.72 54.41 54.82 55.78 55.85 56.35
54.33 54.83 52.15 51.27 51.37 41.77 42.85 41.84 43.78 45.54 50.01 51.57 52.06 51.15 55.45 55.48 56.60 53.88 52.28 47.73 47.88 53.84 48.34 46.46 48.06 55.05 54.69 55.25 55.59 55.30 56.79 56.60 55.99 55.50 56.19 56.25 55.90 56.32 55.60 55.43 55.88 55.99 55.87 55.79
50.71 47.10 38.74 44.76 43.96 46.79 47.85 47.44 48.96 52.52 53.86 53.86 53.12 52.73 52.86 55.39 52.83 52.77 46.83 50.88 51.80 45.35 43.77 44.73 52.94 54.98 54.94 55.51 56.08 55.70 55.38 56.14 55.74 55.80 56.02 55.77 55.31 54.43 54.25 53.59 53.18 53.19 52.66 52.15
46.98 47.91 40.50 45.11 50.21 52.89 54.00 53.84 53.49 55.61 57.02 55.76 53.36 53.24 53.61 51.76 50.17 52.11 49.80 46.60 43.41 45.65 46.34 52.04 54.42 55.69 55.54 55.03 55.52 55.65 55.65 55.74 55.36 55.20 53.60 52.83 52.79 52.73 51.83 51.69 51.81 51.38 51.38 50.84
47.62 48.97 47.97 51.32 49.70 50.10 52.00 52.50 52.93 56.15 54.26 56.98 54.96 51.35 48.87 48.30 50.38 47.60 46.07 44.87 43.79 48.92 52.26 55.60 55.59 55.70 55.53 55.56 55.72 55.79 55.59 55.05 54.22 53.65 53.00 52.34 51.34 50.93 50.95 51.03 51.15 50.75 50.56 50.51
46.21 46.91 50.59 51.12 51.81 52.20 49.65 51.69 52.14 56.83 54.75 51.67 52.42 47.54 46.75 51.79 48.19 46.52 50.69 48.06 52.44 54.94 54.66 55.85 56.57 56.19 55.89 55.92 55.45 54.83 54.12 53.48 53.00 52.07 51.70 51.66 51.94 51.43 50.27 49.06 50.05 50.47 50.90 51.21

GFSNW_sfc_wetblb_099.txt.gz
Wetbulb
57.42 57.68 56.63 54.39 53.54 52.13 51.53 60.16 53.57 62.47 63.36 54.93 55.14 53.10 50.40 47.43 49.61 51.47 50.67 51.46 51.18 50.26 49.17 49.32 49.01 49.04 50.60 54.35 54.55 51.50 54.25 51.88 48.35 49.71 53.52 54.23 53.54 51.84 52.73 49.11 50.08 51.98 50.51 50.44
57.46 57.58 56.45 54.04 53.02 52.39 59.63 58.13 58.29 62.12 60.75 51.37 51.29 52.91 49.71 50.28 50.10 49.83 49.02 50.32 51.34 52.85 50.64 48.45 50.45 49.40 53.48 53.85 53.08 52.60 54.14 50.37 47.00 47.96 51.14 52.93 51.00 52.59 52.68 52.67 52.42 50.59 48.16 52.33
57.46 57.28 56.29 54.08 53.32 53.11 56.72 58.82 52.73 56.25 57.17 57.23 52.50 50.55 49.62 48.94 51.90 49.85 50.01 51.40 52.43 51.53 50.25 52.39 49.63 50.23 52.38 53.73 53.72 56.69 56.16 51.61 49.41 46.30 48.87 51.85 49.35 51.15 52.43 51.71 48.71 49.33 51.08 55.72
57.30 57.16 56.71 54.67 53.70 53.22 56.82 58.71 55.05 55.67 51.08 51.94 52.47 52.00 50.39 47.46 47.63 50.93 51.15 50.98 50.96 50.53 48.62 50.13 49.66 51.14 51.78 52.88 55.02 55.62 53.90 49.77 51.63 51.66 53.09 52.87 50.97 50.13 51.13 50.92 52.61 50.40 51.53 53.69
57.10 56.98 57.02 55.40 53.98 53.07 58.88 57.94 55.83 55.73 56.39 52.82 51.56 48.57 50.45 47.86 47.83 48.94 48.74 48.85 50.17 51.21 50.06 51.32 46.69 50.69 50.77 50.52 52.88 53.55 55.49 50.00 52.11 50.32 51.99 51.87 50.36 51.96 52.23 51.82 51.88 52.38 52.37 55.69
56.76 56.68 56.82 55.85 54.23 53.22 60.81 62.64 61.62 58.75 50.76 52.33 51.14 51.97 49.84 48.68 49.13 50.40 51.99 51.41 51.30 50.08 51.94 53.69 54.96 54.42 53.53 54.38 51.00 51.49 52.43 50.86 51.07 46.07 51.35 51.06 47.87 51.88 52.19 52.60 53.79 53.12 52.08 56.88
56.52 56.48 56.74 56.80 54.98 53.86 59.16 61.71 61.08 56.78 52.03 51.63 51.85 50.03 49.90 48.71 50.22 49.08 49.29 52.58 51.54 54.11 55.97 55.63 55.29 53.76 52.17 52.66 52.11 53.77 51.55 48.66 48.31 48.90 49.08 42.81 50.53 55.21 55.75 54.09 55.66 56.54 57.79 59.61
55.82 56.09 56.61 57.41 55.49 54.71 56.82 62.02 60.71 58.65 53.19 52.70 51.77 50.59 49.89 51.24 52.63 50.92 48.79 51.36 55.81 56.12 53.82 50.93 48.61 49.12 50.41 50.75 51.78 52.58 53.33 50.56 47.83 43.57 42.00 47.73 51.13 52.98 53.06 52.58 53.24 57.03 57.97 59.21
55.14 55.72 56.18 57.53 55.33 54.81 55.82 61.52 62.76 60.28 55.81 52.53 52.87 51.41 51.79 51.59 52.19 51.16 50.63 54.26 56.59 55.07 52.60 49.44 45.65 40.69 45.96 45.88 48.82 53.34 51.79 53.47 49.52 48.91 42.22 42.10 46.49 53.51 55.60 54.84 50.03 57.54 58.42 59.32
55.01 55.14 55.88 56.92 55.50 54.96 55.23 60.54 64.61 60.65 56.19 56.43 55.36 52.35 52.37 54.73 54.44 53.45 52.55 52.52 52.49 54.77 50.90 48.53 46.55 45.92 50.54 47.11 45.30 46.81 48.69 49.45 46.85 47.42 45.42 45.15 53.39 54.10 55.34 46.52 48.49 58.15 59.17 60.01
55.04 54.34 55.38 56.59 54.94 54.93 55.41 60.77 65.29 61.51 57.56 58.42 56.97 56.63 55.21 54.69 54.60 52.31 54.61 52.84 52.87 51.92 49.82 50.16 49.69 47.98 51.97 48.42 50.34 49.06 47.91 46.36 46.40 47.89 43.06 43.09 54.59 53.32 49.88 56.05 57.65 58.67 60.06 60.70
54.84 54.11 55.27 56.68 54.22 54.43 53.94 57.69 64.05 63.54 59.52 59.30 60.88 59.79 60.07 58.90 58.81 56.17 55.86 54.84 53.46 54.86 52.02 52.83 53.80 49.43 51.41 48.61 44.95 52.66 46.92 50.53 49.05 49.71 50.27 56.08 56.94 57.29 58.40 58.70 57.88 58.02 59.27 60.70
54.57 54.19 55.21 56.67 53.81 54.18 52.94 58.18 62.20 60.53 58.47 57.70 57.91 56.43 60.23 61.00 59.81 59.05 54.62 55.73 57.31 55.62 58.25 55.25 53.98 48.49 52.08 48.04 48.44 50.29 52.19 54.75 50.88 50.89 53.44 53.37 55.07 56.64 57.23 57.89 57.42 57.85 59.40 60.51
54.45 54.23 55.10 55.44 53.70 53.85 52.74 57.63 61.39 60.60 59.43 53.60 55.03 61.41 59.38 60.78 59.79 58.66 59.22 59.82 59.88 59.77 56.26 53.56 52.63 50.67 54.67 51.03 52.27 49.94 52.49 54.28 51.50 51.80 54.10 54.91 55.43 56.45 57.03 56.83 56.91 56.44 58.05 59.48
54.24 54.49 55.56 53.54 53.58 53.64 54.04 57.55 60.38 62.27 58.68 54.00 54.94 59.42 60.02 60.09 59.89 58.50 58.54 58.18 56.93 55.23 53.48 52.18 51.23 55.63 54.25 52.58 52.68 50.69 53.81 51.98 49.53 50.69 54.45 55.05 54.86 57.70 57.44 56.38 56.10 56.81 56.62 57.58
53.96 54.85 54.21 52.74 52.97 53.21 56.41 54.43 59.36 62.14 61.61 57.06 52.74 59.60 58.38 58.28 59.31 58.22 57.44 58.19 57.73 56.95 55.24 54.67 56.83 56.66 52.59 50.67 50.06 54.12 56.29 56.24 56.60 54.06 56.73 57.03 57.18 57.78 58.55 56.99 57.09 57.69 57.37 58.13
54.28 54.63 52.42 52.38 52.49 53.86 54.72 54.63 57.75 55.53 62.95 55.49 51.89 54.18 58.36 59.34 58.84 57.97 57.61 57.87 58.37 56.87 56.99 55.36 55.51 55.19 52.73 51.33 49.74 54.54 54.89 56.25 56.58 57.77 57.81 55.28 56.74 55.99 57.78 57.61 58.08 57.11 57.99 58.55
54.59 52.42 52.04 52.23 52.22 52.16 52.66 58.57 52.66 56.70 58.65 56.74 51.24 52.92 54.64 58.89 54.89 53.99 58.42 55.88 57.16 56.76 56.14 57.28 54.04 55.91 54.69 50.43 54.74 56.67 57.08 56.67 56.73 57.43 57.95 57.45 58.90 58.21 58.08 58.44 57.99 56.57 56.20 57.16
53.41 52.80 52.35 54.08 53.46 53.67 56.60 55.83 54.90 60.68 58.66 52.78 52.32 51.21 49.60 57.74 55.25 56.16 56.59 57.59 52.56 57.93 54.11 54.22 56.95 53.01 51.41 53.97 55.92 56.74 57.23 56.11 56.75 57.58 57.55 57.28 57.34 57.45 57.46 57.00 56.17 55.26 55.90 56.40
51.96 51.95 51.80 50.17 55.45 56.37 57.77 58.07 56.81 55.50 54.86 56.60 53.33 55.29 51.90 55.00 54.55 53.97 54.44 55.04 51.89 50.01 54.29 57.32 53.23 51.85 57.06 58.42 59.02 59.36 58.51 58.26 58.26 56.11 55.11 55.72 56.30 55.94 56.60 55.64 56.49 55.93 55.83 55.96
51.63 50.84 53.48 59.69 56.08 57.45 55.59 50.92 50.71 52.55 50.08 52.83 52.43 54.73 53.78 57.41 52.31 51.86 54.93 52.84 52.75 47.64 51.77 51.69 51.12 51.51 55.67 58.18 58.21 60.21 59.61 59.26 58.34 58.15 57.50 57.64 57.31 55.97 55.24 55.39 55.53 55.79 56.10 56.58
52.27 54.81 58.13 59.13 55.92 53.14 49.15 47.87 50.56 49.81 47.35 52.49 50.84 51.78 56.22 56.13 58.95 53.72 55.12 51.35 52.60 46.82 55.41 50.84 47.78 54.04 57.84 57.47 57.07 58.27 59.51 59.32 58.36 58.24 57.73 57.28 57.42 56.78 56.50 56.16 56.05 56.30 56.76 56.65
56.82 54.66 53.08 53.36 50.94 42.63 44.35 43.20 46.73 47.65 51.44 52.54 52.42 49.69 55.37 56.82 56.85 55.45 53.14 48.70 48.37 55.15 50.64 49.24 50.93 57.14 57.90 58.02 57.67 57.38 58.49 58.30 58.14 57.81 58.19 57.00 56.64 57.17 56.60 56.18 57.27 56.63 56.36 56.36
51.47 48.01 38.84 44.77 44.21 47.76 48.86 48.65 50.09 53.49 53.11 53.31 53.39 52.98 53.05 54.63 52.96 53.00 47.97 51.89 52.58 46.46 45.02 47.06 53.65 57.75 57.78 58.19 58.09 57.61 56.96 57.55 57.08 57.14 56.85 56.67 57.67 57.17 57.36 56.60 56.96 56.20 55.30 54.47
47.80 47.82 40.89 45.78 51.30 51.67 53.11 53.87 53.93 55.10 56.36 54.54 52.52 52.83 53.57 52.08 50.27 51.29 50.41 47.35 44.77 47.09 47.63 51.63 57.34 59.01 58.50 57.80 57.66 57.41 57.23 57.07 56.68 56.72 56.86 57.13 56.85 55.89 55.06 54.77 54.82 53.61 53.82 53.22
46.12 48.56 47.69 51.04 50.28 50.60 51.83 53.17 52.98 57.92 58.51 58.97 56.45 52.46 49.93 48.55 49.95 47.25 46.27 45.33 45.26 49.67 53.42 56.90 59.09 58.79 58.28 58.29 58.15 57.93 57.32 56.66 56.20 56.69 56.83 56.15 55.52 54.15 53.63 53.07 53.79 52.64 52.97 52.83
47.77 48.04 51.69 51.02 51.38 51.07 52.07 53.72 54.99 59.55 57.38 52.63 52.70 47.59 46.65 51.85 47.80 47.27 50.66 48.53 51.81 55.32 55.76 57.68 60.01 59.32 58.69 58.74 58.30 57.84 56.99 56.55 56.25 56.32 55.90 54.89 54.30 53.59 52.42 50.95 52.25 52.47 52.92 53.70

GFSNW_sfc_wetblb_102.txt.gz
Wetbulb
57.64 57.53 57.14 55.83 53.13 52.17 53.16 59.53 52.86 62.64 61.75 53.52 54.79 51.83 52.68 48.05 49.91 51.79 50.27 50.90 49.79 49.55 51.37 48.98 48.70 50.23 51.92 54.64 55.09 52.16 54.44 51.81 48.24 50.10 53.86 54.60 52.92 51.36 51.85 48.60 48.88 51.47 50.40 51.34
57.74 57.39 56.76 55.43 53.10 52.89 56.44 57.13 57.43 62.94 60.14 50.08 52.36 53.85 51.09 49.89 49.81 49.34 49.12 48.71 51.87 51.70 50.54 47.06 49.20 51.70 54.30 54.87 53.40 52.32 53.82 50.45 46.08 48.12 51.55 53.16 50.74 51.70 52.17 51.52 52.13 50.54 47.80 49.99
57.68 57.11 56.50 55.23 53.73 53.41 55.55 57.44 54.38 56.96 57.10 56.42 54.11 52.28 50.37 48.95 52.61 50.46 50.31 49.77 52.09 50.73 50.04 51.98 46.15 48.11 52.77 54.24 53.54 59.15 56.81 50.79 48.66 45.04 48.45 52.03 49.25 50.09 51.50 50.62 47.54 48.55 49.37 54.94
57.60 57.13 56.36 55.75 54.42 53.44 55.68 57.52 55.66 56.84 50.78 52.09 52.89 52.06 51.55 48.26 47.70 51.29 51.25 50.04 50.48 50.19 47.51 46.91 49.90 50.00 52.23 53.21 54.01 54.56 53.20 48.67 51.09 50.83 51.59 52.58 51.91 50.16 50.22 50.26 50.37 49.18 51.84 55.63
57.39 57.16 56.69 56.03 54.72 53.03 56.97 56.26 56.89 58.68 54.54 53.73 51.82 48.75 49.57 48.67 48.82 49.00 49.24 48.58 50.37 50.86 49.12 47.86 46.08 50.51 47.45 51.43 54.19 53.03 54.13 49.54 51.60 50.07 52.24 52.40 50.56 52.37 50.84 50.99 51.43 51.76 53.47 57.17
56.61 57.11 56.64 56.36 54.60 53.00 60.24 61.59 62.14 58.74 52.57 52.85 50.64 50.79 51.16 49.71 50.27 50.53 50.63 51.44 50.85 50.62 52.60 53.92 54.47 53.58 54.49 54.86 52.85 52.19 52.10 51.54 49.70 47.52 51.01 51.41 48.00 51.72 52.06 51.61 52.86 52.87 53.31 57.68
56.31 56.73 56.95 56.84 55.75 53.74 56.92 60.42 60.05 57.16 52.29 52.51 51.39 51.40 50.95 49.27 50.66 50.01 49.98 51.50 51.38 54.46 56.84 55.24 54.33 53.09 53.19 53.06 53.09 54.04 51.60 51.19 48.64 46.14 48.14 42.08 50.56 56.05 55.01 54.98 54.21 58.70 58.78 58.49
56.77 55.93 56.42 56.83 56.88 55.00 55.15 58.03 59.08 57.54 54.32 54.85 52.45 51.50 50.32 51.45 52.47 50.06 49.63 50.81 54.89 56.96 53.13 49.77 49.16 48.66 49.88 50.65 51.59 52.59 54.21 51.67 46.77 42.39 41.67 45.76 50.62 52.72 52.87 52.93 52.89 57.39 58.50 60.13
56.63 56.09 55.80 56.56 57.11 54.96 54.90 58.43 62.15 58.71 55.40 54.19 54.05 51.61 51.76 50.40 52.00 52.05 50.85 53.82 55.89 54.65 51.19 49.27 45.08 41.71 44.43 46.43 48.64 52.39 53.64 53.99 49.74 46.93 42.17 39.84 48.51 53.12 56.76 56.07 46.35 55.76 58.52 60.02
56.12 56.50 55.63 56.06 56.94 55.36 54.22 57.48 61.18 58.95 55.98 58.34 55.78 52.02 52.29 53.67 53.99 52.44 53.26 52.30 52.13 54.39 50.68 47.14 46.39 42.61 46.02 39.94 43.37 46.84 47.36 48.09 43.53 41.85 42.19 45.79 51.57 53.94 56.13 45.93 49.46 57.88 59.18 60.49
55.87 56.28 55.19 55.59 56.86 55.64 54.25 57.02 63.29 59.13 57.92 58.75 58.36 56.26 55.00 54.84 54.36 52.05 54.76 52.51 53.45 51.52 49.23 48.88 49.16 47.76 46.42 45.83 50.37 49.28 47.69 47.38 46.92 48.49 44.18 41.60 54.99 53.75 48.83 55.42 58.30 59.58 60.39 61.39
55.59 56.12 54.86 55.44 56.71 55.02 54.24 54.51 63.22 63.76 57.83 59.46 62.43 59.95 59.17 58.16 58.66 56.32 56.96 55.08 56.03 54.47 51.64 52.34 52.20 48.74 49.76 49.50 44.88 52.90 47.09 51.56 49.58 50.28 49.74 56.31 57.57 58.42 60.06 59.74 58.48 58.74 59.79 60.89
55.91 55.57 54.72 55.40 56.67 54.62 53.35 54.40 58.73 60.80 55.39 55.79 56.81 57.13 59.81 60.90 59.01 59.45 53.17 56.11 56.52 56.83 57.23 54.96 52.89 49.89 51.52 47.43 48.33 50.47 52.42 55.26 51.74 51.86 54.51 55.08 55.85 57.09 57.78 58.77 57.99 58.34 59.65 60.43
55.63 55.17 54.55 55.23 56.37 54.60 53.74 54.55 59.05 59.28 57.88 52.87 53.91 58.41 58.32 60.37 59.73 58.68 58.21 58.63 60.09 58.51 57.38 52.47 52.18 50.31 54.31 49.66 52.34 50.63 53.10 54.50 50.88 51.38 54.81 55.29 55.56 56.27 57.43 57.19 56.96 56.59 58.38 59.92
55.24 54.66 54.58 55.82 55.19 54.60 53.76 55.23 57.77 60.39 57.28 53.94 55.33 58.10 59.78 59.76 59.25 58.03 58.08 57.68 57.48 55.23 53.29 52.06 51.32 54.55 54.21 53.73 52.32 50.54 53.40 51.80 49.88 49.15 56.41 57.57 55.27 57.77 57.77 56.94 55.83 56.57 56.77 57.61
54.13 54.12 54.72 55.52 53.73 53.86 53.97 53.00 58.13 59.79 60.56 55.68 52.63 58.79 58.44 58.66 58.49 58.20 57.19 57.62 57.36 56.02 54.12 53.62 55.98 57.64 54.43 49.11 49.51 55.19 55.34 56.38 56.36 54.29 57.09 57.20 57.13 58.52 58.74 57.17 57.18 58.01 57.60 58.84
53.88 54.41 54.98 53.91 53.42 52.62 53.27 52.65 56.04 52.66 61.90 55.43 52.91 53.49 58.22 58.76 57.78 57.52 56.98 57.99 56.78 56.10 54.93 53.72 54.55 55.16 53.40 49.90 48.98 55.40 56.46 56.94 57.48 57.46 57.97 56.06 57.22 56.45 57.90 57.55 58.34 58.33 58.07 59.03
54.45 54.59 53.56 53.10 52.62 51.78 51.95 56.84 53.80 54.38 57.83 55.40 48.84 51.54 54.79 58.94 54.20 53.60 57.71 55.26 56.35 56.37 55.05 56.12 54.63 56.25 55.24 50.08 54.76 56.57 57.24 57.24 56.72 57.51 58.16 58.00 58.65 58.65 58.64 58.61 58.67 57.03 56.63 57.49
54.68 53.69 53.25 53.61 52.00 52.61 54.98 57.75 56.20 60.19 57.32 51.49 50.11 48.44 48.94 57.80 55.31 55.55 55.72 56.59 52.18 56.96 53.55 53.45 54.63 52.71 52.69 54.31 56.14 57.24 58.11 56.90 57.23 58.03 58.16 57.50 57.48 57.75 58.13 57.61 57.04 55.83 56.00 56.60
53.17 52.94 51.67 50.80 54.29 56.67 57.45 57.66 55.79 54.12 54.01 55.94 52.31 54.24 51.07 55.78 53.72 52.95 54.19 54.82 51.96 50.20 53.89 56.49 53.30 52.38 59.14 58.90 59.37 60.07 59.30 59.04 58.68 56.36 55.49 56.24 56.16 56.47 57.27 57.22 57.39 56.49 55.93 56.56
51.31 51.17 52.69 60.24 56.50 56.81 53.99 49.71 50.07 50.76 47.13 50.11 52.57 54.39 52.82 56.70 51.33 51.99 55.47 51.90 52.49 47.72 51.67 51.15 50.82 50.62 56.42 59.20 59.40 61.73 60.50 60.14 59.09 59.12 58.21 58.33 59.19 55.86 56.00 56.16 56.37 56.15 55.98 56.04
50.99 51.73 57.98 58.24 53.71 52.38 48.79 47.88 49.02 49.14 46.84 51.79 49.80 51.13 55.00 53.21 59.56 53.68 54.12 50.75 52.23 46.25 54.74 50.20 49.31 53.37 59.24 59.47 58.50 59.30 60.66 59.42 58.84 59.09 58.61 58.26 58.46 57.31 56.93 55.74 56.28 56.42 57.04 57.02
55.40 53.59 52.62 51.54 50.88 42.53 44.23 42.56 45.49 46.87 50.97 52.47 52.35 50.51 56.13 56.94 57.07 54.22 53.09 48.94 47.36 53.83 50.04 48.19 51.13 59.16 59.19 58.96 58.64 58.60 59.87 59.72 59.20 58.57 58.57 58.59 57.77 57.01 55.91 56.59 57.84 57.25 56.72 57.00
50.81 47.78 39.17 46.20 44.76 47.18 48.30 48.47 49.61 52.83 53.33 53.60 53.01 51.62 53.77 54.91 52.61 52.57 47.69 50.34 51.37 46.37 44.85 46.51 52.91 59.71 59.39 59.39 59.00 58.60 57.85 58.23 58.17 58.06 57.07 57.35 57.49 57.53 58.20 57.83 57.53 56.24 55.26 55.39
48.01 47.92 40.95 45.48 50.26 52.29 53.32 54.47 53.79 54.49 55.41 54.72 52.34 51.59 52.68 52.53 50.64 51.13 49.59 46.83 44.79 46.87 46.77 51.85 58.33 61.14 60.70 58.69 58.38 58.10 57.62 57.53 57.34 57.53 57.15 57.36 57.03 56.55 56.35 56.55 55.94 54.75 53.77 52.80
46.65 47.33 46.26 50.27 49.95 49.91 51.93 52.80 52.48 55.65 55.85 55.73 54.50 51.63 49.00 46.44 47.89 46.93 45.70 45.08 44.11 48.52 54.14 58.09 60.36 61.18 60.28 60.63 58.98 58.55 58.61 57.78 57.32 57.14 56.94 56.14 56.46 55.37 55.30 54.88 53.87 53.12 52.54 52.58
45.44 47.02 49.89 48.98 50.11 50.14 51.32 54.14 54.31 56.80 55.60 51.53 51.85 45.23 45.25 49.98 46.32 46.58 49.39 47.23 50.59 54.72 56.02 57.67 61.52 61.59 61.25 60.45 59.37 58.68 57.89 57.63 57.45 56.92 56.65 56.70 56.56 56.18 54.49 52.25 52.69 53.09 53.13 53.05

GFSNW_sfc_wetblb_105.txt.gz
Wetbulb
57.62 57.76 56.74 55.67 53.89 52.19 53.04 56.98 50.23 59.87 59.53 50.18 50.70 48.02 51.66 51.99 49.50 50.48 48.36 47.61 46.60 46.08 49.12 46.12 47.51 47.35 50.44 54.31 52.33 48.56 48.76 43.87 40.82 45.66 51.42 52.07 48.14 45.59 44.82 40.72 41.25 45.56 45.05 49.05
57.59 57.67 56.72 55.19 53.83 52.80 51.69 53.22 54.96 61.58 59.03 46.32 47.23 53.09 52.32 50.63 47.54 48.25 47.08 46.11 47.43 49.73 48.11 44.69 49.07 49.96 53.96 54.30 52.12 47.43 48.41 43.30 38.78 42.20 46.85 49.64 45.54 46.79 44.27 44.03 43.18 41.38 42.74 47.64
57.13 57.43 56.70 54.99 54.35 53.69 52.21 53.84 50.95 56.48 56.66 54.89 49.53 50.18 50.82 49.77 51.56 50.14 49.90 49.13 48.37 47.23 47.29 48.53 46.94 47.73 51.88 53.77 52.81 59.77 53.26 42.91 41.17 38.14 43.12 48.25 47.28 47.67 47.24 43.87 39.40 40.79 42.08 50.88
57.05 56.85 56.84 55.31 54.62 54.14 52.22 54.65 52.71 55.75 50.00 49.49 50.09 51.26 50.23 48.95 47.40 50.47 49.39 49.57 48.80 47.53 43.96 45.32 45.06 47.30 48.86 52.55 55.64 51.55 47.13 41.18 43.95 47.59 50.09 49.69 49.33 49.32 48.21 44.01 44.49 40.78 50.28 52.31
56.99 56.75 56.76 56.16 54.93 53.30 51.96 51.56 52.93 56.34 54.44 54.57 50.60 47.90 48.16 48.17 48.87 48.92 46.87 47.23 49.19 49.74 46.24 47.28 44.39 47.95 47.68 47.11 50.28 49.58 48.37 42.92 46.79 45.70 50.30 50.87 48.88 50.57 51.73 49.89 47.70 53.48 55.06 52.44
56.72 56.99 56.47 56.46 55.09 52.57 55.23 59.11 59.58 56.48 52.71 53.13 48.82 47.86 51.34 50.17 50.20 49.89 51.45 50.07 48.93 49.16 51.10 52.24 51.91 51.78 51.31 50.65 48.30 47.43 46.96 45.61 43.81 39.89 47.12 47.91 45.80 48.15 50.23 51.02 52.20 52.94 50.73 53.46
56.80 56.93 56.63 56.41 56.24 54.32 52.21 54.95 55.42 54.23 51.23 53.34 53.25 52.40 51.43 49.93 49.55 50.11 49.99 50.13 48.69 52.52 54.01 51.71 50.06 49.18 49.54 50.67 47.62 48.07 45.98 46.01 43.80 40.32 43.84 36.73 47.19 52.21 52.43 51.70 52.41 52.51 55.01 55.39
56.41 56.62 57.05 56.39 56.40 56.06 52.46 53.37 53.56 54.34 50.73 54.86 55.16 53.65 50.60 51.00 50.02 50.05 49.06 51.75 52.10 52.09 49.18 44.82 44.74 46.01 46.50 48.26 51.24 47.36 48.86 46.50 42.21 39.25 37.87 44.68 48.73 50.98 49.66 47.55 48.14 54.09 53.63 58.18
56.07 56.36 56.74 56.68 56.15 56.10 52.86 53.40 55.80 55.43 52.20 52.71 56.71 53.84 51.77 47.82 48.42 49.80 50.60 52.93 52.29 51.28 46.88 45.08 41.16 37.95 41.22 42.21 46.43 51.41 52.58 51.64 44.62 40.50 37.59 36.92 46.68 52.70 54.75 52.94 45.22 53.94 56.53 57.23
55.74 56.18 56.48 56.67 55.99 56.26 53.12 52.78 56.16 56.55 52.50 55.59 56.59 53.18 50.72 52.38 52.27 50.37 50.70 50.50 49.54 50.11 45.76 43.20 42.73 41.86 45.75 39.58 41.43 44.23 44.77 43.83 41.32 41.56 41.61 44.51 51.78 53.93 54.68 43.92 47.10 54.91 56.76 54.47
55.54 56.06 56.21 56.36 55.52 56.80 53.19 52.52 55.77 57.20 54.78 55.80 58.87 57.69 54.39 53.39 51.88 49.54 51.68 50.39 50.04 47.94 44.64 44.10 45.48 41.97 43.34 42.12 46.25 47.90 44.25 41.83 41.86 40.27 37.19 38.26 54.38 53.09 46.86 51.80 54.87 55.80 59.15 58.93
55.65 56.00 56.31 55.69 55.45 56.54 54.75 51.29 59.02 60.65 57.43 55.38 57.25 57.46 58.22 58.39 56.96 53.61 54.31 53.23 53.09 52.32 48.41 49.00 48.67 45.11 43.78 42.98 40.55 48.37 42.38 47.75 45.75 45.29 43.71 48.82 53.82 53.89 56.01 56.21 54.07 54.59 55.31 60.09
55.75 56.18 56.13 55.19 55.61 56.76 53.48 51.65 53.96 57.21 56.19 52.96 52.74 52.77 59.25 58.50 57.73 56.05 50.67 53.35 56.01 54.51 54.34 51.78 50.17 45.62 48.00 43.51 44.07 46.74 49.55 51.19 47.44 48.49 50.05 52.93 54.72 54.76 55.93 55.97 54.10 55.08 55.70 56.84
55.55 56.00 55.52 54.92 55.42 56.51 53.85 51.97 55.36 54.44 55.31 51.19 51.28 56.73 55.71 59.95 57.93 57.04 56.17 54.83 57.88 56.07 54.70 50.18 47.44 47.46 50.39 46.12 48.46 46.27 49.84 49.11 46.54 49.34 52.25 52.57 53.77 54.70 54.53 54.60 55.26 54.88 55.93 57.54
55.67 55.49 54.93 54.91 55.82 55.26 53.51 53.02 54.00 55.85 53.75 50.62 52.09 57.48 60.07 57.52 56.70 56.52 56.59 54.60 54.88 53.84 49.97 48.63 47.32 52.22 50.62 49.74 47.73 45.80 49.43 48.39 44.55 45.24 52.39 51.08 51.72 54.60 56.46 54.23 54.06 54.58 54.93 55.84
55.19 54.54 54.46 55.17 55.32 53.94 51.65 51.70 56.23 56.16 57.42 54.22 50.36 57.66 57.11 56.93 57.18 56.03 56.22 54.99 54.87 53.91 50.97 50.12 53.03 54.32 50.71 44.61 44.97 50.60 52.09 53.43 52.55 51.97 54.36 54.10 55.60 56.82 56.56 54.79 55.43 55.87 55.90 55.61
54.25 54.21 54.78 54.97 53.60 51.22 49.95 50.79 54.34 52.36 52.84 54.71 50.93 51.70 56.55 57.50 56.36 55.20 54.54 55.31 55.22 54.14 52.30 51.19 51.71 51.17 50.71 45.82 43.32 52.15 53.88 54.95 54.70 56.18 55.50 52.73 55.10 53.59 56.40 56.80 56.87 57.08 57.00 55.86
54.52 54.78 54.66 53.48 52.52 51.16 49.24 53.26 52.80 52.88 56.85 55.62 48.29 49.35 51.84 56.47 52.45 50.75 55.32 52.43 53.27 54.33 52.40 53.49 51.53 52.31 51.98 45.80 50.89 53.51 55.80 55.30 54.95 54.90 55.20 54.75 55.10 55.95 55.52 56.33 56.30 54.59 53.73 54.99
54.68 54.70 53.74 52.69 50.29 50.45 54.06 58.53 55.10 59.32 57.02 50.41 49.35 46.61 47.77 56.53 53.14 53.19 53.39 54.43 49.66 54.24 49.93 50.51 52.75 49.25 47.48 51.78 52.62 54.54 55.59 54.37 54.40 56.00 55.84 55.50 54.92 55.93 55.50 55.67 55.19 53.37 54.05 54.98
53.36 52.67 49.52 48.34 53.11 57.40 58.35 57.55 55.34 54.33 53.76 54.86 50.63 52.82 50.67 54.36 52.80 50.93 51.69 52.27 49.99 47.22 50.68 54.59 49.68 49.94 55.09 55.73 56.03 56.82 57.82 56.82 56.31 53.55 52.10 52.84 53.71 54.98 55.16 54.73 54.60 53.84 53.79 54.13
50.94 49.17 52.62 58.82 56.89 56.75 54.23 49.65 49.66 50.00 46.78 49.13 50.52 52.05 50.66 55.36 50.13 49.71 52.20 50.62 50.87 46.06 49.79 49.63 48.24 47.47 52.31 56.81 58.01 58.27 58.46 58.03 56.75 57.80 56.05 56.77 55.26 53.97 53.82 53.73 54.20 54.72 55.36 54.52
50.86 50.60 54.32 57.79 54.34 51.31 47.49 47.01 48.55 48.47 44.71 49.41 46.51 49.32 53.66 53.99 55.34 52.38 52.09 49.63 50.95 45.44 52.86 49.20 45.06 51.34 56.95 57.19 57.87 58.90 59.40 58.79 58.28 58.00 57.08 56.66 56.36 55.12 53.93 53.12 54.04 54.49 54.45 53.99
53.94 52.10 50.73 50.75 50.12 40.60 42.66 41.58 44.82 45.44 50.80 51.14 48.92 47.41 51.65 54.02 54.51 51.56 50.60 46.55 45.57 50.12 48.62 45.84 47.11 55.87 57.50 57.41 57.37 57.51 58.57 58.89 58.36 58.18 58.04 56.69 56.13 56.04 55.32 53.98 54.67 54.36 53.83 53.74
49.40 47.29 38.77 44.33 43.11 45.36 46.69 47.16 48.51 51.40 53.30 51.89 51.48 49.71 52.31 52.09 49.70 50.77 47.62 49.55 48.80 45.71 43.38 45.15 51.54 56.35 56.73 57.27 57.60 56.98 56.77 57.50 57.26 56.17 55.94 56.16 55.45 55.11 55.62 55.94 55.04 54.32 52.88 51.96
47.37 47.64 39.74 44.48 48.81 50.45 51.79 54.14 51.93 53.53 54.40 53.41 51.22 51.41 53.69 50.37 50.40 50.14 48.77 46.31 43.88 45.90 44.99 49.08 55.73 57.27 57.07 56.69 56.96 56.88 56.58 56.41 54.97 55.17 55.30 55.85 55.61 54.57 54.14 54.13 52.60 51.98 51.07 50.39
46.89 47.11 45.44 48.40 48.25 49.00 51.05 52.14 51.10 55.31 55.21 53.82 53.64 50.94 48.57 46.52 48.16 45.81 45.68 44.47 43.36 46.87 53.63 56.74 57.52 56.98 57.05 57.23 57.27 56.86 56.74 55.35 55.32 55.38 55.52 55.19 54.09 53.48 52.41 52.61 51.05 50.12 50.47 50.23
45.29 44.67 48.36 48.23 49.14 48.23 49.38 52.79 52.94 56.57 53.94 49.82 51.48 47.23 45.60 49.28 45.56 44.16 47.88 45.95 48.63 54.98 57.12 58.25 58.47 57.97 58.10 58.34 58.16 56.47 55.85 55.45 55.63 55.54 54.79 54.26 53.89 52.86 52.57 50.09 49.64 49.97 50.37 50.12

GFSNW_sfc_wetblb_108.txt.gz
Wetbulb
56.52 56.58 56.84 55.27 53.64 52.04 49.62 47.90 45.04 53.20 55.94 45.08 42.37 40.60 45.79 50.41 49.94 46.45 44.21 43.62 41.78 42.17 45.75 43.64 44.27 45.96 48.83 53.62 52.08 45.04 45.49 40.25 38.59 43.39 48.34 49.19 46.19 43.96 42.44 38.37 38.63 43.37 44.43 46.81
56.46 56.68 56.46 55.27 53.38 51.94 46.30 45.05 47.88 54.61 52.33 40.58 40.14 44.17 48.10 50.05 49.48 45.00 43.86 43.19 43.64 47.44 43.84 41.89 46.40 47.83 52.65 52.96 50.92 46.50 45.57 38.86 37.28 40.85 44.42 48.01 44.69 44.93 43.48 39.97 39.75 40.58 41.59 46.55
55.56 56.58 56.01 55.41 53.86 53.43 46.97 46.53 43.39 49.38 49.71 46.60 44.79 42.40 44.81 47.39 49.97 47.85 46.44 44.97 44.45 44.36 42.54 44.73 44.33 46.37 50.79 52.03 52.71 59.87 51.31 38.93 40.87 37.91 41.04 43.66 43.28 47.05 46.92 40.07 36.94 37.77 41.49 48.42
55.25 55.86 55.81 55.37 54.26 53.62 47.96 47.36 44.72 48.78 45.72 47.07 48.46 44.19 45.37 47.18 45.12 46.68 46.16 44.92 46.34 42.66 39.78 41.66 42.58 46.04 47.41 51.50 54.73 51.72 47.05 39.50 40.82 45.20 48.84 49.23 48.49 48.15 49.41 44.51 41.66 40.54 43.93 49.09
55.22 55.66 56.10 55.61 54.70 52.80 47.06 44.46 46.16 51.20 48.62 49.78 48.17 43.95 45.32 45.58 44.73 44.70 43.12 44.16 48.98 48.17 43.37 43.88 41.43 45.39 44.65 45.95 48.37 46.92 46.83 42.67 43.61 44.38 48.86 48.29 47.89 48.66 50.80 50.13 49.69 53.92 53.44 51.93
55.28 56.22 55.99 55.89 55.03 51.67 47.55 51.40 52.07 50.81 47.75 48.60 47.19 43.06 45.85 47.40 46.34 46.92 48.30 47.89 45.68 46.30 48.17 49.59 47.65 48.09 47.15 46.30 45.39 43.72 44.90 42.74 42.09 37.92 44.56 47.54 42.84 46.91 48.79 49.57 50.83 49.95 49.26 52.63
55.55 55.61 55.99 56.18 55.61 54.67 48.13 47.88 48.50 47.91 46.87 49.87 50.62 52.58 52.41 47.77 47.06 46.00 47.25 46.60 44.58 48.95 47.84 47.10 45.39 45.68 46.26 48.61 45.18 43.47 44.17 41.49 40.32 37.68 40.50 35.94 44.05 50.91 51.25 50.11 50.86 53.61 55.14 55.42
56.39 56.53 56.29 56.37 55.57 55.57 52.16 48.52 45.89 48.27 46.32 51.24 52.07 52.75 51.50 46.77 45.67 44.99 46.77 49.16 48.05 46.19 44.76 40.52 40.10 41.70 41.30 43.84 47.23 46.35 45.08 41.70 39.02 36.12 35.87 41.83 47.28 49.51 49.16 47.04 46.85 54.04 55.75 57.18
56.00 56.15 56.44 56.45 56.06 54.99 53.75 48.00 48.98 47.26 48.89 47.35 53.97 51.68 49.59 43.16 42.77 45.04 47.02 48.55 48.01 46.72 41.81 40.60 35.32 34.37 38.83 40.06 43.73 45.42 45.10 44.82 40.79 37.00 34.57 34.56 44.17 51.29 54.23 52.87 43.10 54.05 55.65 54.95
55.50 55.73 56.42 56.70 56.69 54.99 54.04 49.25 49.35 47.81 49.38 51.32 52.85 50.40 49.38 49.98 45.75 44.32 45.13 45.33 44.15 45.01 39.84 39.80 38.22 37.08 43.81 36.14 38.37 39.63 39.74 40.06 37.51 38.33 35.86 40.89 48.34 51.61 54.01 43.92 43.85 54.86 55.67 54.91
55.29 55.66 56.27 56.35 56.31 55.68 53.22 48.41 50.63 48.25 50.83 52.09 55.56 55.42 50.63 49.37 47.50 44.29 46.46 46.24 45.60 42.43 40.14 41.05 39.65 39.05 40.46 38.21 41.74 43.27 42.70 38.08 38.88 36.29 33.16 33.08 51.16 51.68 46.59 50.21 54.05 56.23 55.77 56.49
55.07 55.72 56.22 56.56 55.82 55.74 54.44 45.98 51.75 52.85 52.21 51.64 55.45 56.68 55.76 52.65 52.12 49.56 47.69 47.11 46.88 46.80 43.28 42.48 43.38 40.82 40.77 38.14 37.38 44.07 40.11 44.22 43.30 44.31 40.93 46.40 50.14 50.05 54.27 53.67 56.20 56.82 54.77 59.32
55.41 55.63 56.16 56.44 55.13 55.62 55.07 47.14 48.46 49.87 52.13 51.56 49.44 49.31 52.17 52.05 53.84 52.78 46.13 46.39 50.28 47.58 47.85 45.92 44.02 40.36 42.41 38.36 39.19 42.65 45.40 47.43 44.32 43.84 47.02 50.72 53.11 53.03 53.91 54.46 52.14 53.10 56.37 58.41
55.19 55.67 56.10 55.71 55.09 55.55 55.84 47.50 49.36 47.90 48.94 46.50 49.37 56.72 53.07 55.89 55.18 54.53 50.65 51.16 51.93 50.50 47.88 43.90 40.97 41.39 43.77 41.00 43.50 42.92 45.40 44.51 43.68 44.55 47.82 50.91 51.79 52.08 52.07 52.95 54.17 54.88 55.60 57.23
55.27 55.73 55.57 55.01 55.13 55.59 52.95 49.82 49.66 50.30 48.44 45.47 47.83 53.67 55.60 56.33 53.88 53.04 51.20 50.59 48.87 47.79 44.38 42.02 41.35 45.08 44.98 42.61 41.62 40.75 45.64 43.51 41.97 42.80 48.06 46.22 48.17 51.18 52.97 52.21 52.34 53.85 53.47 53.92
55.55 54.86 54.58 54.58 55.29 53.99 47.25 45.54 49.84 51.08 49.75 48.06 46.51 52.76 53.85 51.46 52.12 51.37 49.56 49.39 48.50 47.39 45.84 43.77 45.97 47.95 44.13 39.37 38.57 45.04 46.72 48.44 48.52 49.41 51.21 50.01 52.23 53.66 54.09 52.20 53.46 53.98 52.84 52.94
54.82 54.05 54.11 54.94 54.32 48.18 45.93 46.70 51.20 49.92 47.79 49.50 46.67 46.98 53.00 53.45 51.08 50.07 49.45 48.97 48.65 47.55 45.21 45.35 46.01 45.59 43.88 39.73 38.22 46.30 48.62 50.55 51.04 51.95 51.33 50.28 51.73 50.83 53.28 54.67 55.23 54.87 54.59 53.80
54.38 54.32 54.54 54.40 52.48 49.81 45.31 48.26 50.69 49.38 49.68 50.89 43.88 44.17 49.24 53.00 46.81 46.71 48.82 47.19 46.86 46.86 46.37 46.17 46.26 46.77 45.48 40.61 44.17 48.28 50.81 51.10 51.49 51.95 51.81 50.94 51.73 51.73 52.59 53.27 53.03 52.20 52.39 53.05
54.00 54.32 54.38 49.64 46.11 44.07 47.55 56.72 53.84 52.29 51.03 44.68 43.93 41.89 44.20 52.86 48.99 47.49 47.99 47.66 42.74 46.67 44.37 44.37 46.97 43.14 41.56 45.36 46.46 51.00 49.93 49.86 50.22 51.72 52.15 52.12 51.60 51.58 52.28 52.62 51.92 50.72 51.10 51.67
53.21 51.69 46.78 42.57 47.48 56.11 57.14 52.61 50.47 49.40 48.07 49.12 46.24 48.91 44.94 50.95 48.73 45.98 45.99 45.90 44.05 41.87 45.69 47.40 43.23 41.80 47.58 50.09 51.10 53.62 52.45 51.93 52.00 49.75 48.40 49.57 50.25 50.70 51.10 50.72 52.72 51.99 51.64 51.45
49.89 46.47 46.14 52.49 56.45 50.33 48.21 44.42 45.01 46.35 42.05 44.15 47.34 46.71 45.50 51.62 47.14 45.85 48.27 46.65 44.01 39.92 43.72 44.51 42.20 42.06 47.73 52.29 51.69 52.95 53.98 53.06 53.11 52.21 51.86 51.85 52.03 50.64 50.44 50.20 51.32 52.46 51.96 51.02
49.75 48.70 50.68 53.25 51.22 47.07 42.06 42.27 43.68 44.32 42.40 45.27 44.50 46.15 49.04 49.78 51.01 46.87 48.50 44.63 45.98 41.28 46.36 44.77 39.25 45.88 49.18 52.21 54.02 54.24 53.10 54.05 53.64 54.43 54.14 53.00 52.16 51.27 50.57 51.45 51.95 51.43 51.57 51.45
52.14 50.83 49.86 48.11 45.65 36.35 39.40 37.45 40.03 40.94 46.81 46.59 45.71 45.47 47.10 49.17 49.59 46.99 45.53 43.08 42.07 49.54 42.51 40.92 41.59 46.56 51.81 51.86 53.30 54.40 54.66 54.88 54.70 54.43 54.31 53.04 51.79 51.95 52.09 51.23 51.75 51.66 50.42 49.84
48.35 46.49 38.93 40.68 38.96 41.07 42.15 43.37 44.39 46.78 47.88 47.20 43.96 47.85 46.54 48.47 45.10 46.03 43.32 45.10 46.07 40.76 39.06 40.76 45.26 50.94 52.19 52.08 53.18 53.44 53.80 54.41 54.31 53.50 53.05 52.36 52.06 51.64 52.06 51.63 51.20 50.20 48.59 47.54
46.85 46.60 38.88 42.42 44.71 45.48 47.65 49.34 49.65 50.47 50.83 48.73 46.68 49.00 48.71 46.97 45.53 47.42 46.41 44.25 41.78 41.28 41.97 44.49 47.48 52.39 52.32 52.00 52.34 52.19 52.33 51.84 52.12 52.68 52.10 52.03 51.90 50.73 49.78 50.02 48.88 48.53 47.80 47.40
46.61 46.09 44.32 45.24 44.75 45.79 47.94 48.19 48.83 52.02 51.42 50.15 49.66 45.92 45.79 44.46 45.49 43.67 42.24 41.06 39.86 41.76 46.10 48.79 52.02 52.29 51.91 51.63 52.14 52.12 51.69 51.21 51.64 52.23 52.06 51.90 50.79 49.31 48.71 49.50 49.44 49.49 48.31 46.35
45.53 42.96 45.55 45.59 45.51 45.72 46.31 49.69 50.29 53.95 51.58 46.41 48.26 42.47 41.49 44.75 42.35 41.89 44.19 41.53 42.51 51.19 52.06 51.82 52.27 53.37 52.38 52.28 51.96 51.94 52.17 52.10 51.90 51.11 51.32 49.57 48.56 49.35 48.05 45.23 45.11 46.74 46.20 45.78

GFSNW_sfc_wetblb_111.txt.gz
Wetbulb
54.54 55.43 56.10 55.05 53.63 52.19 48.13 45.41 42.64 50.89 51.08 44.61 38.81 39.25 43.37 47.72 48.31 46.77 42.70 41.92 40.86 41.12 44.28 42.48 42.03 43.12 46.71 51.75 49.79 45.59 44.71 39.19 37.27 41.79 45.49 47.42 43.12 40.86 40.93 38.94 36.60 41.69 42.35 44.61
54.53 55.16 55.66 54.61 53.45 52.64 46.94 40.60 44.61 52.58 50.42 40.91 39.28 41.18 45.57 48.25 47.15 45.37 42.55 42.61 43.09 46.13 42.59 39.79 44.84 45.79 50.41 51.78 50.93 45.96 45.91 39.16 35.10 39.33 43.56 46.79 44.65 45.18 40.57 37.39 36.98 38.24 39.32 43.23
54.23 55.45 55.21 54.31 53.69 52.91 46.24 44.02 41.86 46.68 47.00 43.67 42.24 40.46 43.81 44.93 50.36 48.15 44.93 43.73 43.44 43.76 41.39 43.06 42.26 45.15 49.25 50.66 50.72 59.24 51.04 39.67 39.87 35.42 39.42 42.32 43.14 47.01 46.51 37.66 34.88 35.25 39.42 42.80
54.58 55.37 55.34 54.83 53.72 52.88 47.30 43.88 41.68 46.20 43.39 45.77 46.35 45.01 46.29 48.10 46.35 45.90 44.70 45.04 45.49 43.12 39.79 40.89 40.48 44.53 45.32 49.16 53.16 50.24 46.95 40.22 39.52 40.68 47.72 47.87 46.82 47.77 48.68 44.26 42.95 36.51 40.22 41.89
54.89 54.97 55.42 55.25 54.22 52.21 45.91 40.25 45.60 49.05 47.28 47.71 46.17 43.48 43.81 47.03 47.71 43.60 42.67 45.16 47.54 45.51 42.73 42.14 39.59 43.36 42.62 42.32 46.02 44.78 45.85 42.86 42.72 41.68 47.93 48.72 45.36 47.76 49.33 48.77 49.28 47.98 50.92 50.97
55.59 55.56 55.38 55.03 54.31 50.45 45.11 48.19 48.88 49.14 45.95 46.93 45.84 45.72 45.97 48.17 46.16 46.13 46.32 46.79 46.31 45.41 46.36 48.00 44.11 45.18 44.21 44.67 43.62 42.18 43.47 42.57 41.14 37.58 43.42 46.38 40.63 44.77 47.14 48.13 51.36 50.34 46.32 51.15
55.34 56.10 55.53 55.42 55.19 54.37 49.74 45.90 45.83 46.66 45.39 47.83 49.09 51.42 52.07 47.86 46.29 44.84 46.90 46.49 44.71 48.03 47.15 46.24 45.37 44.45 43.63 46.84 44.91 42.67 42.41 40.45 40.95 37.75 39.44 35.83 42.52 49.36 50.62 48.83 50.26 53.65 54.87 54.88
55.42 55.96 56.03 55.77 55.38 54.54 52.79 50.72 44.33 46.37 44.68 48.72 49.89 51.46 50.80 46.31 45.54 44.28 47.14 47.48 47.08 45.70 43.73 39.85 38.47 39.23 39.77 42.04 46.11 44.60 42.89 40.91 37.97 35.86 34.40 40.59 47.90 48.66 47.27 44.48 44.98 53.79 54.66 56.02
55.37 55.59 55.93 56.21 55.72 54.77 54.11 52.43 49.63 45.34 45.99 45.49 52.79 50.71 51.28 43.72 41.81 44.36 45.33 47.18 45.33 45.23 39.81 41.25 33.77 32.66 37.33 37.89 42.24 42.21 43.75 41.92 39.52 36.46 33.64 34.12 43.82 50.09 53.01 50.90 41.92 54.07 55.58 57.56
55.15 55.36 55.49 56.40 56.53 55.09 53.80 51.30 48.32 44.71 45.00 49.21 51.41 49.14 48.66 50.86 44.86 42.87 42.30 44.50 43.24 43.05 38.69 38.87 35.91 35.71 42.26 35.32 36.84 37.30 38.23 38.38 36.32 37.15 34.46 39.10 46.11 50.81 51.85 40.75 42.27 54.38 55.52 57.65
54.94 55.06 54.99 56.15 56.47 55.84 54.08 50.22 49.62 46.51 45.09 48.00 53.82 54.52 50.80 49.18 45.48 42.04 44.20 45.17 44.48 40.51 38.91 39.64 38.46 37.38 39.42 36.83 39.50 41.06 40.46 37.29 36.08 34.83 32.02 32.18 48.98 49.47 44.39 47.38 52.45 55.28 54.56 56.22
55.38 55.20 55.36 56.20 56.42 55.37 55.15 48.22 49.29 49.28 44.50 46.72 54.52 57.19 57.89 55.64 52.87 47.41 45.09 46.12 44.31 44.83 41.53 40.72 41.30 38.92 39.40 36.47 35.67 43.22 40.83 42.38 40.43 41.49 39.87 45.08 48.09 48.54 51.01 53.52 54.65 55.10 56.75 55.94
55.31 55.36 55.56 56.12 56.16 55.17 54.99 49.51 47.09 47.34 48.08 50.31 47.74 51.66 52.71 54.75 53.09 51.86 46.45 45.12 48.83 45.39 45.98 43.38 41.91 39.56 40.67 36.93 38.39 40.87 42.91 46.10 42.91 42.53 44.40 47.66 50.35 51.47 52.75 54.68 54.08 56.04 57.80 56.67
55.13 55.44 55.82 56.28 55.37 54.97 55.34 50.61 47.61 45.86 45.64 44.15 46.39 55.88 53.72 54.21 54.09 52.16 49.66 50.71 49.33 47.50 45.22 41.70 39.47 39.98 41.73 39.02 41.60 42.04 44.76 45.07 43.31 42.85 45.94 49.17 51.31 50.68 51.26 52.96 55.08 56.72 58.46 59.25
55.03 55.39 55.72 55.33 55.01 54.77 54.78 52.31 50.50 48.51 45.03 43.11 45.12 50.46 54.60 54.64 54.39 53.24 50.51 50.15 48.33 45.54 43.17 40.85 40.41 42.12 42.65 39.65 40.13 40.48 44.40 41.75 42.21 41.33 46.74 46.32 48.42 49.95 52.45 52.55 52.90 54.46 55.14 55.54
55.11 55.25 54.22 54.32 54.50 54.39 47.34 43.47 48.22 49.85 49.03 45.32 43.78 50.39 52.75 52.80 52.65 49.73 49.00 47.96 46.59 45.27 44.38 42.49 43.07 45.56 41.87 38.54 36.31 42.55 44.08 45.01 46.59 47.39 48.66 48.55 50.28 51.48 52.64 52.50 51.98 53.26 55.54 57.71
55.09 54.10 53.83 53.98 54.15 49.23 44.65 44.21 47.82 48.74 47.23 46.39 44.41 45.12 51.11 53.33 49.59 48.82 47.85 47.09 46.54 45.98 43.67 42.99 44.36 43.55 41.76 38.39 38.93 45.58 46.56 47.90 49.33 50.29 50.93 48.73 50.10 49.20 52.01 53.49 53.58 53.36 53.67 56.18
54.75 54.06 53.98 54.19 53.13 49.48 44.64 47.27 51.00 48.16 44.62 49.62 43.46 43.14 47.44 50.61 45.56 45.44 46.91 45.09 44.91 45.40 44.17 44.87 44.33 44.90 42.07 38.32 41.95 43.79 47.80 49.30 49.85 50.02 49.77 49.87 49.77 50.48 51.16 52.57 52.93 52.14 52.88 54.78
53.92 54.11 53.86 49.08 46.04 43.00 45.08 55.18 53.17 48.93 49.30 42.51 40.87 38.66 42.66 51.87 46.73 46.28 46.79 45.18 41.92 44.84 43.42 43.03 45.28 41.62 40.36 43.93 44.84 48.21 48.91 48.96 49.38 49.90 50.55 50.17 49.86 50.03 50.09 50.72 51.49 50.61 50.21 50.60
52.71 51.45 45.43 41.04 45.66 53.29 55.75 50.94 48.77 47.13 46.14 46.89 44.01 47.01 44.36 50.44 47.75 45.59 45.59 44.80 42.65 41.41 43.75 44.73 42.36 41.21 44.80 46.49 48.20 50.78 49.51 49.75 50.02 48.42 46.70 47.72 47.88 49.01 48.96 49.97 51.55 51.17 50.24 49.60
49.55 45.71 44.33 49.23 54.77 49.03 47.35 44.66 43.11 45.25 41.87 42.51 46.11 46.52 43.75 49.76 47.55 45.74 47.82 43.61 42.49 39.54 41.42 42.20 39.94 39.08 45.12 50.32 49.45 51.09 50.62 50.65 50.83 52.07 51.25 51.11 51.29 49.16 48.64 49.63 51.52 52.13 51.22 50.57
49.26 48.90 50.17 51.37 49.28 45.15 41.53 40.93 42.55 42.46 40.14 42.70 43.45 44.94 46.26 49.08 51.36 48.87 48.82 44.39 45.32 40.10 45.46 42.79 36.81 43.80 47.07 49.94 51.26 51.87 51.09 51.64 52.30 51.89 51.43 51.43 51.29 50.73 50.19 50.30 50.51 51.51 50.29 50.10
51.38 50.56 48.75 44.95 43.23 34.75 37.49 36.01 38.70 38.47 44.38 43.87 44.70 44.80 46.67 47.70 48.36 46.17 46.39 43.51 41.70 46.29 41.42 40.06 41.00 44.08 48.11 49.66 51.48 52.32 52.03 52.84 53.15 53.06 52.36 51.19 49.93 50.80 51.25 49.90 50.29 50.48 49.34 49.78
47.45 46.06 37.36 39.61 37.15 39.52 39.92 40.45 41.15 44.22 45.21 46.77 45.07 45.63 44.30 46.25 44.65 45.22 43.28 43.84 44.46 40.00 36.69 39.73 44.15 45.36 47.91 50.17 52.13 52.94 51.91 51.93 52.36 52.23 50.86 50.36 50.56 50.15 50.90 51.31 50.68 49.39 48.71 46.66
46.47 46.48 38.40 40.92 42.90 43.72 45.13 46.57 47.03 48.17 49.07 46.68 44.71 47.35 46.91 45.16 43.55 44.58 43.61 42.36 40.06 40.69 40.64 44.80 44.98 46.73 49.95 50.33 51.02 51.70 51.52 51.20 50.56 50.39 50.21 50.21 50.41 50.26 48.62 48.49 48.13 47.78 46.99 46.37
46.60 45.83 42.94 44.10 42.30 42.91 44.54 47.09 48.75 50.72 49.23 49.73 49.38 45.94 43.63 42.78 43.71 42.99 41.07 40.59 39.54 41.97 44.08 44.96 45.69 48.26 50.38 50.47 50.95 51.24 50.88 50.63 50.28 50.00 50.42 50.29 49.96 49.32 48.05 46.82 47.43 47.39 47.32 46.30
45.48 43.11 44.53 44.38 43.76 42.90 44.26 46.55 49.68 51.96 49.37 45.78 47.84 43.55 42.87 45.34 41.41 40.25 43.33 40.88 41.12 45.39 49.50 50.57 49.86 49.94 50.90 50.50 50.41 50.30 50.14 49.84 49.60 49.96 49.49 49.33 48.71 47.66 47.13 45.47 45.45 46.32 46.13 46.03

GFSNW_sfc_wetblb_117.txt.gz
Wetbulb
56.24 55.57 54.53 54.27 53.25 52.21 51.12 46.81 48.96 54.24 53.84 50.23 46.71 47.39 47.99 46.70 50.97 50.94 47.29 46.54 45.78 46.43 48.11 48.14 47.76 47.63 50.09 52.97 52.73 48.98 50.01 48.26 45.48 47.45 50.60 50.96 54.21 52.88 53.15 48.19 45.54 49.53 48.78 47.66
56.20 55.38 54.77 53.83 52.86 52.61 50.61 45.96 47.69 55.43 53.24 46.24 47.09 47.56 47.79 49.41 49.52 50.08 46.69 46.28 47.41 50.59 49.08 46.12 48.75 48.94 51.81 52.38 51.90 50.33 50.02 47.14 43.35 45.40 48.99 51.34 50.53 52.59 50.28 48.17 49.38 48.49 45.53 47.20
55.88 55.59 54.82 53.77 52.99 52.88 51.16 47.19 46.17 51.61 52.36 49.32 48.70 47.82 48.23 48.45 50.88 50.51 49.75 47.69 51.21 49.68 48.22 49.14 47.02 48.31 50.77 51.49 52.02 57.24 53.28 47.58 45.80 42.32 45.79 49.40 49.22 50.83 52.85 48.61 45.87 47.93 47.96 49.55
55.74 55.62 55.51 54.11 53.26 52.71 50.91 46.83 45.23 48.59 47.58 48.60 49.10 49.56 50.16 48.65 49.00 50.71 49.52 48.65 49.19 49.39 46.90 47.25 47.13 48.74 49.58 50.82 52.15 52.38 50.95 46.37 46.99 47.80 49.90 50.64 49.21 49.60 51.41 48.95 50.45 44.45 48.33 51.37
55.62 55.68 55.80 54.80 53.81 51.98 49.83 45.21 49.34 51.38 51.12 50.39 50.74 48.10 50.34 49.70 50.91 50.72 46.22 48.23 49.42 50.31 48.43 49.29 47.32 49.06 49.01 49.58 51.19 50.78 51.16 47.38 48.44 46.99 50.05 49.29 48.27 48.59 51.15 51.95 52.45 53.07 53.05 53.42
54.81 55.40 55.63 55.05 53.83 52.18 48.52 48.78 50.73 50.64 47.33 49.64 49.77 49.88 50.19 49.95 52.42 51.92 49.56 50.39 49.97 48.55 50.19 52.18 50.89 51.56 51.62 51.87 50.63 49.62 50.12 50.09 47.21 43.41 47.90 46.79 43.90 46.98 48.72 51.52 53.86 53.57 51.74 55.49
54.53 55.26 55.66 55.38 54.84 54.08 52.52 50.11 48.00 47.61 46.25 49.53 50.57 52.04 51.98 52.06 52.52 50.84 48.23 52.44 51.71 51.80 53.39 53.19 53.13 52.24 51.51 51.94 51.58 50.72 49.58 48.99 48.45 44.98 46.01 37.29 47.88 52.39 52.74 51.69 52.82 55.74 56.26 56.68
55.12 55.48 55.79 55.85 55.47 54.46 53.91 52.15 49.38 47.89 46.84 50.19 50.24 51.43 51.98 52.57 49.30 50.26 49.64 50.88 52.09 53.74 50.89 48.51 45.33 47.16 47.43 48.39 50.01 50.45 50.03 49.36 44.83 43.14 42.59 44.51 48.13 50.72 49.96 49.58 50.47 55.80 56.51 57.69
54.99 55.44 55.39 55.79 55.59 54.74 54.47 52.90 53.10 48.53 47.11 46.68 51.71 51.28 51.83 48.34 46.85 47.44 48.31 49.25 51.37 52.32 49.67 47.77 42.91 42.15 44.07 43.58 46.88 50.00 49.36 49.55 47.40 43.78 40.02 37.77 47.62 52.25 54.39 53.44 47.35 56.14 59.14 58.53
54.89 55.48 55.61 55.52 55.69 55.13 54.47 52.54 53.42 49.00 45.19 49.94 52.81 51.06 50.20 51.60 48.91 47.49 48.49 49.03 49.36 51.09 48.90 45.79 44.42 44.67 46.48 43.28 43.28 45.02 46.86 46.96 44.76 44.25 43.09 45.06 50.19 52.95 54.94 45.17 48.25 57.31 60.22 59.52
54.38 55.33 55.76 55.43 55.37 55.92 54.56 52.34 52.96 49.94 45.90 48.49 51.08 54.52 51.88 51.33 49.80 47.16 48.10 49.25 48.41 48.66 47.55 46.48 46.23 45.87 47.24 44.90 46.14 46.83 46.45 45.53 45.60 44.40 43.06 40.04 52.01 52.48 49.70 53.05 56.75 58.83 60.84 60.22
54.33 55.33 55.76 55.72 55.82 55.94 55.49 50.78 51.55 53.05 48.49 49.19 51.14 52.57 53.24 55.57 55.49 52.83 51.00 49.69 50.43 51.44 48.07 47.97 48.18 46.39 46.16 45.43 44.27 48.36 46.59 48.99 48.90 47.85 48.02 51.76 53.74 53.83 56.48 56.76 58.09 58.95 60.46 60.07
53.95 54.95 55.56 55.82 55.97 56.14 55.57 52.44 50.79 50.09 46.59 48.40 49.01 50.55 55.05 55.74 55.09 56.73 49.49 51.05 52.45 51.32 53.44 50.98 50.61 48.32 48.82 45.62 46.76 48.29 49.84 51.14 50.67 48.70 51.31 52.86 54.35 56.25 56.33 59.11 59.29 61.04 61.96 61.45
54.42 55.31 55.49 55.63 55.93 56.16 55.93 52.51 53.02 50.44 48.25 44.53 49.85 55.64 54.49 58.28 57.74 56.77 56.06 52.85 53.26 52.52 52.07 50.91 50.43 49.35 49.70 48.88 48.76 49.73 51.58 51.50 50.80 49.44 52.29 54.36 55.39 56.10 56.69 58.77 60.64 60.11 61.17 61.55
54.40 55.37 55.37 55.61 55.43 55.05 54.95 54.53 52.52 52.01 48.22 43.97 46.21 51.34 54.40 55.27 55.42 55.60 56.18 54.12 52.98 52.12 50.16 50.28 49.34 49.68 49.77 48.59 49.36 49.75 52.19 52.67 50.78 49.36 55.88 56.11 56.67 57.11 58.86 60.41 60.73 60.65 60.20 60.61
54.50 55.35 55.51 55.03 54.36 54.24 52.27 47.01 53.12 53.76 52.38 46.02 44.15 52.72 52.87 55.43 55.24 54.76 52.86 52.83 52.61 52.00 51.26 49.98 49.28 50.54 51.96 48.63 48.07 52.24 53.58 54.20 55.97 54.66 56.67 55.64 57.80 58.20 57.74 59.86 61.27 61.34 61.41 62.09
54.87 55.19 54.63 53.81 53.51 53.03 48.11 47.28 49.27 52.34 52.10 46.03 45.31 47.93 54.07 53.95 52.86 52.32 51.70 52.44 50.70 51.96 50.61 51.35 52.08 50.96 51.15 49.73 48.01 53.85 53.64 54.29 53.64 54.77 56.37 54.15 56.64 56.95 58.52 59.14 61.12 60.26 62.41 63.40
54.18 54.51 54.06 53.62 53.52 52.81 50.62 53.44 51.51 51.56 49.68 48.09 46.52 47.46 49.50 55.09 50.55 50.52 52.74 51.26 51.24 49.46 50.19 50.46 51.21 49.23 49.87 47.59 52.07 52.90 53.77 54.86 54.14 55.44 56.74 57.31 58.52 58.55 58.09 58.70 61.12 61.04 60.87 61.78
52.33 53.92 53.90 51.95 51.39 48.77 48.89 53.18 53.17 51.95 48.25 46.35 46.52 44.42 45.41 54.46 51.64 51.49 51.00 52.41 48.69 50.85 49.96 49.94 50.96 48.73 49.21 52.43 54.57 52.36 54.74 55.79 56.28 56.39 55.47 56.09 56.68 57.51 57.43 58.30 59.65 60.15 60.45 61.19
51.50 52.05 48.98 47.02 48.36 51.33 54.23 51.35 46.87 46.57 47.66 49.22 47.02 50.24 46.77 53.13 52.01 50.12 50.03 50.61 49.14 46.04 49.06 49.72 48.38 48.45 53.81 54.94 55.90 57.07 56.93 56.83 56.35 54.24 52.69 54.35 55.41 56.37 56.84 57.61 59.23 60.09 60.19 60.04
50.20 47.91 46.16 52.19 53.27 52.49 50.34 47.32 45.16 45.08 44.65 47.64 48.80 49.26 46.92 53.08 51.14 50.05 51.34 48.17 48.57 44.67 47.08 46.89 46.28 45.04 50.98 56.52 56.26 57.15 56.21 56.99 57.51 59.13 58.20 57.36 57.68 56.94 57.08 57.79 58.81 59.40 59.91 59.19
49.05 49.24 51.49 52.15 51.92 48.14 44.58 44.77 45.24 44.58 43.06 46.55 45.83 48.20 49.60 51.33 55.43 52.17 51.54 48.49 48.95 43.91 49.61 46.93 45.79 48.47 54.52 55.57 56.51 57.69 56.28 56.41 56.82 57.91 57.78 57.78 58.03 58.14 58.12 58.32 58.33 58.62 59.64 57.85
50.98 48.76 48.29 47.77 46.33 39.00 40.77 39.00 41.99 42.70 47.35 48.00 47.61 46.97 50.40 52.52 53.97 50.89 49.74 45.22 45.48 50.19 46.15 45.77 47.73 53.09 54.79 56.03 55.22 56.68 57.16 56.85 57.51 57.02 57.74 57.45 57.79 58.17 58.27 58.08 58.70 57.96 56.81 56.83
46.34 45.67 37.30 42.70 40.69 42.49 43.47 43.87 45.21 47.99 48.77 49.75 48.39 49.23 49.17 50.12 49.47 50.21 45.23 46.91 47.65 42.51 41.66 43.19 50.41 55.79 57.73 56.85 55.78 55.76 55.70 56.32 56.56 56.84 56.81 56.45 56.15 56.22 57.73 58.21 57.72 56.72 55.85 55.55
45.82 46.43 39.54 41.88 46.02 46.37 47.62 48.47 48.39 51.14 52.45 50.14 49.92 49.65 50.08 48.33 47.05 48.32 46.66 44.14 41.92 43.45 43.36 48.68 53.30 56.38 54.82 54.62 54.82 55.54 56.75 57.22 57.34 57.37 56.79 56.96 56.69 56.29 56.35 57.04 57.21 57.54 56.21 54.90
46.54 46.34 44.04 46.47 45.68 45.89 47.06 48.16 48.76 53.08 52.40 51.86 51.67 48.44 46.74 45.88 46.88 44.70 44.24 43.17 42.25 46.06 49.70 52.92 53.67 55.91 55.91 54.23 55.14 56.67 58.11 57.99 58.10 57.67 57.49 56.96 56.32 56.17 56.16 56.33 56.58 56.03 54.65 52.67
45.31 44.42 47.96 46.86 46.14 45.42 47.04 48.57 49.70 53.93 51.89 49.29 49.85 44.46 43.49 47.66 44.80 43.81 47.40 45.04 48.14 52.15 51.59 55.58 55.87 56.00 56.75 56.73 55.59 56.47 57.69 57.92 57.77 57.47 57.30 57.13 57.13 56.28 54.63 53.96 54.76 55.36 55.23 54.14

GFSNW_sfc_wetblb_120.txt.gz
Wetbulb
57.19 56.48 55.44 54.44 53.19 52.13 54.08 54.24 49.71 58.13 58.80 51.15 52.82 50.87 52.88 50.55 53.67 54.61 51.27 50.31 49.03 48.05 48.62 48.74 48.88 49.02 52.19 55.04 53.90 50.49 53.19 50.87 47.77 49.72 54.14 54.63 53.80 54.43 54.55 49.63 48.22 51.73 50.47 48.20
57.03 56.21 55.21 54.16 52.50 52.58 54.09 54.60 53.92 58.93 57.68 48.55 50.10 52.81 52.18 53.77 53.36 52.41 50.42 49.19 50.38 51.76 49.29 47.33 48.79 49.63 54.46 55.00 52.94 51.45 53.35 48.88 45.32 47.33 51.41 54.29 52.15 54.43 55.52 54.46 53.91 45.30 46.31 48.58
56.67 56.05 55.07 54.06 52.97 52.93 54.61 53.02 49.08 54.39 54.46 55.56 52.15 50.33 50.95 51.43 53.83 53.11 52.89 50.55 51.51 51.22 50.55 51.84 48.94 49.08 52.57 54.39 53.54 56.56 55.75 48.66 46.66 44.12 47.40 49.91 51.21 52.91 54.87 54.33 49.76 48.74 49.47 51.85
56.43 56.03 55.42 54.49 53.33 52.78 54.03 52.71 50.27 53.95 48.44 50.91 52.19 52.24 50.77 50.47 51.26 54.15 54.60 52.19 51.11 50.62 49.16 49.45 49.24 50.45 51.64 53.28 53.72 54.65 53.69 47.97 48.98 49.18 49.67 51.87 51.69 51.66 52.92 52.57 52.93 49.82 51.03 52.34
55.71 55.35 55.70 54.95 53.79 52.86 54.13 50.81 51.42 55.96 54.43 54.91 52.16 49.22 51.27 50.71 52.55 53.57 50.93 51.23 51.92 52.17 50.55 50.29 48.47 50.94 51.60 50.44 54.30 53.93 54.63 49.22 50.34 48.27 50.14 51.26 50.02 51.31 52.25 53.31 54.26 54.49 55.14 54.95
54.38 55.12 55.66 54.91 53.94 53.02 53.64 54.14 55.07 53.39 50.42 53.95 52.26 50.80 51.65 51.54 53.50 55.33 55.67 52.88 52.30 50.82 52.31 53.72 54.87 55.22 53.93 54.52 52.57 52.30 52.27 51.56 49.80 46.00 48.98 49.76 46.65 49.97 51.65 52.74 54.75 54.40 52.09 57.27
54.65 55.31 55.93 55.40 54.97 53.98 54.32 53.80 50.86 48.44 48.14 50.65 53.09 53.67 54.52 53.34 54.95 54.04 53.01 55.35 52.96 54.97 58.47 57.31 55.55 54.65 53.91 54.07 53.64 54.36 52.04 51.48 50.34 46.48 46.68 40.04 49.80 54.63 54.15 52.73 53.95 55.99 56.45 58.93
55.07 55.47 55.86 55.92 55.40 54.46 54.71 54.76 52.31 48.34 46.42 50.10 51.43 53.68 54.88 56.32 56.80 55.20 54.64 53.47 56.36 58.67 56.11 51.40 49.18 49.00 49.36 50.35 51.63 52.96 53.97 52.02 47.58 45.19 44.04 46.43 49.54 52.78 52.66 51.87 50.80 55.01 55.75 59.78
54.97 55.39 55.78 55.72 55.50 54.71 55.43 54.32 54.74 51.37 47.26 48.27 52.15 52.65 54.50 53.77 53.33 52.25 52.36 53.68 58.53 57.12 52.67 50.04 45.13 44.57 46.79 46.37 49.14 54.20 53.30 54.67 49.85 46.20 41.97 39.49 50.03 54.95 56.76 55.87 48.30 57.14 58.93 61.11
54.39 55.06 55.82 55.88 55.55 54.73 55.25 54.43 55.41 51.55 46.91 51.28 52.23 51.97 52.51 55.55 52.72 51.85 51.71 52.01 52.30 55.63 50.88 47.78 47.45 46.02 50.37 45.55 46.04 48.53 49.83 50.31 47.06 45.55 44.85 46.45 53.33 55.51 57.00 47.36 51.03 59.93 61.89 62.96
54.01 54.67 55.53 55.77 55.49 55.63 55.54 54.19 56.45 51.44 49.44 51.42 53.61 54.19 53.91 54.88 53.80 50.43 52.71 51.06 52.15 51.59 49.40 49.03 48.90 46.92 50.62 49.10 50.32 49.29 48.79 47.98 48.18 48.75 45.58 42.29 55.34 55.18 51.60 56.24 60.71 61.77 63.17 63.38
53.60 54.29 55.20 55.78 55.92 55.78 56.20 52.66 55.54 55.05 49.48 51.74 55.16 55.39 56.33 55.71 55.58 54.59 54.10 53.95 53.59 53.36 51.15 52.67 53.48 49.33 52.15 50.20 46.62 53.34 49.25 52.18 51.77 50.01 50.32 56.23 58.39 57.32 59.27 59.92 60.30 62.68 62.45 62.60
53.42 54.39 55.52 55.70 55.88 55.96 55.80 53.95 52.73 51.78 49.87 52.37 52.89 52.92 57.31 58.67 56.80 57.72 52.02 55.29 56.60 55.27 58.96 55.33 55.13 49.77 53.70 48.44 49.93 51.73 54.23 55.95 52.95 52.23 55.71 56.42 58.24 59.13 59.89 61.94 62.30 64.26 62.67 63.61
53.33 54.22 55.84 55.68 55.90 55.88 56.12 53.55 54.49 51.96 50.51 47.87 52.57 58.91 57.01 59.69 58.62 56.76 56.49 56.52 58.02 58.05 58.86 54.88 53.35 51.17 55.95 53.28 53.23 52.65 55.61 55.99 52.09 52.29 55.78 57.92 58.79 60.63 61.48 62.37 64.29 64.20 64.01 62.90
53.36 54.26 55.66 55.52 55.54 55.23 56.04 55.44 54.38 54.26 49.61 47.09 50.03 55.09 56.88 57.14 57.95 57.99 57.44 55.14 55.64 55.66 54.85 53.77 52.10 55.87 54.75 56.77 55.71 52.13 56.69 54.83 51.63 51.08 55.79 58.66 59.29 61.38 62.90 62.87 62.79 63.44 63.35 62.51
53.19 54.65 55.44 55.50 54.50 54.08 53.59 48.28 54.03 54.74 52.72 48.93 46.42 55.37 55.04 57.37 57.74 57.14 57.28 56.92 56.29 55.17 56.51 55.91 57.58 56.93 55.44 50.92 49.86 54.99 57.42 58.57 59.14 56.68 59.44 59.34 60.70 61.59 62.09 62.87 63.28 63.20 63.90 63.45
53.59 54.99 55.22 54.10 53.57 54.40 49.94 49.11 52.42 53.91 53.72 49.49 46.91 50.28 55.99 57.58 56.80 57.04 57.31 57.39 55.83 55.59 55.87 54.61 56.28 56.05 54.68 51.78 49.24 53.68 56.82 59.21 60.11 59.93 61.08 58.73 59.66 58.66 61.88 63.33 64.16 62.63 64.57 64.10
53.01 54.35 54.29 53.70 53.40 52.87 51.61 56.08 52.24 54.05 50.42 51.31 46.98 50.29 52.52 58.14 53.38 52.25 56.47 54.28 55.90 55.15 54.62 56.05 53.91 54.83 54.82 49.25 53.67 54.96 57.60 59.41 59.04 59.18 61.02 60.00 61.04 61.37 60.73 62.11 62.65 63.05 63.10 63.42
51.93 52.84 54.09 53.12 52.23 50.15 54.02 53.79 54.10 54.68 49.73 48.23 50.41 47.72 47.91 58.64 54.70 55.95 55.03 56.51 51.46 56.90 51.96 52.12 54.65 51.45 49.71 52.72 54.84 55.85 57.71 58.48 58.50 59.45 60.67 60.19 60.15 60.10 60.12 60.69 60.95 60.67 61.80 63.24
51.36 52.39 49.67 47.42 53.04 54.54 54.89 52.48 50.43 48.31 49.54 50.52 47.28 53.34 49.57 55.29 54.18 52.30 52.48 53.48 50.64 48.35 52.29 55.29 50.60 49.74 55.98 57.29 58.43 60.31 59.83 60.40 60.56 58.37 57.88 58.90 59.07 59.62 59.62 60.11 60.69 61.52 63.17 63.49
50.39 48.65 48.26 54.34 54.42 53.47 52.21 48.99 47.33 48.12 46.92 50.24 51.13 51.63 49.45 56.23 52.93 51.22 55.07 49.44 51.31 47.16 50.13 49.58 48.69 48.12 53.47 57.68 58.38 60.03 61.35 61.67 61.33 61.14 61.14 61.46 61.12 60.17 59.96 60.15 60.76 61.59 62.64 63.30
49.74 49.78 52.78 53.09 52.31 49.98 46.91 46.26 48.10 47.14 46.26 50.84 49.45 51.36 52.55 54.11 58.18 55.09 54.04 50.36 51.25 45.10 53.24 49.41 46.49 51.53 57.02 57.75 58.04 59.66 61.53 60.70 60.51 61.40 60.82 61.18 61.19 61.23 61.39 61.08 61.01 61.39 62.74 64.41
51.38 48.88 47.90 48.46 49.12 41.57 42.15 40.89 43.98 45.65 49.89 51.12 50.28 49.40 52.07 54.21 56.10 54.06 52.24 48.20 47.44 53.96 48.89 46.46 49.43 55.50 57.62 58.50 59.22 59.80 60.61 61.10 60.45 60.73 61.82 62.00 61.57 61.77 61.70 61.50 62.15 62.39 62.73 63.44
46.59 45.14 39.75 44.28 40.85 45.00 46.34 46.94 49.00 52.46 53.61 53.73 52.08 50.94 50.85 53.54 51.09 52.41 45.51 50.67 51.88 44.88 43.61 45.75 51.96 57.29 59.37 60.55 60.76 60.03 59.39 60.02 60.32 60.90 61.23 61.48 61.84 61.68 62.40 62.59 62.85 62.66 61.89 62.36
45.11 46.19 40.37 42.95 48.68 51.36 52.05 52.89 51.69 54.33 55.74 53.40 51.47 52.45 53.23 50.67 48.68 49.81 47.78 43.86 43.40 45.74 45.63 50.55 54.46 59.42 60.29 59.35 59.64 59.76 59.53 59.86 60.53 61.58 60.98 61.04 61.66 61.83 61.95 62.89 62.86 62.44 62.05 61.47
46.69 46.84 45.36 48.99 48.20 48.16 50.18 50.70 50.44 54.50 54.39 56.43 53.97 49.40 47.21 46.44 48.46 45.42 44.23 42.81 42.77 47.85 52.83 57.04 58.77 58.90 60.88 61.21 60.22 59.74 60.68 60.72 60.50 61.47 61.45 61.73 61.51 61.56 62.09 62.75 62.33 62.12 61.37 60.20
45.42 46.26 50.38 49.98 49.78 47.31 50.48 52.13 52.30 57.80 54.53 48.93 50.54 44.75 44.86 51.08 46.09 44.71 48.79 46.70 49.41 52.50 55.49 58.48 60.01 59.96 60.76 61.35 60.94 60.02 60.47 61.64 61.57 61.86 61.92 62.13 62.74 62.64 61.67 60.43 61.47 61.87 61.53 60.92

GFSNW_sfc_wetblb_123.txt.gz
Wetbulb
57.88 57.23 56.22 54.83 53.43 52.09 54.45 58.59 52.38 60.63 60.20 49.53 51.20 50.07 53.22 55.06 56.60 55.78 53.52 52.71 51.53 49.93 50.28 50.18 49.81 50.48 53.50 56.27 55.18 52.17 54.84 52.11 49.30 51.13 54.86 56.14 56.19 54.55 55.11 49.81 49.00 49.36 49.19 48.62
57.71 57.19 55.94 54.44 53.07 52.69 56.89 56.18 56.78 60.54 57.38 46.33 48.60 52.32 52.77 55.40 55.63 54.36 53.05 51.18 52.11 52.20 50.70 49.06 50.29 50.92 55.79 55.41 53.96 52.28 54.41 50.64 45.93 48.21 51.27 54.89 52.36 53.29 53.62 54.70 54.33 51.27 48.87 51.70
57.58 56.79 55.56 54.49 53.60 53.35 55.71 56.09 51.04 55.89 54.60 54.23 52.25 52.31 52.23 52.66 56.28 55.18 54.25 52.60 53.29 51.98 51.45 52.82 50.57 49.86 52.90 53.78 53.25 59.19 56.23 49.28 47.16 43.86 47.38 51.51 50.79 52.94 54.24 52.37 50.22 50.40 51.61 52.34
56.72 56.22 55.68 54.85 53.75 53.29 55.38 56.52 52.58 56.11 50.02 50.03 51.73 54.25 52.92 51.33 52.45 55.33 55.27 53.07 51.93 51.71 50.45 51.66 50.85 51.30 52.14 53.86 55.78 53.56 53.01 48.68 50.16 49.76 49.51 49.73 49.81 51.78 48.21 46.53 52.77 50.38 52.10 52.35
55.59 54.97 55.90 55.31 54.04 53.07 56.58 52.93 53.17 55.66 53.69 56.22 51.75 50.00 51.72 50.59 53.20 54.50 52.77 52.84 53.01 52.74 51.60 52.81 50.87 52.12 53.01 51.90 55.36 54.21 55.18 50.27 51.28 48.97 50.70 50.13 48.41 51.26 50.35 51.56 53.79 52.32 54.70 52.99
54.76 55.01 55.83 55.56 54.26 53.50 57.48 56.38 56.06 53.82 50.51 52.83 53.16 52.22 51.62 51.85 53.41 55.23 56.25 55.13 54.07 52.82 53.58 55.71 55.45 55.31 54.68 54.68 53.00 52.91 53.60 51.76 50.30 47.06 50.46 50.36 47.77 50.28 51.06 53.18 53.96 52.44 50.45 56.54
54.65 55.45 56.04 56.00 55.14 54.08 57.93 57.70 54.08 50.23 47.00 51.08 52.70 53.76 52.94 51.70 53.51 52.91 56.11 57.36 54.78 56.65 58.33 57.60 56.41 55.06 54.92 54.29 53.51 54.19 51.82 52.62 50.98 46.79 48.87 41.94 51.00 52.43 51.41 52.27 53.63 53.10 54.02 57.63
54.66 55.40 56.14 56.34 55.53 55.07 56.71 56.66 54.32 51.01 47.37 50.75 51.69 53.79 55.75 55.19 55.50 54.66 55.53 56.75 58.72 59.71 56.65 52.49 50.76 51.00 51.98 52.63 53.47 52.82 53.86 52.03 48.57 46.54 46.55 49.36 50.50 52.41 52.68 52.74 52.19 55.80 56.02 57.57
54.42 54.95 55.77 56.58 55.86 55.19 55.55 56.11 56.79 52.79 49.04 48.87 52.46 52.15 54.73 52.74 54.62 54.74 56.27 58.01 59.54 58.70 54.29 51.30 47.59 45.84 48.77 48.13 49.95 54.21 53.03 54.38 49.60 48.18 43.74 38.61 50.25 50.19 52.82 53.04 49.41 57.52 58.17 57.78
54.46 54.60 55.32 56.02 56.25 55.26 55.38 55.88 58.17 54.05 49.61 52.00 52.66 49.46 51.83 56.49 56.19 53.80 55.68 55.11 55.50 57.64 51.94 47.96 47.67 47.12 51.22 46.13 46.78 50.18 50.50 50.37 47.83 47.74 46.15 48.75 54.98 56.64 58.18 48.02 50.76 59.17 60.02 59.59
54.28 54.27 55.05 55.68 56.12 55.64 55.35 56.22 57.87 54.24 51.60 54.10 54.53 55.04 52.79 54.81 55.97 52.65 55.07 53.74 54.28 52.50 49.91 49.01 49.54 49.67 50.62 49.09 51.33 50.89 49.87 48.24 48.33 49.73 46.35 43.95 57.38 56.37 51.49 57.50 60.17 60.78 62.66 63.62
54.34 53.68 54.53 55.47 56.21 56.03 55.89 53.75 58.06 56.96 51.02 52.65 55.64 56.66 57.56 56.75 56.56 54.78 56.67 54.16 54.96 53.45 51.36 52.46 52.02 50.08 51.34 50.98 46.81 54.95 49.20 53.30 49.39 51.79 50.63 58.29 59.87 58.12 60.76 61.25 61.46 62.70 63.94 63.71
54.38 53.75 54.46 56.03 56.15 56.05 55.94 55.60 55.41 54.01 50.87 53.52 53.74 52.85 57.46 59.33 59.15 60.01 52.86 55.46 58.79 57.09 60.49 55.23 54.02 50.52 53.38 49.25 50.44 52.42 55.35 57.35 52.64 53.54 55.26 57.30 59.11 60.73 60.88 62.40 63.05 65.49 65.64 65.37
54.44 54.26 54.35 55.95 56.01 56.23 56.09 54.87 55.09 53.70 51.35 49.08 54.09 59.67 57.30 60.32 60.04 58.66 57.58 56.66 58.44 59.43 59.01 55.29 53.68 51.21 55.91 51.83 54.71 53.29 53.41 56.65 53.75 53.92 55.58 57.88 59.59 61.21 63.07 63.74 64.40 64.70 65.41 64.87
54.22 53.83 54.38 55.94 55.95 55.58 56.28 57.56 56.37 55.37 50.45 46.17 51.83 56.56 58.24 59.69 59.46 57.79 57.38 56.25 55.68 56.74 55.22 53.64 52.35 55.04 55.69 55.00 55.27 52.50 57.56 54.80 52.51 51.51 56.53 58.83 60.08 63.13 64.56 63.68 63.00 63.82 63.90 63.53
53.81 53.66 54.79 55.88 55.70 54.12 54.50 49.95 55.70 55.32 53.37 48.00 48.86 57.93 56.34 58.06 57.70 57.69 56.73 56.24 56.22 56.66 55.73 54.22 56.73 57.90 55.44 51.68 50.54 56.02 57.69 56.92 57.44 57.22 59.04 61.28 62.26 63.70 64.57 63.67 63.57 62.94 64.01 63.91
53.44 54.12 55.11 55.18 53.75 54.19 51.30 50.10 52.18 54.41 54.11 48.57 49.88 51.68 56.39 57.99 57.96 56.69 56.76 58.29 56.72 56.15 54.94 54.80 55.45 56.31 54.40 52.22 50.31 55.18 57.24 58.65 59.77 59.16 60.58 59.80 60.11 59.60 62.51 64.02 64.23 63.28 64.32 64.43
53.17 53.42 54.61 54.02 53.44 53.13 52.31 56.45 53.31 54.69 51.27 51.73 48.72 50.78 53.28 57.87 53.59 53.22 58.35 55.98 56.22 56.01 53.73 54.54 54.38 56.76 54.86 50.50 53.43 55.64 56.63 58.58 59.69 58.99 60.14 60.70 61.52 62.05 61.97 63.56 63.74 63.03 61.82 61.98
52.11 52.37 54.02 54.14 52.39 50.54 52.94 55.75 55.46 56.37 50.66 48.36 50.59 47.63 47.74 57.49 54.70 55.38 56.22 56.87 51.78 56.41 52.66 54.28 54.49 53.04 51.20 54.09 55.92 56.24 56.73 57.65 58.86 59.29 59.08 60.46 60.03 60.65 61.03 60.89 61.84 62.91 62.08 61.49
51.20 52.42 51.09 48.08 52.76 55.35 55.36 53.30 50.25 49.87 48.76 52.16 49.38 52.88 49.77 54.70 54.27 52.25 53.62 54.72 51.56 47.94 52.68 56.19 51.39 52.26 58.12 58.63 58.39 59.37 59.04 58.58 59.52 58.11 57.28 58.70 59.22 60.19 60.60 60.57 61.46 61.61 62.76 63.61
51.05 49.33 48.04 53.94 55.12 54.50 53.09 48.97 48.52 50.77 47.88 51.99 52.05 51.69 49.75 56.39 51.99 50.86 53.66 51.15 52.02 47.49 51.82 51.92 51.15 50.77 56.07 58.87 59.17 60.68 60.63 60.18 60.32 61.16 60.58 60.65 60.97 60.98 60.91 60.56 61.45 62.42 62.78 63.85
50.18 49.88 53.03 56.54 52.50 51.04 47.21 46.61 49.97 49.01 46.21 51.63 50.83 50.95 53.48 54.05 58.18 54.31 53.40 50.05 52.49 46.77 54.74 50.72 49.13 53.52 58.51 58.54 58.69 59.65 60.96 60.41 60.29 61.39 60.39 60.54 60.70 61.40 61.88 61.34 61.77 62.53 63.44 64.15
51.70 48.86 47.33 49.94 50.71 41.81 43.40 42.46 45.85 47.40 51.44 52.38 52.16 51.01 53.95 54.71 56.35 53.21 50.34 46.92 47.86 54.76 49.61 48.32 51.32 56.57 58.15 59.15 59.21 59.05 60.71 60.61 60.62 60.48 60.90 61.61 61.23 61.57 61.48 61.66 62.68 63.09 63.57 64.53
46.41 44.87 40.90 44.80 43.69 46.52 48.00 48.11 48.39 51.56 52.78 53.74 53.15 51.28 51.76 53.04 51.25 50.92 45.46 50.00 50.77 46.33 45.90 47.10 52.27 58.68 59.16 59.97 59.83 59.77 59.69 60.53 60.69 60.40 60.75 61.53 61.81 61.38 61.86 62.37 63.17 63.02 63.32 63.95
45.03 46.13 39.73 43.32 50.00 50.89 51.66 53.02 52.83 54.39 56.43 55.01 53.12 52.96 53.50 51.18 48.87 49.64 49.04 44.92 42.79 46.66 46.91 52.38 56.27 60.24 60.83 60.91 61.04 60.66 60.47 60.52 60.61 61.14 61.24 61.32 62.35 61.71 61.71 62.73 63.27 63.67 63.69 63.53
46.72 46.68 45.68 50.29 49.30 48.63 50.41 51.30 51.23 55.10 56.03 54.61 54.07 49.46 47.42 46.57 48.05 46.45 45.03 44.26 44.34 48.72 53.02 56.32 59.24 60.71 61.47 61.92 61.92 61.66 61.46 61.25 61.09 61.26 61.97 62.11 62.46 62.29 62.93 63.54 63.65 63.83 63.85 63.39
45.84 47.26 50.91 50.30 50.46 50.33 51.72 53.85 53.48 58.52 53.39 47.80 49.27 45.07 45.36 49.88 46.45 45.18 48.61 47.11 50.06 53.50 55.52 57.67 61.59 61.58 62.35 62.60 62.54 62.92 62.13 61.97 61.95 62.96 64.24 63.44 63.59 63.67 63.21 62.72 63.75 64.14 64.46 64.94